# Wetter Temperatur Luftdruck Luftfeuchtigkeit Sichtweite Windgeschwindigkeit Windrichtung Zeit
1 Haze 38 1009 16 4000 1.03 90 11:50 22.04.2021
2 Haze 37 1010 16 4000 1.03 230 11:27 22.04.2021
3 Haze 37 1010 18 5000 2.06 330 10:48 22.04.2021
4 Haze 37 1010 18 5000 2.57 120 10:30 22.04.2021
5 Haze 35 1011 20 5000 0.81 321 09:59 22.04.2021
6 Haze 36 1012 20 5000 2.57 350 09:34 22.04.2021
7 Haze 35 1013 26 5000 1.54 240 08:48 22.04.2021
8 Haze 35 1013 26 5000 1.54 240 08:23 22.04.2021
9 Haze 34 1013 31 5000 1.54 30 07:49 22.04.2021
10 Haze 33 1013 35 5000 1.03 110 07:30 22.04.2021
11 Haze 31 1014 42 5000 3.09 130 06:43 22.04.2021
12 Haze 31 1013 42 5000 2.57 120 05:54 22.04.2021
13 Haze 30 1013 45 5000 2.57 120 05:20 22.04.2021
14 Haze 25 1011 57 3000 1.03 310 01:58 22.04.2021
15 Haze 26 1010 53 3000 1.03 210 23:55 21.04.2021
16 Haze 27 1011 50 3000 1.54 240 23:37 21.04.2021
17 Haze 27 1011 50 3000 2.06 300 22:48 21.04.2021
18 Haze 27 1011 50 3000 2.06 300 22:25 21.04.2021
19 Haze 28 1011 47 3000 2.57 190 21:59 21.04.2021
20 Haze 28 1011 47 3000 2.57 190 21:40 21.04.2021
21 Haze 28 1011 47 3000 2.57 190 21:19 21.04.2021
22 Haze 28 1011 47 3000 1.54 220 20:24 21.04.2021
23 Haze 29 1011 32 3000 1.03 110 19:46 21.04.2021
24 Haze 29 1011 32 3000 1.03 110 19:27 21.04.2021
25 Haze 30 1011 28 3000 1.03 140 18:51 21.04.2021
26 Haze 29 1010 32 3000 1.03 140 18:33 21.04.2021
27 Haze 29 1010 32 3000 1.03 150 17:58 21.04.2021
28 Haze 30 1010 30 3000 1.03 80 17:39 21.04.2021
29 Haze 30 1010 30 3000 1.03 80 17:20 21.04.2021
30 Haze 31 1009 27 3000 1.03 80 16:38 21.04.2021
31 Haze 33 1009 21 4000 1.03 340 15:46 21.04.2021
32 Haze 35 1008 17 4000 2.57 330 15:20 21.04.2021
33 Haze 36 1008 17 4000 2.57 330 14:44 21.04.2021
34 Haze 37 1008 16 4000 5.14 330 14:24 21.04.2021
35 Haze 37 1008 16 4000 1.03 30 13:49 21.04.2021
36 Haze 37 1008 16 4000 2.06 350 13:21 21.04.2021
37 Haze 38 1008 16 4000 4.12 330 12:41 21.04.2021
38 Haze 38 1008 17 4000 2.57 10 11:59 21.04.2021
39 Haze 38 1008 17 4000 2.57 10 11:41 21.04.2021
40 Haze 38 1008 17 4000 2.57 10 11:41 21.04.2021
41 Haze 38 1009 17 4000 2.57 350 11:22 21.04.2021
42 Haze 37 1009 18 4000 2.57 350 10:38 21.04.2021
43 Haze 37 1010 20 4000 2.06 10 09:56 21.04.2021
44 Haze 36 1011 23 4000 2.57 10 09:21 21.04.2021
45 Haze 36 1011 24 4000 2.06 360 08:44 21.04.2021
46 Haze 34 1011 31 4000 1.03 340 08:23 21.04.2021
47 Haze 34 1012 31 4000 2.57 360 07:50 21.04.2021
48 Haze 33 1012 38 4000 2.57 310 07:26 21.04.2021
49 Haze 31 1012 45 4000 2.57 320 05:53 21.04.2021
50 Haze 27 1010 50 3000 1.54 320 01:51 21.04.2021
51 Haze 27 1009 50 3000 3.2 198 00:20 21.04.2021
52 Haze 29 1009 45 3000 2.57 150 23:38 20.04.2021
53 Haze 28 1009 44 3000 1.54 140 22:46 20.04.2021
54 Haze 28 1009 44 3000 1.54 140 22:23 20.04.2021
55 Haze 29 1009 42 3000 1.03 130 21:49 20.04.2021
56 Haze 29 1009 42 3000 1.03 130 21:29 20.04.2021
57 Haze 29 1009 45 3000 2.06 120 20:59 20.04.2021
58 Haze 29 1009 45 3000 2.06 120 20:38 20.04.2021
59 Haze 29 1009 45 3000 2.06 120 20:18 20.04.2021
60 Haze 30 1009 45 3000 2.06 110 19:45 20.04.2021
61 Haze 30 1009 45 3000 2.06 110 19:27 20.04.2021
62 Haze 31 1008 40 3000 2.57 110 18:42 20.04.2021
63 Haze 31 1008 40 3000 2.57 110 18:22 20.04.2021
64 Haze 31 1007 29 3000 1.87 189 17:40 20.04.2021
65 Haze 32 1006 31 3000 1.54 140 16:50 20.04.2021
66 Haze 33 1006 31 4000 1.03 30 16:18 20.04.2021
67 Haze 34 1005 29 4000 1.54 120 15:30 20.04.2021
68 Haze 34 1005 29 4000 1.54 120 15:30 20.04.2021
69 Haze 34 1005 29 4000 1.54 120 14:59 20.04.2021
70 Haze 36 1004 30 4000 3.09 120 14:35 20.04.2021
71 Haze 39 1004 15 4000 2.57 290 13:54 20.04.2021
72 Haze 40 1004 14 4000 2.06 290 13:24 20.04.2021
73 Haze 39 1004 18 4000 2.06 160 12:44 20.04.2021
74 Haze 39 1004 18 4000 2.06 160 12:22 20.04.2021
75 Haze 39 1005 18 5000 5.66 180 11:46 20.04.2021
76 Haze 40 1005 17 5000 2.06 300 11:22 20.04.2021
77 Haze 39 1006 19 5000 2.06 30 10:44 20.04.2021
78 Haze 38 1007 22 5000 1.54 360 10:23 20.04.2021
79 Haze 38 1008 22 5000 2.06 90 09:40 20.04.2021
80 Haze 38 1008 23 4000 1.03 70 08:56 20.04.2021
81 Haze 37 1009 25 4000 1.03 60 08:29 20.04.2021
82 Haze 37 1009 25 4000 1.54 40 07:49 20.04.2021
83 Haze 35 1009 31 4000 1.54 30 06:49 20.04.2021
84 Haze 32 1009 43 3000 2.06 160 05:40 20.04.2021
85 Haze 30 1009 37 3000 0.63 113 04:42 20.04.2021
86 Haze 26 1007 47 3000 1.01 311 01:57 20.04.2021
87 Haze 27 1007 44 3000 0.6 268 00:38 20.04.2021
88 Haze 29 1007 39 3000 1.54 60 23:38 19.04.2021
89 Haze 30 1007 37 3000 1.03 50 22:58 19.04.2021
90 Haze 30 1007 37 3000 1.03 50 22:36 19.04.2021
91 Haze 30 1008 32 3000 1.03 350 21:51 19.04.2021
92 Haze 30 1008 32 3000 1.03 350 21:33 19.04.2021
93 Haze 30 1008 32 3000 1.03 280 20:55 19.04.2021
94 Haze 30 1008 32 3000 1.03 280 20:37 19.04.2021
95 Haze 30 1008 32 3000 1.03 280 20:19 19.04.2021
96 Haze 29 1008 32 3000 1.03 140 19:40 19.04.2021
97 Haze 29 1008 32 3000 1.03 140 19:22 19.04.2021
98 Haze 32 1008 27 3000 1.03 90 18:46 19.04.2021
99 Haze 32 1008 27 3000 1.03 90 18:22 19.04.2021
100 Haze 32 1008 27 3000 1.03 80 17:54 19.04.2021
101 Haze 33 1008 25 3000 1.03 80 17:29 19.04.2021
102 Haze 34 1007 24 3000 1.03 110 16:51 19.04.2021
103 Haze 34 1007 24 4000 1.54 100 16:33 19.04.2021
104 Haze 34 1007 24 4000 1.54 100 16:33 19.04.2021
105 Haze 35 1006 21 4000 2.06 90 15:52 19.04.2021
106 Haze 36 1006 20 4000 2.06 80 15:29 19.04.2021
107 Haze 36 1006 19 4000 1.54 90 14:53 19.04.2021
108 Haze 38 1005 15 4000 1.54 60 14:35 19.04.2021
109 Haze 39 1005 13 4000 1.03 20 13:54 19.04.2021
110 Haze 39 1005 12 4000 2.06 330 13:30 19.04.2021
111 Haze 40 1006 12 4000 1.03 120 12:56 19.04.2021
112 Haze 40 1006 13 4000 1.54 70 12:36 19.04.2021
113 Haze 40 1006 13 4000 1.54 70 12:18 19.04.2021
114 Haze 39 1006 14 4000 2.06 60 11:49 19.04.2021
115 Haze 39 1007 14 4000 2.06 20 11:20 19.04.2021
116 Haze 39 1008 15 4000 2.06 80 10:44 19.04.2021
117 Haze 39 1008 14 4000 2.06 130 10:20 19.04.2021
118 Haze 38 1009 17 4000 2.06 20 09:43 19.04.2021
119 Haze 38 1009 18 4000 1.54 10 09:24 19.04.2021
120 Haze 37 1010 22 4000 1.54 50 08:37 19.04.2021
121 Haze 36 1011 21 3000 1.54 30 07:50 19.04.2021
122 Haze 35 1011 23 3000 2.06 30 07:24 19.04.2021
123 Haze 35 1011 21 3000 1.03 360 06:52 19.04.2021
124 Haze 31 1011 27 3000 1.03 140 04:47 19.04.2021
125 Haze 28 1009 30 3000 1.54 20 01:49 19.04.2021
126 Haze 27 1008 36 3000 1.03 340 00:42 19.04.2021
127 Haze 27 1009 34 3000 1.03 340 23:21 18.04.2021
128 Haze 28 1009 34 3000 2.61 39 22:58 18.04.2021
129 Haze 28 1009 34 3000 2.61 39 22:34 18.04.2021
130 Haze 33 1010 22 3000 1.54 160 21:56 18.04.2021
131 Haze 33 1010 22 3000 1.54 160 21:28 18.04.2021
132 Haze 31 1010 23 3000 1.54 10 20:44 18.04.2021
133 Haze 31 1010 23 3000 1.54 10 20:25 18.04.2021
134 Haze 32 1011 22 3000 1.03 30 19:57 18.04.2021
135 Haze 32 1011 22 3000 1.03 30 19:38 18.04.2021
136 Haze 32 1011 22 3000 1.03 30 19:18 18.04.2021
137 Haze 31 1010 25 3000 2.06 300 18:44 18.04.2021
138 Haze 32 1010 22 3000 1.03 330 18:25 18.04.2021
139 Haze 33 1010 25 3000 2.06 320 17:45 18.04.2021
140 Haze 32 1010 23 3000 1.54 30 17:27 18.04.2021
141 Haze 33 1009 19 3000 3.29 329 16:45 18.04.2021
142 Haze 33 1009 21 4000 1.03 50 16:24 18.04.2021
143 Haze 35 1009 15 4000 1.03 220 15:43 18.04.2021
144 Haze 37 1008 14 4000 4.86 318 15:25 18.04.2021
145 Haze 38 1008 14 5000 1.03 50 14:46 18.04.2021
146 Haze 39 1008 12 5000 2.06 10 14:21 18.04.2021
147 Haze 39 1008 10 5000 2.06 340 13:55 18.04.2021
148 Haze 40 1008 11 5000 4.63 320 13:33 18.04.2021
149 Haze 39 1008 12 5000 4.12 320 12:50 18.04.2021
150 Haze 39 1008 12 5000 4.12 300 12:24 18.04.2021
151 Haze 39 1009 11 5000 1.03 260 11:41 18.04.2021
152 Haze 39 1009 11 5000 1.03 260 11:20 18.04.2021
153 Haze 39 1010 13 5000 2.06 10 10:47 18.04.2021
154 Haze 40 1011 12 5000 3.09 170 10:22 18.04.2021
155 Haze 39 1011 12 5000 2.06 360 09:47 18.04.2021
156 Haze 39 1012 14 5000 1.54 80 09:28 18.04.2021
157 Haze 38 1013 14 5000 1.67 329 08:54 18.04.2021
158 Haze 37 1013 15 5000 1.54 40 08:29 18.04.2021
159 Haze 37 1013 16 5000 2.06 40 07:53 18.04.2021
160 Haze 36 1014 17 5000 1.54 50 07:35 18.04.2021
161 Haze 33 1014 22 5000 1.03 50 05:39 18.04.2021
162 Haze 32 1014 25 5000 2.4 18 05:21 18.04.2021
163 Haze 23 1011 40 3000 1.03 200 02:24 18.04.2021
164 Haze 23 1011 40 3000 1.03 170 01:41 18.04.2021
165 Haze 25 1010 38 3000 1.03 330 00:29 18.04.2021
166 Haze 25 1010 38 3000 1.03 330 23:30 17.04.2021
167 Haze 25 1010 33 3000 1.03 60 22:49 17.04.2021
168 Haze 25 1010 33 3000 1.03 60 22:49 17.04.2021
169 Haze 25 1010 33 3000 1.03 60 22:29 17.04.2021
170 Haze 27 1011 28 3000 1.03 320 21:45 17.04.2021
171 Haze 27 1011 28 3000 1.03 320 21:24 17.04.2021
172 Haze 27 1011 29 3000 1.03 210 20:41 17.04.2021
173 Haze 27 1011 29 3000 1.03 210 20:23 17.04.2021
174 Haze 30 1012 23 3000 1.03 300 19:42 17.04.2021
175 Haze 30 1012 23 3000 1.03 300 19:20 17.04.2021
176 Haze 31 1012 22 3000 1.54 330 18:49 17.04.2021
177 Haze 33 1011 19 3000 1.03 350 18:23 17.04.2021
178 Haze 33 1011 19 3000 1.54 340 17:42 17.04.2021
179 Haze 33 1010 19 3000 2.57 330 16:58 17.04.2021
180 Haze 33 1010 18 4000 3.09 320 16:39 17.04.2021
181 Haze 33 1010 18 4000 3.09 320 16:19 17.04.2021
182 Haze 36 1009 14 4000 2.57 310 15:22 17.04.2021
183 Haze 37 1008 13 4000 3.6 300 14:43 17.04.2021
184 Haze 38 1008 14 4000 3.09 320 14:19 17.04.2021
185 Haze 38 1008 14 4000 3.09 320 13:42 17.04.2021
186 Haze 38 1008 13 4000 1.54 320 12:48 17.04.2021
187 Haze 39 1009 12 4000 2.06 300 12:23 17.04.2021
188 Haze 38 1009 14 4000 1.54 40 11:51 17.04.2021
189 Haze 39 1009 12 4000 2.06 90 11:32 17.04.2021
190 Haze 39 1009 12 4000 2.06 90 11:32 17.04.2021
191 Haze 38 1010 13 5000 2.06 110 10:48 17.04.2021
192 Haze 38 1010 13 5000 2.06 270 10:29 17.04.2021
193 Haze 38 1011 14 5000 2.06 120 09:46 17.04.2021
194 Haze 37 1012 14 5000 2.06 30 08:54 17.04.2021
195 Haze 36 1013 15 5000 1.03 340 08:28 17.04.2021
196 Haze 36 1013 15 4000 1.03 30 07:45 17.04.2021
197 Haze 29 1012 28 3000 2.06 140 04:51 17.04.2021
198 Haze 25 1011 36 3000 2.2 244 03:40 17.04.2021
199 Haze 24 1009 33 3000 0.93 231 00:55 17.04.2021
200 Haze 24 1009 33 3000 0.93 231 00:30 17.04.2021
201 Haze 24 1009 33 3000 0.93 231 00:30 17.04.2021
202 Haze 25 1009 31 3000 1.03 140 23:58 16.04.2021
203 Haze 25 1009 31 3000 1.03 140 23:33 16.04.2021
204 Clear 30 1007 26 10000 2.39 214 22:51 16.04.2021
205 Haze 28 1010 24 3000 1.54 270 22:22 16.04.2021
206 Haze 28 1010 24 3000 1.54 270 21:56 16.04.2021
207 Haze 28 1010 24 3000 1.54 270 21:38 16.04.2021
208 Haze 28 1010 24 3000 1.03 300 20:55 16.04.2021
209 Haze 28 1010 24 3000 1.03 300 20:35 16.04.2021
210 Haze 29 1010 23 3000 1.03 290 19:56 16.04.2021
211 Haze 29 1010 23 3000 1.03 290 19:37 16.04.2021
212 Haze 30 1010 21 3000 1.03 250 18:49 16.04.2021
213 Haze 31 1009 20 3000 1.54 130 18:23 16.04.2021
214 Haze 31 1009 20 3000 2.06 130 17:47 16.04.2021
215 Haze 31 1009 20 3000 2.57 140 17:47 16.04.2021
216 Haze 31 1009 20 3000 2.57 140 17:19 16.04.2021
217 Haze 31 1009 20 3000 2.57 140 17:19 16.04.2021
218 Haze 32 1008 18 3000 2.06 160 16:44 16.04.2021
219 Haze 33 1008 17 4000 2.06 120 16:26 16.04.2021
220 Haze 33 1008 18 4000 2.06 120 15:52 16.04.2021
221 Haze 34 1008 17 4000 1.54 120 15:28 16.04.2021
222 Haze 37 1007 12 4000 1.54 110 14:43 16.04.2021
223 Haze 37 1007 12 4000 1.54 110 14:20 16.04.2021
224 Haze 37 1007 12 4000 1.03 90 13:54 16.04.2021
225 Haze 38 1007 12 5000 2.06 140 13:21 16.04.2021
226 Haze 38 1008 12 5000 1.54 80 12:51 16.04.2021
227 Haze 38 1008 12 5000 1.54 130 12:29 16.04.2021
228 Haze 38 1008 13 5000 1.54 50 11:58 16.04.2021
229 Haze 38 1008 13 5000 1.54 80 11:27 16.04.2021
230 Haze 38 1009 14 5000 1.54 40 10:56 16.04.2021
231 Haze 38 1009 14 5000 1.54 40 10:37 16.04.2021
232 Haze 37 1009 13 5000 2.06 250 10:19 16.04.2021
233 Haze 37 1010 13 5000 2.06 350 09:43 16.04.2021
234 Haze 37 1010 14 5000 1.54 290 09:20 16.04.2021
235 Haze 35 1012 15 5000 1.54 330 08:41 16.04.2021
236 Haze 35 1012 15 5000 1.54 330 08:18 16.04.2021
237 Haze 34 1012 17 5000 2.57 200 07:36 16.04.2021
238 Haze 33 1013 18 5000 2.57 220 06:59 16.04.2021
239 Haze 32 1013 20 5000 1.03 120 06:18 16.04.2021
240 Haze 25 1012 41 5000 0.94 210 04:22 16.04.2021
241 Haze 22 1009 46 3000 1.54 350 00:59 16.04.2021
242 Haze 22 1009 46 3000 1.54 350 00:41 16.04.2021
243 Haze 22 1009 46 3000 1.54 350 00:19 16.04.2021
244 Haze 22 1010 46 3000 1.54 320 23:41 15.04.2021
245 Haze 22 1010 46 3000 1.54 320 23:23 15.04.2021
246 Haze 22 1010 46 3000 1.54 320 23:23 15.04.2021
247 Haze 23 1010 40 3000 1.54 320 22:40 15.04.2021
248 Haze 23 1010 40 3000 1.54 320 22:21 15.04.2021
249 Haze 23 1010 43 3000 1.03 300 21:42 15.04.2021
250 Haze 23 1010 43 3000 1.03 300 21:20 15.04.2021
251 Haze 23 1011 43 3000 2.06 260 20:44 15.04.2021
252 Haze 23 1011 43 3000 2.06 260 20:44 15.04.2021
253 Haze 23 1011 43 3000 2.06 260 20:24 15.04.2021
254 Haze 23 1011 43 3000 1.03 290 19:44 15.04.2021
255 Haze 23 1011 43 3000 1.03 290 19:26 15.04.2021
256 Haze 24 1011 41 3000 1.03 250 18:43 15.04.2021
257 Haze 24 1011 41 3000 1.03 250 18:21 15.04.2021
258 Haze 25 1011 38 3000 1.03 300 17:55 15.04.2021
259 Haze 27 1010 32 3000 1.03 320 17:36 15.04.2021
260 Haze 27 1010 32 3000 1.03 320 17:36 15.04.2021
261 Haze 27 1010 32 3000 1.03 320 16:58 15.04.2021
262 Haze 29 1010 28 3000 1.03 10 16:40 15.04.2021
263 Haze 29 1010 28 3000 1.03 10 16:21 15.04.2021
264 Haze 29 1010 26 3000 1.54 10 15:45 15.04.2021
265 Haze 30 1010 25 3000 1.54 40 15:25 15.04.2021
266 Haze 32 1009 20 4000 2.06 30 14:41 15.04.2021
267 Haze 32 1009 20 4000 2.06 30 14:22 15.04.2021
268 Haze 32 1010 22 4000 2.06 40 13:42 15.04.2021
269 Haze 32 1010 22 4000 2.06 40 13:18 15.04.2021
270 Haze 32 1010 23 4000 3.09 360 12:40 15.04.2021
271 Haze 34 1010 18 4000 3.09 60 12:21 15.04.2021
272 Haze 34 1010 18 4000 3.09 60 12:21 15.04.2021
273 Haze 33 1011 19 4000 3.09 50 11:45 15.04.2021
274 Haze 33 1011 19 4000 2.57 50 11:23 15.04.2021
275 Haze 31 1012 22 4000 2.57 50 10:50 15.04.2021
276 Haze 32 1012 23 4000 3.09 10 10:27 15.04.2021
277 Haze 31 1013 25 4000 5.14 20 09:48 15.04.2021
278 Haze 31 1013 27 4000 4.12 20 09:23 15.04.2021
279 Clouds 31 1014 29 4000 2.06 20 08:47 15.04.2021
280 Haze 28 1014 36 4000 2.06 40 07:53 15.04.2021
281 Haze 28 1014 36 4000 2.06 50 07:24 15.04.2021
282 Haze 29 1014 37 4000 3.09 90 06:40 15.04.2021
283 Haze 29 1014 37 4000 3.09 90 06:21 15.04.2021
284 Haze 26 1013 41 4000 1.54 0 04:51 15.04.2021
285 Haze 25 1011 41 3000 3.6 260 01:24 15.04.2021
286 Haze 27 1011 34 3000 3.6 220 23:42 14.04.2021
287 Haze 27 1011 34 3000 3.6 220 23:22 14.04.2021
288 Haze 28 1011 28 3000 1.03 330 22:46 14.04.2021
289 Haze 28 1011 28 3000 1.03 330 22:25 14.04.2021
290 Haze 26 1013 36 2500 1.98 230 21:47 14.04.2021
291 Haze 26 1013 36 2500 2.26 278 21:28 14.04.2021
292 Haze 25 1013 47 2500 10.29 290 20:56 14.04.2021
293 Haze 25 1013 47 2500 10.29 290 20:34 14.04.2021
294 Clouds 24 1013 50 2500 10.29 300 19:53 14.04.2021
295 Clouds 22 1014 64 2500 12.86 310 19:20 14.04.2021
296 Clouds 23 1017 60 2500 10.29 320 18:57 14.04.2021
297 Clouds 27 1016 41 2500 7.72 300 18:22 14.04.2021
298 Rain 28 1013 34 2500 7.72 340 17:58 14.04.2021
299 Rain 29 1012 32 2500 5.14 340 17:28 14.04.2021
300 Rain 29 1012 32 2500 5.14 340 16:54 14.04.2021
301 Rain 30 1011 28 2500 5.14 350 16:27 14.04.2021
302 Rain 33 1010 22 2000 6.69 350 15:44 14.04.2021
303 Rain 33 1009 24 3500 4.03 147 15:26 14.04.2021
304 Haze 34 1008 20 3500 1.54 180 14:51 14.04.2021
305 Haze 37 1008 16 5000 4.12 160 14:27 14.04.2021
306 Haze 37 1008 16 5000 4.12 160 13:59 14.04.2021
307 Haze 37 1008 16 5000 4.12 160 13:37 14.04.2021
308 Haze 38 1009 17 5000 2.57 210 12:40 14.04.2021
309 Haze 37 1009 18 5000 1.54 0 11:44 14.04.2021
310 Haze 37 1010 20 5000 4.12 190 11:25 14.04.2021
311 Haze 37 1011 20 5000 2.57 210 10:56 14.04.2021
312 Haze 37 1011 22 5000 4.12 230 10:33 14.04.2021
313 Haze 36 1013 24 5000 4.12 230 09:43 14.04.2021
314 Haze 36 1013 24 5000 4.12 230 09:21 14.04.2021
315 Haze 34 1013 27 5000 4.12 220 08:47 14.04.2021
316 Haze 34 1014 29 5000 4.12 240 08:22 14.04.2021
317 Haze 33 1015 29 5000 5.66 240 07:26 14.04.2021
318 Haze 32 1015 29 5000 4.12 230 06:26 14.04.2021
319 Haze 31 1014 30 5000 4.63 240 05:23 14.04.2021
320 Haze 25 1011 41 3000 3.09 150 01:54 14.04.2021
321 Haze 25 1011 44 3000 3.6 150 00:49 14.04.2021
322 Haze 25 1011 44 3000 3.6 150 00:25 14.04.2021
323 Haze 28 1011 36 3000 1.54 360 23:31 13.04.2021
324 Haze 27 1011 36 3000 1.54 50 22:44 13.04.2021
325 Haze 27 1011 36 3000 1.54 50 22:20 13.04.2021
326 Haze 28 1011 34 3000 1.54 320 21:48 13.04.2021
327 Haze 28 1011 34 3000 1.54 320 21:29 13.04.2021
328 Haze 30 1012 30 3000 2.06 300 20:48 13.04.2021
329 Haze 30 1012 30 3000 2.06 300 20:24 13.04.2021
330 Haze 30 1012 30 3000 1.54 290 19:56 13.04.2021
331 Haze 30 1012 30 3000 1.54 290 19:25 13.04.2021
332 Haze 29 1012 30 3000 1.54 230 18:46 13.04.2021
333 Haze 30 1012 28 4000 2.57 240 18:28 13.04.2021
334 Haze 31 1012 25 4000 2.57 240 17:40 13.04.2021
335 Haze 31 1011 27 4000 2.06 210 17:18 13.04.2021
336 Haze 32 1011 25 4000 2.06 190 16:45 13.04.2021
337 Haze 33 1011 24 4000 3.09 200 16:25 13.04.2021
338 Haze 34 1010 16 4000 1.54 120 15:53 13.04.2021
339 Haze 34 1009 16 4000 2.06 90 15:34 13.04.2021
340 Haze 34 1009 16 4000 2.06 90 15:34 13.04.2021
341 Haze 36 1009 15 4000 1.54 130 14:47 13.04.2021
342 Haze 37 1009 13 4000 1.21 102 14:22 13.04.2021
343 Haze 38 1009 13 4000 1.03 70 13:45 13.04.2021
344 Haze 38 1009 12 4000 2.57 70 13:25 13.04.2021
345 Haze 39 1009 11 4000 2.06 340 12:58 13.04.2021
346 Haze 39 1010 10 5000 1.54 340 12:31 13.04.2021
347 Haze 38 1010 11 5000 1.54 80 11:58 13.04.2021
348 Haze 38 1011 12 5000 1.54 130 11:31 13.04.2021
349 Haze 38 1011 12 5000 1.54 130 11:31 13.04.2021
350 Haze 37 1011 11 5000 2.06 80 10:55 13.04.2021
351 Haze 38 1012 14 5000 2.57 90 10:24 13.04.2021
352 Haze 38 1013 16 5000 3.6 60 09:59 13.04.2021
353 Haze 38 1013 16 5000 3.6 60 09:39 13.04.2021
354 Haze 37 1014 23 5000 2.57 60 09:18 13.04.2021
355 Haze 37 1014 23 5000 1.03 350 08:41 13.04.2021
356 Haze 37 1014 23 5000 1.03 350 08:41 13.04.2021
357 Haze 36 1015 26 5000 2.57 80 08:20 13.04.2021
358 Haze 35 1015 29 5000 1.54 280 07:36 13.04.2021
359 Haze 32 1016 40 4000 3.09 220 06:31 13.04.2021
360 Haze 28 1015 47 3000 1.54 210 04:50 13.04.2021
361 Haze 23 1013 60 3000 1.03 20 02:37 13.04.2021
362 Haze 25 1012 50 3000 1.54 320 00:33 13.04.2021
363 Haze 25 1013 50 3000 1.03 120 23:49 12.04.2021
364 Haze 25 1013 50 3000 1.03 120 23:26 12.04.2021
365 Haze 26 1012 47 3000 2.65 295 22:39 12.04.2021
366 Haze 26 1012 47 3000 2.43 268 22:18 12.04.2021
367 Haze 27 1013 47 3000 2.43 268 21:45 12.04.2021
368 Haze 27 1013 47 3000 1.86 231 21:19 12.04.2021
369 Haze 27 1013 47 3000 1.03 340 20:41 12.04.2021
370 Haze 27 1013 47 3000 1.03 340 20:22 12.04.2021
371 Haze 26 1013 50 3000 2.73 204 19:55 12.04.2021
372 Haze 26 1013 50 3000 2.73 204 19:36 12.04.2021
373 Haze 26 1013 50 3000 2.47 192 19:18 12.04.2021
374 Haze 27 1013 44 3000 1.03 160 18:42 12.04.2021
375 Haze 27 1013 44 3000 1.03 160 18:42 12.04.2021
376 Haze 27 1013 44 3000 1.03 160 18:24 12.04.2021
377 Haze 29 1013 42 3000 1.03 30 17:43 12.04.2021
378 Haze 29 1012 37 3000 1.8 292 17:23 12.04.2021
379 Haze 29 1012 34 3000 1.8 292 16:47 12.04.2021
380 Haze 30 1011 35 3000 3.5 296 16:27 12.04.2021
381 Haze 30 1011 35 3000 3.47 297 16:27 12.04.2021
382 Haze 31 1011 30 3000 1.03 90 15:48 12.04.2021
383 Haze 33 1011 27 3000 1.03 90 15:27 12.04.2021
384 Haze 35 1010 26 4000 1.03 60 14:50 12.04.2021
385 Haze 36 1010 23 4000 1.03 60 14:30 12.04.2021
386 Haze 36 1010 23 4000 1.03 60 14:30 12.04.2021
387 Haze 37 1011 20 5000 1.03 20 13:46 12.04.2021
388 Haze 37 1011 20 5000 1.03 20 13:27 12.04.2021
389 Haze 37 1011 20 5000 2.06 20 12:48 12.04.2021
390 Haze 37 1011 22 5000 1.03 20 12:26 12.04.2021
391 Haze 37 1012 22 5000 1.03 20 11:59 12.04.2021
392 Haze 36 1012 21 5000 2.06 20 11:20 12.04.2021
393 Haze 36 1013 21 5000 2.06 90 10:43 12.04.2021
394 Haze 35 1013 23 5000 1.54 340 10:23 12.04.2021
395 Haze 34 1015 24 5000 1.54 300 09:46 12.04.2021
396 Haze 34 1015 24 5000 1.54 300 09:18 12.04.2021
397 Haze 34 1015 24 5000 1.54 260 08:36 12.04.2021
398 Haze 32 1017 27 5000 2.71 181 07:40 12.04.2021
399 Haze 32 1017 27 5000 3.11 176 07:20 12.04.2021
400 Haze 30 1017 28 5000 1.54 70 05:52 12.04.2021
401 Haze 26 1016 38 5000 2.53 149 04:48 12.04.2021
402 Haze 25 1014 38 3000 3.09 20 01:31 12.04.2021
403 Haze 26 1014 38 3000 3.6 10 00:25 12.04.2021
404 Haze 27 1014 39 3000 2.06 20 23:48 11.04.2021
405 Haze 27 1014 39 3000 2.06 20 23:27 11.04.2021
406 Haze 24 1013 60 3000 1.03 40 22:46 11.04.2021
407 Haze 24 1013 60 3000 1.03 40 22:25 11.04.2021
408 Haze 25 1013 57 3000 1.6 176 21:49 11.04.2021
409 Haze 25 1013 57 3000 1.6 176 21:30 11.04.2021
410 Haze 26 1014 57 3000 1.54 180 20:57 11.04.2021
411 Haze 26 1014 57 3000 1.54 180 20:30 11.04.2021
412 Haze 26 1014 57 3000 1.54 200 19:56 11.04.2021
413 Haze 28 1014 47 3000 1.54 130 19:37 11.04.2021
414 Haze 28 1014 47 3000 1.54 130 19:19 11.04.2021
415 Haze 29 1014 48 3000 1.54 80 18:43 11.04.2021
416 Haze 29 1014 48 3000 1.54 80 18:24 11.04.2021
417 Haze 29 1013 45 3000 1.54 80 17:46 11.04.2021
418 Haze 29 1013 45 3000 3.09 330 17:28 11.04.2021
419 Haze 28 1013 47 3000 1.03 80 16:51 11.04.2021
420 Haze 30 1012 42 4000 1.03 110 16:23 11.04.2021
421 Haze 30 1012 42 4000 1.03 110 15:57 11.04.2021
422 Haze 35 1011 31 4000 2.06 170 15:38 11.04.2021
423 Haze 35 1011 31 4000 2.06 170 15:19 11.04.2021
424 Haze 35 1011 28 4000 1.03 150 14:46 11.04.2021
425 Haze 35 1011 24 4000 1.54 310 13:53 11.04.2021
426 Haze 35 1011 24 4000 1.54 290 13:31 11.04.2021
427 Haze 35 1011 24 4000 2.57 330 12:54 11.04.2021
428 Haze 35 1011 24 4000 2.57 330 12:54 11.04.2021
429 Haze 35 1011 26 4000 2.57 300 12:22 11.04.2021
430 Haze 35 1012 26 4000 2.57 320 11:52 11.04.2021
431 Haze 35 1012 28 4000 3.6 280 11:27 11.04.2021
432 Haze 35 1012 29 4000 2.57 240 10:50 11.04.2021
433 Haze 33 1013 33 4000 2.06 250 10:31 11.04.2021
434 Haze 33 1014 33 3000 3.6 270 09:59 11.04.2021
435 Haze 33 1014 33 3000 3.6 270 09:35 11.04.2021
436 Haze 29 1015 42 3000 1.54 260 08:59 11.04.2021
437 Haze 29 1016 42 3000 2.57 220 08:26 11.04.2021
438 Haze 28 1016 47 3000 1.54 230 07:24 11.04.2021
439 Haze 27 1016 50 3000 1.54 280 06:54 11.04.2021
440 Haze 26 1015 53 3000 1.54 230 05:43 11.04.2021
441 Haze 26 1015 53 3000 1.54 230 05:21 11.04.2021
442 Haze 26 1015 53 3000 2.06 300 04:34 11.04.2021
443 Haze 24 1013 60 2000 1.23 201 01:57 11.04.2021
444 Haze 23 1014 64 2000 2.43 195 00:39 11.04.2021
445 Haze 25 1013 57 2000 1.54 280 23:49 10.04.2021
446 Haze 25 1013 57 2000 1.54 280 23:26 10.04.2021
447 Haze 26 1013 50 2000 5.14 150 22:43 10.04.2021
448 Haze 26 1013 50 2000 5.14 150 22:21 10.04.2021
449 Haze 25 1012 61 2000 2.06 140 21:41 10.04.2021
450 Haze 25 1012 61 2000 2.06 140 21:21 10.04.2021
451 Rain 24 1013 64 2000 8.75 180 20:46 10.04.2021
452 Clouds 24 1013 64 2000 8.75 180 20:24 10.04.2021
453 Clouds 28 1013 39 2500 2.06 180 19:45 10.04.2021
454 Haze 28 1012 39 2500 3.6 220 19:26 10.04.2021
455 Haze 28 1012 39 2500 1.03 40 18:52 10.04.2021
456 Haze 29 1012 34 2500 1.54 50 18:31 10.04.2021
457 Haze 29 1012 34 2500 1.54 50 18:30 10.04.2021
458 Haze 29 1012 37 2500 2.57 40 17:40 10.04.2021
459 Haze 29 1012 37 2500 2.57 30 17:20 10.04.2021
460 Haze 28 1011 42 2500 5.14 40 16:30 10.04.2021
461 Clouds 27 1011 47 1500 5.14 10 15:55 10.04.2021
462 Clouds 31 1011 37 100 7.72 360 15:29 10.04.2021
463 Haze 37 1008 20 3000 4.88 193 14:45 10.04.2021
464 Haze 38 1008 19 3000 2.06 150 14:19 10.04.2021
465 Haze 38 1008 19 4000 2.06 180 13:43 10.04.2021
466 Haze 38 1008 18 4000 3.09 190 12:54 10.04.2021
467 Haze 38 1008 20 4000 3.6 200 12:29 10.04.2021
468 Haze 38 1009 19 5000 3.6 200 11:50 10.04.2021
469 Haze 38 1010 19 5000 2.57 200 11:26 10.04.2021
470 Haze 37 1010 23 5000 3.09 220 10:52 10.04.2021
471 Haze 37 1011 26 5000 1.54 310 10:31 10.04.2021
472 Haze 36 1011 30 5000 3.09 200 09:50 10.04.2021
473 Haze 35 1012 31 5000 4.12 200 09:23 10.04.2021
474 Haze 35 1013 34 5000 4.63 180 08:49 10.04.2021
475 Haze 34 1013 36 5000 5.66 160 08:29 10.04.2021
476 Haze 34 1013 36 5000 5.66 160 08:29 10.04.2021
477 Haze 33 1014 38 5000 4.12 130 07:40 10.04.2021
478 Haze 33 1014 38 5000 4.12 130 07:21 10.04.2021
479 Haze 31 1014 40 5000 4.12 120 06:24 10.04.2021
480 Haze 26 1013 50 4000 2.06 90 04:25 10.04.2021
481 Haze 25 1011 53 3000 2.57 90 02:51 10.04.2021
482 Haze 25 1011 53 3000 2.57 90 02:33 10.04.2021
483 Haze 24 1010 57 3000 1.03 50 00:44 10.04.2021
484 Haze 24 1010 57 3000 1.03 50 00:25 10.04.2021
485 Haze 25 1010 53 3000 1.03 20 23:41 09.04.2021
486 Haze 26 1010 47 3000 1.03 150 22:59 09.04.2021
487 Haze 26 1010 47 3000 1.03 150 22:38 09.04.2021
488 Haze 27 1010 44 3000 1.03 140 21:56 09.04.2021
489 Haze 27 1010 44 3000 1.03 140 21:38 09.04.2021
490 Haze 27 1010 44 3000 1.03 140 21:18 09.04.2021
491 Haze 28 1010 39 3000 1.54 130 20:42 09.04.2021
492 Haze 28 1010 39 3000 1.54 130 20:22 09.04.2021
493 Haze 28 1010 39 3000 1.54 130 20:22 09.04.2021
494 Haze 29 1010 34 3000 1.54 110 19:44 09.04.2021
495 Haze 29 1010 34 3000 1.54 110 19:23 09.04.2021
496 Haze 29 1010 32 3000 1.54 110 18:51 09.04.2021
497 Haze 30 1009 30 3000 2.06 170 18:31 09.04.2021
498 Haze 30 1009 32 3000 1.54 150 17:54 09.04.2021
499 Haze 30 1009 32 3000 1.54 150 17:34 09.04.2021
500 Haze 32 1008 27 3000 2.06 160 16:55 09.04.2021
501 Haze 33 1008 24 3000 2.57 140 16:32 09.04.2021
502 Haze 33 1007 22 3000 3.09 140 15:50 09.04.2021
503 Haze 34 1007 20 3000 1.54 120 15:26 09.04.2021
504 Haze 35 1007 17 3000 1.54 120 14:51 09.04.2021
505 Haze 36 1006 15 3000 1.54 120 14:30 09.04.2021
506 Haze 37 1006 15 3000 4.12 140 13:51 09.04.2021
507 Haze 38 1006 14 3000 2.57 200 13:23 09.04.2021
508 Haze 38 1006 15 3000 2.57 180 12:49 09.04.2021
509 Haze 38 1007 15 3000 2.57 180 12:30 09.04.2021
510 Haze 37 1007 15 3000 3.6 150 11:44 09.04.2021
511 Haze 37 1008 16 3000 4.12 160 11:21 09.04.2021
512 Haze 36 1008 19 3000 2.06 160 10:45 09.04.2021
513 Haze 33 1009 33 3500 2.57 140 10:18 09.04.2021
514 Haze 33 1010 33 3500 2.57 170 09:29 09.04.2021
515 Haze 33 1011 33 4000 1.03 170 08:56 09.04.2021
516 Haze 32 1011 35 4000 1.03 90 08:37 09.04.2021
517 Haze 32 1011 35 4000 1.03 160 07:35 09.04.2021
518 Haze 30 1011 37 3000 1.03 260 06:34 09.04.2021
519 Haze 29 1011 39 3000 1.03 280 05:47 09.04.2021
520 Haze 27 1009 44 3000 1.03 130 03:48 09.04.2021
521 Haze 28 1008 39 3000 1.54 110 00:40 09.04.2021
522 Haze 28 1008 39 3000 1.54 110 00:22 09.04.2021
523 Haze 28 1008 39 3000 1.54 110 23:57 08.04.2021
524 Haze 29 1008 37 3000 1.03 110 22:58 08.04.2021
525 Haze 29 1008 37 3000 1.03 110 22:40 08.04.2021
526 Haze 29 1008 37 3000 1.03 110 22:20 08.04.2021
527 Haze 30 1009 35 3000 2.06 110 21:54 08.04.2021
528 Haze 30 1009 35 3000 2.06 110 21:54 08.04.2021
529 Haze 30 1009 35 3000 2.06 110 21:36 08.04.2021
530 Haze 30 1009 35 3000 2.06 110 21:18 08.04.2021
531 Haze 30 1009 32 3000 2.06 130 20:42 08.04.2021
532 Haze 30 1009 32 3000 2.06 130 20:20 08.04.2021
533 Haze 32 1009 27 3000 1.54 150 19:41 08.04.2021
534 Haze 32 1009 27 3000 1.54 150 19:19 08.04.2021
535 Haze 31 1009 27 3000 1.03 60 18:44 08.04.2021
536 Haze 32 1008 23 3000 4.2 152 18:20 08.04.2021
537 Haze 34 1008 20 3000 1.03 110 17:47 08.04.2021
538 Haze 34 1007 20 3000 3.09 220 17:21 08.04.2021
539 Haze 34 1007 20 3000 4.12 220 16:45 08.04.2021
540 Haze 35 1006 18 3000 5.14 210 16:25 08.04.2021
541 Haze 35 1006 17 3000 4.63 220 15:47 08.04.2021
542 Haze 36 1006 16 3000 5.66 190 15:28 08.04.2021
543 Haze 37 1005 15 4000 1.54 180 14:44 08.04.2021
544 Haze 37 1005 15 4000 1.54 180 14:44 08.04.2021
545 Haze 39 1004 10 4000 1.03 170 14:23 08.04.2021
546 Haze 40 1004 11 4000 1.54 150 13:50 08.04.2021
547 Haze 40 1004 11 4000 1.54 210 13:25 08.04.2021
548 Haze 41 1005 10 5000 0.51 0 12:59 08.04.2021
549 Haze 41 1005 10 5000 0.51 0 12:37 08.04.2021
550 Haze 40 1005 11 5000 1.54 230 11:58 08.04.2021
551 Haze 41 1006 10 5000 1.54 100 11:37 08.04.2021
552 Haze 41 1006 11 5000 1.54 150 10:56 08.04.2021
553 Haze 40 1007 11 5000 1.03 230 10:26 08.04.2021
554 Haze 40 1007 11 5000 1.03 230 10:26 08.04.2021
555 Haze 39 1008 13 5000 1.54 170 09:51 08.04.2021
556 Haze 39 1008 13 5000 1.54 170 09:33 08.04.2021
557 Haze 39 1009 14 5000 1.03 220 08:45 08.04.2021
558 Haze 39 1009 14 5000 1.03 220 08:45 08.04.2021
559 Haze 37 1009 16 5000 1.03 220 08:24 08.04.2021
560 Haze 36 1010 16 5000 1.54 150 07:53 08.04.2021
561 Haze 34 1010 18 5000 1.79 179 06:48 08.04.2021
562 Haze 25 1008 41 3000 1.03 280 02:26 08.04.2021
563 Haze 26 1007 38 3000 1.54 280 00:32 08.04.2021
564 Haze 27 1007 36 3000 1.54 220 23:55 07.04.2021
565 Haze 27 1007 36 3000 1.54 220 23:37 07.04.2021
566 Haze 27 1007 36 3000 1.54 220 23:18 07.04.2021
567 Haze 28 1008 32 3000 1.03 210 22:43 07.04.2021
568 Haze 28 1008 32 3000 1.03 210 22:21 07.04.2021
569 Haze 30 1008 28 3000 1.03 210 21:41 07.04.2021
570 Haze 30 1008 28 3000 1.03 210 21:20 07.04.2021
571 Haze 30 1009 28 3000 1.03 200 20:41 07.04.2021
572 Haze 30 1009 28 3000 1.03 200 20:19 07.04.2021
573 Haze 34 1010 20 3000 1.03 180 19:41 07.04.2021
574 Haze 34 1010 20 3000 1.03 180 19:22 07.04.2021
575 Haze 33 1010 21 3000 1.54 350 18:42 07.04.2021
576 Haze 33 1010 21 3000 1.54 350 18:18 07.04.2021
577 Haze 31 1009 22 3000 1.54 350 17:48 07.04.2021
578 Haze 31 1009 22 3000 1.92 236 17:30 07.04.2021
579 Haze 33 1008 17 4000 2.93 190 16:47 07.04.2021
580 Haze 33 1008 17 4000 3.35 181 16:21 07.04.2021
581 Haze 35 1008 15 4000 1.03 200 15:56 07.04.2021
582 Haze 35 1008 15 4000 1.03 200 15:38 07.04.2021
583 Haze 38 1007 16 4000 1.03 170 14:48 07.04.2021
584 Haze 40 1007 11 4000 1.03 140 14:25 07.04.2021
585 Haze 40 1007 11 4000 1.03 140 13:45 07.04.2021
586 Haze 40 1007 11 4000 1.54 120 13:20 07.04.2021
587 Haze 40 1007 18 4000 1.03 120 12:47 07.04.2021
588 Haze 41 1007 11 4000 1.03 160 12:21 07.04.2021
589 Haze 41 1008 9 5000 1.54 30 11:45 07.04.2021
590 Haze 40 1008 11 5000 1.54 70 11:24 07.04.2021
591 Haze 40 1009 11 5000 1.03 60 10:50 07.04.2021
592 Haze 40 1011 11 5000 1.54 50 09:51 07.04.2021
593 Haze 39 1011 12 5000 1.03 250 09:30 07.04.2021
594 Haze 39 1012 14 5000 1.54 50 08:59 07.04.2021
595 Haze 38 1012 14 4000 2.06 340 08:33 07.04.2021
596 Haze 38 1013 15 4000 1.03 90 07:56 07.04.2021
597 Haze 37 1013 16 4000 2.06 300 07:29 07.04.2021
598 Haze 35 1013 24 4000 2.06 250 06:52 07.04.2021
599 Haze 33 1013 31 4000 2.06 270 06:18 07.04.2021
600 Haze 25 1012 61 3000 1.54 60 03:32 07.04.2021
601 Haze 29 1009 39 3000 2.06 230 23:52 06.04.2021
602 Haze 29 1009 39 3000 2.06 230 23:23 06.04.2021
603 Haze 30 1010 35 3000 2.06 200 22:59 06.04.2021
604 Haze 30 1010 35 3000 2.06 200 22:22 06.04.2021
605 Haze 31 1010 27 3000 1.03 200 21:57 06.04.2021
606 Haze 31 1010 27 3000 1.03 200 21:38 06.04.2021
607 Haze 31 1010 27 3000 1.03 200 21:20 06.04.2021
608 Haze 28 1010 26 3000 1.03 310 20:50 06.04.2021
609 Haze 28 1010 26 3000 1.03 310 20:21 06.04.2021
610 Haze 29 1010 23 3000 1.03 230 19:49 06.04.2021
611 Haze 29 1010 23 3000 1.03 230 19:30 06.04.2021
612 Haze 30 1010 20 3000 1.03 320 18:47 06.04.2021
613 Haze 31 1010 16 3000 1.03 0 18:24 06.04.2021
614 Clear 32 1010 14 3000 1.03 110 17:51 06.04.2021
615 Clear 31 1009 16 3000 2.57 130 17:29 06.04.2021
616 Clear 32 1009 13 3000 1.03 200 16:55 06.04.2021
617 Clear 32 1009 14 3000 1.03 260 16:37 06.04.2021
618 Clouds 35 1008 14 3000 1.03 160 15:31 06.04.2021
619 Clouds 37 1008 12 4000 1.03 160 14:58 06.04.2021
620 Clouds 40 1007 9 4000 1.03 200 14:39 06.04.2021
621 Clouds 40 1007 9 4000 1.03 200 14:39 06.04.2021
622 Clouds 40 1007 9 4000 1.03 200 14:18 06.04.2021
623 Clouds 41 1007 7 5000 1.03 200 13:41 06.04.2021
624 Clouds 41 1007 7 5000 1.03 200 13:23 06.04.2021
625 Clouds 41 1007 7 5000 1.54 200 12:41 06.04.2021
626 Haze 41 1007 8 5000 2.06 220 12:21 06.04.2021
627 Haze 41 1008 8 5000 3.09 230 11:49 06.04.2021
628 Haze 40 1008 7 5000 1.54 290 11:21 06.04.2021
629 Haze 40 1008 9 5000 2.57 310 10:47 06.04.2021
630 Haze 40 1009 10 5000 4.12 210 10:27 06.04.2021
631 Haze 40 1010 9 5000 3.6 160 09:49 06.04.2021
632 Haze 39 1010 11 5000 3.09 230 09:29 06.04.2021
633 Haze 39 1011 12 5000 4.12 290 08:43 06.04.2021
634 Haze 37 1012 15 5000 2.57 210 07:59 06.04.2021
635 Haze 34 1013 17 5000 2.06 240 06:55 06.04.2021
636 Haze 31 1013 20 3000 2.8 197 05:40 06.04.2021
637 Haze 22 1010 35 3000 1.54 130 02:54 06.04.2021
638 Haze 21 1009 35 3000 1.54 150 00:44 06.04.2021
639 Haze 21 1009 35 3000 1.54 150 00:21 06.04.2021
640 Haze 24 1009 29 3000 1.54 50 23:42 05.04.2021
641 Haze 24 1009 29 3000 1.54 50 23:19 05.04.2021
642 Haze 25 1009 27 3000 1.03 340 22:48 05.04.2021
643 Haze 25 1009 27 3000 1.03 340 22:25 05.04.2021
644 Haze 26 1010 27 3000 1.54 340 21:43 05.04.2021
645 Haze 26 1010 27 3000 1.54 340 21:20 05.04.2021
646 Haze 26 1010 27 4000 1.36 292 20:42 05.04.2021
647 Haze 26 1010 27 4000 2.09 328 20:23 05.04.2021
648 Haze 26 1010 22 4000 2.09 328 19:42 05.04.2021
649 Haze 26 1010 22 4000 0.99 335 19:21 05.04.2021
650 Haze 28 1010 20 4000 0.99 335 18:49 05.04.2021
651 Haze 28 1010 18 4000 0.99 335 18:31 05.04.2021
652 Haze 29 1010 16 4000 1.03 350 17:57 05.04.2021
653 Haze 29 1010 16 4000 1.03 350 17:37 05.04.2021
654 Haze 30 1010 14 4000 1.54 100 17:18 05.04.2021
655 Haze 30 1009 19 4000 1.54 140 16:41 05.04.2021
656 Haze 32 1009 12 4000 1.54 100 16:20 05.04.2021
657 Haze 33 1009 12 4000 1.54 110 15:50 05.04.2021
658 Haze 34 1008 11 4000 1.54 110 15:27 05.04.2021
659 Haze 35 1008 14 4000 1.03 120 14:46 05.04.2021
660 Haze 39 1008 8 4000 1.28 195 14:25 05.04.2021
661 Haze 39 1008 8 4000 1.03 90 13:31 05.04.2021
662 Haze 39 1008 8 4000 1.03 90 13:31 05.04.2021
663 Haze 39 1008 8 4000 1.03 90 13:31 05.04.2021
664 Haze 39 1008 8 4000 1.03 120 12:48 05.04.2021
665 Clear 39 1009 8 5000 2.06 100 12:26 05.04.2021
666 Clear 39 1009 8 6000 1.03 100 11:54 05.04.2021
667 Clear 39 1009 8 6000 1.03 100 11:33 05.04.2021
668 Clear 40 1009 6 6000 2.57 100 10:57 05.04.2021
669 Clear 40 1009 6 6000 2.57 100 10:37 05.04.2021
670 Clear 39 1011 8 6000 1.54 150 09:56 05.04.2021
671 Clear 39 1011 8 6000 1.54 150 09:37 05.04.2021
672 Haze 38 1012 8 6000 3.09 120 09:19 05.04.2021
673 Haze 37 1013 10 5000 2.57 90 08:40 05.04.2021
674 Haze 37 1013 10 5000 2.57 90 08:19 05.04.2021
675 Haze 35 1013 12 5000 2.06 110 07:34 05.04.2021
676 Clear 29 1011 10 10000 1.8 45 04:23 05.04.2021
677 Haze 24 1010 25 3000 1.03 360 01:35 05.04.2021
678 Clear 27 1007 13 10000 2.36 30 00:24 05.04.2021
679 Haze 28 1010 20 3000 1.54 10 23:38 04.04.2021
680 Haze 28 1010 20 3000 1.54 10 23:18 04.04.2021
681 Haze 28 1010 20 3000 1.54 10 22:49 04.04.2021
682 Haze 28 1010 20 3000 1.54 10 22:26 04.04.2021
683 Clear 30 1008 11 10000 2.41 347 21:23 04.04.2021
684 Clear 30 1008 11 10000 2.41 347 20:51 04.04.2021
685 Clear 30 1008 10 10000 2.66 346 20:25 04.04.2021
686 Clear 30 1008 10 10000 2.66 346 19:43 04.04.2021
687 Clear 32 1008 9 10000 1.54 10 19:21 04.04.2021
688 Clear 32 1008 9 10000 1.54 10 19:21 04.04.2021
689 Clear 32 1008 9 10000 1.54 10 18:56 04.04.2021
690 Haze 32 1009 22 3000 1.03 80 18:37 04.04.2021
691 Haze 32 1009 22 3000 1.03 80 18:19 04.04.2021
692 Haze 32 1009 22 3000 1.03 80 17:37 04.04.2021
693 Haze 32 1009 22 3000 1.03 80 17:18 04.04.2021
694 Haze 32 1009 23 3000 1.03 110 16:41 04.04.2021
695 Haze 33 1008 18 3000 1.03 80 15:58 04.04.2021
696 Haze 33 1008 19 3000 1.03 100 15:33 04.04.2021
697 Haze 38 1007 15 3000 1.03 50 14:42 04.04.2021
698 Haze 38 1007 15 3000 1.03 50 14:24 04.04.2021
699 Haze 39 1007 11 3000 1.54 340 13:28 04.04.2021
700 Haze 39 1007 11 3000 1.54 340 13:28 04.04.2021
701 Haze 39 1007 10 3000 2.06 30 12:52 04.04.2021
702 Haze 39 1007 10 3000 2.06 30 12:28 04.04.2021
703 Haze 39 1007 10 3000 2.06 10 11:51 04.04.2021
704 Haze 39 1008 10 3000 1.54 80 11:31 04.04.2021
705 Haze 38 1008 14 3000 2.57 340 10:55 04.04.2021
706 Haze 38 1009 18 3000 2.06 110 10:32 04.04.2021
707 Haze 37 1010 25 3000 1.54 20 09:52 04.04.2021
708 Haze 37 1010 26 3500 1.54 120 09:23 04.04.2021
709 Haze 36 1011 28 3500 1.54 100 08:49 04.04.2021
710 Haze 36 1011 28 3500 1.54 100 08:49 04.04.2021
711 Haze 35 1011 29 4000 1.54 130 08:31 04.04.2021
712 Haze 32 1012 27 4000 2.06 160 07:21 04.04.2021
713 Haze 31 1012 23 3000 2.06 90 06:33 04.04.2021
714 Haze 26 1010 17 3000 2.06 30 03:25 04.04.2021
715 Haze 27 1008 17 3000 2.57 30 01:18 04.04.2021
716 Haze 22 1008 24 3000 3.16 19 00:19 04.04.2021
717 Haze 27 1008 16 3000 2.06 360 23:42 03.04.2021
718 Haze 28 1008 15 3000 2.06 360 22:59 03.04.2021
719 Haze 28 1008 15 3000 2.06 360 22:40 03.04.2021
720 Haze 28 1008 15 3000 2.06 360 22:19 03.04.2021
721 Haze 27 1008 18 3000 1.54 360 21:46 03.04.2021
722 Haze 27 1008 18 3000 1.54 360 21:23 03.04.2021
723 Haze 29 1008 16 3000 1.54 360 20:48 03.04.2021
724 Haze 29 1008 16 3000 1.54 360 20:26 03.04.2021
725 Haze 31 1008 15 3000 1.54 360 19:48 03.04.2021
726 Haze 31 1008 15 3000 1.54 360 19:24 03.04.2021
727 Haze 31 1008 14 3000 2.57 360 18:46 03.04.2021
728 Haze 30 1008 19 3000 2.57 340 18:23 03.04.2021
729 Haze 29 1007 24 3000 2.57 330 17:51 03.04.2021
730 Haze 30 1007 20 3000 1.16 196 17:21 03.04.2021
731 Haze 29 1007 21 3000 1.16 196 16:49 03.04.2021
732 Haze 30 1006 20 3000 0.47 154 16:21 03.04.2021
733 Haze 31 1006 19 3000 0.47 154 15:48 03.04.2021
734 Haze 34 1006 12 3000 0.57 134 15:22 03.04.2021
735 Haze 36 1005 11 3000 1.03 30 14:44 03.04.2021
736 Haze 36 1005 11 3000 1.03 30 14:44 03.04.2021
737 Haze 38 1005 10 4000 0.12 278 14:23 03.04.2021
738 Haze 39 1005 8 4000 1.03 40 13:50 03.04.2021
739 Haze 39 1005 8 4000 1.54 360 13:24 03.04.2021
740 Haze 40 1005 7 4000 1.03 60 12:56 03.04.2021
741 Haze 39 1005 8 4000 2.06 230 12:32 03.04.2021
742 Haze 40 1006 7 4000 1.03 30 11:39 03.04.2021
743 Haze 39 1006 8 4000 1.54 30 10:58 03.04.2021
744 Haze 39 1006 8 4000 1.54 30 10:40 03.04.2021
745 Haze 39 1007 8 4000 1.54 330 10:18 03.04.2021
746 Haze 37 1008 10 4000 1.54 340 09:28 03.04.2021
747 Haze 36 1009 11 4000 1.03 40 08:58 03.04.2021
748 Haze 36 1009 11 4000 1.03 50 08:30 03.04.2021
749 Haze 34 1010 12 4000 1.54 70 07:29 03.04.2021
750 Haze 32 1010 13 4000 1.54 20 06:44 03.04.2021
751 Haze 24 1008 27 3000 1.54 40 03:53 03.04.2021
752 Haze 23 1007 28 3000 1.54 310 02:51 03.04.2021
753 Haze 23 1006 28 3000 1.54 350 02:26 03.04.2021
754 Haze 25 1005 23 3000 1.75 353 00:23 03.04.2021
755 Haze 25 1005 23 3000 1.03 320 23:50 02.04.2021
756 Haze 25 1005 23 3000 1.03 320 23:24 02.04.2021
757 Haze 26 1006 21 3000 1.03 10 22:55 02.04.2021
758 Haze 26 1006 21 3000 1.03 10 22:36 02.04.2021
759 Haze 26 1007 22 3000 1.03 330 21:46 02.04.2021
760 Haze 26 1007 22 3000 1.03 330 21:26 02.04.2021
761 Haze 26 1006 34 3000 1.03 20 20:53 02.04.2021
762 Haze 26 1006 34 3000 1.03 20 20:34 02.04.2021
763 Haze 27 1006 26 3000 3.09 20 19:59 02.04.2021
764 Haze 27 1006 26 3000 3.09 20 19:39 02.04.2021
765 Haze 27 1006 26 3000 3.09 20 19:21 02.04.2021
766 Haze 29 1005 16 3000 1.03 100 18:39 02.04.2021
767 Haze 29 1005 16 3000 1.03 100 18:20 02.04.2021
768 Haze 30 1005 15 3000 1.03 90 17:40 02.04.2021
769 Haze 33 1004 14 3000 2.06 90 16:51 02.04.2021
770 Haze 33 1004 14 3000 2.06 90 16:51 02.04.2021
771 Haze 33 1004 14 3000 1.03 150 16:22 02.04.2021
772 Haze 34 1004 13 3000 2.06 90 15:35 02.04.2021
773 Haze 36 1004 11 3000 2.06 60 14:55 02.04.2021
774 Haze 38 1004 10 4000 2.06 310 14:31 02.04.2021
775 Haze 38 1004 10 4000 2.06 310 14:31 02.04.2021
776 Haze 38 1004 8 4000 2.06 310 13:44 02.04.2021
777 Haze 38 1004 8 4000 2.06 180 13:23 02.04.2021
778 Haze 38 1005 8 4000 2.06 180 12:41 02.04.2021
779 Haze 38 1005 8 4000 2.06 180 12:20 02.04.2021
780 Haze 38 1005 8 4000 2.06 310 11:56 02.04.2021
781 Haze 38 1005 8 4000 2.06 310 11:21 02.04.2021
782 Haze 38 1005 8 4000 2.06 310 11:21 02.04.2021
783 Haze 38 1006 8 4000 2.06 310 10:50 02.04.2021
784 Haze 38 1006 7 4000 1.54 70 10:29 02.04.2021
785 Haze 38 1007 8 5000 1.54 40 09:53 02.04.2021
786 Haze 38 1007 8 5000 1.54 50 09:27 02.04.2021
787 Haze 38 1008 8 5000 1.54 130 08:54 02.04.2021
788 Haze 37 1009 8 5000 2.06 90 08:30 02.04.2021
789 Haze 35 1009 10 5000 1.54 60 07:30 02.04.2021
790 Haze 34 1009 10 5000 1.54 340 06:52 02.04.2021
791 Haze 29 1009 18 4000 1.54 60 05:28 02.04.2021
792 Haze 24 1006 25 3000 1.03 10 02:30 02.04.2021
793 Haze 25 1005 23 3000 2.06 330 00:52 02.04.2021
794 Haze 25 1005 23 3000 2.06 330 00:22 02.04.2021
795 Haze 25 1005 23 3000 2.06 330 00:22 02.04.2021
796 Haze 26 1005 25 3000 1.54 300 23:39 01.04.2021
797 Haze 25 1005 31 3000 2.15 4 22:57 01.04.2021
798 Haze 25 1005 31 3000 1.9 5 22:20 01.04.2021
799 Haze 26 1006 27 3000 1.54 10 21:50 01.04.2021
800 Haze 26 1006 27 3000 1.54 10 21:27 01.04.2021
801 Haze 31 1006 18 3000 1.03 10 20:47 01.04.2021
802 Haze 31 1006 18 3000 1.03 10 20:25 01.04.2021
803 Haze 31 1006 19 3000 1.03 30 19:56 01.04.2021
804 Haze 31 1006 19 3000 1.03 30 19:35 01.04.2021
805 Haze 31 1006 19 3000 1.03 30 19:35 01.04.2021
806 Haze 31 1006 19 3000 1.03 30 19:35 01.04.2021
807 Haze 31 1006 20 3000 1.03 30 18:46 01.04.2021
808 Haze 31 1006 20 3000 1.03 10 18:18 01.04.2021
809 Haze 31 1006 20 3000 1.03 10 18:18 01.04.2021
810 Haze 33 1005 17 3000 1.03 340 17:51 01.04.2021
811 Haze 32 1005 17 3000 1.54 40 17:32 01.04.2021
812 Haze 33 1004 17 4000 1.03 350 16:51 01.04.2021
813 Haze 34 1004 14 4000 2.57 300 16:30 01.04.2021
814 Haze 34 1003 15 4000 2.06 270 15:47 01.04.2021
815 Haze 34 1003 15 4000 2.06 180 15:20 01.04.2021
816 Haze 37 1003 11 5000 2.57 60 14:45 01.04.2021
817 Haze 37 1003 11 5000 2.57 60 14:45 01.04.2021
818 Haze 38 1002 10 5000 2.57 60 14:26 01.04.2021
819 Haze 39 1002 9 5000 2.57 310 13:55 01.04.2021
820 Haze 39 1002 9 5000 4.12 310 13:30 01.04.2021
821 Haze 39 1002 9 5000 4.12 310 12:51 01.04.2021
822 Haze 40 1002 8 5000 4.12 330 12:32 01.04.2021
823 Haze 39 1003 8 5000 4.12 330 11:50 01.04.2021
824 Haze 39 1003 8 5000 4.12 330 11:25 01.04.2021
825 Clear 39 1004 8 6000 3.6 330 10:56 01.04.2021
826 Clear 38 1004 9 6000 3.6 330 10:37 01.04.2021
827 Clear 38 1005 10 6000 3.09 360 09:56 01.04.2021
828 Clear 38 1005 10 6000 4.63 330 09:27 01.04.2021
829 Haze 38 1006 10 5000 2.06 360 08:33 01.04.2021
830 Haze 36 1007 15 5000 2.06 340 07:59 01.04.2021
831 Haze 36 1007 19 5000 5.14 310 07:20 01.04.2021
832 Haze 35 1007 17 4000 5.14 320 06:50 01.04.2021
833 Haze 28 1006 39 3000 3.6 320 03:52 01.04.2021
834 Haze 29 1004 32 3000 3.6 330 01:52 01.04.2021
835 Haze 30 1003 26 3000 3.6 310 23:51 31.03.2021
836 Haze 30 1003 26 3000 3.6 310 23:32 31.03.2021
837 Haze 30 1004 25 3000 4.12 310 22:42 31.03.2021
838 Haze 30 1004 25 3000 4.12 310 22:21 31.03.2021
839 Haze 29 1004 24 3000 2.06 310 21:47 31.03.2021
840 Haze 29 1004 24 3000 2.06 310 21:24 31.03.2021
841 Haze 29 1005 24 3000 2.06 320 20:58 31.03.2021
842 Haze 29 1005 24 3000 2.06 320 20:40 31.03.2021
843 Haze 29 1005 24 3000 2.06 320 20:18 31.03.2021
844 Haze 28 1005 26 4000 1.54 320 19:41 31.03.2021
845 Haze 28 1005 26 4000 1.54 320 19:19 31.03.2021
846 Haze 28 1005 26 4000 1.03 310 18:51 31.03.2021
847 Haze 29 1004 24 4000 1.54 330 18:21 31.03.2021
848 Haze 32 1004 18 4000 2.06 310 17:37 31.03.2021
849 Haze 32 1004 19 4000 1.03 10 17:18 31.03.2021
850 Haze 32 1004 19 4000 1.03 10 16:49 31.03.2021
851 Haze 33 1003 18 4000 1.54 300 16:29 31.03.2021
852 Haze 35 1003 14 4000 1.54 290 15:51 31.03.2021
853 Haze 36 1003 12 4000 1.54 290 15:20 31.03.2021
854 Haze 36 1003 12 4000 1.54 290 15:20 31.03.2021
855 Haze 37 1003 12 5000 2.57 300 14:46 31.03.2021
856 Haze 38 1002 11 5000 4.12 300 14:24 31.03.2021
857 Haze 39 1002 10 5000 6.17 320 13:43 31.03.2021
858 Haze 39 1002 10 5000 5.14 300 13:19 31.03.2021
859 Haze 39 1002 9 5000 6.17 290 12:37 31.03.2021
860 Haze 40 1003 9 5000 5.66 310 12:18 31.03.2021
861 Haze 40 1004 7 5000 7.2 320 11:22 31.03.2021
862 Haze 39 1004 8 5000 4.63 330 10:48 31.03.2021
863 Haze 39 1005 8 5000 5.14 320 10:26 31.03.2021
864 Haze 39 1006 8 5000 5.14 320 09:45 31.03.2021
865 Haze 39 1006 9 5000 5.14 320 09:26 31.03.2021
866 Haze 39 1007 9 5000 5.14 320 08:41 31.03.2021
867 Haze 36 1008 12 5000 4.12 320 07:58 31.03.2021
868 Haze 34 1008 17 5000 5.14 320 06:50 31.03.2021
869 Haze 26 1006 25 5000 3.6 320 03:52 31.03.2021
870 Haze 26 1005 24 3000 3.09 320 02:32 31.03.2021
871 Haze 27 1004 19 3000 2.57 330 00:54 31.03.2021
872 Haze 27 1004 19 3000 2.57 330 00:22 31.03.2021
873 Haze 27 1004 19 3000 2.57 330 23:54 30.03.2021
874 Haze 27 1004 19 3000 2.57 330 23:19 30.03.2021
875 Haze 29 1004 16 3000 2.57 280 22:47 30.03.2021
876 Haze 29 1004 16 3000 2.57 280 22:29 30.03.2021
877 Haze 27 1005 21 3000 2.06 270 21:55 30.03.2021
878 Haze 27 1005 21 3000 2.06 270 21:24 30.03.2021
879 Haze 28 1005 18 3000 2.57 290 20:57 30.03.2021
880 Haze 28 1005 18 3000 2.57 290 20:30 30.03.2021
881 Haze 28 1005 20 3000 2.06 260 19:52 30.03.2021
882 Haze 28 1005 20 3000 2.06 260 19:29 30.03.2021
883 Haze 27 1005 22 3000 1.54 250 18:47 30.03.2021
884 Haze 30 1005 17 3000 1.54 310 18:24 30.03.2021
885 Haze 30 1005 19 3000 1.54 300 17:42 30.03.2021
886 Haze 32 1005 14 3000 2.06 290 17:24 30.03.2021
887 Haze 33 1004 15 3000 2.06 300 16:46 30.03.2021
888 Haze 33 1004 15 3000 2.06 300 16:46 30.03.2021
889 Haze 34 1004 13 4000 2.06 310 16:25 30.03.2021
890 Haze 36 1003 11 4000 2.57 290 15:21 30.03.2021
891 Haze 38 1003 9 5000 4.12 290 14:59 30.03.2021
892 Haze 38 1003 9 5000 4.12 290 14:39 30.03.2021
893 Haze 39 1003 8 5000 5.14 300 14:18 30.03.2021
894 Haze 40 1003 8 5000 7.2 300 13:38 30.03.2021
895 Haze 41 1003 6 5000 5.66 280 12:49 30.03.2021
896 Haze 41 1003 7 5000 5.66 270 12:29 30.03.2021
897 Haze 41 1004 9 5000 6.17 300 11:59 30.03.2021
898 Haze 41 1004 9 5000 6.69 300 11:24 30.03.2021
899 Haze 41 1005 9 5000 6.17 290 10:47 30.03.2021
900 Haze 40 1006 9 5000 6.17 290 10:29 30.03.2021
901 Haze 40 1006 9 5000 5.66 270 09:57 30.03.2021
902 Haze 40 1007 9 5000 7.72 310 09:37 30.03.2021
903 Haze 40 1007 9 5000 7.72 310 09:18 30.03.2021
904 Haze 39 1008 10 5000 4.12 260 08:39 30.03.2021
905 Haze 37 1008 12 5000 2.06 290 07:52 30.03.2021
906 Haze 37 1009 12 5000 4.63 300 07:22 30.03.2021
907 Haze 31 1009 22 5000 2.06 240 05:49 30.03.2021
908 Haze 30 1008 23 4000 2.06 260 05:19 30.03.2021
909 Clouds 28 1004 14 10000 1.4 258 00:40 30.03.2021
910 Haze 25 1006 33 3000 1.54 250 23:36 29.03.2021
911 Haze 25 1006 33 3000 1.54 360 22:52 29.03.2021
912 Haze 25 1006 33 3000 1.54 360 22:30 29.03.2021
913 Haze 25 1007 29 3000 1.62 283 21:47 29.03.2021
914 Haze 25 1007 29 3000 1.31 227 21:29 29.03.2021
915 Haze 25 1007 29 3000 1.31 227 20:48 29.03.2021
916 Haze 25 1007 29 3000 0.87 237 20:27 29.03.2021
917 Haze 26 1007 29 3000 0.87 237 19:49 29.03.2021
918 Haze 26 1007 29 3000 0.52 317 19:24 29.03.2021
919 Haze 26 1007 29 3000 0.52 317 18:44 29.03.2021
920 Haze 29 1007 21 3000 1.34 328 18:26 29.03.2021
921 Haze 30 1006 20 3000 1.34 328 17:51 29.03.2021
922 Haze 33 1006 15 3000 1.34 328 17:32 29.03.2021
923 Haze 31 1006 15 3000 1.89 303 16:42 29.03.2021
924 Haze 32 1006 14 3000 2.52 286 16:23 29.03.2021
925 Haze 34 1005 13 4000 1.54 240 15:36 29.03.2021
926 Haze 34 1005 13 4000 1.54 240 15:18 29.03.2021
927 Haze 38 1005 10 4000 1.54 240 14:45 29.03.2021
928 Haze 40 1004 8 5000 3.09 320 13:55 29.03.2021
929 Haze 41 1004 7 5000 2.06 320 13:31 29.03.2021
930 Haze 40 1005 9 5000 2.57 340 12:54 29.03.2021
931 Haze 40 1005 9 5000 1.54 0 12:35 29.03.2021
932 Haze 40 1006 8 5000 1.54 0 11:43 29.03.2021
933 Haze 40 1006 8 5000 1.54 0 11:24 29.03.2021
934 Haze 40 1008 9 5000 1.54 340 10:41 29.03.2021
935 Haze 40 1008 9 5000 2.06 320 09:56 29.03.2021
936 Haze 40 1009 9 5000 2.06 320 09:25 29.03.2021
937 Haze 38 1010 11 5000 1.03 20 08:30 29.03.2021
938 Haze 37 1011 12 5000 1.54 50 07:52 29.03.2021
939 Haze 35 1011 15 4000 2.46 227 06:53 29.03.2021
940 Haze 30 1011 26 3000 1.03 10 05:19 29.03.2021
941 Haze 21 1009 52 2500 1.54 190 02:27 29.03.2021
942 Haze 22 1008 46 2000 1.77 236 00:26 29.03.2021
943 Haze 22 1008 49 2000 3.09 170 23:55 28.03.2021
944 Haze 22 1008 49 2000 3.09 170 23:24 28.03.2021
945 Smoke 25 1008 33 2000 1.54 230 22:42 28.03.2021
946 Smoke 25 1008 33 2000 1.54 230 22:24 28.03.2021
947 Smoke 25 1009 38 2000 2.57 240 21:46 28.03.2021
948 Smoke 25 1009 38 2000 2.57 240 21:24 28.03.2021
949 Smoke 27 1009 29 2000 1.03 40 20:51 28.03.2021
950 Smoke 27 1009 29 2000 1.03 40 20:33 28.03.2021
951 Smoke 27 1009 28 2000 1.03 330 19:55 28.03.2021
952 Smoke 27 1009 28 2000 1.03 330 19:37 28.03.2021
953 Smoke 27 1009 28 2000 1.03 330 19:18 28.03.2021
954 Smoke 29 1009 24 2500 1.54 320 18:36 28.03.2021
955 Smoke 27 1008 32 2500 1.03 220 17:56 28.03.2021
956 Haze 30 1008 23 3000 1.09 254 17:36 28.03.2021
957 Haze 30 1007 20 3000 1.28 246 16:55 28.03.2021
958 Haze 31 1007 18 3000 1.03 260 16:24 28.03.2021
959 Haze 32 1007 17 3000 1.03 240 15:49 28.03.2021
960 Haze 35 1006 13 3000 1.03 260 15:24 28.03.2021
961 Haze 38 1006 10 4000 2.06 260 14:39 28.03.2021
962 Haze 39 1006 9 4000 2.57 290 13:55 28.03.2021
963 Haze 39 1006 9 4000 2.57 290 13:34 28.03.2021
964 Haze 39 1006 8 5000 4.12 280 12:55 28.03.2021
965 Haze 39 1006 8 5000 4.12 280 12:34 28.03.2021
966 Haze 39 1007 10 5000 1.54 340 11:50 28.03.2021
967 Haze 39 1008 10 5000 2.06 350 11:32 28.03.2021
968 Haze 39 1008 10 5000 2.06 350 10:47 28.03.2021
969 Haze 38 1009 10 5000 2.06 10 10:28 28.03.2021
970 Haze 38 1009 10 5000 2.06 310 09:49 28.03.2021
971 Haze 37 1010 11 5000 1.54 230 09:27 28.03.2021
972 Haze 37 1011 12 5000 1.03 300 08:48 28.03.2021
973 Haze 36 1012 15 5000 1.44 206 07:53 28.03.2021
974 Haze 36 1012 15 5000 1.44 206 07:34 28.03.2021
975 Haze 29 1012 26 4000 1.03 10 05:19 28.03.2021
976 Haze 21 1010 43 3000 1.54 330 01:50 28.03.2021
977 Haze 21 1009 46 3000 1.54 330 00:25 28.03.2021
978 Haze 22 1009 43 3000 1.54 360 23:48 27.03.2021
979 Haze 22 1009 43 3000 1.54 360 23:29 27.03.2021
980 Haze 22 1009 43 3000 1.54 350 22:38 27.03.2021
981 Haze 22 1009 43 3000 1.54 350 22:18 27.03.2021
982 Haze 22 1010 43 3000 1.54 100 21:41 27.03.2021
983 Haze 22 1010 43 3000 1.54 100 21:20 27.03.2021
984 Haze 25 1010 29 3000 1.54 330 20:50 27.03.2021
985 Haze 25 1010 29 3000 1.54 330 20:31 27.03.2021
986 Haze 25 1011 29 3000 1.54 300 19:45 27.03.2021
987 Haze 25 1011 29 3000 1.54 300 19:23 27.03.2021
988 Haze 28 1011 21 3000 1.54 40 18:50 27.03.2021
989 Haze 28 1011 21 3000 1.54 40 18:32 27.03.2021
990 Haze 29 1011 18 3000 1.54 50 17:56 27.03.2021
991 Haze 30 1011 19 3000 1.54 10 17:26 27.03.2021
992 Haze 29 1011 20 3000 1.54 340 16:53 27.03.2021
993 Haze 30 1010 19 3000 2.06 330 16:30 27.03.2021
994 Haze 30 1010 20 3000 1.54 340 15:55 27.03.2021
995 Haze 31 1009 19 4000 1.54 330 15:33 27.03.2021
996 Haze 32 1008 15 4000 1.54 290 14:52 27.03.2021
997 Clear 36 1008 11 5000 1.03 280 13:59 27.03.2021
998 Clear 37 1007 10 6000 2.06 310 13:26 27.03.2021
999 Clear 37 1007 10 6000 1.54 260 12:56 27.03.2021
1000 Clear 38 1007 8 6000 3.09 320 12:31 27.03.2021
1001 Clear 38 1008 8 6000 3.09 310 11:47 27.03.2021
1002 Clear 38 1008 8 6000 4.12 300 11:27 27.03.2021
1003 Clear 37 1008 10 6000 3.09 320 10:47 27.03.2021
1004 Clear 37 1009 9 6000 1.03 340 10:24 27.03.2021
1005 Haze 37 1010 9 5000 3.6 270 09:29 27.03.2021
1006 Haze 36 1011 9 5000 1.03 130 08:48 27.03.2021
1007 Haze 36 1012 9 5000 2.06 60 08:30 27.03.2021
1008 Haze 34 1013 12 5000 2.06 50 07:35 27.03.2021
1009 Haze 34 1013 13 5000 1.54 80 06:47 27.03.2021
1010 Haze 33 1014 14 5000 1.54 40 06:28 27.03.2021
1011 Haze 27 1013 24 4000 2.06 10 04:40 27.03.2021
1012 Haze 21 1011 37 3000 1.03 330 00:54 27.03.2021
1013 Haze 21 1011 37 3000 1.03 330 00:30 27.03.2021
1014 Haze 23 1010 27 3000 2.47 22 23:54 26.03.2021
1015 Haze 23 1010 27 3000 2.65 9 23:21 26.03.2021
1016 Haze 23 1011 28 3000 2.65 9 22:35 26.03.2021
1017 Haze 23 1011 40 3000 2.35 357 21:38 26.03.2021
1018 Haze 23 1011 40 3000 2.25 352 21:20 26.03.2021
1019 Haze 25 1012 36 3000 2.06 20 20:39 26.03.2021
1020 Haze 25 1012 36 3000 2.06 20 20:20 26.03.2021
1021 Haze 26 1012 34 3000 2.06 20 19:48 26.03.2021
1022 Haze 26 1012 34 3000 2.06 20 19:29 26.03.2021
1023 Haze 26 1012 34 3000 2.99 356 18:44 26.03.2021
1024 Haze 26 1012 34 3000 3.33 6 18:26 26.03.2021
1025 Haze 27 1012 32 3000 3.33 6 17:47 26.03.2021
1026 Haze 27 1012 28 3000 3.93 358 16:57 26.03.2021
1027 Haze 27 1012 28 3000 3.93 358 16:33 26.03.2021
1028 Haze 27 1011 28 3000 1.54 100 15:57 26.03.2021
1029 Haze 30 1011 26 3000 1.03 360 15:23 26.03.2021
1030 Haze 32 1010 15 4000 1.03 290 14:31 26.03.2021
1031 Haze 35 1009 13 4000 1.03 300 13:41 26.03.2021
1032 Haze 36 1009 11 5000 2.57 260 12:56 26.03.2021
1033 Haze 36 1009 12 5000 2.57 150 12:33 26.03.2021
1034 Haze 36 1010 13 5000 2.06 180 11:35 26.03.2021
1035 Haze 36 1010 13 5000 2.57 50 10:58 26.03.2021
1036 Haze 36 1010 13 5000 2.57 50 10:39 26.03.2021
1037 Haze 35 1011 14 5000 1.03 330 09:54 26.03.2021
1038 Haze 35 1013 15 5000 2.57 50 09:35 26.03.2021
1039 Haze 35 1013 15 5000 1.54 40 08:42 26.03.2021
1040 Haze 33 1014 17 5000 2.06 50 08:22 26.03.2021
1041 Haze 33 1015 17 5000 2.57 30 07:24 26.03.2021
1042 Haze 32 1015 19 5000 2.06 60 06:58 26.03.2021
1043 Haze 32 1015 19 5000 2.06 60 06:35 26.03.2021
1044 Haze 29 1016 21 5000 2.57 30 05:31 26.03.2021
1045 Haze 23 1013 35 3000 1.03 30 02:22 26.03.2021
1046 Haze 24 1011 35 3000 1.03 310 00:32 26.03.2021
1047 Haze 26 1011 31 3000 1.03 350 23:44 25.03.2021
1048 Haze 26 1011 31 3000 1.03 350 23:20 25.03.2021
1049 Haze 26 1012 29 3000 1.54 350 22:36 25.03.2021
1050 Haze 27 1012 29 3000 2.06 340 21:53 25.03.2021
1051 Haze 27 1012 29 3000 2.06 340 21:34 25.03.2021
1052 Haze 27 1012 32 3000 1.03 360 20:45 25.03.2021
1053 Haze 27 1012 32 3000 1.03 360 20:25 25.03.2021
1054 Haze 27 1013 36 3000 1.03 10 19:48 25.03.2021
1055 Haze 27 1013 36 3000 1.03 10 19:30 25.03.2021
1056 Haze 27 1013 41 3000 2.06 360 18:49 25.03.2021
1057 Haze 27 1013 41 3000 2.06 360 18:27 25.03.2021
1058 Haze 27 1012 39 3000 0.51 60 17:55 25.03.2021
1059 Haze 27 1012 39 3000 0.51 60 17:36 25.03.2021
1060 Haze 27 1012 36 3000 2.06 360 16:55 25.03.2021
1061 Haze 29 1012 30 3000 1.39 251 16:32 25.03.2021
1062 Haze 29 1011 30 3000 1.43 215 15:46 25.03.2021
1063 Haze 30 1011 26 3000 1.1 226 15:23 25.03.2021
1064 Haze 31 1010 27 3000 1.03 160 14:48 25.03.2021
1065 Haze 32 1010 23 3000 1.54 150 14:18 25.03.2021
1066 Haze 36 1009 15 4000 1.03 190 13:24 25.03.2021
1067 Haze 36 1009 15 4000 2.06 170 12:46 25.03.2021
1068 Haze 37 1009 14 5000 1.54 310 12:22 25.03.2021
1069 Haze 37 1009 15 4000 1.54 20 11:53 25.03.2021
1070 Haze 37 1009 15 4000 1.54 20 11:53 25.03.2021
1071 Haze 37 1009 15 4000 1.54 20 11:53 25.03.2021
1072 Haze 36 1010 16 5000 3.09 340 11:33 25.03.2021
1073 Haze 37 1010 15 5000 2.06 290 10:57 25.03.2021
1074 Haze 36 1011 17 5000 1.54 10 10:39 25.03.2021
1075 Haze 36 1011 17 5000 1.54 10 10:18 25.03.2021
1076 Haze 36 1011 16 5000 2.06 70 09:43 25.03.2021
1077 Haze 35 1013 20 5000 2.57 70 08:59 25.03.2021
1078 Haze 35 1013 21 5000 2.57 70 08:30 25.03.2021
1079 Haze 33 1014 27 5000 2.57 70 07:26 25.03.2021
1080 Haze 31 1015 30 5000 1.54 80 06:27 25.03.2021
1081 Haze 31 1015 30 5000 2.06 30 05:49 25.03.2021
1082 Haze 29 1015 39 5000 1.54 40 04:42 25.03.2021
1083 Haze 21 1011 68 3000 2.24 344 00:46 25.03.2021
1084 Haze 21 1011 68 3000 2.3 355 00:18 25.03.2021
1085 Haze 23 1011 64 3000 1.54 320 23:36 24.03.2021
1086 Haze 23 1011 64 3000 1.54 320 22:58 24.03.2021
1087 Haze 23 1011 64 3000 1.54 320 22:38 24.03.2021
1088 Clear 27 1009 28 10000 1.92 10 21:50 24.03.2021
1089 Haze 24 1012 57 3000 1.54 300 21:31 24.03.2021
1090 Haze 24 1012 57 3000 1.54 300 20:55 24.03.2021
1091 Haze 24 1012 57 3000 1.54 300 20:37 24.03.2021
1092 Haze 24 1012 57 3000 1.54 300 20:18 24.03.2021
1093 Haze 25 1013 57 3000 1.03 340 19:31 24.03.2021
1094 Haze 26 1013 53 3000 1.03 10 18:52 24.03.2021
1095 Haze 26 1013 53 3000 1.03 10 18:24 24.03.2021
1096 Haze 26 1013 50 3000 2.78 313 17:53 24.03.2021
1097 Haze 27 1013 44 3000 2.78 313 17:32 24.03.2021
1098 Haze 27 1013 44 3000 2.78 313 17:32 24.03.2021
1099 Haze 27 1013 41 3000 1.03 140 16:54 24.03.2021
1100 Haze 28 1012 39 3000 1.54 140 16:32 24.03.2021
1101 Haze 27 1012 41 3000 1.03 80 15:58 24.03.2021
1102 Haze 27 1012 41 3000 1.03 80 15:33 24.03.2021
1103 Haze 28 1011 44 3000 1.54 200 14:59 24.03.2021
1104 Haze 30 1011 32 3000 1.48 213 14:28 24.03.2021
1105 Haze 32 1011 35 3000 1.03 110 13:58 24.03.2021
1106 Haze 32 1011 35 3000 1.03 110 13:58 24.03.2021
1107 Haze 34 1011 24 3000 1.03 110 13:28 24.03.2021
1108 Haze 35 1011 21 3000 1.03 90 12:49 24.03.2021
1109 Haze 35 1011 23 3000 1.84 234 12:27 24.03.2021
1110 Haze 35 1011 24 4000 1.03 150 11:54 24.03.2021
1111 Haze 35 1011 21 4000 1.03 290 11:35 24.03.2021
1112 Haze 35 1011 21 4000 1.03 290 11:35 24.03.2021
1113 Haze 35 1012 24 4000 1.54 90 10:46 24.03.2021
1114 Haze 34 1012 24 4000 2.06 90 10:26 24.03.2021
1115 Haze 34 1013 26 4000 2.57 110 09:54 24.03.2021
1116 Haze 33 1014 27 4000 1.03 330 09:25 24.03.2021
1117 Haze 32 1014 27 4000 1.54 360 08:57 24.03.2021
1118 Haze 32 1015 31 4000 1.54 90 08:29 24.03.2021
1119 Haze 31 1016 33 4000 1.54 10 07:42 24.03.2021
1120 Haze 29 1017 39 4000 2.57 10 06:58 24.03.2021
1121 Haze 29 1017 39 4000 2.57 10 06:34 24.03.2021
1122 Mist 21 1015 68 1800 1.03 10 01:24 24.03.2021
1123 Mist 20 1014 77 1800 1.54 350 00:33 24.03.2021
1124 Mist 20 1014 73 1800 1.65 281 23:43 23.03.2021
1125 Mist 20 1014 73 1800 3.33 345 23:18 23.03.2021
1126 Mist 22 1014 73 1800 3.09 330 22:40 23.03.2021
1127 Mist 21 1014 88 1800 3.09 320 21:59 23.03.2021
1128 Mist 21 1014 88 1800 3.09 320 21:41 23.03.2021
1129 Mist 21 1014 88 1800 3.09 320 21:20 23.03.2021
1130 Mist 21 1014 88 1800 1.03 330 20:42 23.03.2021
1131 Mist 21 1014 88 1800 1.03 330 20:23 23.03.2021
1132 Mist 21 1015 78 1800 1.03 40 19:45 23.03.2021
1133 Mist 21 1015 78 1800 1.03 40 19:25 23.03.2021
1134 Mist 22 1015 78 1800 1.03 330 18:43 23.03.2021
1135 Mist 22 1015 78 1800 1.03 330 18:21 23.03.2021
1136 Mist 22 1015 78 1800 1.03 250 17:44 23.03.2021
1137 Mist 22 1015 78 1800 1.03 270 17:21 23.03.2021
1138 Mist 23 1015 73 1800 1.03 320 16:26 23.03.2021
1139 Mist 23 1015 73 1800 1.03 250 15:59 23.03.2021
1140 Mist 23 1014 78 1800 1.54 80 15:38 23.03.2021
1141 Mist 22 1014 83 1800 1.03 40 14:51 23.03.2021
1142 Mist 23 1015 78 1800 1.03 360 14:21 23.03.2021
1143 Mist 23 1014 78 1800 1.03 150 13:49 23.03.2021
1144 Clouds 24 1015 69 1800 1.03 110 13:26 23.03.2021
1145 Clouds 24 1015 73 1800 1.54 280 12:47 23.03.2021
1146 Rain 24 1015 69 1800 4.63 280 12:27 23.03.2021
1147 Clouds 24 1013 73 1800 3.09 110 11:51 23.03.2021
1148 Clouds 23 1014 83 1800 1.03 50 11:33 23.03.2021
1149 Clouds 23 1015 83 1800 1.03 80 10:44 23.03.2021
1150 Clouds 24 1015 73 1800 1.03 10 10:22 23.03.2021
1151 Clouds 25 1016 65 1800 1.03 60 09:55 23.03.2021
1152 Clouds 25 1016 69 1800 1.03 60 09:29 23.03.2021
1153 Drizzle 23 1017 78 1800 1.54 300 08:57 23.03.2021
1154 Drizzle 23 1017 78 1800 1.54 300 08:38 23.03.2021
1155 Drizzle 23 1018 78 1800 1.54 270 08:20 23.03.2021
1156 Clouds 23 1018 78 2000 1.03 30 07:28 23.03.2021
1157 Clouds 22 1018 83 2000 2.57 120 06:57 23.03.2021
1158 Clouds 22 1018 83 2000 2.57 120 06:57 23.03.2021
1159 Clouds 22 1018 83 2000 2.57 120 06:18 23.03.2021
1160 Clouds 21 1017 83 2000 1.54 10 03:20 23.03.2021
1161 Clouds 22 1014 73 2000 2.06 200 00:42 23.03.2021
1162 Clouds 22 1015 68 2000 4.63 190 23:24 22.03.2021
1163 Rain 24 1015 57 2000 9.26 220 22:46 22.03.2021
1164 Rain 24 1015 46 3000 8.75 220 22:22 22.03.2021
1165 Rain 23 1013 53 3000 1.03 10 21:52 22.03.2021
1166 Haze 23 1013 53 3000 1.03 10 21:52 22.03.2021
1167 Haze 23 1013 53 3000 1.03 10 21:29 22.03.2021
1168 Haze 23 1013 56 3000 1.03 100 20:54 22.03.2021
1169 Haze 23 1013 56 3000 1.03 100 20:30 22.03.2021
1170 Haze 23 1014 53 3000 1.03 310 19:59 22.03.2021
1171 Haze 23 1014 53 3000 1.03 310 19:59 22.03.2021
1172 Haze 23 1014 53 3000 1.03 310 19:40 22.03.2021
1173 Haze 23 1014 53 3000 1.03 310 19:21 22.03.2021
1174 Haze 23 1014 53 3000 1.03 310 19:21 22.03.2021
1175 Haze 23 1014 53 3000 1.03 310 19:21 22.03.2021
1176 Haze 23 1014 53 3000 1.03 340 18:42 22.03.2021
1177 Haze 23 1014 53 3000 1.03 340 18:23 22.03.2021
1178 Haze 23 1014 53 3000 1.54 330 17:51 22.03.2021
1179 Haze 23 1014 53 3000 1.03 180 17:23 22.03.2021
1180 Haze 23 1014 49 3000 3.3 359 16:58 22.03.2021
1181 Haze 23 1014 49 3000 3.3 359 16:39 22.03.2021
1182 Haze 25 1013 41 3000 1.03 290 15:45 22.03.2021
1183 Haze 26 1013 38 3000 1.03 330 15:27 22.03.2021
1184 Haze 27 1012 34 3000 1.03 50 14:59 22.03.2021
1185 Haze 28 1012 30 3000 1.54 10 14:35 22.03.2021
1186 Haze 30 1012 28 3000 5.14 340 13:53 22.03.2021
1187 Haze 30 1012 28 3000 5.14 340 13:53 22.03.2021
1188 Haze 30 1012 28 3000 5.14 340 13:34 22.03.2021
1189 Haze 30 1013 28 4000 7.72 330 12:59 22.03.2021
1190 Haze 30 1013 28 4000 7.72 330 12:41 22.03.2021
1191 Haze 30 1013 28 4000 7.72 330 12:18 22.03.2021
1192 Haze 30 1013 30 4000 7.72 320 11:41 22.03.2021
1193 Haze 30 1013 30 4000 7.72 320 11:21 22.03.2021
1194 Haze 32 1014 29 4000 8.75 310 10:42 22.03.2021
1195 Rain 32 1014 29 4000 8.75 310 10:22 22.03.2021
1196 Rain 32 1014 23 4000 6.17 330 09:37 22.03.2021
1197 Haze 32 1015 23 4000 7.72 310 08:59 22.03.2021
1198 Haze 31 1015 29 4000 6.69 320 08:41 22.03.2021
1199 Haze 31 1015 29 4000 6.69 320 08:23 22.03.2021
1200 Haze 32 1015 27 4000 4.12 350 07:43 22.03.2021
1201 Rain 30 1016 35 4000 4.63 330 06:52 22.03.2021
1202 Haze 27 1016 41 3000 1.54 330 05:24 22.03.2021
1203 Haze 23 1012 56 3000 1.03 270 01:40 22.03.2021
1204 Haze 22 1011 68 3000 1.81 53 00:21 22.03.2021
1205 Clear 25 1008 28 10000 1.81 53 23:53 21.03.2021
1206 Haze 22 1010 68 3000 1.03 350 23:19 21.03.2021
1207 Haze 22 1010 68 3000 1.03 350 22:55 21.03.2021
1208 Haze 23 1011 64 3000 1.03 360 21:56 21.03.2021
1209 Haze 23 1011 64 3000 1.03 360 21:38 21.03.2021
1210 Haze 23 1011 64 3000 1.03 360 21:20 21.03.2021
1211 Haze 23 1011 68 3000 1.03 280 20:41 21.03.2021
1212 Haze 23 1011 68 3000 1.03 280 20:22 21.03.2021
1213 Haze 26 1011 53 3000 1.03 40 19:50 21.03.2021
1214 Haze 26 1011 53 3000 1.03 40 19:50 21.03.2021
1215 Haze 26 1011 53 3000 1.03 40 19:21 21.03.2021
1216 Haze 25 1011 57 4000 1.03 360 18:46 21.03.2021
1217 Haze 25 1011 57 4000 1.03 360 18:27 21.03.2021
1218 Haze 27 1011 44 4000 1.03 350 17:45 21.03.2021
1219 Haze 27 1011 44 4000 1.54 330 17:19 21.03.2021
1220 Haze 28 1010 36 4000 1.03 190 16:54 21.03.2021
1221 Haze 28 1010 39 4000 1.03 190 16:29 21.03.2021
1222 Haze 28 1010 39 4000 1.54 140 15:55 21.03.2021
1223 Haze 28 1010 39 4000 1.54 140 15:36 21.03.2021
1224 Haze 28 1010 42 4000 1.54 150 15:18 21.03.2021
1225 Haze 29 1009 39 4000 1.03 160 14:41 21.03.2021
1226 Haze 31 1009 30 4000 1.03 210 14:23 21.03.2021
1227 Haze 33 1008 27 4000 1.54 230 13:52 21.03.2021
1228 Haze 35 1008 23 5000 2.06 210 12:46 21.03.2021
1229 Haze 35 1008 23 5000 2.06 190 12:27 21.03.2021
1230 Haze 35 1008 23 5000 2.57 230 11:51 21.03.2021
1231 Haze 35 1008 21 5000 2.06 260 11:27 21.03.2021
1232 Haze 35 1009 20 5000 1.54 310 10:54 21.03.2021
1233 Haze 35 1009 20 5000 1.54 310 10:34 21.03.2021
1234 Haze 35 1010 24 5000 1.54 10 09:57 21.03.2021
1235 Haze 35 1010 24 5000 1.54 10 09:38 21.03.2021
1236 Haze 35 1010 24 5000 1.54 10 09:38 21.03.2021
1237 Haze 35 1010 24 5000 1.54 10 09:38 21.03.2021
1238 Haze 35 1010 24 5000 1.54 10 09:38 21.03.2021
1239 Haze 34 1010 27 5000 2.57 250 09:19 21.03.2021
1240 Haze 33 1011 29 5000 2.06 230 08:38 21.03.2021
1241 Haze 33 1011 27 5000 1.54 280 08:19 21.03.2021
1242 Haze 31 1013 35 5000 1.54 350 07:31 21.03.2021
1243 Haze 29 1013 39 5000 1.03 350 06:31 21.03.2021
1244 Haze 25 1013 57 3000 1.03 350 04:58 21.03.2021
1245 Haze 25 1013 57 3000 1.03 350 04:58 21.03.2021
1246 Clouds 20 1011 83 2000 1.03 180 00:59 21.03.2021
1247 Clouds 20 1011 83 2000 1.03 180 00:39 21.03.2021
1248 Clouds 20 1011 83 2000 1.03 180 00:21 21.03.2021
1249 Clouds 24 1007 40 10000 2.1 323 23:47 20.03.2021
1250 Clouds 20 1012 83 2000 2.06 160 23:20 20.03.2021
1251 Clouds 20 1012 83 2000 2.06 160 22:47 20.03.2021
1252 Clouds 20 1012 83 2000 2.06 160 22:18 20.03.2021
1253 Clouds 19 1013 88 2000 1.03 150 21:44 20.03.2021
1254 Clouds 19 1013 88 2000 1.03 150 21:24 20.03.2021
1255 Rain 20 1015 83 2000 3.09 220 20:42 20.03.2021
1256 Rain 20 1015 83 2000 3.09 220 20:22 20.03.2021
1257 Rain 21 1015 68 2000 3.6 220 19:47 20.03.2021
1258 Rain 22 1014 68 2000 7.72 320 19:26 20.03.2021
1259 Rain 22 1013 68 2000 9.26 320 18:48 20.03.2021
1260 Clouds 21 1014 73 2000 7.72 310 18:25 20.03.2021
1261 Clouds 26 1014 41 2000 5.14 270 17:53 20.03.2021
1262 Clouds 27 1011 39 2500 2.57 270 17:29 20.03.2021
1263 Haze 28 1010 34 3000 2.57 10 16:44 20.03.2021
1264 Haze 29 1010 32 3000 3.09 340 16:20 20.03.2021
1265 Haze 29 1010 37 3000 3.09 340 15:57 20.03.2021
1266 Haze 29 1010 37 3000 3.09 340 15:39 20.03.2021
1267 Haze 30 1009 35 3000 1.58 338 14:45 20.03.2021
1268 Haze 30 1008 32 3000 2.76 325 14:23 20.03.2021
1269 Haze 33 1008 27 3000 2.76 325 13:33 20.03.2021
1270 Haze 34 1008 21 3000 1.03 130 12:51 20.03.2021
1271 Haze 35 1008 21 4000 1.54 180 12:26 20.03.2021
1272 Haze 34 1009 26 4000 1.54 270 11:46 20.03.2021
1273 Haze 34 1009 26 4000 1.54 270 11:28 20.03.2021
1274 Haze 34 1009 26 4000 1.54 260 10:55 20.03.2021
1275 Haze 33 1009 29 4000 1.03 240 10:28 20.03.2021
1276 Haze 33 1010 31 4000 1.03 320 09:56 20.03.2021
1277 Haze 32 1011 37 4000 1.03 170 09:27 20.03.2021
1278 Haze 31 1011 40 4000 1.03 100 08:56 20.03.2021
1279 Haze 30 1012 42 3000 1.03 140 08:30 20.03.2021
1280 Haze 30 1012 42 3000 1.03 140 08:30 20.03.2021
1281 Haze 29 1013 48 3000 1.03 90 07:52 20.03.2021
1282 Haze 28 1013 51 3000 1.03 20 07:31 20.03.2021
1283 Haze 27 1014 50 3000 2.06 110 06:47 20.03.2021
1284 Haze 25 1014 65 3000 1.54 60 06:19 20.03.2021
1285 Mist 20 1014 94 2000 3.31 182 03:59 20.03.2021
1286 Mist 20 1013 94 2000 3.31 182 03:41 20.03.2021
1287 Clouds 19 1011 94 2000 1.54 30 23:58 19.03.2021
1288 Clouds 19 1011 94 2000 1.54 30 23:30 19.03.2021
1289 Clouds 20 1013 88 2000 1.54 300 22:48 19.03.2021
1290 Clouds 20 1013 88 2000 1.54 300 22:27 19.03.2021
1291 Clouds 20 1013 83 2000 1.54 30 21:56 19.03.2021
1292 Clouds 20 1013 83 2000 1.54 30 21:22 19.03.2021
1293 Clouds 23 1010 61 10000 4.52 25 20:57 19.03.2021
1294 Clouds 23 1010 61 10000 4.52 25 20:39 19.03.2021
1295 Clouds 24 1011 55 10000 5.38 36 20:21 19.03.2021
1296 Clouds 24 1011 55 10000 5.38 36 19:43 19.03.2021
1297 Clouds 20 1016 83 2000 5.14 300 19:19 19.03.2021
1298 Clouds 25 1014 50 2000 1.54 20 18:40 19.03.2021
1299 Clouds 25 1014 50 2000 1.54 20 18:18 19.03.2021
1300 Clouds 25 1014 50 2000 1.54 20 18:18 19.03.2021
1301 Clouds 25 1011 53 10000 5.71 6 17:51 19.03.2021
1302 Clouds 24 1011 57 10000 3.57 17 17:27 19.03.2021
1303 Haze 25 1012 53 2500 1.03 20 16:52 19.03.2021
1304 Haze 25 1012 53 2500 1.03 20 16:27 19.03.2021
1305 Haze 25 1012 53 2500 1.03 20 15:46 19.03.2021
1306 Haze 26 1012 53 2500 1.03 20 15:22 19.03.2021
1307 Haze 27 1012 54 2500 1.54 360 14:45 19.03.2021
1308 Haze 27 1012 54 2500 1.54 360 14:26 19.03.2021
1309 Haze 28 1011 47 2500 1.03 360 13:39 19.03.2021
1310 Haze 28 1011 47 2500 2.06 30 12:50 19.03.2021
1311 Rain 28 1011 47 3000 1.03 50 12:32 19.03.2021
1312 Haze 28 1011 54 3000 1.03 90 11:40 19.03.2021
1313 Haze 28 1012 54 3000 1.03 100 10:53 19.03.2021
1314 Clouds 28 1012 57 3000 3.07 172 10:30 19.03.2021
1315 Haze 29 1013 42 3000 1.03 90 09:49 19.03.2021
1316 Haze 29 1013 42 3000 1.54 90 09:30 19.03.2021
1317 Haze 29 1013 42 3000 2.57 100 08:54 19.03.2021
1318 Haze 29 1013 42 3000 2.57 100 08:36 19.03.2021
1319 Haze 29 1014 42 4000 2.57 90 07:54 19.03.2021
1320 Haze 29 1014 42 4000 2.57 90 07:35 19.03.2021
1321 Haze 28 1015 44 4000 2.57 70 06:43 19.03.2021
1322 Mist 21 1014 78 2000 1.54 30 02:45 19.03.2021
1323 Clouds 20 1013 77 2000 1.54 60 00:26 19.03.2021
1324 Clouds 20 1013 77 1800 1.54 30 23:30 18.03.2021
1325 Clouds 22 1013 73 1800 7.2 300 22:58 18.03.2021
1326 Clouds 22 1013 73 1800 7.2 300 22:38 18.03.2021
1327 Clouds 22 1013 73 1800 7.2 300 22:18 18.03.2021
1328 Clouds 22 1012 73 1800 3.09 350 21:39 18.03.2021
1329 Clouds 24 1014 50 1800 9.26 340 20:43 18.03.2021
1330 Clouds 24 1014 50 1800 9.26 340 20:24 18.03.2021
1331 Clouds 26 1013 47 1800 8.23 10 19:45 18.03.2021
1332 Clouds 26 1013 44 1800 5.14 10 19:25 18.03.2021
1333 Clouds 26 1013 50 1800 6.17 320 18:55 18.03.2021
1334 Rain 26 1013 53 1800 7.72 320 18:27 18.03.2021
1335 Clouds 26 1013 53 2000 1.03 360 17:49 18.03.2021
1336 Clouds 26 1013 50 2000 3.05 128 17:25 18.03.2021
1337 Haze 25 1012 57 2000 1.03 360 16:46 18.03.2021
1338 Haze 26 1012 50 2000 1.03 360 16:26 18.03.2021
1339 Haze 26 1011 50 2000 1.54 90 15:45 18.03.2021
1340 Haze 26 1011 50 2000 1.54 90 15:23 18.03.2021
1341 Haze 27 1011 47 2000 1.54 70 14:53 18.03.2021
1342 Haze 27 1011 47 2000 1.54 70 14:32 18.03.2021
1343 Haze 28 1010 47 2500 1.54 70 13:53 18.03.2021
1344 Haze 30 1010 45 2500 2.06 70 13:26 18.03.2021
1345 Haze 31 1010 42 2500 1.03 60 12:44 18.03.2021
1346 Haze 32 1010 35 2500 2.06 110 12:25 18.03.2021
1347 Haze 32 1010 33 2500 2.57 120 11:52 18.03.2021
1348 Haze 32 1010 37 2500 1.54 110 11:32 18.03.2021
1349 Mist 31 1010 42 2000 2.06 110 10:45 18.03.2021
1350 Mist 30 1011 42 2000 2.57 110 10:27 18.03.2021
1351 Mist 29 1011 48 2000 2.57 110 09:54 18.03.2021
1352 Mist 28 1012 47 2000 2.06 90 09:29 18.03.2021
1353 Haze 27 1012 54 2000 2.06 100 08:50 18.03.2021
1354 Haze 27 1013 54 2000 3.09 130 08:30 18.03.2021
1355 Haze 27 1013 50 2000 1.54 90 07:52 18.03.2021
1356 Clouds 26 1014 53 2000 2.06 90 07:24 18.03.2021
1357 Clouds 23 1015 73 2000 1.54 120 06:28 18.03.2021
1358 Clouds 22 1015 78 1500 2.57 70 05:53 18.03.2021
1359 Rain 24 1011 50 3000 1.03 290 01:24 18.03.2021
1360 Haze 22 1010 56 3000 1.03 83 23:59 17.03.2021
1361 Haze 22 1011 53 3000 1.03 220 22:54 17.03.2021
1362 Haze 22 1011 53 3000 1.03 220 22:26 17.03.2021
1363 Haze 25 1011 44 3000 0.51 300 21:56 17.03.2021
1364 Haze 25 1011 44 3000 0.51 300 21:34 17.03.2021
1365 Haze 25 1012 41 3000 0.51 250 20:59 17.03.2021
1366 Haze 25 1012 41 3000 0.51 250 20:40 17.03.2021
1367 Haze 25 1012 41 3000 0.51 250 20:40 17.03.2021
1368 Haze 25 1012 41 3000 0.51 250 20:40 17.03.2021
1369 Haze 25 1012 41 3000 0.51 250 20:40 17.03.2021
1370 Haze 25 1012 41 3000 0.51 250 20:22 17.03.2021
1371 Haze 28 1012 34 3000 1.03 50 19:44 17.03.2021
1372 Haze 28 1012 34 3000 1.03 50 19:21 17.03.2021
1373 Haze 29 1012 32 3000 1.54 20 18:54 17.03.2021
1374 Haze 29 1012 32 3000 1.54 20 18:36 17.03.2021
1375 Haze 30 1012 30 3000 2.57 20 17:48 17.03.2021
1376 Haze 30 1012 30 3000 1.03 50 17:26 17.03.2021
1377 Haze 31 1011 25 3000 1.54 30 16:46 17.03.2021
1378 Haze 31 1011 23 3000 1.03 50 16:25 17.03.2021
1379 Haze 31 1011 25 3000 1.54 60 15:53 17.03.2021
1380 Haze 31 1011 25 3000 1.54 60 15:35 17.03.2021
1381 Haze 32 1010 27 3000 2.06 70 14:45 17.03.2021
1382 Haze 33 1010 25 3000 2.06 70 14:27 17.03.2021
1383 Haze 33 1009 25 4000 2.06 70 13:55 17.03.2021
1384 Haze 34 1009 22 4000 1.03 60 13:30 17.03.2021
1385 Haze 35 1009 20 4000 1.03 80 12:51 17.03.2021
1386 Haze 35 1009 21 4000 1.03 70 12:33 17.03.2021
1387 Haze 36 1009 19 4000 1.03 100 11:51 17.03.2021
1388 Haze 36 1009 19 4000 1.03 50 11:23 17.03.2021
1389 Haze 36 1009 19 4000 1.54 20 10:55 17.03.2021
1390 Haze 36 1010 19 4000 1.54 70 10:28 17.03.2021
1391 Haze 35 1010 20 4000 1.54 110 09:48 17.03.2021
1392 Haze 35 1011 20 4000 2.06 120 09:26 17.03.2021
1393 Haze 35 1012 21 4000 2.06 70 08:58 17.03.2021
1394 Haze 35 1012 21 4000 2.06 70 08:38 17.03.2021
1395 Haze 33 1013 27 4000 2.06 60 07:49 17.03.2021
1396 Haze 33 1013 27 4000 2.06 60 07:30 17.03.2021
1397 Haze 32 1014 27 4000 2.06 110 06:42 17.03.2021
1398 Haze 27 1013 41 2000 1.03 60 04:23 17.03.2021
1399 Mist 25 1013 47 2000 1.03 20 03:24 17.03.2021
1400 Haze 22 1011 56 2500 1.03 30 00:40 17.03.2021
1401 Haze 23 1011 53 2500 1.03 190 23:33 16.03.2021
1402 Haze 23 1011 53 2500 1.03 190 22:51 16.03.2021
1403 Haze 24 1011 50 2500 1.03 340 22:33 16.03.2021
1404 Haze 23 1011 49 2500 1.03 210 21:51 16.03.2021
1405 Haze 23 1011 49 2500 1.03 210 21:32 16.03.2021
1406 Haze 25 1012 44 2500 1.03 60 20:59 16.03.2021
1407 Haze 25 1012 44 2500 1.03 60 20:38 16.03.2021
1408 Haze 27 1012 39 2500 1.03 60 20:18 16.03.2021
1409 Haze 27 1012 39 2500 1.03 60 19:42 16.03.2021
1410 Haze 27 1012 39 2500 1.03 60 19:23 16.03.2021
1411 Haze 27 1013 36 2500 2.06 60 18:44 16.03.2021
1412 Haze 27 1013 36 2500 2.06 60 18:26 16.03.2021
1413 Haze 28 1013 34 2500 1.03 50 17:50 16.03.2021
1414 Haze 28 1013 36 2500 1.03 40 17:30 16.03.2021
1415 Haze 29 1013 32 2500 1.54 50 16:53 16.03.2021
1416 Haze 30 1012 30 2500 2.06 50 16:30 16.03.2021
1417 Haze 30 1011 32 2500 2.57 30 15:47 16.03.2021
1418 Haze 31 1011 25 2500 2.3 125 15:21 16.03.2021
1419 Haze 31 1010 25 2500 2.3 125 14:58 16.03.2021
1420 Haze 31 1010 25 2500 2.3 125 14:40 16.03.2021
1421 Haze 31 1010 25 2500 2.3 125 14:40 16.03.2021
1422 Haze 32 1010 25 2500 2.12 139 14:21 16.03.2021
1423 Haze 34 1010 20 2500 2.06 180 13:54 16.03.2021
1424 Haze 35 1009 18 2500 2.06 180 13:26 16.03.2021
1425 Haze 36 1009 16 2500 2.06 210 12:54 16.03.2021
1426 Haze 36 1009 16 2500 2.06 210 12:35 16.03.2021
1427 Haze 36 1010 16 2500 2.57 180 11:54 16.03.2021
1428 Haze 27 1010 28 2500 4.12 220 11:27 16.03.2021
1429 Haze 36 1010 17 2500 2.06 210 10:44 16.03.2021
1430 Haze 36 1010 19 2500 3.6 200 10:20 16.03.2021
1431 Haze 36 1011 19 2500 1.54 270 09:39 16.03.2021
1432 Haze 35 1012 21 2500 1.03 210 09:18 16.03.2021
1433 Haze 34 1013 22 2500 2.06 210 08:48 16.03.2021
1434 Haze 34 1013 22 2500 2.06 190 08:30 16.03.2021
1435 Haze 32 1014 29 2500 2.57 210 07:38 16.03.2021
1436 Haze 32 1015 29 2500 2.57 120 06:57 16.03.2021
1437 Haze 30 1015 35 2500 2.57 120 06:35 16.03.2021
1438 Haze 29 1015 34 2500 1.03 60 05:35 16.03.2021
1439 Haze 22 1013 60 2500 1.03 330 02:46 16.03.2021
1440 Haze 21 1012 64 2500 1.03 330 02:24 16.03.2021
1441 Haze 23 1011 56 3000 1.03 60 00:25 16.03.2021
1442 Haze 23 1011 53 3000 1.03 10 23:29 15.03.2021
1443 Haze 23 1011 53 3000 1.03 320 22:56 15.03.2021
1444 Haze 23 1011 53 3000 1.03 320 22:36 15.03.2021
1445 Haze 23 1012 53 3000 1.03 140 21:58 15.03.2021
1446 Haze 23 1012 53 3000 1.03 140 21:38 15.03.2021
1447 Haze 23 1012 53 3000 1.03 140 21:20 15.03.2021
1448 Haze 24 1012 50 3000 1.03 300 20:44 15.03.2021
1449 Haze 24 1012 50 3000 1.03 300 20:25 15.03.2021
1450 Haze 26 1013 44 3000 1.03 10 19:53 15.03.2021
1451 Haze 26 1013 44 3000 1.03 10 19:34 15.03.2021
1452 Haze 27 1013 39 3000 1.03 70 18:57 15.03.2021
1453 Haze 27 1013 39 3000 1.03 70 18:33 15.03.2021
1454 Haze 27 1013 39 3000 1.54 90 17:56 15.03.2021
1455 Haze 27 1013 36 3000 1.03 80 17:38 15.03.2021
1456 Haze 27 1013 36 3000 1.03 80 17:19 15.03.2021
1457 Haze 28 1013 34 3000 1.03 90 16:41 15.03.2021
1458 Haze 29 1012 32 3000 1.03 50 15:48 15.03.2021
1459 Haze 29 1011 32 3000 1.03 60 15:27 15.03.2021
1460 Haze 29 1011 34 3000 1.06 260 14:46 15.03.2021
1461 Haze 31 1011 29 3000 0.93 296 14:28 15.03.2021
1462 Haze 33 1010 25 4000 1.03 30 13:58 15.03.2021
1463 Haze 34 1010 24 4000 1.03 30 13:35 15.03.2021
1464 Haze 34 1010 22 4000 1.03 40 12:51 15.03.2021
1465 Haze 35 1010 20 4000 1.03 50 12:20 15.03.2021
1466 Haze 35 1010 18 5000 1.03 70 11:58 15.03.2021
1467 Haze 35 1010 20 5000 1.03 50 11:40 15.03.2021
1468 Haze 35 1010 20 5000 1.03 50 11:21 15.03.2021
1469 Haze 35 1011 20 5000 1.03 10 10:34 15.03.2021
1470 Haze 35 1012 20 5000 1.03 40 09:59 15.03.2021
1471 Haze 36 1012 19 5000 1.03 90 09:40 15.03.2021
1472 Haze 36 1012 19 5000 1.03 90 09:20 15.03.2021
1473 Haze 35 1013 21 5000 2.06 20 08:41 15.03.2021
1474 Haze 34 1013 26 5000 2.57 40 08:21 15.03.2021
1475 Haze 33 1014 29 5000 1.54 60 07:33 15.03.2021
1476 Haze 33 1015 29 4000 1.54 90 06:48 15.03.2021
1477 Haze 30 1015 35 3000 2.06 100 05:35 15.03.2021
1478 Mist 22 1014 68 2000 1.03 320 03:19 15.03.2021
1479 Haze 22 1012 60 2500 1.98 47 00:21 15.03.2021
1480 Haze 22 1012 60 2500 1.98 47 00:21 15.03.2021
1481 Haze 22 1011 60 2500 1.03 60 23:22 14.03.2021
1482 Haze 22 1012 60 2500 1.03 210 22:49 14.03.2021
1483 Haze 22 1012 60 2500 1.03 210 22:27 14.03.2021
1484 Haze 25 1012 47 2500 1.03 210 21:51 14.03.2021
1485 Haze 25 1012 47 2500 1.03 210 21:22 14.03.2021
1486 Haze 26 1013 47 2500 1.03 40 20:52 14.03.2021
1487 Haze 26 1013 47 2500 1.03 40 20:27 14.03.2021
1488 Haze 27 1013 44 2500 1.03 60 19:58 14.03.2021
1489 Haze 27 1013 44 2500 1.03 60 19:40 14.03.2021
1490 Haze 27 1013 44 2500 1.03 60 19:18 14.03.2021
1491 Haze 27 1014 47 2500 2.06 10 18:36 14.03.2021
1492 Haze 27 1013 41 2500 1.21 17 17:44 14.03.2021
1493 Haze 27 1013 41 2500 1.76 212 17:24 14.03.2021
1494 Haze 27 1013 39 2500 1.76 212 16:54 14.03.2021
1495 Haze 28 1013 39 2500 1.76 212 16:35 14.03.2021
1496 Haze 28 1013 36 2500 2.82 200 15:59 14.03.2021
1497 Haze 28 1013 36 2500 2.82 200 15:40 14.03.2021
1498 Haze 29 1012 34 2500 1.03 160 14:51 14.03.2021
1499 Haze 33 1011 27 3000 1.03 80 14:29 14.03.2021
1500 Haze 33 1011 27 3000 1.03 80 13:50 14.03.2021
1501 Haze 34 1011 24 3000 1.03 280 13:31 14.03.2021
1502 Haze 34 1011 21 3000 2.06 270 12:48 14.03.2021
1503 Haze 35 1011 20 3000 2.57 210 12:29 14.03.2021
1504 Haze 34 1011 21 4000 1.03 260 11:58 14.03.2021
1505 Haze 34 1011 21 4000 1.03 260 11:36 14.03.2021
1506 Haze 34 1012 24 4000 2.06 90 10:59 14.03.2021
1507 Haze 34 1012 24 4000 2.06 90 10:38 14.03.2021
1508 Haze 33 1012 25 5000 1.03 20 10:19 14.03.2021
1509 Haze 33 1013 25 5000 1.03 40 09:44 14.03.2021
1510 Haze 34 1013 26 5000 1.03 50 09:23 14.03.2021
1511 Haze 34 1014 27 5000 1.54 40 08:49 14.03.2021
1512 Haze 33 1015 29 5000 2.06 40 08:31 14.03.2021
1513 Haze 32 1015 31 5000 2.06 340 07:47 14.03.2021
1514 Haze 32 1016 33 5000 2.06 130 07:19 14.03.2021
1515 Haze 29 1017 42 3000 1.03 60 05:32 14.03.2021
1516 Haze 20 1013 73 2500 1.91 31 00:53 14.03.2021
1517 Haze 21 1013 68 2500 2.28 28 00:19 14.03.2021
1518 Haze 21 1013 68 2500 2.28 28 23:53 13.03.2021
1519 Haze 21 1013 68 2500 2.28 28 23:35 13.03.2021
1520 Haze 20 1014 68 2500 1.03 230 22:54 13.03.2021
1521 Haze 20 1014 68 2500 1.03 230 22:32 13.03.2021
1522 Haze 23 1014 60 2500 2.38 1 21:48 13.03.2021
1523 Haze 23 1014 60 2500 2.33 345 21:26 13.03.2021
1524 Haze 23 1014 56 3000 2.33 345 20:52 13.03.2021
1525 Haze 23 1014 56 3000 2.33 345 20:31 13.03.2021
1526 Haze 25 1014 47 3000 2.37 337 19:53 13.03.2021
1527 Haze 25 1014 47 3000 2.37 337 19:30 13.03.2021
1528 Haze 25 1015 44 3000 1.03 80 18:44 13.03.2021
1529 Haze 25 1015 44 3000 1.03 80 18:23 13.03.2021
1530 Haze 25 1015 44 3000 1.03 90 17:59 13.03.2021
1531 Haze 25 1015 44 3000 1.03 90 17:40 13.03.2021
1532 Haze 25 1015 44 3000 1.03 90 17:21 13.03.2021
1533 Haze 25 1015 47 4000 1.03 100 16:43 13.03.2021
1534 Haze 26 1015 44 4000 1.54 100 16:19 13.03.2021
1535 Haze 27 1014 41 4000 1.03 100 15:27 13.03.2021
1536 Haze 28 1014 39 4000 1.54 80 14:47 13.03.2021
1537 Haze 30 1014 35 4000 1.54 80 14:25 13.03.2021
1538 Haze 31 1013 30 4000 1.54 80 13:47 13.03.2021
1539 Haze 32 1013 27 5000 1.54 80 13:24 13.03.2021
1540 Haze 33 1013 25 5000 1.03 60 12:43 13.03.2021
1541 Haze 33 1013 25 5000 1.03 80 12:20 13.03.2021
1542 Haze 33 1013 24 5000 1.03 120 11:46 13.03.2021
1543 Haze 33 1014 25 5000 2.06 140 11:28 13.03.2021
1544 Haze 33 1014 25 5000 2.06 100 10:49 13.03.2021
1545 Haze 32 1015 27 5000 2.06 80 10:25 13.03.2021
1546 Haze 31 1016 30 5000 2.57 110 09:42 13.03.2021
1547 Haze 31 1017 30 5000 2.57 100 08:58 13.03.2021
1548 Haze 31 1017 30 5000 2.57 100 08:39 13.03.2021
1549 Haze 29 1019 37 5000 2.57 120 08:19 13.03.2021
1550 Haze 29 1019 37 5000 2.57 120 07:39 13.03.2021
1551 Haze 25 1020 50 5000 2.57 90 05:45 13.03.2021
1552 Haze 21 1018 60 3000 2.06 30 02:43 13.03.2021
1553 Haze 21 1017 60 3000 5.14 30 00:50 13.03.2021
1554 Haze 22 1017 56 3000 3.6 30 23:51 12.03.2021
1555 Haze 22 1017 56 3000 3.6 30 23:32 12.03.2021
1556 Haze 22 1016 60 3000 2.57 30 22:42 12.03.2021
1557 Haze 22 1016 60 3000 2.57 30 22:23 12.03.2021
1558 Haze 23 1017 60 2500 4.12 30 21:42 12.03.2021
1559 Haze 23 1017 60 2500 4.12 30 21:21 12.03.2021
1560 Mist 24 1016 57 2500 4.12 10 20:55 12.03.2021
1561 Mist 24 1016 57 2500 4.12 10 20:32 12.03.2021
1562 Clouds 24 1015 64 2500 3.09 330 19:55 12.03.2021
1563 Clouds 24 1015 64 2500 3.09 330 19:35 12.03.2021
1564 Clouds 23 1015 68 2500 1.03 50 18:55 12.03.2021
1565 Clouds 23 1015 68 2500 1.03 50 18:34 12.03.2021
1566 Clouds 30 1015 30 2500 1.03 110 17:47 12.03.2021
1567 Clouds 30 1015 30 2500 1.03 110 17:29 12.03.2021
1568 Clouds 29 1014 30 2500 2.06 80 16:54 12.03.2021
1569 Clouds 29 1014 30 2500 2.06 80 16:33 12.03.2021
1570 Clouds 31 1014 22 2500 1.03 40 15:50 12.03.2021
1571 Haze 31 1013 33 3000 1.03 100 15:21 12.03.2021
1572 Haze 32 1013 29 3000 1.54 120 14:46 12.03.2021
1573 Haze 32 1013 29 3000 1.54 120 14:19 12.03.2021
1574 Haze 35 1012 18 3000 2.57 180 13:41 12.03.2021
1575 Haze 35 1012 18 3000 2.57 180 13:20 12.03.2021
1576 Haze 35 1012 17 3000 2.57 170 12:52 12.03.2021
1577 Haze 35 1012 17 4000 2.57 170 12:30 12.03.2021
1578 Haze 36 1012 15 5000 2.57 150 11:58 12.03.2021
1579 Haze 37 1012 14 5000 2.57 230 11:38 12.03.2021
1580 Haze 36 1013 19 5000 2.57 180 11:00 12.03.2021
1581 Haze 36 1013 19 5000 2.57 180 10:41 12.03.2021
1582 Haze 36 1013 20 5000 2.57 180 10:20 12.03.2021
1583 Haze 35 1015 23 5000 1.54 300 09:29 12.03.2021
1584 Haze 34 1015 24 5000 1.54 320 08:57 12.03.2021
1585 Haze 34 1015 24 5000 1.54 320 08:38 12.03.2021
1586 Haze 33 1017 27 5000 2.06 100 07:41 12.03.2021
1587 Haze 32 1017 29 5000 1.54 100 07:19 12.03.2021
1588 Haze 31 1018 33 4000 1.54 80 06:40 12.03.2021
1589 Haze 29 1018 37 4000 1.54 100 05:43 12.03.2021
1590 Haze 23 1014 49 2500 1.03 40 00:52 12.03.2021
1591 Haze 24 1014 46 2500 1.03 60 23:40 11.03.2021
1592 Haze 25 1014 41 2500 2.06 70 22:58 11.03.2021
1593 Haze 25 1014 41 2500 2.06 70 22:38 11.03.2021
1594 Haze 25 1014 41 2500 1.54 80 21:59 11.03.2021
1595 Haze 25 1014 41 2500 1.54 80 21:41 11.03.2021
1596 Haze 25 1014 41 2500 1.54 80 21:20 11.03.2021
1597 Haze 25 1015 41 2500 2.06 80 20:48 11.03.2021
1598 Haze 25 1015 41 2500 2.06 80 20:21 11.03.2021
1599 Haze 26 1015 38 2500 2.06 80 19:47 11.03.2021
1600 Haze 26 1015 38 2500 2.06 80 19:29 11.03.2021
1601 Haze 27 1015 36 2500 3.09 70 18:49 11.03.2021
1602 Haze 27 1015 36 2500 3.09 70 18:31 11.03.2021
1603 Haze 27 1015 36 2500 2.06 60 17:45 11.03.2021
1604 Haze 28 1015 32 2500 2.57 30 17:27 11.03.2021
1605 Haze 29 1014 32 2000 1.54 40 16:31 11.03.2021
1606 Haze 31 1013 25 2000 5.14 360 15:50 11.03.2021
1607 Haze 31 1013 25 2000 5.14 360 15:31 11.03.2021
1608 Haze 31 1012 22 4000 1.03 170 14:57 11.03.2021
1609 Haze 32 1011 22 4000 1.03 150 14:37 11.03.2021
1610 Haze 32 1011 22 4000 1.03 150 14:18 11.03.2021
1611 Haze 35 1011 16 4000 4.12 160 13:42 11.03.2021
1612 Haze 35 1011 16 4000 4.12 160 13:20 11.03.2021
1613 Haze 36 1011 15 4000 3.6 150 12:44 11.03.2021
1614 Haze 36 1011 16 4000 2.57 230 12:26 11.03.2021
1615 Haze 37 1011 15 4000 4.12 140 11:45 11.03.2021
1616 Haze 36 1011 16 4000 4.12 230 11:27 11.03.2021
1617 Haze 36 1011 17 5000 5.14 220 10:44 11.03.2021
1618 Haze 36 1012 16 5000 5.66 240 10:21 11.03.2021
1619 Haze 36 1013 19 5000 3.6 210 09:45 11.03.2021
1620 Haze 36 1013 19 5000 3.09 240 09:23 11.03.2021
1621 Haze 35 1014 20 5000 3.6 220 08:47 11.03.2021
1622 Haze 35 1014 21 5000 3.6 160 08:19 11.03.2021
1623 Haze 33 1015 29 5000 4.12 170 07:30 11.03.2021
1624 Haze 33 1016 27 5000 3.6 200 06:50 11.03.2021
1625 Haze 32 1016 29 5000 3.6 190 06:30 11.03.2021
1626 -273 0 0 0 0 0 03:56 11.03.2021
1627 Haze 23 1013 53 3000 0.73 26 01:19 11.03.2021
1628 Haze 23 1012 49 3000 1.03 100 23:48 10.03.2021
1629 Haze 23 1012 49 3000 1.03 100 23:19 10.03.2021
1630 Haze 23 1012 49 3000 1.03 100 23:19 10.03.2021
1631 Haze 23 1012 49 3000 1.03 100 22:34 10.03.2021
1632 Haze 25 1013 41 3000 2 31 21:47 10.03.2021
1633 Haze 25 1013 41 3000 1.36 3 21:26 10.03.2021
1634 Haze 27 1013 36 3000 0.81 45 20:51 10.03.2021
1635 Haze 27 1013 36 3000 0.81 45 20:33 10.03.2021
1636 Haze 29 1013 32 3000 1.54 270 19:54 10.03.2021
1637 Haze 29 1013 32 3000 1.54 270 19:34 10.03.2021
1638 Haze 28 1013 30 3000 1.03 180 18:56 10.03.2021
1639 Haze 28 1013 30 3000 1.03 180 18:37 10.03.2021
1640 Haze 28 1013 30 3000 1.03 180 18:18 10.03.2021
1641 Haze 29 1013 30 3000 1.54 120 17:41 10.03.2021
1642 Haze 29 1013 30 3000 1.54 120 17:19 10.03.2021
1643 Haze 29 1013 30 3000 1.54 120 16:48 10.03.2021
1644 Haze 30 1012 26 3000 1.54 120 16:25 10.03.2021
1645 Haze 30 1012 28 3000 2.06 120 15:49 10.03.2021
1646 Haze 30 1011 28 3000 1.54 100 15:25 10.03.2021
1647 Haze 31 1011 27 3000 1.54 100 14:57 10.03.2021
1648 Haze 33 1011 22 3000 1.03 10 14:22 10.03.2021
1649 Haze 33 1010 22 3000 1.03 10 13:54 10.03.2021
1650 Haze 36 1010 16 3000 1.54 210 13:31 10.03.2021
1651 Haze 36 1010 16 3000 1.54 210 12:48 10.03.2021
1652 Haze 36 1010 16 4000 1.54 240 12:24 10.03.2021
1653 Haze 36 1010 16 4000 1.54 240 11:50 10.03.2021
1654 Haze 37 1010 16 4000 1.54 340 11:25 10.03.2021
1655 Haze 37 1011 16 4000 3.6 320 10:51 10.03.2021
1656 Haze 36 1011 17 4000 1.03 140 10:32 10.03.2021
1657 Haze 36 1012 16 4000 1.54 160 09:55 10.03.2021
1658 Haze 36 1012 16 4000 1.54 160 09:37 10.03.2021
1659 Haze 37 1013 15 4000 1.54 230 09:18 10.03.2021
1660 Haze 35 1013 17 4000 1.54 280 08:43 10.03.2021
1661 Haze 35 1012 17 4000 2.57 260 08:25 10.03.2021
1662 Haze 34 1015 21 4000 1.54 260 07:42 10.03.2021
1663 Haze 33 1016 27 4000 1.03 220 07:24 10.03.2021
1664 Haze 32 1016 31 4000 1.54 260 06:51 10.03.2021
1665 Haze 20 1015 60 3000 1.03 220 02:43 10.03.2021
1666 Haze 22 1012 49 3000 0.88 320 00:27 10.03.2021
1667 Haze 23 1012 46 3000 1.35 312 23:27 09.03.2021
1668 Haze 23 1013 46 3000 1.03 80 22:50 09.03.2021
1669 Haze 23 1013 46 3000 1.03 80 22:31 09.03.2021
1670 Haze 25 1013 41 3000 1.54 300 21:58 09.03.2021
1671 Haze 25 1013 41 3000 1.54 300 21:37 09.03.2021
1672 Haze 25 1013 41 3000 1.54 300 21:18 09.03.2021
1673 Haze 26 1014 36 3000 1.54 320 20:43 09.03.2021
1674 Haze 26 1014 36 3000 1.54 320 20:22 09.03.2021
1675 Haze 26 1014 36 3000 1.54 320 20:22 09.03.2021
1676 Haze 26 1014 36 3000 1.03 230 19:56 09.03.2021
1677 Haze 26 1014 36 3000 1.03 230 19:29 09.03.2021
1678 Haze 26 1014 36 3000 1.03 200 18:54 09.03.2021
1679 Haze 26 1014 36 3000 1.03 200 18:29 09.03.2021
1680 Haze 27 1014 36 3000 1.03 170 17:57 09.03.2021
1681 Haze 27 1014 29 3000 1.54 90 17:35 09.03.2021
1682 Haze 28 1013 28 3000 1.03 330 16:55 09.03.2021
1683 Haze 28 1013 30 3000 1.03 90 16:37 09.03.2021
1684 Haze 28 1013 30 3000 1.03 90 16:19 09.03.2021
1685 Haze 28 1013 30 3000 1.03 140 15:44 09.03.2021
1686 Haze 29 1012 30 3000 1.03 120 15:22 09.03.2021
1687 Haze 31 1012 25 3000 1.03 120 14:36 09.03.2021
1688 Haze 32 1011 20 3000 1.03 80 14:18 09.03.2021
1689 Haze 32 1011 23 4000 1.03 110 13:38 09.03.2021
1690 Haze 35 1011 23 4000 1.03 50 13:20 09.03.2021
1691 Haze 37 1011 15 4000 1.54 10 12:40 09.03.2021
1692 Haze 37 1011 15 4000 1.54 10 12:21 09.03.2021
1693 Haze 37 1011 14 4000 1.54 70 11:42 09.03.2021
1694 Haze 37 1011 14 4000 2.06 130 11:21 09.03.2021
1695 Haze 37 1011 15 4000 1.54 140 10:55 09.03.2021
1696 Haze 37 1011 15 4000 1.54 140 10:36 09.03.2021
1697 Haze 36 1012 16 4000 1.54 20 10:18 09.03.2021
1698 Haze 36 1012 17 4000 1.03 40 09:43 09.03.2021
1699 Haze 36 1013 19 4000 1.03 60 09:24 09.03.2021
1700 Haze 36 1014 17 4000 2.06 190 08:46 09.03.2021
1701 Haze 34 1014 21 4000 2.06 10 08:23 09.03.2021
1702 Haze 33 1015 22 4000 2.06 190 07:40 09.03.2021
1703 Haze 33 1016 24 4000 2.57 210 07:21 09.03.2021
1704 Haze 30 1016 32 3000 3.09 190 05:55 09.03.2021
1705 Haze 29 1016 34 3000 2.57 200 05:37 09.03.2021
1706 Haze 23 1012 43 3000 1.03 110 00:30 09.03.2021
1707 Haze 24 1012 38 3000 1.03 220 23:43 08.03.2021
1708 Haze 24 1012 38 3000 1.03 220 23:25 08.03.2021
1709 Haze 24 1012 38 3000 1.03 220 22:48 08.03.2021
1710 Haze 25 1012 36 3000 1.03 200 22:29 08.03.2021
1711 Haze 26 1013 34 3000 1.03 310 21:56 08.03.2021
1712 Haze 26 1013 34 3000 1.03 310 21:35 08.03.2021
1713 Haze 27 1013 32 3000 1.03 310 20:48 08.03.2021
1714 Haze 27 1013 32 3000 1.03 310 20:27 08.03.2021
1715 Haze 26 1013 31 3000 1.03 230 19:59 08.03.2021
1716 Haze 26 1013 31 3000 1.03 230 19:36 08.03.2021
1717 Haze 26 1014 29 3000 1.03 280 18:42 08.03.2021
1718 Haze 26 1014 29 3000 1.03 280 18:23 08.03.2021
1719 Haze 26 1014 29 3000 1.03 160 17:51 08.03.2021
1720 Haze 26 1014 29 3000 1.03 160 17:51 08.03.2021
1721 Haze 28 1013 26 3000 1.54 150 17:32 08.03.2021
1722 Haze 27 1013 28 3000 1.54 110 16:49 08.03.2021
1723 Haze 28 1013 24 3000 1.03 140 16:29 08.03.2021
1724 Haze 28 1012 26 3000 1.03 140 15:52 08.03.2021
1725 Haze 29 1012 24 3000 1.54 170 15:29 08.03.2021
1726 Haze 31 1011 20 3000 1.54 170 14:49 08.03.2021
1727 Haze 32 1011 18 3000 2.06 200 14:20 08.03.2021
1728 Haze 33 1011 16 3000 2.35 172 13:43 08.03.2021
1729 Haze 36 1011 12 3000 2.06 210 13:20 08.03.2021
1730 Haze 36 1011 12 3000 2.57 180 12:46 08.03.2021
1731 Haze 37 1011 12 3000 2.57 210 12:27 08.03.2021
1732 Haze 37 1011 12 4000 2.57 200 11:40 08.03.2021
1733 Haze 37 1011 12 4000 2.57 200 11:19 08.03.2021
1734 Haze 37 1011 12 4000 3.6 200 10:43 08.03.2021
1735 Haze 37 1009 13 4000 3.09 200 10:25 08.03.2021
1736 Haze 37 1013 12 4000 2.57 200 09:41 08.03.2021
1737 Haze 36 1013 15 4000 3.6 200 09:23 08.03.2021
1738 Haze 36 1013 15 4000 3.6 200 09:23 08.03.2021
1739 Haze 35 1014 16 4000 3.09 160 08:29 08.03.2021
1740 Haze 33 1016 19 3000 1.03 100 07:24 08.03.2021
1741 Haze 32 1016 22 3000 2.06 100 06:44 08.03.2021
1742 Haze 22 1015 43 2500 0.1 74 03:39 08.03.2021
1743 Haze 21 1012 35 3000 1.54 320 00:45 08.03.2021
1744 Haze 22 1012 37 3000 1.03 350 23:59 07.03.2021
1745 Haze 22 1012 37 3000 1.03 350 23:39 07.03.2021
1746 Haze 22 1012 37 3000 1.03 350 23:19 07.03.2021
1747 Haze 24 1012 35 3000 1.54 20 22:43 07.03.2021
1748 Haze 24 1012 35 3000 1.54 20 22:25 07.03.2021
1749 Haze 20 1012 40 3000 1.03 260 21:45 07.03.2021
1750 Haze 20 1012 40 3000 1.03 260 21:25 07.03.2021
1751 Haze 23 1013 35 3000 1.54 330 20:48 07.03.2021
1752 Haze 23 1013 35 3000 1.54 330 20:30 07.03.2021
1753 Haze 25 1013 29 3000 1.03 310 19:57 07.03.2021
1754 Haze 25 1013 29 3000 1.03 310 19:38 07.03.2021
1755 Haze 25 1013 29 3000 1.03 310 19:20 07.03.2021
1756 Haze 25 1013 29 3000 1.03 310 19:20 07.03.2021
1757 Haze 24 1013 29 3000 1.03 330 18:42 07.03.2021
1758 Haze 24 1013 29 3000 1.03 330 18:19 07.03.2021
1759 Haze 25 1014 27 3000 1.03 270 17:41 07.03.2021
1760 Haze 27 1013 21 3000 1.03 70 17:20 07.03.2021
1761 Haze 26 1013 25 4000 1.03 130 16:58 07.03.2021
1762 Haze 26 1013 25 4000 1.03 130 16:38 07.03.2021
1763 Haze 27 1013 22 4000 1.03 80 16:19 07.03.2021
1764 Haze 29 1012 20 4000 1.54 100 15:42 07.03.2021
1765 Haze 30 1012 19 4000 1.54 90 15:22 07.03.2021
1766 Haze 31 1011 16 4000 1.54 100 14:30 07.03.2021
1767 Haze 32 1011 18 5000 1.03 130 13:59 07.03.2021
1768 Haze 35 1011 14 5000 1.03 60 13:40 07.03.2021
1769 Haze 35 1011 14 5000 1.03 60 13:21 07.03.2021
1770 Haze 36 1011 11 5000 1.03 60 12:45 07.03.2021
1771 Haze 36 1011 10 5000 1.03 150 12:27 07.03.2021
1772 Haze 37 1011 10 5000 1.03 80 11:41 07.03.2021
1773 Haze 37 1011 9 5000 1.03 350 11:21 07.03.2021
1774 Haze 36 1011 10 5000 2.57 210 10:39 07.03.2021
1775 Haze 36 1012 10 5000 3.09 330 10:19 07.03.2021
1776 Haze 36 1012 10 5000 1.54 230 09:40 07.03.2021
1777 Haze 36 1013 11 5000 3.09 190 09:21 07.03.2021
1778 Haze 35 1014 13 5000 2.57 240 08:45 07.03.2021
1779 Haze 35 1014 13 5000 2.57 240 08:23 07.03.2021
1780 Haze 34 1015 15 5000 1.54 150 07:25 07.03.2021
1781 Haze 18 1014 42 3000 1.03 330 02:40 07.03.2021
1782 Haze 19 1012 42 3000 1.03 360 00:38 07.03.2021
1783 Clear 20 1010 22 10000 1.83 31 23:41 06.03.2021
1784 Clear 21 1010 21 10000 1.48 35 23:22 06.03.2021
1785 Clear 21 1010 21 10000 1.48 35 22:47 06.03.2021
1786 Haze 21 1012 35 3000 1.03 340 22:25 06.03.2021
1787 Haze 21 1012 35 3000 1.03 340 21:54 06.03.2021
1788 Haze 21 1012 35 3000 1.03 340 21:21 06.03.2021
1789 Haze 20 1011 30 3000 1.03 320 20:48 06.03.2021
1790 Haze 20 1012 30 3000 1.03 320 20:26 06.03.2021
1791 Haze 22 1014 28 3000 1.16 48 19:41 06.03.2021
1792 Haze 22 1014 28 3000 1.3 51 19:19 06.03.2021
1793 Haze 24 1014 29 3000 1.03 30 18:45 06.03.2021
1794 Haze 24 1014 29 3000 1.03 30 18:23 06.03.2021
1795 Haze 27 1014 19 3000 1.03 30 17:56 06.03.2021
1796 Haze 28 1014 18 3000 1.03 30 17:37 06.03.2021
1797 Haze 28 1014 18 3000 1.03 30 17:18 06.03.2021
1798 Haze 28 1014 18 3000 1.03 360 16:39 06.03.2021
1799 Haze 29 1013 16 3000 1.54 30 16:20 06.03.2021
1800 Haze 28 1012 16 3000 1.03 10 15:41 06.03.2021
1801 Haze 28 1012 16 3000 1.03 10 15:23 06.03.2021
1802 Haze 32 1012 12 3000 1.03 10 14:34 06.03.2021
1803 Haze 34 1011 10 4000 1.54 10 13:57 06.03.2021
1804 Haze 34 1011 10 4000 1.54 10 13:39 06.03.2021
1805 Haze 35 1011 8 5000 2.57 10 13:19 06.03.2021
1806 Haze 36 1011 9 5000 1.03 340 12:44 06.03.2021
1807 Haze 36 1011 9 5000 2.06 20 12:19 06.03.2021
1808 Haze 36 1011 9 5000 3.6 310 11:47 06.03.2021
1809 Haze 36 1011 9 5000 2.06 340 11:21 06.03.2021
1810 Haze 35 1012 10 5000 1.54 190 10:45 06.03.2021
1811 Haze 35 1013 10 5000 4.63 340 10:18 06.03.2021
1812 Haze 35 1013 10 5000 1.54 310 09:41 06.03.2021
1813 Haze 35 1014 10 5000 1.54 10 09:19 06.03.2021
1814 Haze 35 1014 10 5000 1.54 10 09:19 06.03.2021
1815 Haze 34 1015 10 5000 1.03 350 08:33 06.03.2021
1816 Clouds 33 1016 12 6000 1.03 230 07:56 06.03.2021
1817 Clouds 32 1017 12 6000 1.03 40 07:23 06.03.2021
1818 Clouds 32 1017 13 6000 1.03 140 06:44 06.03.2021
1819 Haze 30 1017 16 5000 2.06 100 05:34 06.03.2021
1820 Haze 17 1015 42 3000 1.7 356 02:24 06.03.2021
1821 Haze 19 1013 34 3000 1.83 359 00:47 06.03.2021
1822 Haze 20 1013 30 3000 1.03 320 23:51 05.03.2021
1823 Haze 20 1013 30 3000 1.03 320 23:51 05.03.2021
1824 Haze 22 1013 26 3000 1.03 330 23:22 05.03.2021
1825 Haze 22 1013 26 3000 1.03 330 22:45 05.03.2021
1826 Haze 22 1013 26 3000 1.03 330 22:45 05.03.2021
1827 Haze 22 1013 26 3000 1.03 330 22:22 05.03.2021
1828 Haze 23 1014 27 3000 1.54 330 21:52 05.03.2021
1829 Haze 23 1014 27 3000 1.54 330 21:32 05.03.2021
1830 Haze 23 1014 27 3000 1.54 330 20:53 05.03.2021
1831 Haze 23 1014 27 3000 1.54 330 20:26 05.03.2021
1832 Haze 22 1014 30 3000 1.03 170 19:55 05.03.2021
1833 Haze 22 1014 30 3000 1.03 170 19:26 05.03.2021
1834 Haze 23 1014 28 3000 1.03 70 18:56 05.03.2021
1835 Haze 23 1014 28 3000 1.03 70 18:38 05.03.2021
1836 Haze 23 1014 28 3000 1.03 70 18:18 05.03.2021
1837 Haze 23 1014 28 3000 1.03 70 18:18 05.03.2021
1838 Haze 24 1014 27 3000 1.03 180 17:33 05.03.2021
1839 Haze 27 1014 21 3000 1.03 360 16:45 05.03.2021
1840 Haze 29 1013 18 3000 1.03 360 16:24 05.03.2021
1841 Haze 30 1013 16 4000 2.06 360 15:56 05.03.2021
1842 Haze 30 1012 17 4000 1.03 360 15:29 05.03.2021
1843 Haze 31 1012 16 4000 1.03 350 14:58 05.03.2021
1844 Haze 31 1012 16 4000 1.03 350 14:38 05.03.2021
1845 Haze 34 1011 12 4000 2.57 330 13:46 05.03.2021
1846 Haze 35 1011 10 5000 4.12 330 13:21 05.03.2021
1847 Haze 35 1011 10 5000 6.69 310 12:47 05.03.2021
1848 Haze 37 1011 10 5000 5.66 320 11:41 05.03.2021
1849 Haze 37 1011 10 5000 5.66 320 11:21 05.03.2021
1850 Haze 37 1011 10 5000 6.17 280 10:57 05.03.2021
1851 Haze 37 1011 10 5000 6.17 280 10:57 05.03.2021
1852 Haze 37 1012 9 5000 5.66 300 10:37 05.03.2021
1853 Haze 37 1012 9 5000 5.66 300 10:19 05.03.2021
1854 Clear 36 1012 10 6000 6.69 300 09:45 05.03.2021
1855 Clear 35 1013 10 6000 2.06 360 09:26 05.03.2021
1856 Clear 35 1014 10 6000 4.63 310 08:40 05.03.2021
1857 Clear 35 1014 10 6000 4.63 310 08:20 05.03.2021
1858 Clear 34 1015 12 6000 3.09 330 07:36 05.03.2021
1859 Clear 34 1016 11 6000 4.12 320 06:44 05.03.2021
1860 Clear 33 1016 13 6000 3.6 330 06:26 05.03.2021
1861 Haze 19 1013 37 3000 1.03 310 01:40 05.03.2021
1862 Haze 19 1012 39 3000 1.03 110 00:19 05.03.2021
1863 Haze 20 1013 32 3000 1.03 130 23:25 04.03.2021
1864 Haze 20 1013 32 3000 1.03 130 22:31 04.03.2021
1865 Haze 25 1013 23 3000 1.03 110 21:56 04.03.2021
1866 Haze 25 1013 23 3000 1.03 110 21:34 04.03.2021
1867 Clear 22 1012 20 10000 1.59 277 20:59 04.03.2021
1868 Clear 22 1012 20 10000 1.59 277 20:40 04.03.2021
1869 Haze 24 1013 20 3000 1.54 150 20:21 04.03.2021
1870 Haze 24 1013 20 3000 1.54 150 19:51 04.03.2021
1871 Haze 24 1013 20 3000 1.54 150 19:26 04.03.2021
1872 Haze 25 1013 20 3000 1.03 340 18:52 04.03.2021
1873 Haze 25 1013 20 3000 1.03 340 18:30 04.03.2021
1874 Haze 26 1013 18 3000 1.03 300 17:50 04.03.2021
1875 Haze 25 1013 20 3000 1.03 140 17:31 04.03.2021
1876 Haze 26 1013 19 3000 2.06 130 16:51 04.03.2021
1877 Haze 26 1013 24 3000 1.03 130 16:32 04.03.2021
1878 Haze 28 1013 17 3000 1.54 130 15:57 04.03.2021
1879 Haze 29 1013 18 4000 1.54 110 15:38 04.03.2021
1880 Haze 29 1013 18 4000 1.54 110 15:20 04.03.2021
1881 Haze 30 1012 19 4000 1.54 110 14:39 04.03.2021
1882 Haze 33 1012 14 4000 1.03 90 13:57 04.03.2021
1883 Haze 34 1011 12 4000 1.54 70 13:36 04.03.2021
1884 Haze 34 1011 12 4000 1.54 70 13:18 04.03.2021
1885 Haze 35 1011 10 5000 2.06 110 12:40 04.03.2021
1886 Haze 36 1011 9 5000 2.06 110 11:49 04.03.2021
1887 Haze 37 1011 8 5000 1.54 270 11:28 04.03.2021
1888 Haze 36 1012 9 5000 1.54 130 10:57 04.03.2021
1889 Haze 36 1012 9 5000 1.54 130 10:35 04.03.2021
1890 Haze 36 1013 9 5000 2.57 120 09:51 04.03.2021
1891 Haze 35 1014 12 5000 2.57 120 09:26 04.03.2021
1892 Haze 34 1014 14 5000 2.57 130 08:49 04.03.2021
1893 Haze 34 1015 15 5000 2.06 90 08:23 04.03.2021
1894 Haze 33 1015 16 5000 2.06 140 07:35 04.03.2021
1895 Haze 31 1016 20 5000 2.06 120 06:28 04.03.2021
1896 Haze 30 1016 21 5000 1.03 130 05:52 04.03.2021
1897 Haze 17 1014 48 3000 1.03 20 02:20 04.03.2021
1898 Haze 17 1013 51 3000 1.03 290 23:36 03.03.2021
1899 Haze 19 1013 45 3000 1.8 30 22:29 03.03.2021
1900 Haze 21 1014 43 3000 1.03 20 21:57 03.03.2021
1901 Haze 21 1014 43 3000 1.03 20 21:39 03.03.2021
1902 Haze 21 1014 43 3000 1.03 20 21:21 03.03.2021
1903 Haze 21 1014 40 3000 1.03 40 20:43 03.03.2021
1904 Haze 21 1014 40 3000 1.03 40 20:24 03.03.2021
1905 Haze 23 1014 33 3000 1.03 340 19:47 03.03.2021
1906 Haze 23 1014 33 3000 1.03 340 19:28 03.03.2021
1907 Haze 24 1015 31 3000 1.03 340 18:53 03.03.2021
1908 Haze 23 1015 31 3000 1.03 60 18:34 03.03.2021
1909 Haze 23 1014 31 3000 1.87 359 17:57 03.03.2021
1910 Haze 24 1014 29 4000 1.03 90 17:20 03.03.2021
1911 Haze 26 1014 24 4000 1.03 90 16:51 03.03.2021
1912 Haze 25 1014 27 4000 1.03 110 16:27 03.03.2021
1913 Haze 24 1013 29 4000 1.03 150 15:51 03.03.2021
1914 Haze 28 1013 21 5000 1.03 80 15:31 03.03.2021
1915 Haze 29 1012 18 5000 1.54 90 14:35 03.03.2021
1916 Clear 32 1012 15 6000 1.03 90 13:59 03.03.2021
1917 Clear 34 1012 12 6000 1.03 90 13:38 03.03.2021
1918 Clear 34 1012 12 6000 1.03 90 13:18 03.03.2021
1919 Clear 35 1012 11 6000 1.03 30 12:41 03.03.2021
1920 Clear 35 1012 11 6000 1.03 30 12:22 03.03.2021
1921 Clear 35 1012 10 6000 1.54 210 11:44 03.03.2021
1922 Clear 35 1012 10 6000 1.03 20 11:22 03.03.2021
1923 Clear 34 1013 10 6000 1.54 20 10:44 03.03.2021
1924 Clear 34 1013 11 6000 2.57 30 10:21 03.03.2021
1925 Clear 33 1014 13 6000 2.06 330 09:41 03.03.2021
1926 Haze 33 1014 13 5000 2.06 20 08:51 03.03.2021
1927 Haze 32 1015 14 5000 2.06 20 08:23 03.03.2021
1928 Haze 31 1016 18 5000 2.06 80 07:55 03.03.2021
1929 Haze 31 1016 19 5000 2.57 70 07:26 03.03.2021
1930 Haze 29 1017 20 5000 2.06 90 06:21 03.03.2021
1931 Haze 28 1017 21 5000 2.57 90 05:31 03.03.2021
1932 Haze 27 1016 24 5000 1.03 40 04:36 03.03.2021
1933 Haze 24 1016 31 5000 1.03 10 03:52 03.03.2021
1934 Haze 22 1013 30 3000 1.54 40 00:18 03.03.2021
1935 Haze 22 1013 28 3000 1.54 30 23:32 02.03.2021
1936 Haze 22 1013 26 3000 1.03 360 22:48 02.03.2021
1937 Haze 22 1013 26 3000 1.03 360 22:21 02.03.2021
1938 Haze 23 1014 25 3000 1.54 360 21:51 02.03.2021
1939 Clear 21 1012 22 10000 1.94 17 21:32 02.03.2021
1940 Clear 21 1012 22 10000 1.39 22 20:55 02.03.2021
1941 Haze 26 1015 21 3000 1.54 360 20:36 02.03.2021
1942 Haze 26 1015 21 3000 1.54 360 20:18 02.03.2021
1943 Haze 26 1015 21 3000 1.54 360 19:43 02.03.2021
1944 Haze 26 1015 21 3000 1.54 360 19:25 02.03.2021
1945 Haze 27 1015 16 3000 1.54 360 18:41 02.03.2021
1946 Haze 27 1015 16 3000 1.54 360 18:21 02.03.2021
1947 Haze 27 1015 16 3000 1.54 360 17:54 02.03.2021
1948 Haze 27 1015 16 3000 1.54 360 17:36 02.03.2021
1949 Haze 27 1015 16 3000 1.54 360 17:36 02.03.2021
1950 Haze 28 1015 14 3000 1.54 20 17:18 02.03.2021
1951 Haze 27 1015 14 3000 1.54 50 16:38 02.03.2021
1952 Haze 28 1014 14 3000 1.03 30 15:52 02.03.2021
1953 Haze 28 1014 14 3000 1.03 30 15:52 02.03.2021
1954 Haze 28 1013 15 3000 1.03 80 15:25 02.03.2021
1955 Haze 32 1013 10 4000 1.54 10 14:28 02.03.2021
1956 Haze 34 1012 8 4000 1.54 10 13:59 02.03.2021
1957 Haze 35 1012 8 4000 2.06 350 13:39 02.03.2021
1958 Haze 35 1012 8 4000 2.06 350 13:20 02.03.2021
1959 Haze 37 1012 8 5000 4.12 300 12:31 02.03.2021
1960 Haze 37 1012 8 5000 4.12 280 11:57 02.03.2021
1961 Haze 37 1012 8 5000 4.12 280 11:38 02.03.2021
1962 Haze 37 1012 9 5000 2.57 10 11:18 02.03.2021
1963 Haze 36 1013 11 5000 1.54 260 10:35 02.03.2021
1964 Clear 36 1014 15 6000 1.54 30 09:59 02.03.2021
1965 Clear 36 1014 15 6000 1.54 30 09:40 02.03.2021
1966 Clear 35 1014 15 6000 1.54 220 09:19 02.03.2021
1967 Clear 33 1016 19 6000 2.57 320 08:38 02.03.2021
1968 Clear 32 1016 22 6000 2.57 120 07:58 02.03.2021
1969 Clear 31 1017 23 6000 1.54 80 07:27 02.03.2021
1970 Clear 29 1018 28 6000 2.06 30 06:33 02.03.2021
1971 Haze 29 1018 28 5000 3.09 80 05:45 02.03.2021
1972 Haze 28 1017 30 5000 2.57 80 05:27 02.03.2021
1973 Haze 18 1015 52 3000 1.03 310 01:44 02.03.2021
1974 Haze 18 1015 52 3000 1.03 310 01:44 02.03.2021
1975 Haze 18 1015 52 3000 1.03 310 01:44 02.03.2021
1976 Haze 18 1015 52 3000 1.03 310 01:44 02.03.2021
1977 Haze 20 1014 45 3000 1.03 350 01:25 02.03.2021
1978 Haze 21 1014 40 3000 1.54 330 00:21 02.03.2021
1979 Haze 21 1014 49 3000 1.03 20 23:22 01.03.2021
1980 Haze 21 1014 49 3000 1.03 20 22:40 01.03.2021
1981 Haze 21 1014 49 3000 1.03 20 22:21 01.03.2021
1982 Haze 21 1014 49 3000 1.03 20 22:21 01.03.2021
1983 Haze 24 1014 35 3000 2.06 320 21:45 01.03.2021
1984 Haze 24 1014 35 3000 2.06 320 21:23 01.03.2021
1985 Haze 23 1014 38 3000 1.03 10 20:47 01.03.2021
1986 Haze 23 1014 38 3000 1.03 10 20:27 01.03.2021
1987 Haze 24 1015 35 3000 1.03 80 19:53 01.03.2021
1988 Haze 24 1015 35 3000 1.03 80 19:33 01.03.2021
1989 Haze 23 1015 40 3000 1.03 160 18:46 01.03.2021
1990 Haze 24 1015 35 3000 1.03 240 18:24 01.03.2021
1991 Haze 26 1015 29 3000 1.54 330 17:52 01.03.2021
1992 Haze 26 1015 29 3000 1.54 330 17:28 01.03.2021
1993 Haze 26 1015 29 3000 1.54 330 16:59 01.03.2021
1994 Haze 30 1014 23 3000 1.54 350 16:40 01.03.2021
1995 Haze 30 1014 23 3000 1.54 350 16:22 01.03.2021
1996 Haze 32 1013 20 3000 2.06 360 15:39 01.03.2021
1997 Haze 32 1013 20 3000 2.06 360 15:18 01.03.2021
1998 Haze 31 1013 22 4000 1.03 350 14:43 01.03.2021
1999 Haze 33 1013 17 4000 1.03 350 14:25 01.03.2021
2000 Haze 35 1012 15 4000 4.12 330 13:39 01.03.2021
2001 Haze 36 1012 13 4000 3.6 320 13:20 01.03.2021
2002 Haze 36 1012 12 4000 4.63 330 12:44 01.03.2021
2003 Haze 37 1012 12 4000 4.63 290 12:25 01.03.2021
2004 Haze 37 1012 12 4000 2.57 330 11:57 01.03.2021
2005 Haze 37 1012 12 4000 2.57 280 11:30 01.03.2021
2006 Haze 37 1012 12 4000 1.03 360 10:43 01.03.2021
2007 Haze 37 1013 13 5000 2.06 290 10:22 01.03.2021
2008 Haze 36 1013 14 5000 1.54 330 09:56 01.03.2021
2009 Haze 36 1014 14 5000 1.54 50 09:36 01.03.2021
2010 Haze 36 1014 14 5000 2.06 350 08:57 01.03.2021
2011 Haze 36 1014 14 5000 2.06 350 08:36 01.03.2021
2012 Haze 34 1015 21 5000 1.54 120 07:33 01.03.2021
2013 Haze 31 1016 23 5000 1.54 90 06:31 01.03.2021
2014 Haze 20 1014 42 3000 1.54 270 02:40 01.03.2021
2015 Haze 25 1011 29 3000 1.03 350 23:54 28.02.2021
2016 Haze 25 1011 29 3000 1.03 350 23:21 28.02.2021
2017 Haze 26 1011 27 3000 1.03 310 22:44 28.02.2021
2018 Haze 26 1011 27 3000 1.03 310 22:21 28.02.2021
2019 Haze 27 1012 24 3000 1.03 10 21:46 28.02.2021
2020 Haze 27 1012 24 3000 1.03 10 21:23 28.02.2021
2021 Haze 27 1012 28 3000 2.06 350 20:46 28.02.2021
2022 Haze 27 1012 28 3000 2.06 350 20:27 28.02.2021
2023 Haze 27 1013 26 3000 1.03 300 19:46 28.02.2021
2024 Haze 27 1013 26 3000 1.03 300 19:27 28.02.2021
2025 Haze 26 1012 38 3000 1.03 20 18:47 28.02.2021
2026 Haze 26 1012 38 3000 1.03 20 18:27 28.02.2021
2027 Haze 25 1012 36 3000 1.03 40 17:56 28.02.2021
2028 Haze 25 1012 36 3000 1.03 40 17:37 28.02.2021
2029 Haze 27 1012 28 3000 2.06 280 17:19 28.02.2021
2030 Haze 27 1012 28 3000 2.06 280 16:46 28.02.2021
2031 Haze 30 1012 21 3000 1.03 10 16:26 28.02.2021
2032 Haze 29 1010 26 3000 2.06 240 15:51 28.02.2021
2033 Haze 29 1010 26 3000 2.06 240 15:51 28.02.2021
2034 Haze 29 1010 26 3000 2.06 240 15:26 28.02.2021
2035 Haze 29 1010 26 3000 2.06 240 14:57 28.02.2021
2036 Haze 34 1010 18 4000 3.31 328 14:30 28.02.2021
2037 Haze 34 1010 18 4000 3 328 13:56 28.02.2021
2038 Haze 35 1010 16 5000 2.06 360 13:36 28.02.2021
2039 Haze 35 1010 16 5000 2.06 360 13:18 28.02.2021
2040 Haze 35 1009 15 5000 2.06 340 12:48 28.02.2021
2041 Haze 36 1009 15 5000 2.06 340 12:30 28.02.2021
2042 Haze 36 1009 14 5000 2.57 270 11:55 28.02.2021
2043 Haze 36 1009 14 5000 3.09 340 11:36 28.02.2021
2044 Haze 36 1009 14 5000 3.09 340 11:18 28.02.2021
2045 Clouds 35 1010 15 6000 5.14 320 10:30 28.02.2021
2046 Clouds 35 1010 16 6000 3.09 340 09:58 28.02.2021
2047 Clouds 36 1011 16 6000 3.09 220 09:36 28.02.2021
2048 Clouds 36 1011 16 6000 3.09 220 08:59 28.02.2021
2049 Clouds 36 1011 16 6000 3.09 220 08:37 28.02.2021
2050 Clear 35 1012 18 6000 1.54 340 08:19 28.02.2021
2051 Clear 35 1013 18 6000 2.57 330 07:43 28.02.2021
2052 Clear 35 1013 18 6000 2.57 330 07:43 28.02.2021
2053 Clear 34 1013 20 6000 1.03 40 07:24 28.02.2021
2054 Clear 32 1014 22 6000 3.09 350 06:23 28.02.2021
2055 Haze 26 1013 31 3000 1.54 350 03:48 28.02.2021
2056 Haze 18 1011 55 3000 2.06 330 02:25 28.02.2021
2057 Haze 19 1010 52 3000 1.85 335 01:20 28.02.2021
2058 Haze 21 1010 43 3000 2.06 320 00:38 28.02.2021
2059 Haze 21 1010 46 3000 1.03 320 23:50 27.02.2021
2060 Haze 21 1010 49 3000 1.26 17 23:21 27.02.2021
2061 Haze 21 1010 49 3000 1.03 310 22:49 27.02.2021
2062 Haze 21 1010 49 3000 1.03 310 22:23 27.02.2021
2063 Haze 22 1010 43 3000 1.85 352 21:55 27.02.2021
2064 Haze 22 1010 43 3000 1.85 352 21:35 27.02.2021
2065 Haze 21 1011 49 3000 1.03 340 20:54 27.02.2021
2066 Haze 21 1011 49 3000 1.03 340 20:35 27.02.2021
2067 Haze 21 1011 49 3000 1.03 340 20:35 27.02.2021
2068 Haze 23 1011 40 3000 0.81 180 19:58 27.02.2021
2069 Haze 23 1011 38 3000 0.8 180 19:39 27.02.2021
2070 Haze 23 1011 38 3000 1.15 137 19:21 27.02.2021
2071 Haze 26 1011 31 3000 1.03 20 18:38 27.02.2021
2072 Haze 26 1011 31 3000 1.03 20 18:18 27.02.2021
2073 Haze 25 1011 31 3000 1.03 340 17:43 27.02.2021
2074 Haze 25 1011 33 3000 1.03 320 17:20 27.02.2021
2075 Haze 26 1011 29 3000 1.03 320 16:50 27.02.2021
2076 Haze 26 1010 29 3000 1.03 310 16:30 27.02.2021
2077 Haze 27 1010 28 3000 2.69 339 15:49 27.02.2021
2078 Haze 28 1010 26 4000 1.03 150 15:30 27.02.2021
2079 Haze 31 1009 19 5000 1.03 50 14:41 27.02.2021
2080 Haze 31 1009 19 5000 1.03 50 14:23 27.02.2021
2081 Haze 33 1009 17 5000 1.03 40 13:47 27.02.2021
2082 Clear 35 1009 14 6000 1.03 70 13:25 27.02.2021
2083 Clear 36 1008 12 6000 1.54 50 12:49 27.02.2021
2084 Clear 36 1008 12 6000 2.06 40 12:27 27.02.2021
2085 Clear 36 1008 13 6000 2.06 40 11:55 27.02.2021
2086 Clear 36 1008 13 6000 2.06 350 11:31 27.02.2021
2087 Clear 36 1009 12 6000 3.6 320 10:59 27.02.2021
2088 Clear 35 1009 15 6000 1.54 350 10:41 27.02.2021
2089 Clear 35 1009 15 6000 1.54 350 10:18 27.02.2021
2090 Clear 35 1010 15 6000 1.54 360 09:35 27.02.2021
2091 Haze 35 1011 15 5000 1.54 330 08:45 27.02.2021
2092 Haze 34 1011 17 5000 1.54 60 08:24 27.02.2021
2093 Haze 33 1012 18 5000 1.54 50 07:59 27.02.2021
2094 Haze 33 1013 18 5000 1.54 350 07:31 27.02.2021
2095 Haze 20 1010 37 3000 1.54 330 02:31 27.02.2021
2096 Haze 20 1009 42 3000 1.03 320 00:32 27.02.2021
2097 Haze 20 1009 42 3000 1.54 320 23:43 26.02.2021
2098 Haze 20 1009 42 3000 1.54 320 23:23 26.02.2021
2099 Haze 19 1010 45 3000 1.03 340 22:38 26.02.2021
2100 Haze 19 1010 45 3000 1.03 340 22:19 26.02.2021
2101 Haze 21 1010 40 3000 1.03 340 21:36 26.02.2021
2102 Haze 21 1011 37 3000 2.79 315 20:56 26.02.2021
2103 Haze 21 1011 37 3000 2.79 315 20:56 26.02.2021
2104 Haze 21 1011 37 3000 2.79 315 20:37 26.02.2021
2105 Haze 21 1011 37 3000 2.79 315 20:37 26.02.2021
2106 Haze 21 1011 37 3000 2.67 316 20:18 26.02.2021
2107 Haze 23 1011 33 3000 1.54 90 19:27 26.02.2021
2108 Haze 25 1011 27 3000 2.06 340 18:57 26.02.2021
2109 Haze 25 1011 27 3000 2.06 340 18:25 26.02.2021
2110 Haze 26 1011 24 3000 1.03 340 17:59 26.02.2021
2111 Haze 27 1011 22 3000 1.03 340 17:38 26.02.2021
2112 Haze 27 1011 22 3000 1.03 340 17:18 26.02.2021
2113 Haze 27 1011 24 3000 1.54 330 16:46 26.02.2021
2114 Haze 27 1010 24 3000 1.54 330 16:27 26.02.2021
2115 Haze 29 1010 21 3000 1.03 350 15:44 26.02.2021
2116 Haze 30 1009 20 3000 2.06 350 15:24 26.02.2021
2117 Haze 30 1009 20 3000 2.06 350 14:57 26.02.2021
2118 Haze 30 1009 20 3000 2.06 350 14:35 26.02.2021
2119 Haze 34 1008 14 4000 1.54 340 13:54 26.02.2021
2120 Haze 34 1008 14 4000 1.54 340 13:34 26.02.2021
2121 Haze 35 1008 10 5000 3.09 350 12:57 26.02.2021
2122 Haze 36 1008 13 5000 5.14 300 12:28 26.02.2021
2123 Haze 36 1008 14 5000 5.66 300 11:43 26.02.2021
2124 Haze 36 1008 12 5000 5.14 300 11:20 26.02.2021
2125 Haze 36 1008 14 5000 3.09 280 10:37 26.02.2021
2126 Haze 36 1009 15 5000 2.57 330 09:48 26.02.2021
2127 Haze 36 1010 16 5000 3.6 300 09:28 26.02.2021
2128 Haze 35 1011 20 5000 1.03 140 08:36 26.02.2021
2129 Haze 34 1012 21 5000 1.54 330 07:58 26.02.2021
2130 Haze 33 1013 22 5000 1.54 10 07:22 26.02.2021
2131 Haze 31 1014 27 5000 2.06 10 06:32 26.02.2021
2132 Haze 29 1013 30 4000 1.03 40 05:18 26.02.2021
2133 Haze 18 1011 63 3000 1.27 359 02:39 26.02.2021
2134 Haze 19 1010 55 3000 2.22 335 00:33 26.02.2021
2135 Haze 19 1010 55 3000 2.54 323 23:40 25.02.2021
2136 Haze 19 1010 55 3000 2.54 317 23:19 25.02.2021
2137 Haze 21 1010 46 3000 1.03 320 22:38 25.02.2021
2138 Haze 22 1011 43 3000 1.54 340 21:53 25.02.2021
2139 Haze 22 1011 43 3000 1.54 340 21:33 25.02.2021
2140 Haze 21 1011 46 3000 1.03 300 20:55 25.02.2021
2141 Haze 21 1011 46 3000 1.03 300 20:37 25.02.2021
2142 Haze 21 1011 46 3000 1.03 300 20:18 25.02.2021
2143 Haze 22 1012 46 3000 1.03 160 19:46 25.02.2021
2144 Haze 22 1012 46 3000 1.03 160 19:19 25.02.2021
2145 Haze 25 1012 36 3000 1.86 296 18:40 25.02.2021
2146 Haze 25 1012 36 3000 1.71 279 18:18 25.02.2021
2147 Haze 23 1012 40 3000 1.71 279 17:35 25.02.2021
2148 Haze 26 1012 31 3000 1.03 50 16:59 25.02.2021
2149 Haze 26 1012 31 3000 1.03 50 16:33 25.02.2021
2150 Haze 27 1011 28 3000 1.03 100 15:49 25.02.2021
2151 Haze 27 1011 28 3000 1.03 170 15:28 25.02.2021
2152 Haze 30 1010 25 4000 1.03 160 14:37 25.02.2021
2153 Haze 30 1010 25 4000 1.03 160 14:18 25.02.2021
2154 Haze 35 1010 13 4000 1.54 350 13:41 25.02.2021
2155 Haze 35 1010 13 4000 1.54 350 13:20 25.02.2021
2156 Haze 35 1010 13 4000 3.6 320 12:38 25.02.2021
2157 Haze 35 1010 13 4000 3.6 320 12:38 25.02.2021
2158 Haze 36 1010 12 5000 1.54 300 12:20 25.02.2021
2159 Haze 36 1010 12 5000 1.54 300 11:42 25.02.2021
2160 Haze 36 1011 14 5000 1.54 210 10:51 25.02.2021
2161 Haze 35 1011 16 5000 1.54 170 10:33 25.02.2021
2162 Haze 35 1012 15 5000 2.57 320 09:45 25.02.2021
2163 Haze 35 1012 15 5000 2.57 320 09:45 25.02.2021
2164 Haze 35 1012 15 5000 2.57 270 09:23 25.02.2021
2165 Haze 34 1014 16 5000 2.06 110 08:32 25.02.2021
2166 Haze 33 1014 18 5000 2.57 240 07:59 25.02.2021
2167 Haze 32 1015 22 5000 1.03 220 07:38 25.02.2021
2168 Haze 31 1015 23 5000 1.54 220 06:57 25.02.2021
2169 Haze 31 1015 23 5000 1.54 220 06:57 25.02.2021
2170 Haze 25 1015 38 3000 0.58 320 04:22 25.02.2021
2171 Haze 16 1013 63 2500 0.98 356 01:42 25.02.2021
2172 Haze 17 1012 59 3000 1.2 6 00:46 25.02.2021
2173 Haze 18 1012 55 3000 1.03 300 23:56 24.02.2021
2174 Haze 19 1012 52 3000 1.03 330 23:32 24.02.2021
2175 Haze 19 1012 52 3000 1.03 330 22:47 24.02.2021
2176 Haze 19 1012 52 3000 1.03 330 22:29 24.02.2021
2177 Haze 20 1013 49 3000 1.03 330 21:48 24.02.2021
2178 Haze 20 1013 49 3000 1.03 330 21:24 24.02.2021
2179 Haze 20 1013 49 3000 1.03 330 20:48 24.02.2021
2180 Haze 20 1013 49 3000 1.03 330 20:25 24.02.2021
2181 Haze 23 1014 43 3000 1.54 10 19:40 24.02.2021
2182 Haze 23 1014 43 3000 1.54 10 19:20 24.02.2021
2183 Haze 23 1014 43 3000 1.54 10 19:20 24.02.2021
2184 Haze 23 1014 35 3000 1.03 310 18:48 24.02.2021
2185 Haze 23 1014 35 3000 1.03 310 18:29 24.02.2021
2186 Haze 23 1014 38 3000 1.03 340 17:39 24.02.2021
2187 Haze 23 1014 38 3000 1.03 340 17:20 24.02.2021
2188 Haze 23 1013 35 3000 1.03 260 16:45 24.02.2021
2189 Haze 25 1013 31 3000 1.03 320 16:20 24.02.2021
2190 Haze 25 1013 31 3000 1.03 320 15:47 24.02.2021
2191 Haze 26 1012 29 3000 1.03 120 15:25 24.02.2021
2192 Haze 30 1011 23 4000 1.03 110 14:35 24.02.2021
2193 Haze 30 1011 23 4000 1.03 110 13:59 24.02.2021
2194 Haze 33 1011 13 4000 2.76 221 13:40 24.02.2021
2195 Haze 33 1011 13 4000 1.95 240 13:22 24.02.2021
2196 Haze 34 1011 12 4000 2.57 330 12:45 24.02.2021
2197 Haze 35 1011 12 4000 1.54 100 12:27 24.02.2021
2198 Haze 34 1011 13 4000 2.06 10 11:50 24.02.2021
2199 Haze 34 1011 15 5000 2.06 80 11:21 24.02.2021
2200 Haze 33 1012 15 5000 2.06 20 10:32 24.02.2021
2201 Haze 33 1013 16 5000 2.06 90 09:50 24.02.2021
2202 Haze 33 1013 16 5000 2.06 110 09:20 24.02.2021
2203 Haze 33 1014 15 5000 2.06 130 08:35 24.02.2021
2204 Haze 32 1015 18 5000 1.03 50 07:57 24.02.2021
2205 Haze 31 1015 20 5000 1.54 40 07:20 24.02.2021
2206 Haze 29 1016 24 4000 1.03 40 06:31 24.02.2021
2207 Haze 17 1015 55 3000 1.81 22 03:40 24.02.2021
2208 Haze 16 1012 55 3000 1.03 330 00:37 24.02.2021
2209 Haze 17 1012 59 3000 1.92 9 23:29 23.02.2021
2210 Haze 17 1013 59 3000 1.03 340 22:40 23.02.2021
2211 Haze 17 1013 59 3000 1.03 340 22:19 23.02.2021
2212 Haze 18 1013 55 3000 1.03 340 21:44 23.02.2021
2213 Haze 18 1013 55 3000 1.03 340 21:22 23.02.2021
2214 Haze 22 1014 40 3000 1.03 330 20:48 23.02.2021
2215 Haze 22 1014 40 3000 1.03 330 20:29 23.02.2021
2216 Haze 20 1015 49 3000 1.03 340 19:48 23.02.2021
2217 Haze 20 1015 49 3000 1.03 340 19:27 23.02.2021
2218 Haze 23 1015 40 3000 1.03 80 18:56 23.02.2021
2219 Haze 23 1015 40 3000 1.03 80 18:32 23.02.2021
2220 Haze 23 1015 35 3000 1.54 340 17:54 23.02.2021
2221 Haze 23 1015 35 3000 1.54 340 17:33 23.02.2021
2222 Haze 23 1014 35 3000 1.54 270 16:56 23.02.2021
2223 Haze 24 1014 33 3000 1.03 70 16:28 23.02.2021
2224 Haze 23 1014 31 3000 1.03 100 15:58 23.02.2021
2225 Haze 24 1013 31 4000 1.03 270 15:38 23.02.2021
2226 Haze 24 1013 31 4000 1.03 270 15:18 23.02.2021
2227 Haze 27 1013 26 4000 1.54 170 14:43 23.02.2021
2228 Haze 29 1012 18 4000 1.03 90 14:25 23.02.2021
2229 Haze 31 1012 16 4000 1.03 40 13:44 23.02.2021
2230 Haze 33 1012 14 5000 1.03 50 13:24 23.02.2021
2231 Haze 34 1012 12 5000 3.09 320 12:51 23.02.2021
2232 Haze 34 1012 12 5000 1.03 40 12:20 23.02.2021
2233 Haze 33 1012 14 5000 2.57 360 11:47 23.02.2021
2234 Haze 33 1013 14 5000 3.09 20 11:21 23.02.2021
2235 Haze 33 1013 14 5000 3.09 360 10:41 23.02.2021
2236 Haze 33 1013 14 5000 3.09 310 10:21 23.02.2021
2237 Haze 33 1014 15 5000 2.06 350 09:43 23.02.2021
2238 Haze 32 1015 17 5000 2.06 100 09:22 23.02.2021
2239 Haze 32 1015 17 5000 2.57 350 08:48 23.02.2021
2240 Haze 31 1016 18 5000 2.57 30 08:21 23.02.2021
2241 Haze 31 1017 19 5000 1.54 100 07:49 23.02.2021
2242 Haze 26 1018 31 5000 1.42 54 05:31 23.02.2021
2243 Haze 23 1017 38 4000 1.44 54 04:32 23.02.2021
2244 Haze 16 1016 55 4000 1.54 320 02:34 23.02.2021
2245 Haze 17 1014 55 3000 1.69 11 00:20 23.02.2021
2246 Haze 17 1014 59 3000 1.54 330 23:46 22.02.2021
2247 Haze 17 1014 59 3000 1.54 330 23:20 22.02.2021
2248 Haze 17 1014 59 3000 1.03 160 22:39 22.02.2021
2249 Haze 17 1014 59 3000 1.03 160 22:20 22.02.2021
2250 Haze 20 1015 52 3000 1.54 10 21:40 22.02.2021
2251 Haze 20 1015 52 3000 1.54 10 21:21 22.02.2021
2252 Clouds 21 1014 24 10000 2.02 332 20:50 22.02.2021
2253 Haze 21 1016 49 3000 1.58 314 20:27 22.02.2021
2254 Haze 21 1016 49 3000 1.58 314 19:51 22.02.2021
2255 Haze 21 1016 49 3000 1.51 330 19:30 22.02.2021
2256 Haze 23 1016 40 3000 1.03 10 18:49 22.02.2021
2257 Haze 23 1016 40 3000 1.03 10 18:30 22.02.2021
2258 Haze 24 1017 35 3000 1.03 10 17:54 22.02.2021
2259 Haze 22 1016 40 3000 1.03 60 17:22 22.02.2021
2260 Haze 22 1016 40 3000 1.03 60 17:22 22.02.2021
2261 Haze 22 1016 40 3000 1.03 60 17:22 22.02.2021
2262 Haze 22 1016 40 3000 0.77 6 16:53 22.02.2021
2263 Haze 23 1016 40 3000 1.54 230 16:31 22.02.2021
2264 Haze 25 1015 33 3000 1.03 90 15:39 22.02.2021
2265 Haze 25 1015 33 3000 1.03 90 15:21 22.02.2021
2266 Haze 27 1014 29 3000 1.03 120 14:42 22.02.2021
2267 Haze 27 1014 29 3000 1.03 120 14:21 22.02.2021
2268 Haze 29 1014 24 3000 1.54 100 13:41 22.02.2021
2269 Haze 32 1014 17 4000 1.03 60 12:55 22.02.2021
2270 Haze 32 1014 17 4000 1.03 340 12:23 22.02.2021
2271 Haze 32 1014 18 4000 1.03 20 11:56 22.02.2021
2272 Haze 33 1014 17 4000 1.03 30 11:32 22.02.2021
2273 Haze 32 1014 20 4000 1.03 20 10:59 22.02.2021
2274 Haze 32 1014 20 4000 1.03 20 10:40 22.02.2021
2275 Haze 32 1015 19 4000 2.06 80 10:20 22.02.2021
2276 Haze 31 1016 20 5000 1.54 100 09:39 22.02.2021
2277 Haze 31 1016 20 5000 1.54 100 09:21 22.02.2021
2278 Haze 31 1016 20 5000 1.54 100 09:21 22.02.2021
2279 Haze 31 1017 20 5000 2.57 330 08:49 22.02.2021
2280 Haze 30 1018 21 5000 1.54 270 08:21 22.02.2021
2281 Haze 30 1018 21 5000 1.54 80 07:48 22.02.2021
2282 Haze 29 1019 21 5000 2.06 90 07:22 22.02.2021
2283 Haze 27 1020 26 5000 2.06 60 06:27 22.02.2021
2284 Haze 22 1019 43 4000 1.54 360 04:27 22.02.2021
2285 Haze 17 1018 63 3000 1.03 360 03:22 22.02.2021
2286 Haze 16 1017 67 3000 1.94 358 00:54 22.02.2021
2287 Haze 16 1017 67 3000 2.46 0 00:29 22.02.2021
2288 Haze 16 1017 67 3000 1.54 140 23:55 21.02.2021
2289 Haze 16 1017 67 3000 1.54 140 23:25 21.02.2021
2290 Haze 18 1017 59 3000 1.03 330 22:30 21.02.2021
2291 Haze 21 1017 52 3000 1.03 20 21:52 21.02.2021
2292 Haze 21 1017 52 3000 1.03 20 21:52 21.02.2021
2293 Haze 21 1017 52 3000 1.03 20 21:34 21.02.2021
2294 Haze 21 1017 52 3000 1.03 20 21:34 21.02.2021
2295 Haze 20 1017 56 3000 1.03 330 20:58 21.02.2021
2296 Haze 20 1017 56 3000 1.03 330 20:36 21.02.2021
2297 Haze 20 1017 56 3000 1.03 330 20:18 21.02.2021
2298 Haze 21 1018 49 3000 1.03 360 19:43 21.02.2021
2299 Haze 21 1018 49 3000 1.03 360 19:23 21.02.2021
2300 Haze 22 1018 46 3000 1.03 70 18:29 21.02.2021
2301 Haze 22 1018 43 3000 1.03 80 17:58 21.02.2021
2302 Haze 21 1018 52 3000 1.03 140 17:26 21.02.2021
2303 Haze 23 1017 43 3000 1.03 90 16:53 21.02.2021
2304 Haze 23 1017 43 3000 1.03 90 16:31 21.02.2021
2305 Haze 23 1017 43 3000 1.03 90 15:47 21.02.2021
2306 Haze 24 1016 43 3000 1.03 100 15:19 21.02.2021
2307 Haze 26 1015 38 3000 1.54 110 14:41 21.02.2021
2308 Haze 27 1015 36 3000 1.54 120 14:20 21.02.2021
2309 Haze 29 1015 30 3000 1.03 120 13:43 21.02.2021
2310 Haze 29 1015 30 3000 1.03 120 13:22 21.02.2021
2311 Haze 29 1015 28 3000 1.54 120 12:29 21.02.2021
2312 Haze 30 1015 28 3000 1.54 120 11:43 21.02.2021
2313 Haze 30 1016 30 4000 3.6 130 10:58 21.02.2021
2314 Haze 30 1017 30 4000 1.03 180 10:23 21.02.2021
2315 Haze 30 1017 30 4000 1.03 180 09:53 21.02.2021
2316 Haze 29 1017 32 4000 2.06 60 09:28 21.02.2021
2317 Haze 29 1018 34 5000 2.57 90 08:49 21.02.2021
2318 Haze 29 1018 34 5000 2.57 100 08:19 21.02.2021
2319 Haze 28 1019 34 5000 4.12 100 07:33 21.02.2021
2320 Haze 27 1020 36 5000 2.57 110 06:52 21.02.2021
2321 Haze 17 1019 59 2500 2.01 41 02:49 21.02.2021
2322 Haze 18 1018 55 2500 1.03 360 02:29 21.02.2021
2323 Haze 20 1016 49 3000 1.54 350 00:42 21.02.2021
2324 Haze 20 1016 49 3000 1.54 350 00:18 21.02.2021
2325 Haze 20 1016 49 3000 1.03 10 23:18 20.02.2021
2326 Haze 20 1017 45 3000 1.54 30 22:40 20.02.2021
2327 Haze 20 1017 45 3000 1.54 30 22:21 20.02.2021
2328 Haze 20 1017 49 3000 1.03 30 21:41 20.02.2021
2329 Haze 20 1017 49 3000 1.03 30 21:20 20.02.2021
2330 Haze 21 1018 49 3000 1.03 30 20:42 20.02.2021
2331 Haze 21 1018 49 3000 1.03 30 20:21 20.02.2021
2332 Haze 22 1018 49 3000 1.03 30 19:52 20.02.2021
2333 Haze 22 1018 49 3000 1.03 30 19:23 20.02.2021
2334 Haze 22 1018 53 3000 1.03 10 18:38 20.02.2021
2335 Haze 22 1018 53 3000 1.03 10 18:19 20.02.2021
2336 Haze 23 1018 49 3000 1.03 10 17:37 20.02.2021
2337 Haze 22 1018 49 3000 1.03 40 16:54 20.02.2021
2338 Haze 22 1018 49 3000 1.03 50 16:32 20.02.2021
2339 Haze 23 1017 43 3000 1.03 50 15:46 20.02.2021
2340 Haze 24 1017 41 3000 2.11 125 15:21 20.02.2021
2341 Haze 25 1017 38 3000 2.11 125 14:44 20.02.2021
2342 Haze 26 1016 36 3000 1.54 60 14:23 20.02.2021
2343 Haze 27 1016 32 4000 2.06 60 13:41 20.02.2021
2344 Haze 28 1016 30 4000 3.6 50 13:22 20.02.2021
2345 Haze 29 1016 28 4000 3.09 70 12:49 20.02.2021
2346 Haze 29 1016 28 4000 3.09 90 12:22 20.02.2021
2347 Haze 29 1016 30 4000 3.09 90 11:42 20.02.2021
2348 Haze 29 1016 30 4000 3.09 90 11:23 20.02.2021
2349 Haze 29 1016 30 4000 4.12 140 10:43 20.02.2021
2350 Haze 29 1016 32 4000 2.57 110 09:50 20.02.2021
2351 Haze 29 1017 34 5000 4.63 80 09:20 20.02.2021
2352 Haze 28 1018 39 5000 3.6 100 08:34 20.02.2021
2353 Haze 27 1019 44 5000 2.06 40 07:54 20.02.2021
2354 Haze 15 1019 82 2500 1.03 190 02:45 20.02.2021
2355 Haze 17 1018 77 2500 2.86 9 02:21 20.02.2021
2356 Haze 18 1017 72 3000 1.54 20 01:22 20.02.2021
2357 Haze 18 1017 72 3000 1.03 10 00:45 20.02.2021
2358 Haze 18 1017 72 3000 2.06 340 23:43 19.02.2021
2359 Haze 18 1017 77 3000 2.06 10 22:51 19.02.2021
2360 Haze 18 1017 77 3000 2.06 10 22:26 19.02.2021
2361 Haze 17 1018 77 3000 2.41 8 21:48 19.02.2021
2362 Haze 17 1018 77 3000 1.98 5 21:28 19.02.2021
2363 Haze 17 1018 82 3000 1.98 5 20:47 19.02.2021
2364 Haze 17 1018 82 3000 1.04 22 20:27 19.02.2021
2365 Haze 18 1019 77 3000 1.04 22 19:50 19.02.2021
2366 Haze 18 1019 77 3000 1.93 104 19:20 19.02.2021
2367 Haze 17 1019 72 3000 1.93 104 18:54 19.02.2021
2368 Haze 17 1019 72 3000 1.93 104 18:31 19.02.2021
2369 Haze 18 1019 68 3000 1.54 160 17:45 19.02.2021
2370 Haze 20 1018 60 3000 2.19 131 16:50 19.02.2021
2371 Haze 21 1018 60 3000 1.03 100 16:23 19.02.2021
2372 Haze 22 1018 53 3000 1.03 60 15:57 19.02.2021
2373 Haze 22 1018 53 3000 1.03 50 15:30 19.02.2021
2374 Haze 23 1017 49 4000 1.03 70 14:56 19.02.2021
2375 Haze 23 1017 49 4000 1.03 70 14:36 19.02.2021
2376 Haze 24 1017 43 4000 1.03 70 13:57 19.02.2021
2377 Haze 26 1017 38 4000 1.03 50 13:37 19.02.2021
2378 Haze 26 1016 36 4000 1.03 70 12:59 19.02.2021
2379 Haze 26 1016 36 4000 1.03 70 12:41 19.02.2021
2380 Haze 27 1016 36 4000 1.54 90 12:20 19.02.2021
2381 Haze 27 1016 36 4000 1.54 90 12:20 19.02.2021
2382 Haze 27 1016 34 4000 1.54 90 11:44 19.02.2021
2383 Haze 27 1017 36 5000 2.06 10 11:19 19.02.2021
2384 Haze 27 1017 36 5000 1.03 90 10:38 19.02.2021
2385 Haze 27 1017 36 5000 1.03 90 10:19 19.02.2021
2386 Haze 27 1017 36 5000 1.54 120 09:37 19.02.2021
2387 Haze 27 1017 36 5000 1.54 120 09:37 19.02.2021
2388 Haze 27 1018 36 5000 1.54 130 09:18 19.02.2021
2389 Haze 26 1019 38 5000 2.06 230 08:42 19.02.2021
2390 Haze 26 1019 38 5000 2.06 230 08:21 19.02.2021
2391 Haze 26 1019 38 5000 2.06 230 08:21 19.02.2021
2392 Haze 25 1020 47 5000 2.57 230 07:43 19.02.2021
2393 Haze 25 1020 47 5000 2.57 230 07:25 19.02.2021
2394 Haze 24 1021 50 4000 3.09 200 06:41 19.02.2021
2395 Haze 19 1020 68 3000 1.54 320 04:42 19.02.2021
2396 Mist 16 1018 82 2000 1.54 350 02:47 19.02.2021
2397 Mist 15 1017 88 2500 1.54 350 01:28 19.02.2021
2398 Mist 15 1018 82 2500 1.54 320 00:35 19.02.2021
2399 Mist 15 1018 88 2500 2.06 220 23:45 18.02.2021
2400 Mist 15 1018 88 2500 2.06 220 23:27 18.02.2021
2401 Haze 16 1017 77 2500 1.89 20 22:37 18.02.2021
2402 Haze 16 1017 77 2500 2.52 11 22:18 18.02.2021
2403 Haze 16 1017 82 2500 2.52 11 21:40 18.02.2021
2404 Haze 16 1017 82 2500 2.73 18 21:21 18.02.2021
2405 Haze 17 1018 77 2500 1.54 20 20:39 18.02.2021
2406 Haze 17 1018 77 2500 1.54 20 20:21 18.02.2021
2407 Haze 17 1018 77 2500 1.54 20 19:43 18.02.2021
2408 Haze 17 1018 77 2500 1.54 20 19:20 18.02.2021
2409 Haze 17 1018 77 2500 1.54 20 19:20 18.02.2021
2410 Haze 17 1017 77 2500 3.09 300 18:48 18.02.2021
2411 Haze 17 1017 77 2500 3.09 300 18:26 18.02.2021
2412 Haze 18 1018 68 2500 3.09 300 17:46 18.02.2021
2413 Haze 18 1017 72 2500 1.03 220 17:24 18.02.2021
2414 Haze 19 1017 72 2500 2.57 140 16:46 18.02.2021
2415 Haze 19 1017 72 2500 2.57 140 16:28 18.02.2021
2416 Haze 20 1018 60 2500 0.7 327 15:43 18.02.2021
2417 Haze 21 1018 60 2500 1.03 40 15:23 18.02.2021
2418 Haze 21 1018 60 2500 1.03 40 14:52 18.02.2021
2419 Haze 22 1018 64 2500 2.06 320 14:32 18.02.2021
2420 Haze 22 1018 60 2500 1.03 330 13:50 18.02.2021
2421 Haze 22 1018 60 2500 1.03 330 13:50 18.02.2021
2422 Haze 23 1017 56 2500 1.03 340 13:21 18.02.2021
2423 Haze 22 1015 64 2500 2.57 100 12:54 18.02.2021
2424 Haze 22 1015 64 2500 2.57 100 12:30 18.02.2021
2425 Haze 22 1016 60 2500 2.06 110 11:47 18.02.2021
2426 Haze 22 1016 56 2500 3.09 190 11:27 18.02.2021
2427 Rain 22 1016 60 2500 5.14 160 10:57 18.02.2021
2428 Rain 22 1017 73 2000 4.12 220 10:36 18.02.2021
2429 Rain 23 1017 56 2000 2.57 250 10:18 18.02.2021
2430 Clouds 25 1017 50 2500 1.03 200 09:28 18.02.2021
2431 Rain 26 1017 44 3000 2.57 110 08:49 18.02.2021
2432 Haze 26 1018 44 4000 1.03 150 08:31 18.02.2021
2433 Haze 25 1018 53 4000 1.54 120 07:47 18.02.2021
2434 Haze 25 1019 50 4000 2.57 100 07:20 18.02.2021
2435 Haze 23 1020 56 3000 2.06 90 05:42 18.02.2021
2436 Haze 23 1020 56 3000 2.06 90 05:42 18.02.2021
2437 Haze 23 1020 56 3000 2.06 90 05:42 18.02.2021
2438 Mist 18 1015 88 2000 1.03 20 00:26 18.02.2021
2439 Mist 19 1015 82 2000 1.03 20 23:38 17.02.2021
2440 Mist 19 1015 82 2000 1.03 20 23:38 17.02.2021
2441 Mist 19 1015 88 2000 1.03 50 22:59 17.02.2021
2442 Mist 19 1015 88 2000 1.03 50 22:39 17.02.2021
2443 Mist 19 1015 88 2000 1.03 50 22:19 17.02.2021
2444 Clouds 19 1015 88 2000 1.54 350 21:42 17.02.2021
2445 Clouds 19 1015 88 2000 1.54 350 21:19 17.02.2021
2446 Clouds 19 1016 88 2000 1.03 230 20:40 17.02.2021
2447 Clouds 21 1016 78 2000 2.57 210 19:59 17.02.2021
2448 Clouds 21 1016 78 2000 2.57 210 19:37 17.02.2021
2449 Haze 21 1016 68 2500 1.03 60 18:58 17.02.2021
2450 Haze 21 1016 68 3000 1.03 30 18:37 17.02.2021
2451 Haze 21 1016 68 3000 1.03 30 17:47 17.02.2021
2452 Haze 21 1016 68 3000 1.03 40 17:22 17.02.2021
2453 Haze 22 1016 64 3000 1.03 20 16:52 17.02.2021
2454 Haze 22 1015 60 3000 1.54 60 16:29 17.02.2021
2455 Haze 22 1015 60 3000 1.54 90 15:56 17.02.2021
2456 Haze 22 1015 60 3000 1.54 90 15:37 17.02.2021
2457 Haze 22 1015 60 3000 1.54 90 15:19 17.02.2021
2458 Haze 22 1014 64 3000 1.03 80 14:41 17.02.2021
2459 Haze 23 1014 60 3000 2.06 100 14:41 17.02.2021
2460 Haze 24 1014 57 3000 1.54 90 14:23 17.02.2021
2461 Clouds 24 1011 48 10000 4.24 57 13:42 17.02.2021
2462 Clouds 28 1010 35 10000 4.93 56 12:59 17.02.2021
2463 Clouds 29 1010 31 10000 4.9 44 12:26 17.02.2021
2464 Clouds 29 1010 31 10000 4.86 44 11:49 17.02.2021
2465 Haze 25 1014 50 3000 2.57 80 11:30 17.02.2021
2466 Haze 25 1014 50 3000 2.57 80 10:58 17.02.2021
2467 Haze 25 1014 50 3000 2.57 80 10:40 17.02.2021
2468 Haze 25 1014 50 3000 2.57 80 10:20 17.02.2021
2469 Haze 23 1016 64 2500 1.54 80 09:40 17.02.2021
2470 Haze 23 1016 64 2500 3.09 60 08:58 17.02.2021
2471 Haze 23 1016 64 2500 3.09 60 08:37 17.02.2021
2472 Haze 23 1017 60 2500 2.06 60 08:19 17.02.2021
2473 Haze 22 1017 64 2500 3.6 100 07:23 17.02.2021
2474 Clouds 19 1017 77 2000 2.57 60 03:54 17.02.2021
2475 Haze 18 1015 82 2000 4.63 80 02:33 17.02.2021
2476 Haze 19 1014 77 2500 3.09 70 01:37 17.02.2021
2477 Rain 20 1014 73 2500 2.57 70 00:28 17.02.2021
2478 Haze 20 1014 73 2500 2.06 60 23:49 16.02.2021
2479 Haze 20 1014 73 2500 2.06 60 23:25 16.02.2021
2480 Haze 20 1014 73 2500 2.06 50 22:42 16.02.2021
2481 Haze 20 1014 73 2500 2.06 50 22:22 16.02.2021
2482 Haze 21 1014 64 2500 2.06 50 21:40 16.02.2021
2483 Haze 21 1014 64 2500 2.06 50 21:22 16.02.2021
2484 Haze 21 1014 64 2500 2.06 70 20:58 16.02.2021
2485 Haze 21 1014 64 2500 2.06 70 20:38 16.02.2021
2486 Haze 21 1014 64 2500 2.06 70 20:20 16.02.2021
2487 Clouds 22 1014 56 2500 3.09 50 19:40 16.02.2021
2488 Clouds 22 1014 56 2500 3.09 50 19:21 16.02.2021
2489 Haze 22 1014 56 2500 3.09 80 18:38 16.02.2021
2490 Haze 22 1014 56 2500 3.09 80 18:19 16.02.2021
2491 Clouds 22 1015 60 2500 1.03 60 17:49 16.02.2021
2492 Clouds 21 1014 64 2500 2.06 70 17:23 16.02.2021
2493 Clouds 24 1014 46 2500 2.57 20 16:47 16.02.2021
2494 Clouds 25 1012 44 2000 2.57 20 16:24 16.02.2021
2495 Clouds 25 1012 44 2000 2.57 20 15:47 16.02.2021
2496 Haze 25 1011 41 2500 0.71 40 15:26 16.02.2021
2497 Haze 27 1011 36 2500 0.75 39 14:48 16.02.2021
2498 Haze 28 1010 34 2500 0.7 142 14:29 16.02.2021
2499 Haze 29 1010 30 2500 0.7 142 13:56 16.02.2021
2500 Haze 31 1010 27 2500 2.57 210 13:33 16.02.2021
2501 Haze 32 1010 25 2500 4.12 200 12:44 16.02.2021
2502 Haze 32 1010 25 2500 4.12 200 12:24 16.02.2021
2503 Haze 32 1010 25 3000 4.12 200 11:49 16.02.2021
2504 Haze 32 1010 25 3000 4.12 200 11:23 16.02.2021
2505 Haze 32 1010 25 3000 5.14 200 10:55 16.02.2021
2506 Haze 32 1011 27 3000 4.12 220 10:36 16.02.2021
2507 Haze 32 1011 27 3000 4.12 220 10:18 16.02.2021
2508 Haze 31 1011 29 3000 4.63 230 09:44 16.02.2021
2509 Haze 32 1012 27 3000 4.12 230 09:25 16.02.2021
2510 Haze 31 1012 29 3000 4.63 230 08:42 16.02.2021
2511 Haze 30 1013 30 3000 3.6 190 08:19 16.02.2021
2512 Haze 28 1014 39 3000 1.03 230 07:21 16.02.2021
2513 Haze 24 1015 57 2500 1.03 110 05:28 16.02.2021
2514 Haze 19 1011 68 3000 0.54 285 00:45 16.02.2021
2515 Haze 19 1011 72 3000 0.81 332 23:39 15.02.2021
2516 Haze 19 1011 72 3000 1.09 329 23:20 15.02.2021
2517 Haze 20 1012 68 3000 1.09 329 22:43 15.02.2021
2518 Haze 20 1012 68 3000 1.42 334 22:20 15.02.2021
2519 Haze 21 1012 60 3000 1.42 334 21:38 15.02.2021
2520 Haze 21 1012 60 3000 1.33 326 21:20 15.02.2021
2521 Haze 23 1013 56 3000 1.03 30 20:45 15.02.2021
2522 Haze 23 1013 56 3000 1.03 30 20:45 15.02.2021
2523 Haze 23 1013 56 3000 1.03 30 20:26 15.02.2021
2524 Haze 23 1013 56 3000 1.03 30 20:26 15.02.2021
2525 Haze 23 1013 56 3000 1.03 30 20:26 15.02.2021
2526 Haze 24 1013 50 3000 1.03 100 19:44 15.02.2021
2527 Haze 24 1013 50 3000 1.03 100 19:23 15.02.2021
2528 Haze 23 1013 49 3000 0.8 161 18:46 15.02.2021
2529 Haze 23 1013 49 3000 0.87 165 18:26 15.02.2021
2530 Haze 24 1013 46 3000 0.87 165 17:42 15.02.2021
2531 Haze 24 1013 46 3000 1.01 166 17:24 15.02.2021
2532 Haze 24 1013 46 4000 1.01 166 16:55 15.02.2021
2533 Haze 25 1013 44 4000 1.03 220 16:27 15.02.2021
2534 Haze 25 1012 44 4000 1.49 148 15:51 15.02.2021
2535 Haze 26 1012 41 4000 2.28 151 15:23 15.02.2021
2536 Haze 27 1011 39 4000 1.03 130 14:55 15.02.2021
2537 Haze 28 1011 34 4000 1.03 150 14:36 15.02.2021
2538 Haze 28 1011 34 4000 1.03 150 14:18 15.02.2021
2539 Haze 29 1011 32 4000 1.54 180 13:45 15.02.2021
2540 Haze 31 1011 27 4000 1.54 180 13:19 15.02.2021
2541 Haze 31 1011 29 4000 2.57 180 12:43 15.02.2021
2542 Haze 32 1011 27 4000 2.57 200 12:19 15.02.2021
2543 Haze 32 1011 27 4000 2.06 250 11:42 15.02.2021
2544 Haze 32 1011 27 4000 2.57 200 11:19 15.02.2021
2545 Haze 32 1011 27 4000 2.57 220 10:46 15.02.2021
2546 Haze 32 1012 27 4000 2.57 230 10:23 15.02.2021
2547 Haze 32 1012 27 4000 4.12 220 09:54 15.02.2021
2548 Haze 31 1013 30 4000 2.57 220 09:33 15.02.2021
2549 Haze 31 1013 30 4000 2.57 250 08:44 15.02.2021
2550 Haze 29 1015 34 4000 3.09 220 07:39 15.02.2021
2551 Haze 28 1016 39 4000 2.06 220 06:53 15.02.2021
2552 Haze 27 1016 47 3000 2.06 180 06:34 15.02.2021
2553 Mist 20 1014 68 2000 1.19 320 02:28 15.02.2021
2554 Haze 19 1013 63 3000 1.68 343 00:35 15.02.2021
2555 Haze 19 1013 63 3000 1.16 304 23:33 14.02.2021
2556 Haze 20 1013 64 3000 0.98 268 22:54 14.02.2021
2557 Haze 20 1013 64 3000 0.98 268 22:36 14.02.2021
2558 Haze 21 1014 60 3000 0.84 299 22:18 14.02.2021
2559 Haze 21 1014 60 3000 0.84 299 21:42 14.02.2021
2560 Haze 21 1014 60 3000 1.12 306 21:21 14.02.2021
2561 Haze 21 1014 60 3000 1.12 306 20:39 14.02.2021
2562 Haze 21 1014 60 3000 1.69 308 20:20 14.02.2021
2563 Haze 21 1014 60 3000 1.69 308 19:40 14.02.2021
2564 Haze 23 1014 49 3000 1.85 315 18:51 14.02.2021
2565 Haze 23 1014 49 3000 0.76 288 18:29 14.02.2021
2566 Haze 23 1014 49 3000 0.76 288 17:51 14.02.2021
2567 Haze 23 1014 49 3000 0.76 288 17:32 14.02.2021
2568 Haze 24 1014 46 3000 1.33 237 16:44 14.02.2021
2569 Haze 25 1014 44 3000 1.03 90 16:25 14.02.2021
2570 Haze 26 1013 41 3000 1.03 150 15:47 14.02.2021
2571 Haze 26 1013 41 3000 1.03 150 15:29 14.02.2021
2572 Haze 26 1012 36 3000 1.54 190 14:43 14.02.2021
2573 Haze 28 1012 34 3000 1.03 190 14:24 14.02.2021
2574 Haze 29 1011 32 3500 1.54 200 13:41 14.02.2021
2575 Haze 30 1011 32 4000 1.54 210 13:23 14.02.2021
2576 Haze 32 1011 27 5000 1.54 250 12:24 14.02.2021
2577 Haze 32 1012 27 5000 1.54 240 11:52 14.02.2021
2578 Haze 32 1012 27 5000 3.09 240 11:33 14.02.2021
2579 Haze 32 1012 27 5000 2.06 170 10:59 14.02.2021
2580 Haze 32 1013 27 5000 2.57 200 10:24 14.02.2021
2581 Haze 31 1014 29 5000 2.57 210 09:40 14.02.2021
2582 Haze 31 1014 29 5000 2.57 210 09:21 14.02.2021
2583 Haze 31 1015 30 4000 2.57 200 08:57 14.02.2021
2584 Haze 29 1016 34 4000 1.03 170 07:59 14.02.2021
2585 Haze 28 1017 36 4000 1.54 150 06:59 14.02.2021
2586 Haze 26 1017 38 4000 1.54 100 05:44 14.02.2021
2587 Haze 20 1016 60 3000 1.03 330 03:57 14.02.2021
2588 Haze 19 1016 59 3000 1.03 360 02:29 14.02.2021
2589 Haze 20 1015 60 3000 1.03 330 00:57 14.02.2021
2590 Haze 20 1015 60 3000 1.03 330 00:37 14.02.2021
2591 Haze 20 1015 64 3000 1.55 22 23:44 13.02.2021
2592 Haze 20 1015 64 3000 1.63 26 23:25 13.02.2021
2593 Haze 20 1015 60 3000 1.63 26 22:49 13.02.2021
2594 Haze 20 1015 60 3000 1.64 8 22:21 13.02.2021
2595 Haze 21 1015 60 3000 1.64 8 21:49 13.02.2021
2596 Haze 21 1015 60 3000 1.32 1 21:22 13.02.2021
2597 Haze 22 1015 53 3000 1.32 1 20:31 13.02.2021
2598 Haze 24 1016 46 3000 1.03 360 19:59 13.02.2021
2599 Haze 24 1016 46 3000 1.03 360 19:41 13.02.2021
2600 Haze 24 1016 46 3000 1.03 360 19:21 13.02.2021
2601 Haze 25 1016 44 3000 1.03 40 18:45 13.02.2021
2602 Haze 25 1015 44 3000 1.54 130 18:24 13.02.2021
2603 Haze 25 1015 44 3000 1.54 120 17:43 13.02.2021
2604 Haze 25 1015 44 3000 1.54 120 17:23 13.02.2021
2605 Haze 24 1015 46 3000 1.54 140 16:44 13.02.2021
2606 Haze 24 1015 46 3000 1.54 170 16:26 13.02.2021
2607 Haze 26 1014 38 3000 1.54 90 15:41 13.02.2021
2608 Haze 26 1014 38 3000 1.54 90 15:22 13.02.2021
2609 Haze 30 1013 28 3000 2.57 150 14:33 13.02.2021
2610 Haze 30 1013 28 3000 2.57 150 13:48 13.02.2021
2611 Haze 32 1013 25 3000 2.57 150 13:25 13.02.2021
2612 Haze 32 1013 25 3000 2.57 150 12:50 13.02.2021
2613 Haze 32 1012 25 4000 2.57 170 12:19 13.02.2021
2614 Haze 32 1012 25 4000 2.57 170 11:45 13.02.2021
2615 Haze 32 1013 23 4000 2.57 160 11:20 13.02.2021
2616 Haze 31 1013 25 4000 2.06 150 10:46 13.02.2021
2617 Haze 31 1013 25 4000 2.06 150 10:25 13.02.2021
2618 Haze 32 1014 25 4000 2.06 140 09:56 13.02.2021
2619 Haze 31 1014 25 4000 2.57 140 09:30 13.02.2021
2620 Haze 31 1015 27 4000 3.09 180 08:56 13.02.2021
2621 Haze 31 1015 27 3000 1.54 180 08:35 13.02.2021
2622 Haze 29 1016 32 3000 2.06 200 07:52 13.02.2021
2623 Haze 26 1017 41 3000 1.54 110 06:41 13.02.2021
2624 Haze 25 1017 41 3000 1.54 90 05:27 13.02.2021
2625 Haze 20 1016 56 2500 1.03 20 03:58 13.02.2021
2626 Haze 17 1014 63 2500 1 52 01:48 13.02.2021
2627 Haze 16 1014 67 2500 1.54 54 00:36 13.02.2021
2628 Haze 17 1014 63 2500 1.7 45 23:54 12.02.2021
2629 Haze 17 1014 63 2500 1.33 45 23:24 12.02.2021
2630 Haze 17 1014 63 2500 1.33 45 22:42 12.02.2021
2631 Haze 17 1014 63 2500 1.26 24 22:21 12.02.2021
2632 Haze 19 1014 59 2500 1.26 24 21:45 12.02.2021
2633 Haze 19 1014 59 2500 1.65 352 21:26 12.02.2021
2634 Haze 20 1015 52 3000 2.06 330 20:46 12.02.2021
2635 Haze 20 1015 52 3000 2.06 330 20:27 12.02.2021
2636 Haze 21 1015 46 3000 1.03 340 19:57 12.02.2021
2637 Haze 21 1015 46 3000 1.03 340 19:37 12.02.2021
2638 Haze 22 1015 43 3000 1.03 40 18:55 12.02.2021
2639 Haze 22 1015 43 3000 1.03 40 18:29 12.02.2021
2640 Haze 22 1015 40 3000 1.03 140 17:44 12.02.2021
2641 Haze 22 1015 40 3000 1.03 140 17:21 12.02.2021
2642 Haze 24 1014 35 3000 1.03 130 16:27 12.02.2021
2643 Haze 24 1014 38 3000 1.54 120 15:46 12.02.2021
2644 Haze 25 1014 38 3000 1.54 100 15:21 12.02.2021
2645 Haze 25 1013 38 3000 1.03 120 14:40 12.02.2021
2646 Haze 27 1012 32 3000 1.03 90 13:58 12.02.2021
2647 Haze 29 1012 28 3000 1.03 90 13:40 12.02.2021
2648 Haze 30 1012 23 3000 1.03 70 12:55 12.02.2021
2649 Haze 31 1012 22 3000 1.03 100 12:36 12.02.2021
2650 Haze 31 1012 22 4000 1.54 70 11:49 12.02.2021
2651 Haze 31 1012 22 4000 2.06 50 11:26 12.02.2021
2652 Haze 31 1013 20 4000 1.54 0 10:52 12.02.2021
2653 Haze 31 1013 20 4000 1.54 0 10:34 12.02.2021
2654 Haze 31 1013 22 4000 1.03 180 09:44 12.02.2021
2655 Haze 31 1014 23 5000 1.03 300 09:24 12.02.2021
2656 Haze 30 1015 25 5000 1.54 340 08:48 12.02.2021
2657 Haze 29 1015 26 5000 1.03 70 08:27 12.02.2021
2658 Haze 29 1016 26 5000 1.03 110 07:53 12.02.2021
2659 Haze 27 1017 29 5000 1.54 120 07:27 12.02.2021
2660 Haze 27 1017 29 4000 2.25 111 06:54 12.02.2021
2661 Haze 24 1017 35 4000 1.03 80 05:39 12.02.2021
2662 Haze 18 1016 63 3000 1.03 140 03:48 12.02.2021
2663 Haze 14 1013 72 3000 1.54 230 00:35 12.02.2021
2664 Haze 17 1013 59 3000 1.03 20 23:38 11.02.2021
2665 Haze 17 1013 59 3000 1.03 20 23:20 11.02.2021
2666 Haze 16 1013 63 3000 1.54 230 22:44 11.02.2021
2667 Haze 16 1013 63 3000 1.54 230 22:23 11.02.2021
2668 Haze 19 1014 52 3000 1.54 320 21:43 11.02.2021
2669 Haze 19 1014 52 3000 1.54 320 21:25 11.02.2021
2670 Haze 19 1014 52 3000 1.54 320 20:57 11.02.2021
2671 Haze 19 1014 52 3000 1.54 320 20:39 11.02.2021
2672 Haze 19 1014 52 3000 1.54 320 20:19 11.02.2021
2673 Haze 19 1014 48 3000 1.54 270 19:46 11.02.2021
2674 Haze 19 1014 48 3000 1.54 270 19:26 11.02.2021
2675 Haze 19 1014 48 3000 1.54 270 19:26 11.02.2021
2676 Haze 20 1014 45 3000 1.54 50 18:42 11.02.2021
2677 Haze 20 1014 45 3000 1.54 50 18:20 11.02.2021
2678 Haze 20 1014 45 3000 1.54 90 17:47 11.02.2021
2679 Haze 21 1014 43 3000 1.54 90 17:21 11.02.2021
2680 Haze 23 1013 35 3000 1.54 90 16:45 11.02.2021
2681 Haze 23 1013 35 3000 1.54 90 16:26 11.02.2021
2682 Haze 23 1013 35 4000 1.77 158 15:45 11.02.2021
2683 Haze 25 1013 33 4000 1.54 100 15:26 11.02.2021
2684 Haze 25 1012 33 4000 1.54 100 14:55 11.02.2021
2685 Haze 26 1012 29 4000 1.54 100 14:31 11.02.2021
2686 Haze 27 1011 28 4000 1.54 120 13:43 11.02.2021
2687 Haze 29 1011 24 4000 1.54 100 13:20 11.02.2021
2688 Haze 31 1011 19 4000 1.03 80 12:56 11.02.2021
2689 Haze 31 1011 19 4000 2.06 120 12:33 11.02.2021
2690 Haze 31 1011 18 4000 1.03 30 11:48 11.02.2021
2691 Haze 31 1011 18 4000 2.06 350 11:27 11.02.2021
2692 Haze 31 1011 19 4000 2.06 280 10:46 11.02.2021
2693 Haze 31 1012 20 4000 1.03 110 10:27 11.02.2021
2694 Haze 31 1012 20 4000 1.03 110 09:59 11.02.2021
2695 Haze 31 1013 20 4000 1.54 40 09:36 11.02.2021
2696 Haze 31 1013 20 4000 1.54 40 09:18 11.02.2021
2697 Haze 30 1014 23 4000 1.03 260 08:43 11.02.2021
2698 Haze 28 1015 24 4000 1.54 10 07:43 11.02.2021
2699 Haze 26 1016 29 4000 1.03 80 06:43 11.02.2021
2700 Clouds 27 1014 16 10000 1.41 84 05:54 11.02.2021
2701 Haze 14 1015 67 3000 1.03 10 02:49 11.02.2021
2702 Haze 13 1014 71 3000 0.77 359 02:21 11.02.2021
2703 Haze 15 1013 58 3000 1.52 348 00:23 11.02.2021
2704 Haze 14 1013 62 3000 1.52 348 23:47 10.02.2021
2705 Haze 14 1013 62 3000 2.18 338 23:18 10.02.2021
2706 Haze 15 1013 58 3000 2.18 338 22:42 10.02.2021
2707 Haze 15 1013 58 3000 1.9 325 22:19 10.02.2021
2708 Haze 16 1013 55 3000 1.03 330 21:39 10.02.2021
2709 Haze 19 1014 45 3000 1.03 330 21:20 10.02.2021
2710 Haze 19 1014 45 3000 1.03 330 20:47 10.02.2021
2711 Haze 19 1014 45 3000 1.03 330 20:24 10.02.2021
2712 Haze 19 1014 45 3000 2.57 10 19:48 10.02.2021
2713 Haze 19 1014 45 3000 2.57 10 19:27 10.02.2021
2714 Haze 21 1014 35 3000 1.67 341 18:47 10.02.2021
2715 Haze 21 1014 35 3000 1.11 244 18:26 10.02.2021
2716 Haze 20 1014 37 3000 1.54 130 17:57 10.02.2021
2717 Haze 20 1014 40 3000 1.03 210 17:26 10.02.2021
2718 Haze 22 1014 33 3000 2.06 140 16:57 10.02.2021
2719 Haze 22 1013 35 3000 1.54 120 16:37 10.02.2021
2720 Haze 22 1013 35 3000 1.54 120 16:19 10.02.2021
2721 Haze 23 1013 31 3000 1.54 100 15:24 10.02.2021
2722 Haze 24 1013 29 3000 1.03 120 14:52 10.02.2021
2723 Haze 24 1013 29 3000 1.03 120 14:34 10.02.2021
2724 Haze 27 1012 24 3000 1.54 180 13:53 10.02.2021
2725 Haze 30 1012 21 4000 1.03 160 13:29 10.02.2021
2726 Haze 31 1012 18 4000 2.06 200 12:53 10.02.2021
2727 Haze 31 1011 16 5000 2.57 220 12:30 10.02.2021
2728 Haze 31 1011 16 5000 2.06 190 11:57 10.02.2021
2729 Haze 31 1011 16 5000 2.06 190 11:38 10.02.2021
2730 Haze 31 1012 16 5000 1.03 120 11:19 10.02.2021
2731 Haze 31 1012 15 5000 1.03 310 10:23 10.02.2021
2732 Haze 31 1013 15 5000 1.54 280 09:53 10.02.2021
2733 Haze 31 1013 16 5000 1.54 240 09:30 10.02.2021
2734 Haze 30 1014 20 5000 1.03 180 08:52 10.02.2021
2735 Haze 30 1015 20 5000 1.03 160 08:32 10.02.2021
2736 Haze 28 1016 24 5000 1.03 250 07:31 10.02.2021
2737 Haze 26 1017 27 4000 1.03 120 06:21 10.02.2021
2738 Haze 14 1014 67 3000 1.54 357 01:21 10.02.2021
2739 Haze 15 1014 63 3000 1.03 350 23:45 09.02.2021
2740 Haze 16 1014 59 3000 1.03 350 23:27 09.02.2021
2741 Haze 16 1014 59 3000 1.03 350 22:42 09.02.2021
2742 Haze 16 1014 59 3000 1.03 350 22:23 09.02.2021
2743 Haze 16 1014 63 3000 1.03 360 21:47 09.02.2021
2744 Haze 16 1014 63 3000 1.03 360 21:21 09.02.2021
2745 Haze 16 1015 63 3000 1.03 330 20:43 09.02.2021
2746 Haze 16 1015 63 3000 1.03 330 20:24 09.02.2021
2747 Haze 18 1015 48 3000 1.03 330 19:44 09.02.2021
2748 Haze 18 1015 48 3000 1.03 330 19:22 09.02.2021
2749 Haze 19 1015 45 3000 1.54 330 18:45 09.02.2021
2750 Haze 19 1015 45 3000 1.54 330 18:26 09.02.2021
2751 Haze 19 1015 48 3000 0.94 200 17:50 09.02.2021
2752 Haze 19 1015 45 3000 1.55 196 17:27 09.02.2021
2753 Haze 19 1015 45 3000 1.55 196 16:53 09.02.2021
2754 Haze 20 1015 42 3000 1.79 193 16:20 09.02.2021
2755 Haze 21 1015 37 4000 1.03 90 15:51 09.02.2021
2756 Haze 22 1015 35 4000 1.03 110 15:31 09.02.2021
2757 Haze 23 1014 33 4000 1.03 110 14:59 09.02.2021
2758 Haze 24 1014 33 4000 1.03 100 14:36 09.02.2021
2759 Haze 24 1014 33 4000 1.03 100 14:18 09.02.2021
2760 Haze 25 1014 31 4000 1.03 100 13:40 09.02.2021
2761 Haze 28 1014 23 4000 1.03 70 13:20 09.02.2021
2762 Haze 30 1014 19 5000 1.03 70 12:43 09.02.2021
2763 Haze 30 1014 19 5000 1.03 70 12:23 09.02.2021
2764 Haze 29 1014 20 5000 0.38 140 11:44 09.02.2021
2765 Haze 29 1014 20 5000 0.73 191 11:21 09.02.2021
2766 Haze 29 1014 20 5000 1.54 60 10:57 09.02.2021
2767 Haze 29 1015 20 5000 2.57 60 10:20 09.02.2021
2768 Haze 29 1015 20 5000 3.09 320 09:52 09.02.2021
2769 Haze 29 1016 20 5000 1.03 20 09:26 09.02.2021
2770 Haze 28 1017 23 5000 2.06 360 08:54 09.02.2021
2771 Haze 27 1018 24 5000 1.54 20 08:28 09.02.2021
2772 Haze 26 1019 25 5000 1.54 100 07:41 09.02.2021
2773 Haze 22 1019 35 4000 1.54 350 05:34 09.02.2021
2774 Haze 17 1018 48 3000 1.03 360 03:48 09.02.2021
2775 Haze 14 1016 58 2500 1.03 10 01:51 09.02.2021
2776 Haze 13 1016 62 2500 1.03 340 00:21 09.02.2021
2777 Haze 12 1016 71 2500 1.59 12 23:23 08.02.2021
2778 Haze 12 1016 71 2500 1.59 12 22:59 08.02.2021
2779 Haze 12 1016 71 2500 1.59 12 22:41 08.02.2021
2780 Haze 12 1016 71 2500 1.43 14 22:21 08.02.2021
2781 Haze 13 1017 62 2500 1.43 14 21:44 08.02.2021
2782 Haze 13 1017 62 2500 1.6 357 21:21 08.02.2021
2783 Haze 16 1017 51 2500 1.6 357 20:44 08.02.2021
2784 Haze 16 1017 51 2500 1.98 350 20:24 08.02.2021
2785 Haze 16 1018 51 2500 2.07 348 19:49 08.02.2021
2786 Haze 16 1018 51 2500 2.07 348 19:30 08.02.2021
2787 Haze 17 1018 48 2500 1.03 320 18:59 08.02.2021
2788 Haze 18 1018 45 3000 1.54 320 18:40 08.02.2021
2789 Haze 17 1018 45 3000 1.03 330 18:18 08.02.2021
2790 Haze 17 1017 45 3000 1.03 270 17:41 08.02.2021
2791 Haze 17 1017 45 3000 1.03 270 17:22 08.02.2021
2792 Haze 20 1017 37 3000 1.03 100 16:40 08.02.2021
2793 Haze 20 1017 37 3000 1.03 100 16:20 08.02.2021
2794 Haze 20 1017 37 3000 1.03 80 15:38 08.02.2021
2795 Haze 21 1017 32 3000 1.03 90 15:19 08.02.2021
2796 Haze 22 1016 33 3000 1.54 90 14:51 08.02.2021
2797 Haze 22 1016 33 3000 1.03 110 14:29 08.02.2021
2798 Haze 24 1016 29 4000 1.03 110 13:54 08.02.2021
2799 Haze 26 1016 25 4000 1.03 100 13:28 08.02.2021
2800 Haze 26 1016 25 4000 1.03 100 13:28 08.02.2021
2801 Haze 27 1016 22 4000 1.54 50 12:42 08.02.2021
2802 Haze 27 1016 22 4000 1.54 50 12:24 08.02.2021
2803 Haze 27 1016 21 4000 1.03 50 11:39 08.02.2021
2804 Clear 27 1016 21 6000 0.76 69 10:47 08.02.2021
2805 Clear 27 1017 21 6000 0.88 65 10:26 08.02.2021
2806 Clear 27 1017 21 6000 0.88 65 09:59 08.02.2021
2807 Clear 27 1018 21 6000 2.06 70 09:36 08.02.2021
2808 Clear 26 1019 24 6000 1.54 50 08:57 08.02.2021
2809 Clear 25 1020 25 6000 2.06 360 08:27 08.02.2021
2810 Clear 24 1020 27 6000 2.06 80 07:47 08.02.2021
2811 Clear 23 1021 31 6000 1.54 80 06:51 08.02.2021
2812 Haze 20 1021 37 6000 3.09 40 05:18 08.02.2021
2813 Haze 12 1019 58 2500 1.03 350 02:27 08.02.2021
2814 Clouds 12 1017 39 10000 2.56 10 00:26 08.02.2021
2815 Clouds 12 1017 39 10000 2.56 10 23:55 07.02.2021
2816 Clouds 12 1017 39 10000 2.56 10 23:30 07.02.2021
2817 Clouds 12 1016 39 10000 2.37 8 22:59 07.02.2021
2818 Clouds 12 1016 39 10000 2.37 8 22:41 07.02.2021
2819 Clouds 12 1016 39 10000 2.37 8 22:41 07.02.2021
2820 Clouds 13 1017 38 10000 2.15 9 22:22 07.02.2021
2821 Clouds 13 1017 38 10000 2.15 9 21:50 07.02.2021
2822 Clouds 13 1017 37 10000 1.94 12 21:25 07.02.2021
2823 Clouds 13 1017 37 10000 1.94 12 20:51 07.02.2021
2824 Clouds 13 1017 37 10000 1.94 12 20:32 07.02.2021
2825 Clouds 13 1018 36 10000 1.83 2 19:54 07.02.2021
2826 Clear 15 1017 33 10000 2.1 353 19:29 07.02.2021
2827 Clear 14 1018 34 10000 1.82 346 18:51 07.02.2021
2828 Clear 15 1017 33 10000 2.1 353 18:31 07.02.2021
2829 Haze 18 1018 39 3000 1.03 60 17:58 07.02.2021
2830 Haze 18 1018 39 3000 1.03 60 17:40 07.02.2021
2831 Haze 18 1018 39 3000 1.03 60 17:18 07.02.2021
2832 Haze 18 1018 39 3000 1.03 60 16:43 07.02.2021
2833 Haze 20 1018 34 3000 1.03 70 16:22 07.02.2021
2834 Haze 20 1018 34 3000 1.03 90 15:46 07.02.2021
2835 Haze 20 1017 32 3000 1.03 100 15:27 07.02.2021
2836 Haze 21 1017 30 4000 1.03 100 14:47 07.02.2021
2837 Haze 22 1016 28 4000 1.03 110 14:29 07.02.2021
2838 Haze 25 1016 18 4000 1.03 80 13:52 07.02.2021
2839 Haze 25 1016 18 4000 1.03 80 13:34 07.02.2021
2840 Haze 27 1016 14 5000 1.54 30 12:44 07.02.2021
2841 Haze 27 1016 16 5000 1.54 50 12:22 07.02.2021
2842 Haze 28 1016 15 5000 1.03 350 11:49 07.02.2021
2843 Haze 27 1016 16 5000 2.57 320 11:27 07.02.2021
2844 Haze 27 1016 18 5000 1.54 20 10:49 07.02.2021
2845 Haze 27 1016 18 5000 1.54 20 10:49 07.02.2021
2846 Haze 27 1016 18 5000 1.54 200 10:25 07.02.2021
2847 Haze 26 1017 21 5000 1.54 330 09:48 07.02.2021
2848 Haze 26 1017 22 5000 1.03 340 09:21 07.02.2021
2849 Haze 25 1019 25 5000 2.06 100 08:23 07.02.2021
2850 Haze 24 1020 27 5000 1.54 20 07:32 07.02.2021
2851 Haze 21 1021 35 4000 1.54 20 05:57 07.02.2021
2852 Haze 17 1020 45 3000 1.03 20 03:50 07.02.2021
2853 Haze 16 1017 48 2500 3.09 10 01:27 07.02.2021
2854 Haze 16 1017 51 2500 2.57 10 00:35 07.02.2021
2855 Haze 17 1017 48 2500 2.06 10 23:44 06.02.2021
2856 Haze 17 1017 45 2500 1.03 350 22:40 06.02.2021
2857 Haze 18 1017 45 2500 1.03 30 21:40 06.02.2021
2858 Haze 18 1017 45 2500 1.03 30 21:21 06.02.2021
2859 Haze 18 1017 48 2500 1.03 30 20:51 06.02.2021
2860 Haze 18 1017 48 2500 1.03 30 20:25 06.02.2021
2861 Haze 19 1017 48 2500 1.03 30 19:57 06.02.2021
2862 Haze 19 1017 48 2500 1.03 30 19:31 06.02.2021
2863 Haze 20 1017 45 2500 1.03 30 18:49 06.02.2021
2864 Haze 20 1017 45 2500 1.03 30 18:31 06.02.2021
2865 Haze 21 1017 43 2500 1.03 30 17:48 06.02.2021
2866 Haze 22 1017 40 2500 1.03 30 17:22 06.02.2021
2867 Haze 22 1017 40 2500 2.06 20 16:59 06.02.2021
2868 Haze 22 1017 40 2500 1.54 30 16:40 06.02.2021
2869 Haze 22 1017 40 2500 1.54 30 16:22 06.02.2021
2870 Haze 23 1016 38 2500 1.54 40 15:45 06.02.2021
2871 Haze 23 1015 40 2500 2.06 60 15:21 06.02.2021
2872 Haze 23 1015 43 2500 1.03 60 14:45 06.02.2021
2873 Haze 23 1015 43 2500 1.03 60 14:45 06.02.2021
2874 Haze 24 1014 41 2500 1.03 50 14:25 06.02.2021
2875 Haze 25 1014 36 2500 1.03 60 13:49 06.02.2021
2876 Haze 25 1014 36 2500 1.03 60 13:49 06.02.2021
2877 Haze 26 1014 31 2500 1.54 50 13:21 06.02.2021
2878 Haze 28 1014 28 3000 1.54 20 12:22 06.02.2021
2879 Haze 28 1014 26 3000 3.09 10 11:48 06.02.2021
2880 Haze 28 1014 28 3000 1.54 30 11:22 06.02.2021
2881 Haze 28 1014 26 3000 2.06 30 10:57 06.02.2021
2882 Haze 28 1015 26 3000 1.03 70 10:39 06.02.2021
2883 Haze 27 1015 28 3000 1.54 20 09:59 06.02.2021
2884 Haze 27 1016 29 3000 2.06 20 09:37 06.02.2021
2885 Haze 27 1016 29 3000 2.06 20 09:18 06.02.2021
2886 Haze 27 1017 28 3000 2.06 50 08:33 06.02.2021
2887 Haze 26 1017 34 3000 1.54 360 07:59 06.02.2021
2888 Haze 23 1018 43 3000 1.54 350 05:44 06.02.2021
2889 Haze 19 1017 55 2500 1.03 20 03:58 06.02.2021
2890 Haze 18 1015 59 3000 2.57 360 01:58 06.02.2021
2891 Haze 18 1014 52 3000 1.54 320 00:48 06.02.2021
2892 Haze 18 1014 52 3000 1.54 320 00:48 06.02.2021
2893 Haze 18 1014 52 3000 1.54 320 00:19 06.02.2021
2894 Haze 19 1014 48 3000 1.54 20 23:43 05.02.2021
2895 Haze 19 1014 48 3000 1.54 20 23:24 05.02.2021
2896 Haze 18 1014 48 3000 3.45 3 22:47 05.02.2021
2897 Haze 18 1014 48 3000 2.85 347 22:20 05.02.2021
2898 Haze 17 1014 48 3000 2.85 347 21:45 05.02.2021
2899 Haze 17 1014 48 3000 2.14 310 21:26 05.02.2021
2900 Haze 17 1014 48 3000 2.14 310 20:45 05.02.2021
2901 Haze 17 1014 48 3000 3.29 321 19:52 05.02.2021
2902 Haze 17 1014 48 3000 1.01 320 19:19 05.02.2021
2903 Haze 17 1014 48 3000 0.99 320 19:19 05.02.2021
2904 Haze 19 1015 42 3000 1.03 30 18:53 05.02.2021
2905 Haze 19 1015 42 3000 1.03 30 18:23 05.02.2021
2906 Haze 20 1015 42 3000 1.03 60 17:44 05.02.2021
2907 Haze 20 1015 42 3000 1.03 60 17:22 05.02.2021
2908 Haze 20 1015 40 3000 0.85 110 16:49 05.02.2021
2909 Haze 20 1015 37 3000 0.5 124 16:24 05.02.2021
2910 Haze 22 1015 33 3000 1.03 100 15:54 05.02.2021
2911 Haze 23 1014 28 3000 1.03 100 15:26 05.02.2021
2912 Haze 24 1014 27 4000 1.03 230 14:40 05.02.2021
2913 Haze 24 1014 27 4000 1.03 230 14:22 05.02.2021
2914 Haze 27 1013 21 4000 1.03 260 13:59 05.02.2021
2915 Haze 27 1013 21 4000 1.03 260 13:36 05.02.2021
2916 Haze 29 1013 17 5000 1.54 240 12:49 05.02.2021
2917 Haze 30 1013 16 5000 2.06 250 12:28 05.02.2021
2918 Haze 30 1013 16 5000 2.01 221 11:41 05.02.2021
2919 Haze 30 1013 16 5000 2.22 224 11:21 05.02.2021
2920 Haze 30 1014 16 5000 1.03 280 10:57 05.02.2021
2921 Haze 30 1014 17 5000 3.09 140 10:27 05.02.2021
2922 Haze 30 1015 15 5000 1.54 250 09:47 05.02.2021
2923 Haze 30 1015 16 5000 3.09 220 09:28 05.02.2021
2924 Haze 29 1016 17 5000 2.57 250 08:53 05.02.2021
2925 Haze 29 1016 20 5000 1.03 290 08:22 05.02.2021
2926 Haze 26 1018 25 4000 1.03 340 07:36 05.02.2021
2927 Haze 25 1018 29 4000 2.57 210 06:52 05.02.2021
2928 Haze 23 1018 33 3000 1.03 140 05:37 05.02.2021
2929 Haze 12 1017 66 2500 1.03 270 03:18 05.02.2021
2930 Haze 13 1016 62 2500 1.03 30 02:24 05.02.2021
2931 Haze 13 1015 67 3000 1.43 36 00:40 05.02.2021
2932 Haze 13 1015 67 3000 1.35 32 00:20 05.02.2021
2933 Haze 14 1015 58 3000 1.35 32 23:55 04.02.2021
2934 Haze 14 1015 58 3000 1.35 32 23:37 04.02.2021
2935 Haze 14 1015 58 3000 1.02 52 23:19 04.02.2021
2936 Haze 13 1015 58 3000 1.03 250 22:49 04.02.2021
2937 Haze 13 1015 58 3000 1.03 250 22:25 04.02.2021
2938 Haze 15 1016 51 3000 1.03 330 21:42 04.02.2021
2939 Haze 15 1016 51 3000 1.03 330 21:19 04.02.2021
2940 Haze 16 1016 48 3000 1.03 100 20:48 04.02.2021
2941 Haze 16 1016 48 3000 1.03 100 20:29 04.02.2021
2942 Haze 16 1016 41 3000 2.33 124 19:43 04.02.2021
2943 Haze 18 1017 39 3000 0.39 160 18:57 04.02.2021
2944 Haze 18 1017 39 3000 0.98 257 18:26 04.02.2021
2945 Haze 18 1017 39 3000 1.03 340 17:53 04.02.2021
2946 Haze 20 1017 32 3000 1.03 330 17:27 04.02.2021
2947 Haze 18 1017 39 3000 1.03 250 16:56 04.02.2021
2948 Haze 18 1017 39 3000 1.03 250 16:38 04.02.2021
2949 Haze 20 1017 32 3000 1.03 100 16:18 04.02.2021
2950 Haze 22 1016 28 3000 1.54 100 15:39 04.02.2021
2951 Haze 22 1016 28 3000 1.54 100 15:20 04.02.2021
2952 Haze 22 1016 33 3000 1.03 120 14:47 04.02.2021
2953 Haze 24 1015 23 3000 1.03 100 14:20 04.02.2021
2954 Haze 26 1015 21 4000 1.03 100 13:45 04.02.2021
2955 Haze 28 1015 18 5000 1.03 100 13:25 04.02.2021
2956 Haze 29 1015 16 5000 2.57 90 12:52 04.02.2021
2957 Haze 30 1015 14 5000 1.54 100 11:57 04.02.2021
2958 Haze 30 1015 14 5000 1.54 100 11:37 04.02.2021
2959 Haze 30 1015 14 5000 2.06 100 10:58 04.02.2021
2960 Haze 30 1015 14 5000 2.06 100 10:34 04.02.2021
2961 Haze 30 1016 14 5000 2.57 120 09:45 04.02.2021
2962 Haze 30 1017 15 5000 1.54 140 09:22 04.02.2021
2963 Haze 29 1017 16 5000 1.54 120 08:51 04.02.2021
2964 Haze 29 1018 16 5000 1.54 120 08:26 04.02.2021
2965 Haze 28 1018 18 5000 1.54 120 07:56 04.02.2021
2966 Haze 27 1019 21 5000 1.54 120 07:33 04.02.2021
2967 Haze 26 1019 22 5000 1.54 150 06:45 04.02.2021
2968 Haze 22 1020 33 5000 1.54 320 05:45 04.02.2021
2969 Haze 12 1018 62 3000 1.03 20 02:30 04.02.2021
2970 Haze 14 1017 54 3000 1.57 83 01:24 04.02.2021
2971 Haze 14 1017 54 3000 1.64 76 23:55 03.02.2021
2972 Haze 14 1017 54 3000 1.65 77 23:30 03.02.2021
2973 Haze 15 1017 51 3000 1.08 54 22:38 03.02.2021
2974 Haze 15 1017 51 3000 0.84 24 22:20 03.02.2021
2975 Haze 16 1017 51 3000 1.03 350 21:46 03.02.2021
2976 Haze 16 1017 51 3000 1.03 350 21:23 03.02.2021
2977 Haze 16 1017 51 3000 1.03 340 20:50 03.02.2021
2978 Haze 16 1017 51 3000 1.03 340 20:31 03.02.2021
2979 Haze 18 1017 34 3000 1.03 360 19:55 03.02.2021
2980 Haze 18 1017 34 3000 1.03 360 19:25 03.02.2021
2981 Haze 17 1018 39 3000 1.03 340 18:57 03.02.2021
2982 Haze 17 1018 39 3000 1.03 340 18:37 03.02.2021
2983 Haze 19 1018 32 3000 1.58 189 18:19 03.02.2021
2984 Haze 19 1018 32 3000 1.58 189 17:43 03.02.2021
2985 Haze 19 1018 30 3000 1.03 120 17:19 03.02.2021
2986 Haze 19 1018 30 3000 1.03 120 16:40 03.02.2021
2987 Haze 20 1017 28 3000 1.03 150 16:20 03.02.2021
2988 Haze 22 1017 26 3000 1.54 110 15:39 03.02.2021
2989 Haze 22 1017 26 3000 1.54 110 15:20 03.02.2021
2990 Haze 22 1017 24 3000 2.06 120 14:44 03.02.2021
2991 Haze 24 1016 22 4000 2.06 90 14:21 03.02.2021
2992 Haze 25 1016 16 5000 2.06 90 13:44 03.02.2021
2993 Haze 28 1016 14 5000 2.06 90 13:19 03.02.2021
2994 Haze 29 1015 11 5000 2.06 90 12:40 03.02.2021
2995 Haze 30 1015 10 5000 2.06 90 12:20 03.02.2021
2996 Haze 30 1015 10 5000 2.06 90 12:20 03.02.2021
2997 Haze 30 1015 10 5000 2.06 90 11:42 03.02.2021
2998 Haze 30 1015 10 5000 2.06 90 11:23 03.02.2021
2999 Haze 30 1016 10 5000 2.06 90 10:41 03.02.2021
3000 Haze 30 1016 10 5000 2.06 90 10:19 03.02.2021
3001 Haze 30 1017 11 5000 2.06 130 09:40 03.02.2021
3002 Haze 30 1017 11 5000 2.06 130 09:20 03.02.2021
3003 Haze 30 1018 16 5000 1.54 80 08:46 03.02.2021
3004 Haze 29 1019 18 5000 1.54 110 07:58 03.02.2021
3005 Haze 26 1020 25 5000 1.54 80 06:43 03.02.2021
3006 Haze 26 1020 25 5000 1.54 80 06:20 03.02.2021
3007 Haze 20 1020 40 4000 1.03 350 04:45 03.02.2021
3008 Haze 16 1019 63 4000 2.39 80 03:52 03.02.2021
3009 Haze 12 1019 71 3000 2.32 73 02:41 03.02.2021
3010 Haze 13 1018 62 3000 2.26 65 01:47 03.02.2021
3011 Haze 13 1017 62 3000 1.54 320 00:24 03.02.2021
3012 Haze 12 1017 66 3000 1.92 29 23:44 02.02.2021
3013 Haze 12 1017 66 3000 1.93 17 23:26 02.02.2021
3014 Haze 14 1018 58 3000 1.93 17 22:47 02.02.2021
3015 Haze 14 1018 58 3000 1.62 19 22:21 02.02.2021
3016 Haze 16 1018 48 3000 1.54 360 21:46 02.02.2021
3017 Haze 16 1018 48 3000 1.54 360 21:27 02.02.2021
3018 Haze 16 1018 51 3000 1.41 33 20:49 02.02.2021
3019 Haze 16 1018 51 3000 1.63 44 20:23 02.02.2021
3020 Haze 17 1018 45 3000 1.63 44 19:55 02.02.2021
3021 Haze 17 1018 45 3000 1.41 29 19:37 02.02.2021
3022 Haze 17 1018 45 3000 2.02 358 19:18 02.02.2021
3023 Haze 18 1018 39 3000 1.54 340 18:41 02.02.2021
3024 Haze 18 1018 39 3000 1.54 340 18:22 02.02.2021
3025 Haze 19 1018 39 3000 1.03 320 17:39 02.02.2021
3026 Haze 19 1018 39 3000 1.03 320 17:21 02.02.2021
3027 Haze 19 1018 34 3000 0.59 342 16:50 02.02.2021
3028 Haze 19 1018 32 3000 1.51 144 16:30 02.02.2021
3029 Haze 20 1018 30 3000 2.06 240 15:57 02.02.2021
3030 Haze 23 1017 25 3000 2.06 90 15:32 02.02.2021
3031 Haze 23 1017 25 3000 2.06 90 14:55 02.02.2021
3032 Haze 23 1017 25 3000 2.06 90 14:34 02.02.2021
3033 Haze 25 1017 22 4000 1.54 100 13:59 02.02.2021
3034 Haze 27 1017 19 4000 1.03 100 13:41 02.02.2021
3035 Haze 27 1017 19 4000 1.03 100 13:22 02.02.2021
3036 Haze 28 1017 17 5000 1.54 80 12:50 02.02.2021
3037 Haze 29 1017 16 5000 2.06 120 11:55 02.02.2021
3038 Haze 30 1017 14 5000 1.54 110 11:36 02.02.2021
3039 Haze 30 1017 14 5000 1.54 110 11:18 02.02.2021
3040 Haze 29 1018 15 5000 2.57 120 10:42 02.02.2021
3041 Haze 29 1018 15 5000 2.57 120 10:22 02.02.2021
3042 Haze 29 1018 15 5000 1.54 130 09:39 02.02.2021
3043 Haze 28 1019 15 5000 2.06 110 09:20 02.02.2021
3044 Haze 28 1019 15 5000 2.06 110 08:36 02.02.2021
3045 Haze 26 1021 22 5000 2.57 120 07:44 02.02.2021
3046 Haze 25 1021 23 5000 1.54 110 06:47 02.02.2021
3047 Haze 24 1022 27 5000 1.54 150 06:29 02.02.2021
3048 Haze 23 1022 28 5000 1.03 110 05:50 02.02.2021
3049 Haze 14 1020 54 3000 1.54 350 02:53 02.02.2021
3050 Haze 14 1019 54 3000 1.03 10 02:23 02.02.2021
3051 Haze 13 1019 62 3000 1.03 10 00:37 02.02.2021
3052 Haze 15 1018 58 3000 1.03 10 23:45 01.02.2021
3053 Haze 14 1018 58 3000 1.54 300 22:52 01.02.2021
3054 Haze 14 1018 58 3000 1.54 300 22:34 01.02.2021
3055 Haze 14 1019 58 3000 2.14 39 21:55 01.02.2021
3056 Haze 14 1019 58 3000 2.14 39 21:37 01.02.2021
3057 Haze 14 1019 58 3000 2.09 44 21:18 01.02.2021
3058 Haze 15 1019 55 3000 2.09 44 20:40 01.02.2021
3059 Haze 15 1019 55 3000 2.43 42 20:22 01.02.2021
3060 Haze 16 1019 51 3000 2.43 42 19:41 01.02.2021
3061 Haze 17 1020 45 3000 2.89 26 19:21 01.02.2021
3062 Haze 17 1020 45 3000 2.89 26 19:21 01.02.2021
3063 Haze 17 1020 45 3000 2.93 21 18:49 01.02.2021
3064 Haze 17 1020 45 3000 2.49 9 18:29 01.02.2021
3065 Haze 17 1020 48 3000 2.49 9 17:48 01.02.2021
3066 Haze 17 1020 48 3000 1.48 31 17:26 01.02.2021
3067 Haze 18 1020 45 3000 1.54 60 16:58 01.02.2021
3068 Haze 18 1019 45 3000 1.54 150 16:30 01.02.2021
3069 Haze 20 1019 40 3000 1.54 90 15:48 01.02.2021
3070 Haze 20 1019 40 3000 1.03 100 15:19 01.02.2021
3071 Haze 22 1018 35 3000 1.12 148 14:52 01.02.2021
3072 Haze 23 1018 33 3000 1.54 110 14:33 01.02.2021
3073 Haze 24 1018 31 3000 1.54 110 13:51 01.02.2021
3074 Haze 26 1017 25 4000 1.03 90 13:28 01.02.2021
3075 Haze 28 1017 21 4000 1.03 70 12:58 01.02.2021
3076 Haze 28 1017 20 4000 1.03 70 12:40 01.02.2021
3077 Haze 28 1017 20 4000 1.03 70 12:40 01.02.2021
3078 Haze 28 1017 20 4000 1.03 70 12:21 01.02.2021
3079 Haze 29 1018 17 4000 1.54 150 11:40 01.02.2021
3080 Haze 29 1018 17 4000 1.54 150 11:19 01.02.2021
3081 Haze 28 1018 18 5000 2.57 70 10:44 01.02.2021
3082 Haze 28 1018 17 5000 1.54 320 10:19 01.02.2021
3083 Haze 28 1019 18 5000 2.06 90 09:43 01.02.2021
3084 Haze 27 1019 17 5000 1.54 100 09:20 01.02.2021
3085 Haze 27 1020 16 5000 1.54 330 08:44 01.02.2021
3086 Haze 26 1021 21 5000 2.57 60 07:37 01.02.2021
3087 Haze 22 1022 30 5000 1.54 120 05:59 01.02.2021
3088 Haze 13 1020 58 2500 1.03 20 02:49 01.02.2021
3089 Haze 15 1018 51 2500 1.54 10 00:40 01.02.2021
3090 Haze 16 1018 51 2500 1.03 10 23:40 31.01.2021
3091 Haze 16 1018 51 2500 1.03 10 22:43 31.01.2021
3092 Haze 16 1018 51 2500 1.03 10 22:23 31.01.2021
3093 Haze 14 1018 62 2500 1.03 330 21:50 31.01.2021
3094 Haze 14 1018 62 2500 1.03 330 21:23 31.01.2021
3095 Haze 14 1018 62 2500 1.03 330 21:23 31.01.2021
3096 Haze 15 1018 58 2500 1.03 320 20:49 31.01.2021
3097 Haze 15 1018 58 2500 1.03 320 20:21 31.01.2021
3098 Haze 16 1019 55 2500 1.03 330 19:55 31.01.2021
3099 Haze 16 1019 55 2500 1.03 330 19:37 31.01.2021
3100 Haze 16 1019 55 2500 1.03 330 19:18 31.01.2021
3101 Haze 19 1019 42 2500 1.03 300 18:40 31.01.2021
3102 Haze 19 1019 42 2500 1.03 300 18:20 31.01.2021
3103 Haze 19 1019 42 3000 1.03 10 17:46 31.01.2021
3104 Haze 19 1019 39 3000 1.03 10 17:23 31.01.2021
3105 Haze 19 1018 42 3000 1.54 50 16:50 31.01.2021
3106 Haze 19 1018 42 3000 1.54 50 16:50 31.01.2021
3107 Haze 19 1018 45 3000 1.03 330 16:31 31.01.2021
3108 Haze 19 1018 42 3000 0.59 172 15:52 31.01.2021
3109 Haze 19 1018 42 3000 0.59 172 15:34 31.01.2021
3110 Haze 19 1017 39 3000 1.03 90 14:42 31.01.2021
3111 Haze 21 1017 35 4000 1.03 110 14:24 31.01.2021
3112 Haze 23 1016 31 4000 1.03 110 13:53 31.01.2021
3113 Haze 23 1016 31 4000 1.03 110 13:34 31.01.2021
3114 Haze 26 1016 21 5000 1.03 110 12:49 31.01.2021
3115 Haze 26 1016 21 5000 2.06 110 12:22 31.01.2021
3116 Haze 27 1016 19 5000 1.54 90 11:44 31.01.2021
3117 Haze 27 1016 18 5000 1.54 90 11:25 31.01.2021
3118 Haze 27 1016 19 5000 1.54 90 10:57 31.01.2021
3119 Haze 27 1016 19 5000 1.03 90 10:35 31.01.2021
3120 Haze 27 1017 19 4000 1.54 90 09:51 31.01.2021
3121 Haze 26 1017 21 3000 1.54 60 09:27 31.01.2021
3122 Haze 25 1018 20 3000 2.57 60 08:33 31.01.2021
3123 Haze 22 1020 24 3000 2.57 60 06:58 31.01.2021
3124 Haze 20 1020 30 3000 3.32 76 05:40 31.01.2021
3125 Haze 14 1016 44 3000 1.54 20 00:47 31.01.2021
3126 Haze 14 1016 44 3000 1.54 20 00:22 31.01.2021
3127 Haze 14 1016 44 3000 1.54 350 23:34 30.01.2021
3128 Haze 12 1016 54 3000 3.09 26 22:57 30.01.2021
3129 Haze 12 1016 54 3000 3.09 26 22:57 30.01.2021
3130 Haze 12 1016 54 3000 3.09 26 22:30 30.01.2021
3131 Haze 13 1017 50 3000 1.03 340 21:40 30.01.2021
3132 Haze 13 1017 50 3000 1.03 340 21:22 30.01.2021
3133 Haze 17 1017 29 3000 1.03 20 20:47 30.01.2021
3134 Haze 17 1017 29 3000 1.03 20 20:28 30.01.2021
3135 Haze 18 1017 29 3000 1.03 10 19:46 30.01.2021
3136 Haze 18 1017 29 3000 1.03 10 19:26 30.01.2021
3137 Haze 17 1018 36 3000 1.03 30 18:43 30.01.2021
3138 Haze 17 1018 36 3000 1.03 30 18:22 30.01.2021
3139 Haze 14 1018 54 3000 3.26 14 17:59 30.01.2021
3140 Haze 17 1018 39 3000 1.03 30 17:20 30.01.2021
3141 Haze 17 1017 45 3000 1.03 10 16:47 30.01.2021
3142 Haze 16 1017 44 3000 3.1 22 16:25 30.01.2021
3143 Haze 17 1016 45 3000 1.03 100 15:57 30.01.2021
3144 Haze 17 1016 45 3000 1.03 220 15:39 30.01.2021
3145 Haze 17 1016 45 3000 1.03 220 15:20 30.01.2021
3146 Haze 20 1016 32 3000 1.03 80 14:47 30.01.2021
3147 Haze 21 1015 32 4000 1.54 90 14:21 30.01.2021
3148 Haze 24 1015 25 4000 2.06 90 13:32 30.01.2021
3149 Haze 25 1015 22 4000 1.54 110 12:49 30.01.2021
3150 Haze 25 1015 22 4000 2.57 110 12:29 30.01.2021
3151 Haze 26 1015 19 5000 2.57 100 11:57 30.01.2021
3152 Haze 26 1015 19 5000 1.03 70 11:28 30.01.2021
3153 Haze 26 1015 17 5000 1.54 60 10:48 30.01.2021
3154 Haze 25 1016 18 5000 1.03 50 09:48 30.01.2021
3155 Haze 25 1017 16 5000 1.03 100 09:30 30.01.2021
3156 Haze 24 1017 19 5000 1.54 80 08:47 30.01.2021
3157 Haze 23 1018 20 5000 2.06 90 07:48 30.01.2021
3158 Haze 21 1019 23 5000 2.06 40 06:49 30.01.2021
3159 Haze 17 1019 27 4000 2.57 40 04:59 30.01.2021
3160 Haze 14 1018 41 3000 2.06 30 03:35 30.01.2021
3161 Haze 15 1017 38 3000 3.6 40 02:24 30.01.2021
3162 Haze 15 1017 44 2000 2.06 30 01:29 30.01.2021
3163 Haze 15 1017 44 2000 2.57 30 00:37 30.01.2021
3164 Haze 15 1017 44 2000 2.57 30 00:18 30.01.2021
3165 Haze 16 1017 48 2000 1.54 30 23:44 29.01.2021
3166 Haze 16 1017 48 2000 1.54 30 23:20 29.01.2021
3167 Haze 17 1017 39 2000 1.03 20 22:40 29.01.2021
3168 Haze 17 1017 39 2000 1.03 20 22:18 29.01.2021
3169 Haze 17 1017 45 2000 1.03 20 21:28 29.01.2021
3170 Haze 17 1017 45 2000 2.06 20 20:45 29.01.2021
3171 Haze 17 1017 45 2000 2.06 20 20:25 29.01.2021
3172 Haze 18 1018 42 2000 2.06 20 19:43 29.01.2021
3173 Haze 18 1018 42 2000 2.06 20 19:22 29.01.2021
3174 Haze 19 1018 55 2000 2.06 20 18:58 29.01.2021
3175 Haze 19 1018 55 2000 2.06 20 18:21 29.01.2021
3176 Haze 20 1018 49 2000 2.06 50 17:38 29.01.2021
3177 Haze 20 1018 49 2000 2.06 50 17:20 29.01.2021
3178 Haze 20 1017 52 2000 2.06 50 16:44 29.01.2021
3179 Haze 20 1017 56 2000 2.06 40 16:23 29.01.2021
3180 Haze 21 1017 56 2000 2.06 60 15:42 29.01.2021
3181 Haze 21 1017 56 2000 2.06 60 15:24 29.01.2021
3182 Haze 22 1016 56 2000 1.03 50 14:32 29.01.2021
3183 Haze 22 1016 56 2000 1.54 40 13:59 29.01.2021
3184 Haze 22 1016 56 2000 1.54 40 13:36 29.01.2021
3185 Haze 24 1015 50 2500 1.03 70 12:49 29.01.2021
3186 Haze 24 1015 50 2500 1.54 80 12:22 29.01.2021
3187 Haze 25 1015 47 2500 1.03 90 11:46 29.01.2021
3188 Haze 25 1015 47 2500 1.54 100 11:19 29.01.2021
3189 Haze 25 1015 47 2500 1.54 100 11:19 29.01.2021
3190 Haze 25 1015 47 2500 1.03 30 10:48 29.01.2021
3191 Haze 25 1015 44 2500 2.06 40 10:27 29.01.2021
3192 Haze 25 1017 44 2500 1.54 50 09:45 29.01.2021
3193 Haze 23 1017 49 2500 1.54 40 08:57 29.01.2021
3194 Clouds 26 1014 38 10000 1.25 48 08:33 29.01.2021
3195 Haze 21 1018 52 2500 2.57 90 07:58 29.01.2021
3196 Haze 21 1018 52 2500 2.57 90 07:39 29.01.2021
3197 Haze 21 1018 52 2500 2.57 90 07:39 29.01.2021
3198 Haze 21 1018 52 2500 2.57 90 07:19 29.01.2021
3199 Haze 20 1019 52 2000 2.06 30 05:20 29.01.2021
3200 Mist 17 1017 67 2000 1.03 10 02:53 29.01.2021
3201 Mist 17 1015 82 2000 1.03 360 00:39 29.01.2021
3202 Mist 17 1015 82 2000 1.03 360 00:20 29.01.2021
3203 Mist 18 1015 77 2000 1.03 360 23:43 28.01.2021
3204 Mist 18 1015 77 2000 1.03 360 23:24 28.01.2021
3205 Mist 19 1014 77 2000 1.03 30 22:45 28.01.2021
3206 Mist 19 1014 77 2000 1.03 30 22:26 28.01.2021
3207 Mist 20 1015 77 2000 1.03 30 21:56 28.01.2021
3208 Mist 20 1015 77 2000 1.03 30 21:34 28.01.2021
3209 Mist 22 1015 83 2000 2.06 360 20:57 28.01.2021
3210 Mist 22 1015 83 2000 2.06 360 20:39 28.01.2021
3211 Mist 22 1015 83 2000 2.06 360 20:18 28.01.2021
3212 Clouds 21 1015 88 2000 1.03 350 19:40 28.01.2021
3213 Clouds 21 1015 88 2000 1.03 350 19:19 28.01.2021
3214 Clouds 21 1015 88 2000 1.03 140 18:43 28.01.2021
3215 Clouds 21 1015 88 2000 3.09 140 18:20 28.01.2021
3216 Clouds 22 1015 83 2000 5.66 260 17:45 28.01.2021
3217 Haze 24 1015 69 2500 1.54 120 17:26 28.01.2021
3218 Haze 24 1015 69 2500 1.54 110 16:44 28.01.2021
3219 Haze 24 1015 69 2500 1.54 80 16:23 28.01.2021
3220 Haze 23 1015 68 2500 1.54 80 15:43 28.01.2021
3221 Haze 24 1014 64 2500 1.03 130 15:18 28.01.2021
3222 Haze 25 1013 61 2500 1.03 120 14:42 28.01.2021
3223 Haze 25 1013 61 2500 1.03 120 14:42 28.01.2021
3224 Haze 25 1013 61 2500 0.51 120 14:23 28.01.2021
3225 Haze 26 1013 53 2500 1.03 160 13:48 28.01.2021
3226 Haze 29 1013 45 2500 2.06 200 12:56 28.01.2021
3227 Haze 29 1013 45 2500 2.06 200 12:36 28.01.2021
3228 Haze 29 1013 42 2500 3.6 240 11:59 28.01.2021
3229 Haze 29 1013 42 2500 3.6 240 11:41 28.01.2021
3230 Haze 29 1014 45 2500 2.57 220 11:20 28.01.2021
3231 Haze 29 1014 45 2500 2.57 220 10:53 28.01.2021
3232 Haze 29 1014 45 2500 3.09 220 10:34 28.01.2021
3233 Haze 29 1014 45 2500 2.06 150 09:49 28.01.2021
3234 Haze 28 1015 47 2500 2.06 330 09:24 28.01.2021
3235 Haze 28 1016 47 2500 2.57 260 08:55 28.01.2021
3236 Haze 26 1017 53 2500 1.03 120 08:19 28.01.2021
3237 Haze 26 1017 53 2500 1.03 120 07:44 28.01.2021
3238 Haze 24 1018 57 2500 1.54 120 06:50 28.01.2021
3239 Haze 23 1018 56 2500 1.54 120 06:25 28.01.2021
3240 Haze 19 1017 55 2500 1.03 360 04:27 28.01.2021
3241 Haze 17 1015 63 2500 2 47 01:39 28.01.2021
3242 Haze 19 1014 59 2500 1.03 30 23:48 27.01.2021
3243 Haze 19 1014 59 2500 1.03 30 23:24 27.01.2021
3244 Haze 19 1015 59 2500 1.03 40 22:42 27.01.2021
3245 Haze 19 1015 59 2500 1.03 40 22:22 27.01.2021
3246 Haze 20 1015 60 2500 1.03 40 21:43 27.01.2021
3247 Haze 20 1015 60 2500 1.03 40 21:24 27.01.2021
3248 Haze 20 1015 64 2500 1.03 30 20:52 27.01.2021
3249 Haze 20 1015 64 2500 1.03 30 20:30 27.01.2021
3250 Haze 21 1016 60 2500 1.54 50 19:50 27.01.2021
3251 Haze 21 1016 60 2500 1.54 50 19:26 27.01.2021
3252 Haze 22 1016 56 2500 1.54 40 18:57 27.01.2021
3253 Haze 22 1016 56 2500 1.54 40 18:38 27.01.2021
3254 Haze 22 1016 56 2500 1.54 40 18:20 27.01.2021
3255 Haze 22 1016 60 2500 1.54 50 17:39 27.01.2021
3256 Haze 22 1015 60 2500 1.03 70 16:58 27.01.2021
3257 Haze 22 1015 60 2500 1.03 70 16:39 27.01.2021
3258 Haze 22 1015 60 2500 1.03 80 16:21 27.01.2021
3259 Haze 23 1015 60 2500 1.03 70 15:49 27.01.2021
3260 Haze 23 1014 56 2500 1.03 60 15:29 27.01.2021
3261 Haze 23 1014 56 2500 1.54 90 14:38 27.01.2021
3262 Haze 24 1014 57 2500 1.54 90 14:18 27.01.2021
3263 Haze 25 1013 53 2500 0.44 180 13:35 27.01.2021
3264 Haze 28 1013 42 2500 1.03 90 12:42 27.01.2021
3265 Haze 28 1013 42 2500 1.03 90 12:42 27.01.2021
3266 Haze 28 1013 42 2500 1.03 90 12:42 27.01.2021
3267 Haze 28 1013 42 2500 1.03 90 12:24 27.01.2021
3268 Haze 28 1013 42 3000 1.03 0 11:50 27.01.2021
3269 Haze 28 1013 39 4000 1.72 219 11:26 27.01.2021
3270 Haze 28 1014 42 4000 1.03 90 10:48 27.01.2021
3271 Haze 28 1014 42 4000 1.03 170 10:26 27.01.2021
3272 Haze 27 1014 41 4000 1.03 70 09:56 27.01.2021
3273 Haze 26 1015 41 4000 2.06 90 09:28 27.01.2021
3274 Haze 26 1015 38 4000 2.06 100 08:45 27.01.2021
3275 Haze 25 1017 41 4000 1.03 70 07:57 27.01.2021
3276 Haze 25 1017 41 4000 1.03 70 07:37 27.01.2021
3277 Haze 23 1017 43 4000 1.03 10 06:38 27.01.2021
3278 Haze 22 1017 43 3000 1.03 40 05:55 27.01.2021
3279 Haze 21 1017 49 3000 1.03 30 05:34 27.01.2021
3280 Haze 17 1016 63 2000 1.03 50 02:46 27.01.2021
3281 Haze 18 1015 59 2500 1.54 10 02:20 27.01.2021
3282 Haze 18 1014 63 2500 1.03 40 01:32 27.01.2021
3283 Haze 18 1014 59 2500 2.06 30 00:22 27.01.2021
3284 Haze 18 1014 59 2500 2.06 40 23:38 26.01.2021
3285 Haze 18 1014 59 2500 2.06 40 23:19 26.01.2021
3286 Haze 19 1015 55 2500 2.06 20 22:38 26.01.2021
3287 Haze 19 1015 55 2500 2.06 20 22:19 26.01.2021
3288 Haze 19 1015 55 2500 1.54 20 21:51 26.01.2021
3289 Haze 19 1015 55 2500 1.54 20 21:23 26.01.2021
3290 Haze 19 1015 52 2500 2.57 40 20:43 26.01.2021
3291 Haze 19 1015 52 2500 2.57 40 20:43 26.01.2021
3292 Haze 19 1015 52 2500 2.57 40 20:23 26.01.2021
3293 Haze 20 1015 49 2500 1.54 20 19:51 26.01.2021
3294 Haze 20 1015 49 2500 1.54 20 19:30 26.01.2021
3295 Haze 21 1015 46 2500 2.06 20 18:58 26.01.2021
3296 Haze 21 1015 46 2500 2.06 20 18:58 26.01.2021
3297 Haze 21 1015 46 2500 2.06 20 18:40 26.01.2021
3298 Haze 21 1015 46 2500 2.06 20 18:21 26.01.2021
3299 Haze 21 1015 49 2500 2.06 20 17:47 26.01.2021
3300 Haze 22 1015 49 2500 2.06 20 17:22 26.01.2021
3301 Haze 23 1015 46 2500 2.06 40 16:43 26.01.2021
3302 Haze 24 1014 57 2500 1.03 20 16:20 26.01.2021
3303 Haze 23 1014 64 2500 1.03 40 15:50 26.01.2021
3304 Haze 24 1013 57 2500 1.03 60 15:30 26.01.2021
3305 Haze 25 1013 53 2500 1.03 60 14:49 26.01.2021
3306 Haze 25 1013 53 3000 1.03 60 14:30 26.01.2021
3307 Haze 28 1012 44 3000 1.03 180 13:42 26.01.2021
3308 Haze 28 1012 44 3000 1.03 180 13:24 26.01.2021
3309 Haze 29 1012 39 3000 1.54 170 12:44 26.01.2021
3310 Haze 30 1012 37 3000 1.54 210 12:25 26.01.2021
3311 Haze 30 1012 39 3000 2.57 170 11:58 26.01.2021
3312 Haze 30 1012 37 3000 1.54 200 11:38 26.01.2021
3313 Haze 31 1012 35 3000 1.03 200 10:47 26.01.2021
3314 Haze 30 1013 37 3000 1.03 310 10:29 26.01.2021
3315 Haze 29 1013 37 3000 1.03 170 09:47 26.01.2021
3316 Haze 28 1014 39 3000 1.54 200 09:26 26.01.2021
3317 Haze 27 1015 41 3000 1.03 350 08:53 26.01.2021
3318 Haze 27 1015 41 3000 1.03 320 08:29 26.01.2021
3319 Haze 25 1017 41 3000 1.54 120 07:47 26.01.2021
3320 Haze 23 1017 46 3000 1.54 40 06:23 26.01.2021
3321 Haze 23 1017 46 2500 1.03 20 05:43 26.01.2021
3322 Haze 19 1017 59 2500 1.54 20 04:28 26.01.2021
3323 Haze 16 1015 67 2500 1.54 330 02:44 26.01.2021
3324 Haze 17 1014 67 2500 1.54 10 00:56 26.01.2021
3325 Haze 17 1014 67 2500 1.68 16 23:39 25.01.2021
3326 Haze 18 1015 63 2500 1.03 170 22:57 25.01.2021
3327 Haze 18 1015 63 2500 1.03 170 22:38 25.01.2021
3328 Haze 20 1015 56 2500 1.03 30 21:50 25.01.2021
3329 Haze 20 1015 56 2500 1.03 30 21:28 25.01.2021
3330 Haze 21 1015 52 2500 1.03 330 20:52 25.01.2021
3331 Haze 21 1015 52 2500 1.03 330 20:33 25.01.2021
3332 Haze 22 1015 49 2500 2.06 360 19:52 25.01.2021
3333 Haze 22 1015 49 2500 2.06 360 19:32 25.01.2021
3334 Haze 23 1015 49 2500 2.06 20 18:49 25.01.2021
3335 Haze 23 1015 49 2500 2.06 20 18:28 25.01.2021
3336 Haze 23 1015 53 2500 1.54 20 17:58 25.01.2021
3337 Haze 23 1015 56 2500 2.06 360 17:40 25.01.2021
3338 Haze 23 1015 56 2500 2.06 360 17:22 25.01.2021
3339 Haze 22 1015 60 2500 3.37 353 16:41 25.01.2021
3340 Haze 22 1015 60 2500 1.76 329 16:22 25.01.2021
3341 Haze 22 1014 60 2500 1.03 120 15:49 25.01.2021
3342 Haze 23 1014 56 2500 1.03 120 15:29 25.01.2021
3343 Haze 24 1014 53 2500 1.03 120 14:50 25.01.2021
3344 Haze 25 1013 47 2500 1.03 100 14:19 25.01.2021
3345 Haze 26 1013 44 2500 2.06 120 13:54 25.01.2021
3346 Haze 28 1013 39 3000 1.03 120 13:28 25.01.2021
3347 Haze 29 1013 37 4000 1.03 110 12:46 25.01.2021
3348 Haze 30 1013 30 4000 1.03 140 12:24 25.01.2021
3349 Haze 30 1013 30 4000 1.03 140 11:48 25.01.2021
3350 Haze 30 1013 30 4000 1.54 100 11:19 25.01.2021
3351 Haze 30 1013 30 4000 1.54 120 10:42 25.01.2021
3352 Haze 30 1014 28 4000 1.54 300 10:20 25.01.2021
3353 Haze 30 1014 30 4000 1.54 240 09:46 25.01.2021
3354 Haze 30 1015 30 5000 1.03 280 09:27 25.01.2021
3355 Haze 28 1016 32 5000 1.03 40 08:30 25.01.2021
3356 Haze 27 1017 39 5000 1.54 30 07:45 25.01.2021
3357 Haze 26 1017 41 5000 1.54 20 07:25 25.01.2021
3358 Haze 21 1017 60 3000 1.03 340 04:58 25.01.2021
3359 Haze 16 1015 72 3000 1.79 11 01:33 25.01.2021
3360 Haze 17 1014 77 3000 1.96 4 23:51 24.01.2021
3361 Haze 17 1014 77 3000 1.82 15 23:19 24.01.2021
3362 Haze 19 1014 68 3000 1.03 110 22:44 24.01.2021
3363 Haze 19 1014 68 3000 1.03 110 22:21 24.01.2021
3364 Haze 22 1014 53 3000 1.54 10 21:49 24.01.2021
3365 Haze 22 1014 53 3000 1.54 10 21:24 24.01.2021
3366 Haze 22 1014 53 3000 1.54 10 21:24 24.01.2021
3367 Haze 23 1015 49 3000 2.57 340 20:46 24.01.2021
3368 Haze 23 1015 49 3000 2.57 340 20:22 24.01.2021
3369 Haze 23 1015 60 3000 1.54 330 19:53 24.01.2021
3370 Haze 23 1015 60 3000 1.54 330 19:27 24.01.2021
3371 Haze 21 1015 68 3000 1.54 330 18:58 24.01.2021
3372 Haze 21 1015 68 3000 1.54 330 18:39 24.01.2021
3373 Haze 21 1015 68 3000 1.54 330 18:20 24.01.2021
3374 Haze 21 1015 68 3000 3.7 342 17:50 24.01.2021
3375 Haze 21 1015 60 3000 3.88 327 17:29 24.01.2021
3376 Haze 23 1015 56 3000 3.88 327 16:58 24.01.2021
3377 Haze 23 1014 56 3000 1.03 320 16:39 24.01.2021
3378 Haze 23 1014 56 3000 1.03 320 16:19 24.01.2021
3379 Haze 24 1014 53 3000 1.03 320 15:43 24.01.2021
3380 Haze 24 1014 50 3000 1.03 220 15:19 24.01.2021
3381 Haze 27 1013 39 3000 1.03 220 14:43 24.01.2021
3382 Haze 28 1012 39 3000 1.03 230 13:48 24.01.2021
3383 Haze 30 1012 32 3000 2.06 200 13:30 24.01.2021
3384 Haze 31 1012 30 3000 2.06 220 12:50 24.01.2021
3385 Haze 32 1012 29 3000 2.06 220 12:20 24.01.2021
3386 Haze 32 1012 29 3000 2.57 190 11:52 24.01.2021
3387 Haze 32 1012 29 3000 2.06 160 11:24 24.01.2021
3388 Haze 31 1012 33 3000 2.57 210 10:50 24.01.2021
3389 Haze 31 1012 33 3000 2.57 210 10:29 24.01.2021
3390 Haze 30 1014 37 3000 1.54 220 09:23 24.01.2021
3391 Haze 30 1014 37 3000 1.54 220 08:59 24.01.2021
3392 Haze 29 1014 42 3000 2.06 180 08:24 24.01.2021
3393 Mist 16 1015 77 2000 1.03 150 03:37 24.01.2021
3394 Mist 15 1014 77 2500 1.03 30 02:18 24.01.2021
3395 Haze 16 1013 77 2500 0.94 10 00:27 24.01.2021
3396 Haze 16 1013 72 2500 0.94 10 23:57 23.01.2021
3397 Haze 16 1013 72 2500 0.91 352 23:29 23.01.2021
3398 Haze 16 1013 72 2500 0.91 352 22:57 23.01.2021
3399 Haze 18 1013 68 2500 0.91 352 22:38 23.01.2021
3400 Haze 19 1013 68 2500 1.21 334 21:57 23.01.2021
3401 Haze 19 1013 68 2500 0.9 313 21:23 23.01.2021
3402 Haze 19 1013 59 2500 0.9 313 20:50 23.01.2021
3403 Haze 19 1013 59 2500 0.64 309 20:29 23.01.2021
3404 Haze 20 1014 56 2500 0.64 309 19:47 23.01.2021
3405 Haze 20 1014 56 2500 0.64 309 19:47 23.01.2021
3406 Haze 20 1014 56 2500 0.42 344 19:25 23.01.2021
3407 Haze 20 1014 56 2500 0.42 344 19:25 23.01.2021
3408 Haze 20 1014 56 3000 0.77 356 18:52 23.01.2021
3409 Haze 20 1014 56 3000 0.78 9 18:28 23.01.2021
3410 Haze 21 1014 52 3000 0.78 9 17:56 23.01.2021
3411 Haze 20 1014 56 3000 0.31 158 17:28 23.01.2021
3412 Haze 20 1014 56 3000 0.31 158 16:52 23.01.2021
3413 Haze 22 1013 49 3000 1.56 167 16:32 23.01.2021
3414 Haze 23 1013 49 3000 1.03 350 15:49 23.01.2021
3415 Haze 24 1013 46 3000 2.33 174 15:27 23.01.2021
3416 Haze 25 1013 41 3000 1.54 130 14:37 23.01.2021
3417 Haze 27 1012 36 3000 1.03 130 14:19 23.01.2021
3418 Haze 27 1012 36 3000 1.03 130 14:19 23.01.2021
3419 Haze 27 1012 36 3000 1.03 130 13:40 23.01.2021
3420 Haze 29 1011 30 3000 1.54 190 13:21 23.01.2021
3421 Haze 31 1011 27 5000 1.54 180 12:42 23.01.2021
3422 Haze 31 1011 27 5000 1.54 180 12:22 23.01.2021
3423 Haze 31 1011 25 5000 2.06 180 11:34 23.01.2021
3424 Haze 31 1012 23 5000 2.57 180 10:53 23.01.2021
3425 Haze 31 1012 23 5000 1.54 150 10:22 23.01.2021
3426 Haze 31 1013 23 5000 3.09 180 09:49 23.01.2021
3427 Haze 30 1013 23 5000 1.54 180 09:24 23.01.2021
3428 Haze 30 1014 23 5000 1.54 260 08:39 23.01.2021
3429 Haze 27 1016 28 4000 2.06 150 07:38 23.01.2021
3430 Haze 26 1016 29 4000 1.54 130 06:48 23.01.2021
3431 Haze 13 1013 67 2500 1.28 45 01:44 23.01.2021
3432 Haze 15 1013 58 2500 1.54 10 00:23 23.01.2021
3433 Haze 15 1013 58 2500 1.03 310 23:35 22.01.2021
3434 Haze 17 1013 55 2500 1.03 360 22:41 22.01.2021
3435 Haze 16 1013 67 2500 1.03 360 21:56 22.01.2021
3436 Haze 16 1013 67 2500 1.03 360 21:37 22.01.2021
3437 Haze 16 1013 67 2500 1.03 360 21:19 22.01.2021
3438 Haze 16 1013 55 3000 1.03 350 20:44 22.01.2021
3439 Haze 16 1013 55 3000 1.03 350 20:25 22.01.2021
3440 Haze 17 1014 51 3000 1.56 354 19:37 22.01.2021
3441 Haze 17 1014 51 3000 0.82 297 19:18 22.01.2021
3442 Haze 17 1014 55 3000 0.82 297 18:41 22.01.2021
3443 Haze 17 1014 55 3000 1.03 216 18:23 22.01.2021
3444 Haze 17 1014 51 3000 1.03 216 17:44 22.01.2021
3445 Haze 19 1014 45 3000 1.28 179 17:24 22.01.2021
3446 Haze 18 1014 45 3000 1.28 179 16:44 22.01.2021
3447 Haze 19 1014 45 3000 1.39 156 16:23 22.01.2021
3448 Haze 21 1014 40 3000 1.39 156 15:30 22.01.2021
3449 Haze 23 1013 33 3000 1.03 120 14:59 22.01.2021
3450 Haze 24 1013 31 3000 1.03 60 14:31 22.01.2021
3451 Haze 25 1013 29 3000 1.03 60 13:50 22.01.2021
3452 Haze 27 1013 26 3000 1.03 80 13:31 22.01.2021
3453 Haze 29 1013 23 3000 1.03 20 12:48 22.01.2021
3454 Haze 29 1013 21 3000 1.03 50 12:23 22.01.2021
3455 Haze 29 1012 21 4000 1.54 60 11:46 22.01.2021
3456 Haze 29 1013 20 5000 1.54 360 10:56 22.01.2021
3457 Haze 29 1014 20 5000 2.06 360 10:35 22.01.2021
3458 Haze 29 1014 20 5000 2.06 90 09:59 22.01.2021
3459 Haze 29 1014 20 5000 1.54 70 09:31 22.01.2021
3460 Haze 28 1016 20 5000 1.54 120 08:51 22.01.2021
3461 Haze 28 1016 20 5000 2.57 90 08:30 22.01.2021
3462 Haze 27 1016 24 5000 3.09 90 07:36 22.01.2021
3463 Haze 15 1016 51 5000 1.54 10 03:40 22.01.2021
3464 Haze 16 1014 48 3000 1.54 20 00:40 22.01.2021
3465 Haze 16 1014 48 3000 1.54 20 23:55 21.01.2021
3466 Haze 16 1014 48 3000 1.54 20 23:32 21.01.2021
3467 Haze 16 1014 51 3000 1.03 320 22:53 21.01.2021
3468 Haze 16 1014 51 3000 1.03 320 22:35 21.01.2021
3469 Haze 13 1015 62 3000 1.03 320 21:44 21.01.2021
3470 Haze 13 1015 62 3000 1.03 320 21:22 21.01.2021
3471 Haze 17 1015 51 3000 1.03 350 20:51 21.01.2021
3472 Haze 17 1015 51 3000 1.03 350 20:31 21.01.2021
3473 Haze 17 1015 55 3000 1.03 350 19:52 21.01.2021
3474 Haze 17 1015 55 3000 1.03 350 19:30 21.01.2021
3475 Haze 18 1015 48 3000 3.02 3 18:59 21.01.2021
3476 Haze 18 1015 48 3000 3.02 3 18:40 21.01.2021
3477 Haze 18 1015 48 3000 2.27 358 18:20 21.01.2021
3478 Haze 17 1015 48 3000 2.27 358 17:51 21.01.2021
3479 Haze 19 1015 39 3000 1.03 70 17:20 21.01.2021
3480 Haze 18 1015 42 3000 1.14 21 16:49 21.01.2021
3481 Haze 20 1015 37 3000 0.99 59 16:27 21.01.2021
3482 Haze 21 1014 35 3000 1.03 80 15:59 21.01.2021
3483 Haze 22 1014 33 3000 1.03 90 15:34 21.01.2021
3484 Haze 21 1014 37 3000 1.03 170 14:53 21.01.2021
3485 Haze 21 1014 37 3000 1.03 170 14:35 21.01.2021
3486 Haze 24 1014 29 4000 1.54 130 13:51 21.01.2021
3487 Haze 26 1013 25 4000 1.54 100 13:32 21.01.2021
3488 Haze 27 1013 22 4000 1.54 100 12:56 21.01.2021
3489 Haze 27 1013 22 4000 2.06 90 12:38 21.01.2021
3490 Haze 27 1013 22 4000 2.06 90 12:20 21.01.2021
3491 Haze 28 1012 21 5000 2.06 120 11:43 21.01.2021
3492 Haze 28 1013 21 5000 2.06 120 11:23 21.01.2021
3493 Haze 28 1013 20 5000 1.03 100 10:45 21.01.2021
3494 Haze 28 1013 20 5000 1.54 50 10:25 21.01.2021
3495 Haze 28 1013 20 5000 2.06 40 09:43 21.01.2021
3496 Haze 28 1014 17 5000 1.03 70 09:24 21.01.2021
3497 Haze 27 1015 19 5000 3.09 100 08:37 21.01.2021
3498 Haze 27 1015 18 5000 3.09 70 07:54 21.01.2021
3499 Haze 26 1016 19 5000 2.06 60 07:26 21.01.2021
3500 Haze 26 1017 19 5000 3.09 50 06:43 21.01.2021
3501 Haze 23 1017 33 4000 1.54 50 05:19 21.01.2021
3502 Haze 18 1015 52 2500 1.03 20 02:24 21.01.2021
3503 Haze 19 1014 52 2500 1.03 30 00:44 21.01.2021
3504 Haze 20 1014 49 2500 2.24 16 23:52 20.01.2021
3505 Haze 20 1014 49 2500 2.24 16 23:31 20.01.2021
3506 Haze 20 1014 56 2500 1.03 40 22:57 20.01.2021
3507 Haze 20 1014 56 2500 1.03 40 22:36 20.01.2021
3508 Haze 21 1014 49 2500 1.03 60 21:56 20.01.2021
3509 Haze 21 1014 49 2500 1.03 60 21:24 20.01.2021
3510 Haze 22 1014 49 2500 1.03 20 20:55 20.01.2021
3511 Haze 22 1014 49 2500 1.03 20 20:24 20.01.2021
3512 Haze 23 1015 49 2500 1.03 20 19:55 20.01.2021
3513 Haze 23 1015 49 2500 1.03 20 19:37 20.01.2021
3514 Haze 23 1015 49 2500 1.03 20 19:18 20.01.2021
3515 Haze 24 1015 50 2500 1.03 20 18:41 20.01.2021
3516 Haze 24 1015 50 2500 1.03 40 17:56 20.01.2021
3517 Haze 25 1015 47 2500 1.54 40 17:36 20.01.2021
3518 Haze 25 1015 50 2500 1.54 60 16:52 20.01.2021
3519 Haze 26 1015 53 2500 1.54 40 16:32 20.01.2021
3520 Haze 25 1014 57 2500 1.03 60 15:48 20.01.2021
3521 Haze 25 1014 57 2500 2.59 340 15:19 20.01.2021
3522 Haze 26 1014 53 2500 2.59 340 14:46 20.01.2021
3523 Haze 26 1013 53 2500 1.03 80 14:22 20.01.2021
3524 Haze 27 1013 54 2500 1.03 90 13:41 20.01.2021
3525 Haze 28 1012 51 2500 1.03 100 13:21 20.01.2021
3526 Haze 28 1012 47 2500 1.03 100 12:35 20.01.2021
3527 Haze 30 1012 39 3000 1.03 50 11:54 20.01.2021
3528 Haze 30 1012 39 3000 1.03 50 11:35 20.01.2021
3529 Haze 30 1012 39 3000 1.03 40 10:55 20.01.2021
3530 Haze 30 1012 42 3000 1.54 90 10:28 20.01.2021
3531 Haze 30 1013 39 3000 1.54 40 09:48 20.01.2021
3532 Haze 29 1013 42 3000 2.57 310 09:24 20.01.2021
3533 Haze 30 1014 39 3000 1.54 20 08:47 20.01.2021
3534 Haze 29 1015 42 3000 1.03 40 08:26 20.01.2021
3535 Haze 28 1015 47 3000 1.03 70 07:56 20.01.2021
3536 Haze 27 1015 47 3000 2.06 40 07:25 20.01.2021
3537 Haze 25 1017 53 2500 1.54 110 05:38 20.01.2021
3538 Mist 21 1015 64 2000 2.06 320 03:22 20.01.2021
3539 Haze 22 1012 64 3000 1.03 10 00:59 20.01.2021
3540 Haze 22 1012 64 3000 1.03 10 00:31 20.01.2021
3541 Haze 21 1012 68 3000 1.01 325 23:42 19.01.2021
3542 Haze 21 1012 68 3000 0.99 296 23:19 19.01.2021
3543 Haze 22 1013 64 3000 1.03 340 22:42 19.01.2021
3544 Haze 22 1013 64 3000 1.03 340 22:22 19.01.2021
3545 Haze 21 1013 68 3000 1.54 170 21:59 19.01.2021
3546 Haze 21 1013 68 3000 1.54 170 21:40 19.01.2021
3547 Haze 21 1013 68 3000 1.54 170 21:19 19.01.2021
3548 Haze 25 1013 53 3000 2.06 300 20:42 19.01.2021
3549 Haze 25 1013 53 3000 2.06 300 20:22 19.01.2021
3550 Clear 20 1012 55 10000 1.48 270 19:41 19.01.2021
3551 Haze 25 1014 53 3000 0.93 297 19:20 19.01.2021
3552 Haze 25 1014 53 3000 0.71 357 18:40 19.01.2021
3553 Haze 25 1014 53 3000 0.67 33 18:21 19.01.2021
3554 Haze 25 1014 53 3000 0.67 33 17:45 19.01.2021
3555 Haze 25 1014 50 3000 1.54 310 17:23 19.01.2021
3556 Haze 25 1014 50 3000 0.1 181 16:45 19.01.2021
3557 Haze 25 1013 50 3000 0.94 206 16:25 19.01.2021
3558 Haze 25 1013 50 3000 0.94 206 15:55 19.01.2021
3559 Haze 25 1013 50 3000 0.94 206 15:34 19.01.2021
3560 Haze 25 1013 50 3000 1.54 180 14:51 19.01.2021
3561 Haze 25 1013 47 3000 1.54 180 14:31 19.01.2021
3562 Haze 27 1012 41 3000 1.54 180 13:55 19.01.2021
3563 Haze 28 1012 39 3000 2.06 190 13:34 19.01.2021
3564 Haze 30 1011 35 3000 2.57 200 12:58 19.01.2021
3565 Haze 30 1011 35 3000 2.57 200 12:35 19.01.2021
3566 Haze 31 1011 30 5000 3.09 200 11:59 19.01.2021
3567 Haze 31 1011 30 5000 2.57 200 11:40 19.01.2021
3568 Haze 31 1011 30 5000 2.57 200 11:21 19.01.2021
3569 Haze 31 1012 29 5000 2.57 210 10:47 19.01.2021
3570 Haze 31 1012 29 5000 4.12 240 10:27 19.01.2021
3571 Haze 31 1013 29 5000 3.09 240 09:51 19.01.2021
3572 Haze 31 1013 29 5000 3.09 240 09:20 19.01.2021
3573 Haze 30 1014 28 5000 3.09 240 08:45 19.01.2021
3574 Haze 29 1015 37 5000 2.57 240 07:57 19.01.2021
3575 Haze 28 1016 39 5000 2.06 200 07:19 19.01.2021
3576 Haze 23 1016 56 3000 1.77 127 04:50 19.01.2021
3577 Haze 16 1014 82 2500 1.43 83 02:24 19.01.2021
3578 Haze 17 1013 72 3000 1.71 79 00:45 19.01.2021
3579 Haze 18 1012 72 3000 1.03 330 23:57 18.01.2021
3580 Haze 18 1012 72 3000 1.03 330 23:28 18.01.2021
3581 Haze 17 1013 72 3000 1.83 72 22:44 18.01.2021
3582 Haze 17 1013 72 3000 1.65 79 22:23 18.01.2021
3583 Haze 18 1013 68 3000 1.03 330 21:48 18.01.2021
3584 Haze 18 1013 68 3000 1.03 330 21:23 18.01.2021
3585 Haze 19 1014 63 3000 1.54 330 20:57 18.01.2021
3586 Haze 19 1014 63 3000 1.54 330 20:34 18.01.2021
3587 Haze 19 1014 63 3000 1.05 92 19:54 18.01.2021
3588 Haze 19 1014 63 3000 1.05 92 19:35 18.01.2021
3589 Haze 20 1015 60 3000 0.35 199 18:53 18.01.2021
3590 Haze 20 1015 60 3000 0.99 170 18:33 18.01.2021
3591 Haze 21 1015 56 3000 1.21 216 17:52 18.01.2021
3592 Haze 21 1015 56 3000 1.21 216 17:32 18.01.2021
3593 Haze 21 1015 56 3000 1.03 240 16:54 18.01.2021
3594 Haze 21 1015 52 3000 0.9 217 16:32 18.01.2021
3595 Haze 22 1015 53 3000 0.47 173 15:56 18.01.2021
3596 Haze 22 1015 53 3000 0.46 171 15:37 18.01.2021
3597 Haze 22 1014 53 3000 2.06 240 15:18 18.01.2021
3598 Haze 25 1014 38 3000 1.03 90 14:41 18.01.2021
3599 Haze 25 1014 38 3000 1.03 90 14:22 18.01.2021
3600 Haze 26 1013 38 3000 1.03 80 13:44 18.01.2021
3601 Haze 27 1013 36 4000 1.03 80 13:21 18.01.2021
3602 Haze 28 1013 34 5000 1.03 90 12:47 18.01.2021
3603 Haze 29 1013 32 5000 1.54 90 12:19 18.01.2021
3604 Haze 30 1013 28 5000 1.03 120 11:48 18.01.2021
3605 Haze 30 1013 28 5000 1.03 90 11:27 18.01.2021
3606 Haze 30 1013 26 5000 2.06 130 10:49 18.01.2021
3607 Haze 30 1014 26 5000 1.54 150 10:30 18.01.2021
3608 Haze 30 1014 25 5000 1.03 250 09:40 18.01.2021
3609 Haze 29 1014 26 5000 2.06 150 09:18 18.01.2021
3610 Haze 28 1016 28 4000 2.06 120 08:27 18.01.2021
3611 Haze 28 1016 28 4000 2.06 120 07:55 18.01.2021
3612 Haze 25 1018 36 3000 1.54 70 06:35 18.01.2021
3613 Haze 22 1018 46 3000 3.01 119 04:46 18.01.2021
3614 Haze 20 1017 56 2500 2.35 98 04:27 18.01.2021
3615 Haze 17 1017 72 2500 1.03 350 03:52 18.01.2021
3616 Haze 16 1016 72 2500 1.03 30 03:29 18.01.2021
3617 Haze 16 1016 72 2500 1.03 30 02:58 18.01.2021
3618 Haze 16 1015 72 2500 1.03 60 02:19 18.01.2021
3619 Haze 16 1014 77 3000 1.03 30 00:41 18.01.2021
3620 Haze 18 1014 68 3000 1.03 30 23:57 17.01.2021
3621 Haze 18 1014 68 3000 1.03 30 23:39 17.01.2021
3622 Haze 18 1014 68 3000 1.03 30 23:19 17.01.2021
3623 Haze 19 1014 59 3000 1.03 30 22:24 17.01.2021
3624 Haze 18 1014 63 3000 1.03 30 21:45 17.01.2021
3625 Haze 18 1014 63 3000 1.03 30 21:27 17.01.2021
3626 Haze 17 1014 67 3000 2.77 61 20:55 17.01.2021
3627 Haze 17 1014 67 3000 2.77 61 20:37 17.01.2021
3628 Haze 17 1014 67 3000 2.53 66 20:18 17.01.2021
3629 Haze 18 1015 63 3000 2.53 66 19:40 17.01.2021
3630 Haze 20 1015 56 3000 1.03 90 18:57 17.01.2021
3631 Haze 20 1015 60 3000 1.03 90 18:30 17.01.2021
3632 Haze 20 1015 60 3000 1.03 90 17:52 17.01.2021
3633 Haze 20 1015 60 3000 1.03 90 17:34 17.01.2021
3634 Haze 21 1015 52 3000 2.46 101 16:56 17.01.2021
3635 Haze 21 1015 52 3000 2.46 101 16:37 17.01.2021
3636 Haze 21 1015 52 3000 2.46 101 16:37 17.01.2021
3637 Haze 21 1015 52 3000 1.2 145 16:18 17.01.2021
3638 Haze 22 1015 49 3000 1.2 145 15:37 17.01.2021
3639 Haze 22 1014 49 3000 1.26 161 15:19 17.01.2021
3640 Haze 24 1014 43 3000 1.03 100 14:42 17.01.2021
3641 Haze 24 1014 43 3500 1.03 110 14:23 17.01.2021
3642 Haze 25 1013 41 4000 1.03 100 13:43 17.01.2021
3643 Haze 25 1013 41 4000 1.03 100 13:43 17.01.2021
3644 Haze 27 1013 36 4000 1.03 70 13:24 17.01.2021
3645 Haze 28 1013 34 4000 1.03 90 12:46 17.01.2021
3646 Haze 29 1013 30 5000 1.54 80 12:25 17.01.2021
3647 Haze 29 1012 28 5000 2.06 90 11:26 17.01.2021
3648 Haze 30 1013 26 5000 1.54 120 10:57 17.01.2021
3649 Haze 29 1013 28 5000 2.06 70 10:37 17.01.2021
3650 Haze 29 1013 28 5000 2.06 70 10:18 17.01.2021
3651 Haze 29 1014 26 5000 3.09 120 09:18 17.01.2021
3652 Haze 29 1014 26 5000 1.03 90 08:41 17.01.2021
3653 Haze 22 1016 40 4000 1.03 70 04:39 17.01.2021
3654 Haze 20 1015 52 3000 1.03 60 04:20 17.01.2021
3655 Haze 15 1014 72 3000 1.03 340 01:37 17.01.2021
3656 Haze 14 1013 77 3000 1.03 360 00:21 17.01.2021
3657 Haze 16 1013 67 3000 1.03 20 23:54 16.01.2021
3658 Haze 16 1013 67 3000 1.03 20 23:26 16.01.2021
3659 Haze 17 1013 59 3000 1.03 330 22:58 16.01.2021
3660 Haze 17 1013 59 3000 1.03 330 22:26 16.01.2021
3661 Haze 16 1013 67 3000 1.03 280 21:50 16.01.2021
3662 Haze 16 1013 67 3000 1.03 280 21:23 16.01.2021
3663 Haze 17 1013 63 3000 1.03 330 20:52 16.01.2021
3664 Haze 17 1013 63 3000 1.03 330 20:28 16.01.2021
3665 Haze 17 1013 63 3000 2.4 30 19:50 16.01.2021
3666 Haze 17 1013 63 3000 2.4 30 19:30 16.01.2021
3667 Haze 17 1013 63 3000 2.3 22 18:47 16.01.2021
3668 Haze 19 1013 52 3000 1.03 260 18:28 16.01.2021
3669 Haze 21 1013 46 3000 1.03 60 17:59 16.01.2021
3670 Haze 21 1013 46 3000 1.03 50 17:39 16.01.2021
3671 Haze 21 1013 46 3000 1.03 50 17:21 16.01.2021
3672 Haze 21 1013 46 3000 0.69 19 16:42 16.01.2021
3673 Haze 21 1013 46 3000 1.31 186 16:18 16.01.2021
3674 Haze 22 1012 43 3000 1.03 140 15:41 16.01.2021
3675 Haze 23 1011 40 4000 1.54 110 14:34 16.01.2021
3676 Haze 25 1011 36 4000 1.54 110 13:54 16.01.2021
3677 Haze 26 1011 34 4000 1.54 100 13:31 16.01.2021
3678 Haze 27 1010 29 4000 2.06 120 12:49 16.01.2021
3679 Haze 28 1010 28 5000 1.54 100 12:31 16.01.2021
3680 Haze 29 1010 26 5000 1.54 70 11:56 16.01.2021
3681 Haze 29 1010 26 5000 1.54 100 11:27 16.01.2021
3682 Haze 29 1010 26 5000 1.54 100 10:59 16.01.2021
3683 Haze 29 1010 26 5000 1.54 100 10:41 16.01.2021
3684 Haze 29 1011 24 5000 1.03 100 09:57 16.01.2021
3685 Haze 28 1011 28 5000 1.54 60 09:21 16.01.2021
3686 Haze 27 1013 26 5000 1.54 70 08:19 16.01.2021
3687 Clear 26 1012 17 10000 2.22 98 06:52 16.01.2021
3688 Haze 22 1015 37 4000 1.54 60 05:32 16.01.2021
3689 Haze 17 1014 51 2500 1.03 10 03:38 16.01.2021
3690 Haze 13 1014 67 2500 1.96 46 02:42 16.01.2021
3691 Haze 15 1012 67 2500 1.03 340 00:46 16.01.2021
3692 Haze 15 1012 67 2500 1.03 340 00:23 16.01.2021
3693 Haze 16 1013 59 3000 1.48 19 23:37 15.01.2021
3694 Haze 16 1013 59 3000 1.5 30 22:39 15.01.2021
3695 Haze 16 1013 59 3000 1.56 61 22:21 15.01.2021
3696 Haze 15 1013 63 3000 1.56 61 21:42 15.01.2021
3697 Haze 17 1013 59 3000 2.43 65 20:49 15.01.2021
3698 Haze 17 1013 59 3000 3.61 33 20:24 15.01.2021
3699 Clear 16 1012 31 10000 3.61 33 19:48 15.01.2021
3700 Haze 21 1014 46 3000 3.59 21 19:29 15.01.2021
3701 Haze 21 1014 46 3000 3.65 22 18:54 15.01.2021
3702 Haze 21 1014 46 3000 3.37 13 18:21 15.01.2021
3703 Haze 21 1014 49 3000 1.03 30 17:59 15.01.2021
3704 Haze 20 1014 52 3000 1.03 70 17:40 15.01.2021
3705 Haze 20 1014 52 3000 1.03 70 17:40 15.01.2021
3706 Haze 20 1014 52 3000 1.03 70 17:21 15.01.2021
3707 Haze 20 1014 52 3000 1.03 70 17:21 15.01.2021
3708 Haze 20 1013 52 3000 1.84 7 16:44 15.01.2021
3709 Haze 19 1013 52 3000 1.21 215 16:23 15.01.2021
3710 Haze 19 1013 55 3000 1.21 215 15:41 15.01.2021
3711 Haze 21 1013 49 3000 2.11 188 15:21 15.01.2021
3712 Haze 22 1012 46 3000 1.03 100 14:43 15.01.2021
3713 Haze 22 1012 46 3000 1.03 100 14:24 15.01.2021
3714 Haze 26 1012 34 4000 1.54 100 13:41 15.01.2021
3715 Haze 26 1012 34 4000 1.54 100 13:21 15.01.2021
3716 Haze 27 1012 32 5000 2.06 90 12:49 15.01.2021
3717 Haze 28 1011 28 5000 2.06 60 12:31 15.01.2021
3718 Haze 29 1011 24 5000 2.06 70 11:46 15.01.2021
3719 Haze 29 1011 24 5000 2.06 50 11:23 15.01.2021
3720 Haze 28 1012 26 5000 2.06 90 10:53 15.01.2021
3721 Haze 28 1012 26 5000 2.06 90 10:33 15.01.2021
3722 Haze 28 1012 26 5000 2.06 90 09:50 15.01.2021
3723 Haze 27 1013 24 5000 2.06 90 09:30 15.01.2021
3724 Haze 26 1014 24 5000 2.06 120 08:31 15.01.2021
3725 Haze 25 1015 23 5000 2.06 50 07:47 15.01.2021
3726 Haze 24 1016 25 5000 2.06 50 07:24 15.01.2021
3727 Haze 23 1016 27 5000 2.06 50 06:52 15.01.2021
3728 Haze 13 1015 67 3000 2.28 66 03:29 15.01.2021
3729 Haze 12 1013 62 2500 1.03 20 00:55 15.01.2021
3730 Haze 13 1013 67 2500 2.06 10 23:42 14.01.2021
3731 Haze 13 1013 71 2500 1.03 20 22:58 14.01.2021
3732 Haze 13 1013 71 2500 1.03 20 22:40 14.01.2021
3733 Haze 13 1013 71 2500 1.03 20 22:22 14.01.2021
3734 Haze 17 1013 42 2500 1.03 10 21:42 14.01.2021
3735 Haze 17 1013 42 2500 1.03 10 21:21 14.01.2021
3736 Haze 18 1014 39 2500 1.03 10 20:48 14.01.2021
3737 Haze 18 1014 39 2500 1.03 10 20:22 14.01.2021
3738 Haze 16 1014 59 2500 1.54 20 19:42 14.01.2021
3739 Haze 16 1014 59 2500 1.54 20 19:23 14.01.2021
3740 Haze 17 1015 51 2500 1.91 359 18:50 14.01.2021
3741 Haze 17 1015 51 2500 2.53 6 18:19 14.01.2021
3742 Haze 17 1015 51 2500 2.53 6 17:45 14.01.2021
3743 Haze 20 1015 40 2500 2.33 25 17:26 14.01.2021
3744 Haze 19 1014 59 2500 2.33 25 16:40 14.01.2021
3745 Haze 19 1013 55 2500 1.49 75 15:57 14.01.2021
3746 Haze 19 1013 55 2500 1.49 75 15:39 14.01.2021
3747 Haze 22 1013 46 3000 1.58 132 14:58 14.01.2021
3748 Haze 22 1013 46 3000 1.58 132 14:37 14.01.2021
3749 Haze 23 1013 43 3000 1.54 110 14:18 14.01.2021
3750 Haze 23 1013 43 3000 1.54 110 13:48 14.01.2021
3751 Haze 25 1013 36 3000 1.54 100 13:20 14.01.2021
3752 Haze 26 1013 36 4000 2.06 110 12:38 14.01.2021
3753 Haze 27 1012 34 5000 1.54 110 12:18 14.01.2021
3754 Haze 28 1013 28 5000 1.54 90 11:42 14.01.2021
3755 Haze 28 1013 28 5000 1.54 90 11:20 14.01.2021
3756 Haze 28 1013 28 5000 1.54 100 10:50 14.01.2021
3757 Haze 27 1013 29 5000 1.54 100 10:22 14.01.2021
3758 Haze 27 1014 29 5000 1.54 40 09:45 14.01.2021
3759 Haze 27 1014 29 5000 1.54 60 09:22 14.01.2021
3760 Haze 26 1015 27 5000 1.54 60 08:48 14.01.2021
3761 Haze 25 1016 29 5000 1.03 40 08:22 14.01.2021
3762 Haze 25 1017 29 5000 1.54 50 07:45 14.01.2021
3763 Haze 22 1017 33 5000 2.06 50 06:46 14.01.2021
3764 Haze 21 1018 35 5000 2.06 60 05:45 14.01.2021
3765 Haze 15 1015 51 2500 2.5 28 00:45 14.01.2021
3766 Haze 16 1015 48 2500 1.03 30 23:54 13.01.2021
3767 Haze 16 1015 48 2500 1.03 30 23:22 13.01.2021
3768 Haze 16 1015 51 2500 1.54 20 22:29 13.01.2021
3769 Haze 17 1016 45 2500 1.54 20 21:57 13.01.2021
3770 Haze 17 1016 45 2500 1.54 20 21:38 13.01.2021
3771 Haze 18 1016 45 2500 1.54 20 20:58 13.01.2021
3772 Haze 18 1016 45 2500 1.54 20 20:30 13.01.2021
3773 Haze 19 1016 42 2500 1.03 30 19:58 13.01.2021
3774 Haze 19 1016 42 2500 1.03 30 19:37 13.01.2021
3775 Haze 19 1016 42 2500 1.03 30 19:19 13.01.2021
3776 Haze 19 1016 42 2500 1.54 50 18:40 13.01.2021
3777 Haze 20 1016 40 2500 2.57 50 17:51 13.01.2021
3778 Haze 20 1016 40 2500 2.57 50 17:51 13.01.2021
3779 Haze 21 1016 46 2500 1.03 50 17:24 13.01.2021
3780 Haze 21 1015 46 2500 1.03 70 16:51 13.01.2021
3781 Haze 21 1015 49 2500 1.03 70 16:22 13.01.2021
3782 Haze 21 1015 52 2500 1.03 80 15:52 13.01.2021
3783 Haze 21 1014 52 2500 1.03 80 15:34 13.01.2021
3784 Haze 22 1014 49 2500 1.03 90 14:46 13.01.2021
3785 Haze 23 1013 46 3000 1.54 100 13:53 13.01.2021
3786 Haze 25 1013 38 3000 1.54 120 13:27 13.01.2021
3787 Haze 26 1013 36 4000 1.54 110 12:47 13.01.2021
3788 Haze 27 1012 32 4000 2.57 120 12:28 13.01.2021
3789 Haze 27 1013 32 4000 1.54 120 11:55 13.01.2021
3790 Haze 27 1013 32 4000 1.54 120 11:35 13.01.2021
3791 Haze 28 1013 28 4000 1.54 50 10:55 13.01.2021
3792 Haze 28 1013 28 4000 1.54 50 10:37 13.01.2021
3793 Haze 28 1014 28 4000 1.03 30 09:55 13.01.2021
3794 Haze 26 1014 29 5000 1.03 330 09:30 13.01.2021
3795 Haze 26 1015 29 5000 1.03 350 08:51 13.01.2021
3796 Haze 25 1015 31 5000 1.54 30 08:31 13.01.2021
3797 Haze 24 1016 33 5000 1.03 350 07:35 13.01.2021
3798 Haze 22 1017 37 4000 2.57 350 06:54 13.01.2021
3799 Haze 18 1018 45 3000 1.54 80 04:20 13.01.2021
3800 Haze 17 1018 55 2500 1.03 20 03:45 13.01.2021
3801 Haze 16 1017 72 2000 1.03 20 03:27 13.01.2021
3802 Haze 17 1015 72 2000 1.54 10 01:19 13.01.2021
3803 Haze 19 1015 68 2000 1.03 40 23:55 12.01.2021
3804 Haze 19 1015 68 2000 1.03 40 23:22 12.01.2021
3805 Haze 19 1015 68 2000 1.03 40 22:46 12.01.2021
3806 Haze 19 1015 68 2000 1.03 40 22:23 12.01.2021
3807 Haze 20 1015 68 2000 1.03 20 21:49 12.01.2021
3808 Haze 20 1015 68 2000 1.03 20 21:30 12.01.2021
3809 Haze 21 1015 64 2000 1.03 30 20:49 12.01.2021
3810 Haze 21 1015 64 2000 1.03 30 20:27 12.01.2021
3811 Haze 22 1015 64 2000 1.03 40 19:49 12.01.2021
3812 Haze 22 1015 64 2000 1.03 40 19:27 12.01.2021
3813 Haze 22 1016 73 2000 1.03 20 18:44 12.01.2021
3814 Haze 23 1016 68 2000 1.03 10 18:24 12.01.2021
3815 Haze 23 1016 68 2000 1.03 30 17:43 12.01.2021
3816 Haze 23 1015 68 2000 1.03 40 17:24 12.01.2021
3817 Haze 22 1016 73 2000 1.03 50 16:43 12.01.2021
3818 Haze 23 1015 68 2000 2.93 24 16:24 12.01.2021
3819 Haze 23 1015 68 2000 1.03 60 15:40 12.01.2021
3820 Haze 23 1014 68 2000 1.03 60 15:21 12.01.2021
3821 Haze 23 1014 68 2000 1.03 70 14:42 12.01.2021
3822 Haze 24 1014 64 2000 1.03 70 14:21 12.01.2021
3823 Haze 25 1013 61 2000 2.06 60 13:52 12.01.2021
3824 Haze 27 1013 57 2000 1.03 140 12:55 12.01.2021
3825 Haze 27 1013 54 2500 2.06 100 12:22 12.01.2021
3826 Haze 27 1013 57 2500 1.54 90 11:41 12.01.2021
3827 Haze 28 1014 54 2500 1.54 90 10:55 12.01.2021
3828 Haze 28 1014 54 2500 1.03 70 10:25 12.01.2021
3829 Haze 28 1014 51 2500 2.06 60 09:58 12.01.2021
3830 Haze 27 1015 54 2500 2.06 100 09:28 12.01.2021
3831 Haze 27 1016 54 2500 2.57 90 08:54 12.01.2021
3832 Haze 26 1016 57 2500 2.57 90 08:26 12.01.2021
3833 Haze 25 1017 61 2500 2.57 30 07:37 12.01.2021
3834 Haze 25 1018 61 2500 2.57 30 06:49 12.01.2021
3835 Haze 22 1018 73 2000 2.57 50 05:34 12.01.2021
3836 Mist 20 1016 83 1500 1.54 50 03:27 12.01.2021
3837 Mist 19 1015 88 2000 1.03 30 02:21 12.01.2021
3838 Mist 19 1015 82 2000 1.54 320 01:31 12.01.2021
3839 Mist 19 1015 82 2000 1.54 320 01:31 12.01.2021
3840 Mist 19 1015 88 2000 3.14 16 23:57 11.01.2021
3841 Mist 19 1015 88 2000 3.14 16 23:36 11.01.2021
3842 Mist 19 1015 88 2000 3.01 21 23:18 11.01.2021
3843 Mist 19 1015 88 2000 3.01 21 22:45 11.01.2021
3844 Haze 20 1015 83 2500 1.03 300 22:26 11.01.2021
3845 Haze 20 1015 83 2500 1.03 300 21:42 11.01.2021
3846 Haze 20 1015 83 2500 1.03 300 21:23 11.01.2021
3847 Haze 23 1016 68 2500 1.03 20 20:47 11.01.2021
3848 Haze 23 1016 68 2500 1.03 20 20:28 11.01.2021
3849 Haze 23 1016 68 2500 1.03 350 19:57 11.01.2021
3850 Haze 23 1016 68 2500 1.03 350 19:34 11.01.2021
3851 Haze 23 1016 68 2500 1.54 320 18:46 11.01.2021
3852 Haze 23 1016 68 2500 1.54 320 18:27 11.01.2021
3853 Haze 23 1016 68 2500 2.77 5 17:56 11.01.2021
3854 Haze 23 1016 68 2500 2.77 5 17:38 11.01.2021
3855 Haze 23 1016 68 2500 2.61 5 17:19 11.01.2021
3856 Haze 23 1016 68 2500 2.61 5 16:40 11.01.2021
3857 Haze 23 1015 68 2500 1.03 80 16:21 11.01.2021
3858 Haze 24 1015 64 2500 2.21 1 15:49 11.01.2021
3859 Haze 24 1014 64 2500 0.89 332 15:27 11.01.2021
3860 Haze 27 1013 54 2500 1.54 110 14:40 11.01.2021
3861 Haze 27 1013 50 2500 1.54 110 13:58 11.01.2021
3862 Haze 27 1013 50 2500 1.54 110 13:38 11.01.2021
3863 Haze 28 1013 51 2500 2.06 110 13:18 11.01.2021
3864 Haze 30 1013 42 2500 1.54 100 12:36 11.01.2021
3865 Haze 31 1013 37 2500 2.06 90 11:57 11.01.2021
3866 Haze 31 1013 37 2500 2.06 90 11:36 11.01.2021
3867 Haze 31 1013 37 3000 1.54 100 10:53 11.01.2021
3868 Haze 31 1013 37 3000 2.06 360 10:26 11.01.2021
3869 Haze 31 1014 37 3000 2.06 90 09:44 11.01.2021
3870 Haze 31 1014 40 3000 2.06 60 09:22 11.01.2021
3871 Haze 30 1015 42 3000 2.06 120 08:46 11.01.2021
3872 Haze 29 1016 48 3000 1.03 90 08:19 11.01.2021
3873 Haze 28 1017 51 3000 1.54 50 07:29 11.01.2021
3874 Haze 27 1017 54 3000 1.03 120 06:59 11.01.2021
3875 Haze 26 1017 57 3000 1.03 90 06:23 11.01.2021
3876 Mist 18 1015 88 1800 1.03 340 01:46 11.01.2021
3877 Mist 19 1014 82 1800 1.03 340 00:38 11.01.2021
3878 Mist 19 1014 82 1800 1.54 330 23:36 10.01.2021
3879 Haze 19 1014 82 1800 1.03 270 22:49 10.01.2021
3880 Haze 19 1014 82 1800 1.03 270 22:27 10.01.2021
3881 Haze 21 1014 78 1800 1.03 20 21:46 10.01.2021
3882 Haze 21 1014 78 1800 1.03 20 21:21 10.01.2021
3883 Haze 22 1014 73 1800 1.03 360 20:57 10.01.2021
3884 Haze 22 1014 73 1800 1.03 360 20:33 10.01.2021
3885 Haze 21 1014 73 1800 1.03 330 19:58 10.01.2021
3886 Haze 21 1014 73 1800 1.03 330 19:36 10.01.2021
3887 Haze 21 1014 73 1800 1.03 330 19:18 10.01.2021
3888 Haze 21 1014 73 2500 0.51 190 18:41 10.01.2021
3889 Haze 22 1014 68 2500 1.03 320 18:19 10.01.2021
3890 Haze 22 1014 68 2500 0.53 248 17:22 10.01.2021
3891 Haze 22 1014 68 2500 0.53 248 16:37 10.01.2021
3892 Haze 22 1014 68 2500 2.04 203 16:18 10.01.2021
3893 Haze 25 1013 57 2500 1.03 30 15:25 10.01.2021
3894 Haze 25 1013 57 2500 1.03 30 14:52 10.01.2021
3895 Haze 26 1012 53 2500 1.03 40 14:33 10.01.2021
3896 Haze 27 1013 50 2500 1.54 60 13:55 10.01.2021
3897 Haze 27 1013 50 2500 1.54 60 13:37 10.01.2021
3898 Haze 28 1012 47 2500 1.03 350 13:18 10.01.2021
3899 Haze 30 1012 37 2500 1.03 20 12:50 10.01.2021
3900 Haze 30 1012 39 2500 1.03 60 12:31 10.01.2021
3901 Haze 31 1012 37 2500 1.03 60 11:40 10.01.2021
3902 Haze 31 1012 37 2500 1.03 60 11:19 10.01.2021
3903 Haze 31 1012 37 2500 1.03 60 11:19 10.01.2021
3904 Haze 30 1013 39 2500 1.03 270 10:38 10.01.2021
3905 Haze 30 1013 39 2500 1.03 270 10:20 10.01.2021
3906 Haze 28 1014 51 2500 1.03 60 09:27 10.01.2021
3907 Rain 27 1015 54 2500 1.03 90 08:22 10.01.2021
3908 Haze 26 1016 53 2500 2.06 130 07:31 10.01.2021
3909 Haze 26 1017 53 2500 1.54 70 06:20 10.01.2021
3910 Haze 25 1017 57 2000 1.54 100 05:37 10.01.2021
3911 Mist 20 1015 77 1500 1.03 340 03:26 10.01.2021
3912 Mist 19 1013 82 2500 1.54 310 01:28 10.01.2021
3913 Haze 21 1013 78 2500 1.03 340 23:51 09.01.2021
3914 Haze 21 1013 78 2500 1.03 340 23:33 09.01.2021
3915 Haze 21 1013 78 2500 1.03 330 22:48 09.01.2021
3916 Haze 21 1013 78 2500 1.03 330 22:19 09.01.2021
3917 Haze 22 1013 78 2500 1.03 340 21:57 09.01.2021
3918 Haze 22 1013 78 2500 1.03 340 21:39 09.01.2021
3919 Haze 22 1013 78 2500 1.03 340 21:19 09.01.2021
3920 Haze 22 1013 73 2500 1.32 22 20:44 09.01.2021
3921 Haze 23 1014 68 2500 1.64 54 19:45 09.01.2021
3922 Haze 23 1014 68 2500 0.83 75 19:23 09.01.2021
3923 Haze 25 1014 61 2500 1.54 56 18:56 09.01.2021
3924 Haze 25 1014 61 2500 1.54 56 18:34 09.01.2021
3925 Haze 25 1014 65 2500 1.2 69 17:50 09.01.2021
3926 Haze 25 1014 65 2500 1.2 69 17:31 09.01.2021
3927 Haze 25 1014 65 2500 0.76 30 16:36 09.01.2021
3928 Haze 25 1013 61 2500 0.74 43 15:53 09.01.2021
3929 Haze 25 1013 57 2500 0.74 43 15:33 09.01.2021
3930 Haze 27 1012 54 2500 0.9 32 14:42 09.01.2021
3931 Haze 28 1012 51 2500 1.03 100 14:21 09.01.2021
3932 Haze 28 1012 51 2500 1.03 100 13:50 09.01.2021
3933 Haze 29 1011 48 2500 1.03 110 13:31 09.01.2021
3934 Haze 31 1011 40 3000 1.54 130 12:55 09.01.2021
3935 Haze 31 1011 33 3000 1.54 150 12:26 09.01.2021
3936 Haze 32 1011 29 3000 1.03 280 11:56 09.01.2021
3937 Haze 31 1011 30 3000 2.06 150 11:33 09.01.2021
3938 Haze 31 1011 30 3000 2.06 150 11:33 09.01.2021
3939 Haze 32 1011 29 3000 2.06 250 10:55 09.01.2021
3940 Haze 32 1011 29 3000 2.06 250 10:36 09.01.2021
3941 Haze 31 1012 33 3000 1.54 160 09:54 09.01.2021
3942 Haze 31 1012 35 2000 1.54 130 09:29 09.01.2021
3943 Haze 31 1013 37 2000 2.06 120 08:47 09.01.2021
3944 Haze 29 1014 45 2000 1.54 210 07:38 09.01.2021
3945 Haze 29 1014 45 2000 1.54 210 07:38 09.01.2021
3946 Haze 27 1015 50 2000 1.54 120 06:40 09.01.2021
3947 Haze 25 1015 57 1800 1.54 40 04:53 09.01.2021
3948 Haze 22 1014 68 1800 1.54 50 03:25 09.01.2021
3949 Haze 22 1014 68 2000 1.03 40 02:32 09.01.2021
3950 Haze 22 1013 68 2000 1.76 71 01:54 09.01.2021
3951 Haze 22 1013 68 2000 2.01 82 00:37 09.01.2021
3952 Haze 22 1013 68 2000 2.24 81 23:59 08.01.2021
3953 Haze 22 1013 68 2000 2.16 60 23:19 08.01.2021
3954 Haze 23 1013 64 1800 2.27 59 22:19 08.01.2021
3955 Haze 24 1013 60 2000 1.03 60 21:44 08.01.2021
3956 Haze 24 1013 60 2000 1.03 70 20:49 08.01.2021
3957 Haze 24 1013 60 2000 1.03 70 20:25 08.01.2021
3958 Haze 24 1013 57 2000 1.54 80 19:55 08.01.2021
3959 Haze 24 1013 57 2000 1.54 80 19:22 08.01.2021
3960 Haze 24 1014 57 2000 1.54 70 18:36 08.01.2021
3961 Haze 24 1014 57 2000 1.54 70 18:18 08.01.2021
3962 Haze 24 1014 57 2000 1.03 60 17:44 08.01.2021
3963 Haze 25 1014 53 2000 1.54 60 17:20 08.01.2021
3964 Haze 25 1014 57 2000 1.54 60 16:33 08.01.2021
3965 Haze 25 1013 57 2000 1.03 70 15:43 08.01.2021
3966 Haze 25 1012 57 1800 1.03 60 14:51 08.01.2021
3967 Haze 25 1012 57 1800 1.03 40 14:32 08.01.2021
3968 Haze 25 1011 53 1800 1.03 40 13:41 08.01.2021
3969 Haze 27 1011 47 1800 1.54 70 13:18 08.01.2021
3970 Haze 27 1011 47 1800 1.54 70 13:18 08.01.2021
3971 Haze 28 1011 44 1800 1.54 80 12:42 08.01.2021
3972 Haze 28 1011 44 1800 1.54 80 12:19 08.01.2021
3973 Haze 27 1011 47 1800 1.03 100 11:42 08.01.2021
3974 Haze 27 1011 44 1800 1.03 50 11:22 08.01.2021
3975 Haze 28 1011 42 1800 2.06 70 10:48 08.01.2021
3976 Haze 27 1011 47 1800 1.54 90 10:24 08.01.2021
3977 Haze 28 1012 44 1800 1.54 80 09:44 08.01.2021
3978 Haze 27 1013 50 1500 3.09 100 09:21 08.01.2021
3979 Haze 27 1013 50 1500 2.06 100 08:19 08.01.2021
3980 Haze 27 1014 50 1500 2.06 90 07:25 08.01.2021
3981 Mist 23 1014 73 1500 1.03 60 04:26 08.01.2021
3982 Clouds 23 1010 44 10000 1.53 59 23:46 07.01.2021
3983 Haze 23 1011 68 2000 1.8 39 23:28 07.01.2021
3984 Haze 23 1011 68 2000 1.8 39 22:42 07.01.2021
3985 Haze 23 1011 68 2000 2.29 36 22:18 07.01.2021
3986 Haze 23 1011 68 2000 2.29 36 21:40 07.01.2021
3987 Haze 23 1011 68 2000 2.12 35 21:21 07.01.2021
3988 Haze 24 1011 64 2000 1.03 50 20:44 07.01.2021
3989 Haze 24 1011 64 2000 1.03 50 20:23 07.01.2021
3990 Haze 23 1011 64 2000 1.03 350 19:42 07.01.2021
3991 Haze 24 1012 60 2500 1.03 30 18:54 07.01.2021
3992 Haze 24 1012 60 2500 1.03 30 18:23 07.01.2021
3993 Haze 24 1012 64 2500 1.03 20 17:42 07.01.2021
3994 Haze 24 1012 60 2500 1.03 100 17:18 07.01.2021
3995 Haze 24 1013 60 2500 0.77 85 16:51 07.01.2021
3996 Haze 24 1012 57 2500 1.03 90 16:20 07.01.2021
3997 Haze 24 1012 60 2500 1.03 100 15:34 07.01.2021
3998 Haze 25 1011 57 2500 1.03 70 14:42 07.01.2021
3999 Haze 25 1011 57 2500 1.03 70 14:42 07.01.2021
4000 Haze 25 1011 57 2500 1.03 70 14:42 07.01.2021
4001 Haze 25 1011 57 2500 1.03 70 14:42 07.01.2021
4002 Haze 25 1011 57 2500 1.03 70 14:23 07.01.2021
4003 Haze 25 1011 57 2500 1.54 90 13:36 07.01.2021
4004 Haze 26 1011 47 2500 2.06 110 13:18 07.01.2021
4005 Haze 28 1011 45 2500 2.1 110 12:33 07.01.2021
4006 Haze 28 1011 42 2500 2.1 110 11:52 07.01.2021
4007 Haze 28 1011 42 2500 2.1 110 11:30 07.01.2021
4008 Haze 28 1012 42 3000 5.1 100 10:48 07.01.2021
4009 Haze 29 1012 42 3000 3.1 100 10:19 07.01.2021
4010 Haze 30 1013 37 3000 1.5 50 09:46 07.01.2021
4011 Haze 29 1013 39 3000 1.5 70 09:18 07.01.2021
4012 Haze 29 1014 39 3000 2.1 100 08:26 07.01.2021
4013 Haze 27 1015 44 2000 1.88 105 07:45 07.01.2021
4014 Haze 27 1016 47 2000 2.48 88 06:59 07.01.2021
4015 Haze 18 1015 88 2000 1 340 03:35 07.01.2021
4016 Haze 20 1013 77 2000 1 10 00:28 07.01.2021
4017 Haze 21 1013 73 2000 1 340 23:36 06.01.2021
4018 Haze 22 1013 73 2000 1.5 330 22:37 06.01.2021
4019 Haze 23 1014 69 2000 1 350 21:43 06.01.2021
4020 Haze 23 1014 69 2000 2.6 350 21:23 06.01.2021
4021 Haze 23 1014 69 2000 2.6 350 20:51 06.01.2021
4022 Haze 23 1014 64 2000 1.5 330 20:23 06.01.2021
4023 Haze 23 1014 64 2000 1.5 330 19:49 06.01.2021
4024 Haze 23 1014 64 2000 1.5 330 19:29 06.01.2021
4025 Haze 23 1015 64 2000 2.47 4 18:55 06.01.2021
4026 Haze 23 1015 64 2000 1 200 18:36 06.01.2021
4027 Haze 23 1015 64 2000 1 200 18:18 06.01.2021
4028 Haze 23 1015 64 2000 1 160 17:41 06.01.2021
4029 Haze 24 1015 60 2000 1 110 17:21 06.01.2021
4030 Haze 24 1015 53 2000 1.5 100 16:39 06.01.2021
4031 Haze 23 1014 56 2000 1.5 110 16:18 06.01.2021
4032 Haze 25 1014 57 2000 1 170 15:49 06.01.2021
4033 Haze 25 1014 57 2000 1 160 15:24 06.01.2021
4034 Haze 26 1013 54 2000 1.32 19 14:41 06.01.2021
4035 Haze 27 1013 47 2500 1 90 14:19 06.01.2021
4036 Haze 27 1013 47 3000 1.5 50 13:40 06.01.2021
4037 Haze 27 1012 44 3000 1 50 13:18 06.01.2021
4038 Haze 27 1012 39 3000 1.5 40 12:45 06.01.2021
4039 Haze 27 1012 39 3000 0.94 54 11:50 06.01.2021
4040 Haze 27 1012 42 3000 2.1 60 11:24 06.01.2021
4041 Haze 29 1012 39 3000 2.1 160 10:46 06.01.2021
4042 Haze 27 1012 39 2500 2.1 270 09:53 06.01.2021
4043 Haze 27 1013 39 2500 2.1 50 09:34 06.01.2021
4044 Haze 27 1013 39 2500 1 180 08:55 06.01.2021
4045 Haze 26 1015 41 2500 2.1 130 08:21 06.01.2021
4046 Haze 26 1015 41 2500 2.1 130 07:53 06.01.2021
4047 Haze 24 1016 47 2000 2.1 60 06:45 06.01.2021
4048 Haze 21 1016 64 2000 1.5 50 05:31 06.01.2021
4049 Mist 18 1015 72 1200 1 20 04:21 06.01.2021
4050 Mist 17 1015 77 1500 1.5 330 02:44 06.01.2021
4051 Haze 17 1014 77 2000 1.5 350 02:21 06.01.2021
4052 Haze 18 1014 72 2000 1.5 320 00:22 06.01.2021
4053 Haze 19 1014 68 2000 1.5 320 22:59 05.01.2021
4054 Haze 19 1014 68 2000 1.5 320 22:40 05.01.2021
4055 Haze 19 1014 68 2000 1.5 360 22:20 05.01.2021
4056 Haze 19 1014 68 2000 1.5 360 21:37 05.01.2021
4057 Haze 20 1015 64 2000 1 350 20:37 05.01.2021
4058 Haze 20 1015 60 2000 1 320 20:18 05.01.2021
4059 Haze 20 1015 60 2000 1 320 19:41 05.01.2021
4060 Haze 20 1015 60 2000 1 320 19:21 05.01.2021
4061 Haze 20 1016 60 2000 2.1 320 18:42 05.01.2021
4062 Haze 21 1015 56 2000 2.1 330 18:21 05.01.2021
4063 Haze 21 1015 56 2000 2.1 330 17:47 05.01.2021
4064 Haze 21 1015 56 2000 2.1 320 17:26 05.01.2021
4065 Haze 21 1015 56 2000 2.1 360 16:51 05.01.2021
4066 Haze 22 1015 53 2000 2.6 350 16:21 05.01.2021
4067 Haze 22 1015 56 2000 2.6 350 15:49 05.01.2021
4068 Haze 23 1014 49 2000 1 20 14:50 05.01.2021
4069 Haze 23 1014 46 2000 1.5 340 14:25 05.01.2021
4070 Haze 25 1014 41 2000 1 80 13:46 05.01.2021
4071 Haze 25 1013 38 2500 1.5 50 13:22 05.01.2021
4072 Haze 25 1013 38 2500 2.1 50 12:47 05.01.2021
4073 Haze 28 1013 42 2500 1.5 60 12:24 05.01.2021
4074 Haze 28 1013 42 2500 2.6 70 11:39 05.01.2021
4075 Haze 28 1013 42 2500 2.6 70 11:39 05.01.2021
4076 Haze 28 1013 42 2500 2.6 70 11:39 05.01.2021
4077 Haze 28 1013 42 2500 2.6 70 11:39 05.01.2021
4078 Haze 28 1013 42 2500 2.6 70 11:39 05.01.2021
4079 Haze 29 1013 39 2500 2.1 100 10:46 05.01.2021
4080 Haze 29 1013 39 2500 2.1 100 10:27 05.01.2021
4081 Haze 27 1013 42 2000 1 60 09:49 05.01.2021
4082 Haze 27 1013 42 2000 1 60 09:28 05.01.2021
4083 Haze 26 1015 44 2000 3.25 88 08:27 05.01.2021
4084 Haze 23 1017 53 2000 2.1 80 06:47 05.01.2021
4085 Haze 21 1017 64 2000 2.1 80 04:50 05.01.2021
4086 Haze 18 1014 77 2000 1.97 69 00:50 05.01.2021
4087 Haze 18 1014 77 2000 1.92 52 23:46 04.01.2021
4088 Haze 20 1014 68 2000 2.06 48 23:25 04.01.2021
4089 Haze 20 1014 68 2000 2.06 48 22:51 04.01.2021
4090 Haze 20 1014 68 2000 2.06 48 22:32 04.01.2021
4091 Haze 20 1014 68 2000 1.53 31 21:49 04.01.2021
4092 Haze 20 1014 68 2000 1.53 31 21:31 04.01.2021
4093 Haze 19 1015 77 2000 2.47 41 20:44 04.01.2021
4094 Haze 20 1015 72 2000 2.52 36 20:25 04.01.2021
4095 Haze 20 1015 72 2000 2.52 36 19:52 04.01.2021
4096 Haze 21 1015 68 2000 2.59 28 19:24 04.01.2021
4097 Haze 21 1015 68 2000 2.59 28 18:54 04.01.2021
4098 Haze 21 1015 68 2000 2.34 39 18:24 04.01.2021
4099 Haze 21 1015 68 2000 2.34 39 17:42 04.01.2021
4100 Haze 21 1015 64 2000 1 20 17:24 04.01.2021
4101 Haze 21 1015 64 2000 1 350 16:46 04.01.2021
4102 Haze 21 1015 64 2000 1 350 16:27 04.01.2021
4103 Haze 21 1015 64 2000 2.1 360 15:49 04.01.2021
4104 Haze 22 1014 56 1800 1.68 9 15:27 04.01.2021
4105 Haze 22 1014 56 1800 1.68 9 15:27 04.01.2021
4106 Haze 23 1014 56 1800 1.68 9 14:34 04.01.2021
4107 Haze 23 1013 53 1800 1.5 90 13:46 04.01.2021
4108 Haze 24 1013 53 1800 1.5 80 13:23 04.01.2021
4109 Haze 25 1013 50 1800 1 50 12:38 04.01.2021
4110 Haze 25 1013 50 1800 2.01 98 11:58 04.01.2021
4111 Haze 25 1013 50 1800 2.4 97 11:21 04.01.2021
4112 Clouds 25 1013 53 1800 1 50 10:47 04.01.2021
4113 Clouds 25 1013 53 1800 1 50 10:25 04.01.2021
4114 Haze 25 1014 50 1800 2.7 92 09:51 04.01.2021
4115 Haze 25 1014 53 1800 1.5 110 09:19 04.01.2021
4116 Haze 26 1015 47 1800 2.1 80 08:42 04.01.2021
4117 Clouds 26 1015 47 1800 2.1 80 07:54 04.01.2021
4118 Haze 26 1016 47 1800 2.1 80 07:31 04.01.2021
4119 Haze 22 1017 56 1800 1 70 05:32 04.01.2021
4120 Mist 15 1015 87 1800 1.5 40 02:45 04.01.2021
4121 Clouds 15 1013 57 10000 2.29 71 00:40 04.01.2021
4122 Haze 16 1013 82 2000 1 20 23:48 03.01.2021
4123 Haze 16 1013 82 2000 1 70 23:20 03.01.2021
4124 Haze 16 1013 82 2000 1 70 22:51 03.01.2021
4125 Haze 16 1013 82 2000 1 70 22:30 03.01.2021
4126 Haze 18 1014 72 2000 1 20 21:48 03.01.2021
4127 Haze 18 1014 68 2000 1 330 21:25 03.01.2021
4128 Haze 18 1014 68 2000 1 330 20:44 03.01.2021
4129 Haze 18 1014 68 2000 1 330 20:24 03.01.2021
4130 Haze 18 1014 68 2500 1 210 19:55 03.01.2021
4131 Haze 18 1014 68 2500 1 210 19:34 03.01.2021
4132 Haze 19 1014 68 2500 1 310 18:54 03.01.2021
4133 Haze 19 1014 68 2500 1 310 18:36 03.01.2021
4134 Haze 19 1014 63 2500 1 100 17:57 03.01.2021
4135 Haze 19 1014 63 2500 1 100 17:38 03.01.2021
4136 Haze 21 1014 56 2500 1 100 17:18 03.01.2021
4137 Haze 21 1014 52 2500 1 110 16:41 03.01.2021
4138 Haze 22 1014 53 2000 1 90 16:19 03.01.2021
4139 Haze 22 1014 49 2000 1.5 100 15:45 03.01.2021
4140 Haze 22 1013 49 2000 1.29 167 15:23 03.01.2021
4141 Haze 23 1013 46 2000 1.29 167 14:44 03.01.2021
4142 Haze 24 1013 44 2000 1.5 100 14:22 03.01.2021
4143 Haze 25 1013 41 2500 1.5 100 13:38 03.01.2021
4144 Haze 26 1012 39 2500 1 110 13:19 03.01.2021
4145 Haze 28 1012 34 2500 1 120 11:53 03.01.2021
4146 Haze 28 1012 34 2500 1 120 11:34 03.01.2021
4147 Haze 28 1012 37 2500 1.5 120 10:58 03.01.2021
4148 Haze 28 1012 37 2500 1.5 120 10:33 03.01.2021
4149 Haze 28 1014 37 2500 1 140 09:52 03.01.2021
4150 Haze 28 1014 37 2500 1 140 09:26 03.01.2021
4151 Haze 27 1014 39 2500 1 160 08:31 03.01.2021
4152 Haze 24 1016 47 2000 1.5 100 06:57 03.01.2021
4153 Mist 15 1015 87 1500 2.65 74 03:30 03.01.2021
4154 Haze 15 1015 82 1500 2.11 54 02:26 03.01.2021
4155 Haze 18 1014 72 1500 2.14 42 00:33 03.01.2021
4156 Haze 17 1014 77 1500 2.25 44 23:52 02.01.2021
4157 Haze 19 1014 72 1500 2.28 54 23:19 02.01.2021
4158 Haze 19 1014 72 1500 2.28 54 22:47 02.01.2021
4159 Haze 19 1014 72 1500 2.12 60 22:28 02.01.2021
4160 Haze 18 1014 77 1500 2.12 60 21:48 02.01.2021
4161 Haze 18 1014 77 1500 1.96 67 21:28 02.01.2021
4162 Haze 18 1015 77 1500 1.96 67 20:45 02.01.2021
4163 Haze 18 1015 77 1500 1.67 71 20:25 02.01.2021
4164 Haze 19 1016 68 1500 1.67 71 19:46 02.01.2021
4165 Haze 20 1016 64 1500 1.9 65 19:20 02.01.2021
4166 Haze 20 1016 64 1500 1.9 65 18:47 02.01.2021
4167 Haze 20 1016 64 1500 1.64 55 18:28 02.01.2021
4168 Haze 20 1016 68 2000 1.64 55 17:46 02.01.2021
4169 Haze 20 1016 68 2000 0.8 61 17:26 02.01.2021
4170 Haze 21 1016 64 2000 0.8 61 16:42 02.01.2021
4171 Haze 20 1015 68 2000 0.4 157 16:21 02.01.2021
4172 Haze 21 1015 60 2000 0.4 157 15:43 02.01.2021
4173 Haze 22 1015 56 2000 0.98 154 15:25 02.01.2021
4174 Haze 23 1015 53 2000 0.98 154 14:37 02.01.2021
4175 Haze 23 1014 53 2000 1 80 14:18 02.01.2021
4176 Haze 24 1014 50 2000 1 100 13:39 02.01.2021
4177 Haze 26 1014 44 2000 2.6 90 12:54 02.01.2021
4178 Haze 26 1014 44 2000 2.6 90 12:32 02.01.2021
4179 Haze 27 1014 42 2000 3.1 90 11:57 02.01.2021
4180 Haze 27 1014 42 2000 1.5 100 11:22 02.01.2021
4181 Haze 27 1014 42 2000 1.5 100 10:56 02.01.2021
4182 Haze 27 1015 42 2000 1 140 10:31 02.01.2021
4183 Fog 27 1016 42 2000 1.5 60 09:54 02.01.2021
4184 Fog 26 1016 47 2000 2.1 90 09:28 02.01.2021
4185 Fog 26 1017 47 1500 2.1 90 08:51 02.01.2021
4186 Fog 26 1017 47 1500 2.1 90 08:28 02.01.2021
4187 Fog 24 1018 50 1500 1 90 07:49 02.01.2021
4188 Fog 24 1019 53 1200 1 60 07:22 02.01.2021
4189 Fog 23 1019 53 1200 1 50 06:52 02.01.2021
4190 Fog 21 1019 64 1000 1.5 70 05:45 02.01.2021
4191 Mist 15 1016 82 1500 1.96 38 00:59 02.01.2021
4192 Mist 15 1016 82 1500 2.1 43 00:37 02.01.2021
4193 Mist 15 1015 82 1500 1.95 53 23:57 01.01.2021
4194 Mist 16 1016 77 1500 1.7 67 23:22 01.01.2021
4195 Mist 16 1016 77 1500 1.7 67 22:48 01.01.2021
4196 Mist 16 1016 77 1500 1.56 55 22:26 01.01.2021
4197 Mist 17 1016 77 1500 1.56 55 21:44 01.01.2021
4198 Haze 17 1016 77 1800 1.54 29 21:22 01.01.2021
4199 Haze 17 1016 77 1800 1.54 29 20:54 01.01.2021
4200 Haze 17 1016 77 1800 1.43 20 20:23 01.01.2021
4201 Haze 17 1016 77 1800 1.43 20 19:59 01.01.2021
4202 Haze 17 1016 77 1800 1.43 20 19:41 01.01.2021
4203 Haze 18 1017 68 2000 1.12 31 19:20 01.01.2021
4204 Haze 18 1017 68 2000 1.54 33 18:42 01.01.2021
4205 Haze 18 1017 68 2000 1.24 75 18:22 01.01.2021
4206 Haze 19 1017 72 2000 1.24 75 17:43 01.01.2021
4207 Haze 19 1016 72 2000 1 50 17:23 01.01.2021
4208 Haze 19 1016 68 2000 1.75 101 16:45 01.01.2021
4209 Haze 20 1016 64 2000 1.68 96 15:57 01.01.2021
4210 Haze 21 1016 60 2000 1.68 96 15:39 01.01.2021
4211 Haze 22 1015 53 2000 1 70 14:42 01.01.2021
4212 Haze 23 1015 49 2000 1 90 14:21 01.01.2021
4213 Haze 24 1015 47 2500 1 100 13:37 01.01.2021
4214 Haze 26 1014 41 2500 1 100 12:51 01.01.2021
4215 Haze 26 1014 41 2500 1 100 12:27 01.01.2021
4216 Haze 27 1014 39 2500 2.6 80 11:42 01.01.2021
4217 Haze 27 1015 39 2500 2.1 120 11:19 01.01.2021
4218 Haze 27 1015 39 2500 2.1 120 10:56 01.01.2021
4219 Haze 27 1015 39 2500 2.6 70 10:26 01.01.2021
4220 Haze 26 1016 41 2000 3.1 80 09:30 01.01.2021
4221 Haze 26 1017 44 2000 3.1 120 08:30 01.01.2021
4222 Haze 23 1019 53 2000 1.5 70 06:46 01.01.2021
4223 Haze 17 1019 77 2000 3.42 76 04:50 01.01.2021
4224 Haze 13 1016 87 2000 2.13 52 01:43 01.01.2021
4225 Haze 13 1015 87 2000 2.1 54 00:32 01.01.2021
4226 Haze 15 1015 77 2000 2.25 51 23:41 31.12.2020
4227 Haze 15 1015 82 2000 2.53 42 23:21 31.12.2020
4228 Haze 15 1015 82 2000 2.53 42 22:42 31.12.2020
4229 Haze 15 1016 77 2000 2.55 40 22:23 31.12.2020
4230 Haze 15 1016 77 2000 2.55 40 21:56 31.12.2020
4231 Haze 15 1016 77 2000 2.55 40 21:36 31.12.2020
4232 Haze 16 1016 82 2000 2 46 20:58 31.12.2020
4233 Haze 16 1016 82 2000 2 46 20:30 31.12.2020
4234 Haze 16 1016 82 2000 2 46 20:30 31.12.2020
4235 Haze 17 1016 72 2000 1.6 59 19:51 31.12.2020
4236 Haze 17 1016 72 2000 1.6 59 19:33 31.12.2020
4237 Haze 16 1016 82 2000 1.59 70 18:55 31.12.2020
4238 Haze 17 1016 72 2000 1.52 66 18:25 31.12.2020
4239 Haze 19 1016 63 2000 1.52 66 17:48 31.12.2020
4240 Haze 20 1016 60 2000 1 40 17:28 31.12.2020
4241 Haze 20 1016 64 2000 0.81 71 16:55 31.12.2020
4242 Haze 20 1016 64 2000 0.81 71 16:37 31.12.2020
4243 Haze 20 1016 60 2000 0.46 67 16:18 31.12.2020
4244 Haze 21 1015 56 2000 0.46 67 15:42 31.12.2020
4245 Haze 21 1015 56 2000 0.44 78 15:19 31.12.2020
4246 Haze 22 1015 49 2000 0.44 78 14:41 31.12.2020
4247 Haze 22 1014 49 2000 0.96 86 14:22 31.12.2020
4248 Haze 24 1014 44 2000 0.96 86 13:57 31.12.2020
4249 Haze 24 1014 44 2000 0.96 86 13:36 31.12.2020
4250 Haze 25 1014 41 2000 1.5 100 13:18 31.12.2020
4251 Haze 26 1014 36 2000 1.5 100 12:45 31.12.2020
4252 Haze 26 1014 39 2000 2.1 110 12:27 31.12.2020
4253 Haze 27 1014 36 2000 1 50 11:46 31.12.2020
4254 Haze 27 1014 36 2000 1 50 11:28 31.12.2020
4255 Haze 27 1014 36 2000 1 50 11:28 31.12.2020
4256 Haze 27 1014 36 2000 1 50 11:28 31.12.2020
4257 Haze 27 1014 36 2000 1 50 11:28 31.12.2020
4258 Haze 27 1014 36 2000 1 50 11:28 31.12.2020
4259 Haze 27 1014 36 2000 1 50 11:28 31.12.2020
4260 Haze 27 1014 36 2000 1 50 11:28 31.12.2020
4261 Haze 27 1014 36 2000 1 50 11:28 31.12.2020
4262 Haze 27 1014 36 2000 1 50 11:28 31.12.2020
4263 Haze 27 1015 36 2000 1.5 80 11:28 31.12.2020
4264 Haze 27 1015 36 2000 2.1 90 10:41 31.12.2020
4265 Haze 27 1015 36 2000 1.5 100 10:23 31.12.2020
4266 Haze 27 1016 39 2000 1 170 09:47 31.12.2020
4267 Haze 27 1017 42 2000 1.5 100 09:23 31.12.2020
4268 Haze 26 1017 44 2000 1.5 70 08:46 31.12.2020
4269 Haze 26 1017 44 2000 1.5 70 08:46 31.12.2020
4270 Haze 26 1017 44 2000 1.5 70 08:28 31.12.2020
4271 Haze 25 1018 44 2000 1.5 70 07:54 31.12.2020
4272 Haze 23 1019 49 2000 2.1 60 06:57 31.12.2020
4273 Mist 21 1019 60 1500 1.5 60 05:30 31.12.2020
4274 Mist 15 1017 82 1000 2.06 57 03:25 31.12.2020
4275 Mist 15 1017 82 2000 2.02 64 02:27 31.12.2020
4276 Mist 14 1016 87 2500 2.02 64 01:55 31.12.2020
4277 Mist 14 1016 87 2500 2.02 64 01:34 31.12.2020
4278 Mist 15 1015 82 2500 1 20 00:56 31.12.2020
4279 Mist 15 1015 82 2500 1 20 00:26 31.12.2020
4280 Mist 17 1015 77 2500 1.5 30 23:21 30.12.2020
4281 Mist 17 1015 77 2500 1.5 30 22:59 30.12.2020
4282 Mist 17 1015 77 2500 1.5 30 22:35 30.12.2020
4283 Mist 18 1015 72 2500 1.5 30 21:52 30.12.2020
4284 Mist 17 1016 82 2500 1.5 20 21:27 30.12.2020
4285 Mist 17 1016 82 2500 1.5 20 20:53 30.12.2020
4286 Mist 17 1016 82 2500 1.5 20 20:28 30.12.2020
4287 Haze 17 1016 72 2500 2.63 23 19:58 30.12.2020
4288 Haze 17 1016 72 2500 2.63 23 19:37 30.12.2020
4289 Haze 17 1016 72 2500 1.9 55 19:18 30.12.2020
4290 Haze 17 1016 72 2500 2.66 47 18:38 30.12.2020
4291 Haze 18 1016 68 2500 2.32 87 18:20 30.12.2020
4292 Haze 18 1016 68 2500 2.32 87 17:43 30.12.2020
4293 Haze 19 1016 68 3000 1.37 84 17:24 30.12.2020
4294 Haze 20 1015 64 3000 1.37 84 16:43 30.12.2020
4295 Haze 21 1015 56 2500 0.72 67 15:51 30.12.2020
4296 Haze 21 1015 56 2500 0.72 67 15:30 30.12.2020
4297 Haze 22 1014 53 2500 0.77 62 14:58 30.12.2020
4298 Haze 22 1014 53 2500 1 90 14:39 30.12.2020
4299 Haze 23 1014 49 2500 1 100 14:18 30.12.2020
4300 Haze 26 1014 41 2500 2.6 100 13:18 30.12.2020
4301 Haze 27 1014 39 2500 2.1 80 12:26 30.12.2020
4302 Haze 27 1014 39 2500 1.5 110 11:44 30.12.2020
4303 Haze 27 1014 42 3000 3.1 90 11:22 30.12.2020
4304 Haze 27 1014 42 3000 2.1 90 10:57 30.12.2020
4305 Haze 27 1014 42 3000 2.1 90 10:37 30.12.2020
4306 Haze 27 1014 42 3000 1.5 90 10:18 30.12.2020
4307 Haze 27 1015 44 3000 1.5 90 09:41 30.12.2020
4308 Haze 27 1015 44 3000 1.5 90 09:41 30.12.2020
4309 Haze 26 1016 47 3000 1 40 08:36 30.12.2020
4310 Haze 24 1017 50 3000 2.1 100 07:50 30.12.2020
4311 Haze 23 1017 53 3000 2.1 80 07:24 30.12.2020
4312 Haze 22 1018 56 2000 2.1 40 06:40 30.12.2020
4313 Haze 20 1018 64 2000 1 20 05:47 30.12.2020
4314 Haze 20 1018 64 2000 1 20 05:28 30.12.2020
4315 Haze 15 1016 77 1500 2.57 39 03:29 30.12.2020
4316 Haze 13 1016 87 1500 2.57 39 02:52 30.12.2020
4317 Haze 13 1016 87 1500 2.57 39 02:31 30.12.2020
4318 Haze 15 1015 82 1500 2.27 36 01:42 30.12.2020
4319 Haze 15 1015 82 1500 2.17 40 01:23 30.12.2020
4320 Clouds 14 1014 72 10000 2.17 40 00:40 30.12.2020
4321 Haze 15 1014 82 1500 2.24 42 00:21 30.12.2020
4322 Haze 15 1014 82 1500 2.24 42 23:42 29.12.2020
4323 Haze 17 1014 72 1500 2.53 34 23:24 29.12.2020
4324 Haze 17 1014 72 1500 2.53 34 22:44 29.12.2020
4325 Haze 18 1014 68 2000 2.98 39 22:26 29.12.2020
4326 Haze 18 1014 68 2000 2.98 39 21:52 29.12.2020
4327 Haze 18 1014 68 2000 2.98 39 21:34 29.12.2020
4328 Haze 18 1015 72 2000 1.5 40 20:55 29.12.2020
4329 Haze 18 1015 72 2000 1.5 40 20:36 29.12.2020
4330 Haze 18 1015 72 2000 1.5 30 20:18 29.12.2020
4331 Haze 19 1015 72 2000 1 50 19:38 29.12.2020
4332 Haze 17 1015 77 2000 2.33 22 19:20 29.12.2020
4333 Haze 17 1015 77 2000 2.53 19 18:46 29.12.2020
4334 Haze 18 1015 72 2000 0.86 51 18:27 29.12.2020
4335 Haze 18 1015 72 2000 0.86 51 17:44 29.12.2020
4336 Haze 19 1015 72 2000 0.77 132 17:20 29.12.2020
4337 Haze 20 1015 64 2000 0.77 132 16:39 29.12.2020
4338 Haze 21 1014 64 2000 0.93 117 16:18 29.12.2020
4339 Haze 21 1014 64 2000 0.93 117 15:37 29.12.2020
4340 Haze 22 1014 60 2000 1.26 102 14:59 29.12.2020
4341 Haze 22 1014 60 2000 1.26 102 14:36 29.12.2020
4342 Haze 23 1013 53 2000 1.44 94 14:18 29.12.2020
4343 Haze 24 1013 53 2000 1.44 94 13:45 29.12.2020
4344 Haze 25 1014 47 3000 1.05 79 13:21 29.12.2020
4345 Haze 26 1013 44 3000 0.95 76 12:38 29.12.2020
4346 Haze 27 1012 39 3000 0.54 6 12:19 29.12.2020
4347 Haze 27 1012 42 3000 2.6 60 11:53 29.12.2020
4348 Haze 27 1012 42 3000 2.6 60 11:31 29.12.2020
4349 Haze 27 1013 42 3000 2.1 90 10:30 29.12.2020
4350 Haze 26 1014 41 3000 2.1 70 09:49 29.12.2020
4351 Haze 26 1014 41 3000 2.1 70 09:20 29.12.2020
4352 Haze 26 1014 41 3000 2.1 70 08:53 29.12.2020
4353 Haze 24 1015 47 3000 1.5 30 08:23 29.12.2020
4354 Haze 23 1016 49 3000 1.5 50 07:26 29.12.2020
4355 Mist 21 1016 52 2500 1.5 60 06:27 29.12.2020
4356 Mist 18 1016 59 2000 2.1 50 04:49 29.12.2020
4357 Haze 16 1014 72 3000 2.47 15 00:49 29.12.2020
4358 Haze 15 1013 77 3000 2.99 8 00:20 29.12.2020
4359 Haze 15 1013 77 3000 2.99 8 23:34 28.12.2020
4360 Haze 14 1014 82 3000 2.96 1 22:28 28.12.2020
4361 Haze 19 1014 68 3000 1 20 21:45 28.12.2020
4362 Haze 19 1014 68 3000 1 20 21:26 28.12.2020
4363 Haze 19 1014 68 3000 1 20 20:43 28.12.2020
4364 Haze 19 1015 68 3000 1.5 20 20:22 28.12.2020
4365 Haze 19 1015 68 3000 1.5 20 19:49 28.12.2020
4366 Haze 19 1015 68 3000 1.5 20 19:25 28.12.2020
4367 Haze 19 1015 63 3000 2.6 330 18:53 28.12.2020
4368 Haze 19 1014 68 3000 1 110 18:28 28.12.2020
4369 Haze 19 1014 68 3000 1 110 17:47 28.12.2020
4370 Haze 21 1014 60 3000 1.5 120 17:29 28.12.2020
4371 Haze 21 1014 60 3000 1.5 100 16:50 28.12.2020
4372 Haze 21 1014 60 3000 1.5 100 16:28 28.12.2020
4373 Haze 22 1014 56 3000 1 90 15:53 28.12.2020
4374 Haze 23 1013 49 3000 1.5 120 15:30 28.12.2020
4375 Haze 23 1013 49 3000 1.5 120 14:28 28.12.2020
4376 Haze 25 1012 44 3000 2.1 150 13:38 28.12.2020
4377 Haze 27 1012 36 4000 2.1 210 13:19 28.12.2020
4378 Haze 29 1012 30 4000 2.6 180 12:25 28.12.2020
4379 Haze 29 1012 30 4000 2.6 180 11:48 28.12.2020
4380 Haze 29 1012 30 4000 2.6 180 11:29 28.12.2020
4381 Haze 29 1013 30 4000 3.1 180 10:56 28.12.2020
4382 Haze 29 1013 30 4000 3.1 180 10:29 28.12.2020
4383 Haze 29 1013 30 4000 3.1 210 09:53 28.12.2020
4384 Haze 28 1014 32 4000 1 230 09:22 28.12.2020
4385 Haze 28 1014 32 4000 1 230 08:58 28.12.2020
4386 Haze 24 1016 44 3000 1.55 198 06:52 28.12.2020
4387 Haze 20 1016 56 3000 0.62 25 04:56 28.12.2020
4388 Haze 13 1015 87 2000 0.86 30 03:26 28.12.2020
4389 Haze 15 1013 77 2000 1 320 01:52 28.12.2020
4390 Haze 14 1012 76 2000 0.77 12 23:50 27.12.2020
4391 Haze 16 1013 72 2000 0.81 48 23:20 27.12.2020
4392 Haze 15 1013 77 2000 1.25 40 22:24 27.12.2020
4393 Haze 15 1013 77 2000 1.23 37 21:27 27.12.2020
4394 Haze 17 1013 67 3000 1.23 37 20:56 27.12.2020
4395 Haze 16 1013 72 3000 0.97 67 19:49 27.12.2020
4396 Haze 18 1014 59 3000 1 118 19:23 27.12.2020
4397 Haze 18 1014 59 3000 1.05 89 18:49 27.12.2020
4398 Haze 18 1014 59 3000 0.98 141 18:20 27.12.2020
4399 Haze 18 1014 59 3000 0.98 141 17:54 27.12.2020
4400 Haze 18 1014 59 3000 1.5 150 17:34 27.12.2020
4401 Haze 19 1014 59 3000 1.64 189 16:54 27.12.2020
4402 Haze 19 1013 59 3000 2.12 198 16:21 27.12.2020
4403 Haze 19 1013 59 3000 2.12 198 15:30 27.12.2020
4404 Haze 21 1013 49 3000 2.3 185 14:49 27.12.2020
4405 Haze 21 1013 49 3000 2.3 185 14:31 27.12.2020
4406 Haze 25 1012 38 3000 2.18 167 13:30 27.12.2020
4407 Haze 28 1012 32 4000 1.53 144 12:52 27.12.2020
4408 Haze 28 1012 30 4000 1 50 12:24 27.12.2020
4409 Haze 28 1012 28 4000 0.7 133 11:41 27.12.2020
4410 Haze 28 1013 30 4000 0.41 234 10:58 27.12.2020
4411 Haze 28 1013 30 4000 0.41 234 10:39 27.12.2020
4412 Haze 28 1014 30 4000 1 60 10:19 27.12.2020
4413 Haze 26 1015 31 4000 1.5 140 08:53 27.12.2020
4414 Haze 26 1015 31 4000 1.5 140 08:28 27.12.2020
4415 Haze 25 1017 33 3000 1.5 140 07:28 27.12.2020
4416 Haze 20 1018 52 3000 1.5 20 05:47 27.12.2020
4417 Mist 19 1018 55 2500 2.13 65 04:59 27.12.2020
4418 Mist 12 1016 76 2500 1 10 03:23 27.12.2020
4419 Mist 13 1015 76 2500 1.44 53 01:47 27.12.2020
4420 Haze 12 1015 76 2500 1.32 47 00:26 27.12.2020
4421 Haze 13 1015 71 2500 1.32 47 23:42 26.12.2020
4422 Haze 13 1015 71 2500 1.68 31 23:21 26.12.2020
4423 Haze 13 1015 71 2500 1.68 31 22:40 26.12.2020
4424 Haze 13 1016 71 2500 1.81 30 22:18 26.12.2020
4425 Haze 13 1016 71 2500 1.81 30 21:52 26.12.2020
4426 Haze 14 1016 67 2500 1.68 37 21:24 26.12.2020
4427 Haze 14 1016 67 2500 1.68 37 20:43 26.12.2020
4428 Haze 16 1017 63 3000 1.69 13 20:20 26.12.2020
4429 Haze 16 1017 63 3000 1.69 13 19:30 26.12.2020
4430 Haze 16 1017 63 3000 2.04 352 18:54 26.12.2020
4431 Haze 16 1017 63 3000 2.04 352 18:32 26.12.2020
4432 Haze 17 1017 59 3000 2.29 350 17:46 26.12.2020
4433 Haze 16 1016 63 3000 1 60 17:27 26.12.2020
4434 Haze 17 1016 55 3000 1 140 16:38 26.12.2020
4435 Haze 17 1016 59 3000 1 120 15:57 26.12.2020
4436 Haze 20 1015 49 3000 1 100 15:20 26.12.2020
4437 Haze 21 1015 43 3000 1 70 14:30 26.12.2020
4438 Haze 22 1015 40 3000 1 50 13:56 26.12.2020
4439 Haze 22 1015 40 3000 1 50 13:56 26.12.2020
4440 Haze 24 1014 41 3000 1.67 152 13:36 26.12.2020
4441 Haze 27 1014 28 3000 1.21 128 12:53 26.12.2020
4442 Haze 27 1014 28 3000 1.22 130 12:30 26.12.2020
4443 Haze 27 1014 26 4000 1 80 11:58 26.12.2020
4444 Haze 27 1014 26 4000 1 80 11:39 26.12.2020
4445 Haze 27 1014 26 4000 1 110 11:18 26.12.2020
4446 Haze 28 1015 24 5000 1 20 10:42 26.12.2020
4447 Haze 27 1015 26 5000 1 20 10:22 26.12.2020
4448 Haze 26 1016 27 5000 1.07 88 09:39 26.12.2020
4449 Haze 26 1017 29 5000 1.89 109 08:41 26.12.2020
4450 Haze 25 1018 29 5000 2.6 80 08:18 26.12.2020
4451 Haze 23 1019 35 5000 1.5 90 07:20 26.12.2020
4452 Haze 12 1017 76 2500 2.51 43 03:53 26.12.2020
4453 Haze 11 1016 81 2000 2.6 21 02:24 26.12.2020
4454 Haze 12 1015 71 2000 2.51 10 00:28 26.12.2020
4455 Haze 12 1015 76 2000 2.51 10 23:43 25.12.2020
4456 Haze 11 1015 81 2000 2.33 13 23:25 25.12.2020
4457 Haze 11 1015 81 2000 2.33 13 22:50 25.12.2020
4458 Haze 11 1015 81 2000 2.2 18 22:25 25.12.2020
4459 Haze 14 1015 71 2000 2.2 18 21:37 25.12.2020
4460 Haze 13 1016 71 2000 2.16 27 21:19 25.12.2020
4461 Haze 13 1016 71 2000 2.16 27 20:38 25.12.2020
4462 Haze 15 1016 67 2000 1.5 10 19:52 25.12.2020
4463 Haze 15 1016 67 2000 1.5 10 19:33 25.12.2020
4464 Haze 16 1016 67 3000 2.23 25 18:39 25.12.2020
4465 Haze 16 1016 63 3000 2.53 18 17:57 25.12.2020
4466 Haze 16 1016 63 3000 2.53 18 17:35 25.12.2020
4467 Haze 17 1016 55 3000 1.78 27 16:48 25.12.2020
4468 Haze 17 1015 55 3000 0.94 89 16:20 25.12.2020
4469 Haze 18 1015 52 3000 0.94 89 15:39 25.12.2020
4470 Haze 18 1015 48 3000 1.35 113 15:21 25.12.2020
4471 Haze 21 1015 37 3000 1.35 113 14:31 25.12.2020
4472 Haze 23 1014 33 4000 1 60 13:46 25.12.2020
4473 Haze 23 1014 33 4000 1 60 13:26 25.12.2020
4474 Haze 26 1014 29 4000 1 30 12:47 25.12.2020
4475 Haze 26 1014 26 5000 1.5 20 12:25 25.12.2020
4476 Haze 27 1014 28 5000 1.5 60 11:46 25.12.2020
4477 Haze 27 1014 24 5000 1.5 40 11:21 25.12.2020
4478 Haze 26 1014 27 5000 1.5 40 10:32 25.12.2020
4479 Haze 26 1015 29 5000 2.1 70 09:49 25.12.2020
4480 Haze 25 1016 29 5000 2.6 90 08:51 25.12.2020
4481 Haze 25 1016 29 5000 2.6 90 08:29 25.12.2020
4482 Haze 22 1019 35 5000 1 60 06:49 25.12.2020
4483 Haze 18 1018 48 3000 1 30 05:24 25.12.2020
4484 Mist 12 1015 66 2000 1 10 02:19 25.12.2020
4485 Haze 12 1014 71 2000 2.46 22 00:19 25.12.2020
4486 Haze 12 1014 71 2000 2.75 6 23:29 24.12.2020
4487 Haze 12 1014 76 2000 2.75 6 22:53 24.12.2020
4488 Haze 14 1014 71 2000 1 20 22:23 24.12.2020
4489 Haze 14 1014 71 2000 1 20 21:42 24.12.2020
4490 Haze 14 1014 71 2000 1.5 340 20:53 24.12.2020
4491 Haze 14 1014 71 2000 2.55 24 19:34 24.12.2020
4492 Haze 16 1015 59 3000 1.4 11 18:21 24.12.2020
4493 Haze 16 1015 59 3000 1.4 11 18:21 24.12.2020
4494 Haze 16 1015 59 3000 1.4 11 17:37 24.12.2020
4495 Haze 16 1014 55 3000 0.14 101 16:59 24.12.2020
4496 Haze 17 1014 48 3000 0.95 150 16:24 24.12.2020
4497 Haze 17 1014 51 3000 0.95 150 15:43 24.12.2020
4498 Haze 19 1013 42 3000 1 90 15:21 24.12.2020
4499 Haze 19 1013 42 3000 1 90 14:55 24.12.2020
4500 Haze 21 1012 35 3000 1 90 14:24 24.12.2020
4501 Haze 23 1012 31 4000 1 60 13:49 24.12.2020
4502 Haze 23 1012 31 4000 1 60 13:30 24.12.2020
4503 Haze 27 1012 24 5000 1 60 12:45 24.12.2020
4504 Haze 28 1012 23 5000 1 60 12:22 24.12.2020
4505 Haze 28 1012 23 5000 1 60 11:59 24.12.2020
4506 Haze 28 1012 23 5000 1 60 11:37 24.12.2020
4507 Haze 27 1013 24 5000 1 60 11:18 24.12.2020
4508 Haze 27 1013 24 5000 1 90 10:42 24.12.2020
4509 Haze 27 1014 22 5000 1.11 85 09:53 24.12.2020
4510 Haze 27 1014 22 5000 1.11 85 09:32 24.12.2020
4511 Haze 26 1015 26 4000 1.5 90 08:44 24.12.2020
4512 Haze 24 1016 29 4000 1 50 07:43 24.12.2020
4513 Haze 24 1017 29 4000 1.5 30 07:21 24.12.2020
4514 Haze 21 1017 37 4000 1.5 40 06:20 24.12.2020
4515 Haze 10 1015 71 3000 1.5 30 02:50 24.12.2020
4516 Haze 11 1014 71 3000 1.51 36 01:47 24.12.2020
4517 Haze 12 1013 66 3000 1.9 27 01:18 24.12.2020
4518 Haze 12 1013 71 3000 2.04 28 00:23 24.12.2020
4519 Haze 12 1013 71 3000 2.04 28 23:49 23.12.2020
4520 Haze 12 1013 71 3000 2.04 28 23:31 23.12.2020
4521 Haze 13 1013 66 3000 1.5 340 22:59 23.12.2020
4522 Haze 13 1013 66 3000 1.5 340 22:40 23.12.2020
4523 Haze 13 1014 66 3000 1.81 32 22:18 23.12.2020
4524 Haze 13 1014 66 3000 1.81 32 21:31 23.12.2020
4525 Haze 14 1014 62 3000 1.83 26 20:57 23.12.2020
4526 Haze 14 1014 62 3000 1.83 26 20:37 23.12.2020
4527 Haze 13 1014 66 3000 1.52 50 20:19 23.12.2020
4528 Haze 13 1014 66 3000 1.52 50 19:41 23.12.2020
4529 Haze 15 1014 54 3000 0.87 44 19:22 23.12.2020
4530 Haze 15 1014 54 3000 0.87 36 18:51 23.12.2020
4531 Haze 15 1014 54 3000 0.87 36 18:33 23.12.2020
4532 Haze 15 1015 54 3000 0.2 273 17:43 23.12.2020
4533 Haze 15 1015 58 3000 0.53 239 17:22 23.12.2020
4534 Haze 16 1015 48 3000 0.53 239 16:52 23.12.2020
4535 Haze 16 1015 48 3000 0.53 239 16:30 23.12.2020
4536 Haze 17 1014 45 3000 0.9 259 15:59 23.12.2020
4537 Haze 18 1014 42 4000 0.9 259 15:39 23.12.2020
4538 Haze 20 1013 32 4000 1.5 90 15:20 23.12.2020
4539 Haze 21 1013 30 4000 2.1 90 14:42 23.12.2020
4540 Haze 21 1013 30 4000 1.5 80 14:21 23.12.2020
4541 Haze 23 1012 25 4000 2.1 90 13:45 23.12.2020
4542 Haze 25 1012 23 5000 2.1 100 13:20 23.12.2020
4543 Haze 25 1012 23 5000 2.1 100 12:54 23.12.2020
4544 Haze 27 1013 21 5000 2.1 100 12:30 23.12.2020
4545 Haze 27 1013 22 5000 2.6 40 11:56 23.12.2020
4546 Haze 27 1013 22 5000 2.6 40 11:32 23.12.2020
4547 Haze 27 1013 21 5000 1.5 60 10:56 23.12.2020
4548 Haze 27 1013 19 5000 1.05 94 10:37 23.12.2020
4549 Haze 27 1014 19 5000 1 320 09:38 23.12.2020
4550 Haze 26 1014 21 5000 1 50 08:57 23.12.2020
4551 Haze 26 1015 21 5000 1 90 08:31 23.12.2020
4552 Haze 25 1016 25 5000 1 50 07:48 23.12.2020
4553 Haze 22 1017 33 5000 1.5 50 06:42 23.12.2020
4554 Haze 21 1017 35 5000 1.5 40 05:58 23.12.2020
4555 Haze 18 1017 45 5000 1 20 05:22 23.12.2020
4556 Haze 11 1015 66 3000 1.58 37 01:57 23.12.2020
4557 Haze 10 1014 76 3000 1.79 26 00:32 23.12.2020
4558 Haze 10 1014 76 3000 1.77 19 23:41 22.12.2020
4559 Haze 10 1014 71 3000 1.74 7 23:22 22.12.2020
4560 Haze 10 1014 71 3000 1.74 7 22:42 22.12.2020
4561 Haze 11 1015 66 3000 2.06 7 22:24 22.12.2020
4562 Haze 11 1015 66 3000 2.06 7 21:48 22.12.2020
4563 Haze 14 1015 62 3000 2.36 12 21:20 22.12.2020
4564 Haze 14 1015 62 3000 2.36 12 20:53 22.12.2020
4565 Haze 14 1015 62 3000 2.36 12 20:35 22.12.2020
4566 Haze 15 1016 58 3000 2.35 29 19:52 22.12.2020
4567 Haze 15 1016 58 3000 1.72 35 19:28 22.12.2020
4568 Haze 15 1016 58 3000 1.72 35 18:58 22.12.2020
4569 Haze 15 1016 58 3000 2.11 31 18:38 22.12.2020
4570 Haze 15 1016 58 3000 1.34 33 18:19 22.12.2020
4571 Haze 16 1016 51 3000 1.34 33 17:36 22.12.2020
4572 Haze 16 1016 51 3000 0.73 43 17:18 22.12.2020
4573 Haze 16 1016 51 3000 0.73 43 16:46 22.12.2020
4574 Haze 16 1015 48 3000 0.35 38 16:21 22.12.2020
4575 Haze 18 1015 42 3000 0.35 38 15:45 22.12.2020
4576 Haze 18 1015 42 3000 0.69 115 15:27 22.12.2020
4577 Haze 20 1014 32 4000 0.69 115 14:56 22.12.2020
4578 Haze 20 1014 32 4000 0.69 115 14:37 22.12.2020
4579 Haze 21 1014 32 4000 1.7 124 14:18 22.12.2020
4580 Haze 21 1014 32 4000 1.7 124 13:42 22.12.2020
4581 Haze 25 1014 25 4000 1 120 13:18 22.12.2020
4582 Haze 27 1014 19 5000 1.5 60 12:43 22.12.2020
4583 Haze 27 1014 19 5000 1.5 60 12:25 22.12.2020
4584 Haze 27 1014 22 5000 1 90 11:56 22.12.2020
4585 Haze 27 1014 19 5000 2.1 50 11:38 22.12.2020
4586 Haze 27 1014 17 5000 2.1 100 11:19 22.12.2020
4587 Haze 27 1014 17 5000 1.5 50 10:46 22.12.2020
4588 Haze 27 1014 18 5000 0.5 70 10:23 22.12.2020
4589 Haze 27 1014 18 5000 0.5 70 09:55 22.12.2020
4590 Haze 26 1016 19 5000 1.5 70 09:21 22.12.2020
4591 Haze 26 1016 21 5000 1.5 80 08:48 22.12.2020
4592 Haze 26 1016 21 5000 1.5 80 08:27 22.12.2020
4593 Haze 24 1018 25 5000 1 80 07:47 22.12.2020
4594 Haze 22 1019 30 5000 1 60 06:38 22.12.2020
4595 Haze 19 1019 37 5000 1 30 05:39 22.12.2020
4596 Haze 9 1016 76 3000 1.84 16 02:51 22.12.2020
4597 Haze 11 1015 66 3000 2.1 360 00:44 22.12.2020
4598 Haze 11 1015 66 3000 2.09 19 23:52 21.12.2020
4599 Haze 11 1015 66 3000 2.14 14 23:29 21.12.2020
4600 Haze 10 1016 76 3000 2.14 14 22:38 21.12.2020
4601 Haze 11 1016 66 3000 2.04 14 22:19 21.12.2020
4602 Haze 11 1016 66 3000 2.04 14 21:49 21.12.2020
4603 Haze 11 1016 66 3000 2.04 14 21:31 21.12.2020
4604 Haze 12 1017 58 3000 2.06 12 20:50 21.12.2020
4605 Haze 14 1017 54 3000 1.99 12 20:25 21.12.2020
4606 Haze 14 1017 54 3000 1.99 12 19:56 21.12.2020
4607 Haze 14 1017 54 3000 1.99 12 19:37 21.12.2020
4608 Haze 16 1017 51 3000 2.4 360 19:18 21.12.2020
4609 Haze 16 1017 51 3000 2.4 360 18:50 21.12.2020
4610 Haze 16 1017 51 3000 2.4 360 18:32 21.12.2020
4611 Haze 15 1017 51 3000 2.16 11 17:43 21.12.2020
4612 Haze 15 1017 51 3000 1.89 11 17:24 21.12.2020
4613 Haze 16 1017 48 3000 1.89 11 16:47 21.12.2020
4614 Haze 17 1017 42 3000 0.91 31 16:26 21.12.2020
4615 Haze 17 1016 42 3000 0.91 31 15:45 21.12.2020
4616 Haze 17 1016 39 3000 1.07 100 15:27 21.12.2020
4617 Haze 20 1016 30 3000 1.07 100 14:56 21.12.2020
4618 Haze 21 1015 28 3000 1.74 124 14:21 21.12.2020
4619 Haze 23 1015 27 3000 1 120 13:42 21.12.2020
4620 Haze 26 1015 19 4000 2.19 127 13:24 21.12.2020
4621 Haze 26 1015 19 5000 1 90 12:43 21.12.2020
4622 Clear 26 1013 21 10000 1.86 116 12:24 21.12.2020
4623 Clear 26 1013 21 10000 1.86 116 11:55 21.12.2020
4624 Clear 26 1013 21 10000 1.86 116 11:37 21.12.2020
4625 Clear 27 1013 16 10000 2.09 95 11:18 21.12.2020
4626 Clear 27 1013 16 10000 2.09 95 10:40 21.12.2020
4627 Haze 27 1016 21 5000 1 50 10:21 21.12.2020
4628 Haze 26 1016 22 5000 2.53 89 09:43 21.12.2020
4629 Haze 26 1017 22 5000 2.6 80 09:24 21.12.2020
4630 Haze 26 1018 22 5000 2.6 80 08:47 21.12.2020
4631 Haze 24 1019 25 5000 2.1 60 07:37 21.12.2020
4632 Haze 20 1020 34 5000 2.6 50 06:21 21.12.2020
4633 Haze 16 1019 44 5000 1 30 04:31 21.12.2020
4634 Haze 9 1018 76 3000 2.1 10 00:51 21.12.2020
4635 Haze 9 1018 76 3000 2.1 10 00:30 21.12.2020
4636 Haze 11 1018 62 3000 1.91 22 23:24 20.12.2020
4637 Haze 11 1018 62 3000 1.91 22 22:56 20.12.2020
4638 Haze 11 1018 62 3000 1.91 22 22:38 20.12.2020
4639 Haze 11 1018 66 3000 2.16 9 22:19 20.12.2020
4640 Haze 11 1018 66 3000 2.16 9 21:39 20.12.2020
4641 Haze 13 1018 54 3000 2.23 11 21:20 20.12.2020
4642 Haze 13 1018 54 3000 2.23 11 20:47 20.12.2020
4643 Haze 13 1019 58 3000 2.23 1 20:22 20.12.2020
4644 Haze 13 1019 58 3000 2.23 1 19:45 20.12.2020
4645 Haze 13 1019 58 3000 1 40 19:24 20.12.2020
4646 Haze 13 1019 58 3000 1 40 18:56 20.12.2020
4647 Haze 13 1019 58 3000 1 40 18:37 20.12.2020
4648 Haze 15 1019 47 3000 1 40 17:57 20.12.2020
4649 Haze 17 1019 39 3000 1 40 17:39 20.12.2020
4650 Haze 18 1019 45 3000 2.1 60 17:18 20.12.2020
4651 Haze 17 1019 48 3000 1 40 16:44 20.12.2020
4652 Haze 16 1018 44 4000 2.18 13 16:24 20.12.2020
4653 Haze 18 1018 39 4000 2.18 13 15:41 20.12.2020
4654 Haze 17 1018 39 4000 1.46 28 15:22 20.12.2020
4655 Haze 18 1017 36 4000 1.46 28 14:48 20.12.2020
4656 Haze 18 1017 36 4000 1.51 74 14:29 20.12.2020
4657 Haze 23 1017 23 5000 1 40 13:44 20.12.2020
4658 Haze 25 1017 23 5000 1.5 60 13:23 20.12.2020
4659 Haze 26 1016 19 5000 1.5 20 12:51 20.12.2020
4660 Haze 26 1016 19 5000 1.5 20 12:26 20.12.2020
4661 Haze 26 1016 19 5000 2.1 30 11:52 20.12.2020
4662 Haze 26 1016 19 5000 2.1 30 11:28 20.12.2020
4663 Haze 26 1017 16 5000 2.6 60 10:50 20.12.2020
4664 Haze 26 1017 16 5000 3.6 50 10:22 20.12.2020
4665 Haze 26 1017 16 5000 3.6 50 09:57 20.12.2020
4666 Haze 26 1018 19 5000 2.1 70 09:37 20.12.2020
4667 Haze 25 1019 22 5000 1.5 20 09:19 20.12.2020
4668 Haze 24 1019 17 5000 3.6 90 08:48 20.12.2020
4669 Haze 24 1020 22 5000 3.6 70 08:29 20.12.2020
4670 Haze 22 1021 24 5000 3.6 60 07:22 20.12.2020
4671 Haze 19 1022 32 5000 2.1 50 05:33 20.12.2020
4672 Haze 10 1019 66 3000 1 10 01:31 20.12.2020
4673 Haze 11 1019 66 3000 2.99 4 00:20 20.12.2020
4674 Haze 9 1019 76 3000 2.8 2 23:18 19.12.2020
4675 Haze 9 1019 76 3000 2.8 2 22:44 19.12.2020
4676 Haze 9 1019 76 3000 2.51 6 22:25 19.12.2020
4677 Haze 10 1019 76 3000 2.51 6 21:58 19.12.2020
4678 Haze 10 1019 76 3000 2.51 6 21:58 19.12.2020
4679 Haze 10 1019 76 3000 2.51 6 21:39 19.12.2020
4680 Haze 14 1019 54 3000 1 10 21:21 19.12.2020
4681 Haze 14 1019 54 3000 1 10 20:39 19.12.2020
4682 Haze 16 1019 44 3000 1 20 20:18 19.12.2020
4683 Haze 16 1019 44 3000 1 20 19:49 19.12.2020
4684 Haze 16 1019 44 3000 1 20 19:24 19.12.2020
4685 Haze 17 1020 45 3000 2.62 15 18:34 19.12.2020
4686 Haze 17 1020 45 3000 2.62 15 17:58 19.12.2020
4687 Haze 15 1020 58 3000 2.62 15 17:40 19.12.2020
4688 Haze 17 1019 45 3000 2.48 21 17:20 19.12.2020
4689 Haze 18 1019 45 3000 2.48 21 16:42 19.12.2020
4690 Haze 19 1019 42 3000 1 60 16:24 19.12.2020
4691 Haze 19 1019 42 3000 1 60 15:54 19.12.2020
4692 Haze 19 1019 45 3000 1 30 15:30 19.12.2020
4693 Haze 21 1018 37 3000 2.1 70 14:40 19.12.2020
4694 Haze 22 1018 35 3000 2.1 50 13:59 19.12.2020
4695 Haze 23 1017 33 3000 2.1 40 13:41 19.12.2020
4696 Haze 25 1017 29 4000 2.1 30 13:19 19.12.2020
4697 Haze 26 1017 27 4000 2.1 30 12:43 19.12.2020
4698 Haze 26 1017 27 4000 2.1 30 12:25 19.12.2020
4699 Haze 26 1017 27 4000 2.1 30 11:56 19.12.2020
4700 Haze 26 1017 29 5000 2.1 20 11:35 19.12.2020
4701 Haze 26 1017 29 5000 2.1 30 10:43 19.12.2020
4702 Haze 26 1017 31 5000 2.1 10 10:23 19.12.2020
4703 Haze 26 1018 29 5000 2.1 10 09:45 19.12.2020
4704 Haze 26 1018 29 5000 2.1 10 09:27 19.12.2020
4705 Haze 24 1019 33 5000 1 30 08:25 19.12.2020
4706 Haze 23 1020 35 4000 1 30 07:24 19.12.2020
4707 Haze 22 1021 37 4000 2.1 50 06:51 19.12.2020
4708 Haze 21 1021 37 3000 2.1 50 06:18 19.12.2020
4709 Haze 21 1021 37 3000 2.1 50 06:18 19.12.2020
4710 Haze 19 1021 45 2000 2.1 50 05:18 19.12.2020
4711 Haze 15 1018 67 2500 1.5 30 01:36 19.12.2020
4712 Haze 16 1017 63 2500 2.1 60 00:36 19.12.2020
4713 Haze 17 1017 63 2500 2.1 60 00:18 19.12.2020
4714 Haze 17 1017 63 2500 2.1 60 23:44 18.12.2020
4715 Haze 17 1017 63 2500 1 40 23:22 18.12.2020
4716 Haze 17 1017 63 2500 1 40 22:45 18.12.2020
4717 Haze 18 1018 59 2500 1 20 22:21 18.12.2020
4718 Haze 18 1018 59 2500 1 20 21:47 18.12.2020
4719 Haze 19 1018 59 2500 1 20 21:28 18.12.2020
4720 Haze 19 1018 59 2500 1 20 20:40 18.12.2020
4721 Haze 19 1019 59 2500 2.1 40 20:19 18.12.2020
4722 Haze 19 1019 59 2500 2.1 40 19:41 18.12.2020
4723 Haze 20 1019 64 2500 2.6 20 19:20 18.12.2020
4724 Haze 20 1019 64 2500 2.6 20 18:39 18.12.2020
4725 Haze 21 1019 64 2500 1.5 20 18:20 18.12.2020
4726 Haze 21 1018 64 2500 1.5 40 17:22 18.12.2020
4727 Haze 20 1018 64 2500 1 100 16:49 18.12.2020
4728 Haze 20 1018 64 2500 1.5 120 16:27 18.12.2020
4729 Haze 20 1017 64 2500 3.71 13 15:58 18.12.2020
4730 Haze 20 1017 64 2500 3.71 13 15:39 18.12.2020
4731 Haze 21 1017 64 2500 2.65 352 15:20 18.12.2020
4732 Haze 22 1017 56 2500 2.65 352 14:54 18.12.2020
4733 Haze 22 1017 56 2500 2.65 352 14:54 18.12.2020
4734 Haze 23 1016 56 2500 1 120 14:21 18.12.2020
4735 Haze 24 1016 53 2500 1.29 10 13:49 18.12.2020
4736 Haze 25 1016 50 2500 1.21 38 13:25 18.12.2020
4737 Haze 26 1015 44 2500 1.17 38 12:46 18.12.2020
4738 Haze 27 1015 42 2500 1 60 11:51 18.12.2020
4739 Haze 27 1016 39 2500 1 60 11:22 18.12.2020
4740 Haze 27 1016 42 2500 1 60 10:39 18.12.2020
4741 Haze 27 1016 44 2500 1.5 90 10:20 18.12.2020
4742 Haze 26 1017 50 3000 1.5 90 09:39 18.12.2020
4743 Haze 25 1017 50 5000 1 70 09:21 18.12.2020
4744 Haze 25 1017 50 5000 1 70 08:53 18.12.2020
4745 Haze 25 1018 47 5000 1.5 40 08:29 18.12.2020
4746 Haze 23 1019 49 4000 1.5 90 07:39 18.12.2020
4747 Haze 22 1020 53 3000 2.6 60 07:18 18.12.2020
4748 Haze 22 1020 49 3000 1.5 10 06:46 18.12.2020
4749 Haze 20 1020 56 3000 1 20 05:41 18.12.2020
4750 Haze 18 1019 63 2000 2.1 40 04:51 18.12.2020
4751 Mist 17 1017 72 1500 1 20 01:58 18.12.2020
4752 Mist 17 1017 72 1500 1.5 40 01:39 18.12.2020
4753 Mist 18 1016 72 1500 1.5 30 23:58 17.12.2020
4754 Mist 19 1016 72 1500 1 30 23:25 17.12.2020
4755 Mist 19 1016 72 1500 1 30 22:54 17.12.2020
4756 Mist 19 1016 72 1500 1 30 22:29 17.12.2020
4757 Mist 19 1017 72 1500 1 30 21:57 17.12.2020
4758 Mist 19 1017 72 1500 1 30 21:37 17.12.2020
4759 Mist 20 1017 72 1500 1.5 40 21:18 17.12.2020
4760 Mist 20 1017 72 1500 1.5 40 20:41 17.12.2020
4761 Mist 21 1017 77 1500 1 20 20:19 17.12.2020
4762 Mist 21 1017 77 1500 1 20 19:48 17.12.2020
4763 Mist 21 1017 77 1500 2.95 20 19:24 17.12.2020
4764 Mist 21 1017 77 1500 2.74 21 18:42 17.12.2020
4765 Mist 20 1017 82 1500 2.47 37 18:23 17.12.2020
4766 Mist 20 1017 82 1500 2.47 37 18:23 17.12.2020
4767 Mist 20 1017 82 1500 2.47 37 17:54 17.12.2020
4768 Mist 20 1017 82 1500 2.47 37 17:32 17.12.2020
4769 Mist 21 1017 77 1500 2.63 30 16:46 17.12.2020
4770 Mist 21 1016 77 1500 1 60 16:27 17.12.2020
4771 Mist 21 1016 77 1500 1 60 15:52 17.12.2020
4772 Mist 21 1016 77 1500 1 60 15:52 17.12.2020
4773 Mist 22 1016 73 1500 1.5 60 15:34 17.12.2020
4774 Mist 22 1016 73 1500 1.5 60 14:55 17.12.2020
4775 Mist 23 1015 69 1500 1 60 14:34 17.12.2020
4776 Mist 23 1015 69 1500 1 60 13:58 17.12.2020
4777 Mist 24 1015 69 1500 1 80 13:35 17.12.2020
4778 Haze 26 1015 57 2000 1 50 12:49 17.12.2020
4779 Haze 26 1015 57 2000 1.5 20 12:26 17.12.2020
4780 Haze 26 1016 57 2000 1 20 11:45 17.12.2020
4781 Haze 26 1016 57 2000 1 70 11:25 17.12.2020
4782 Haze 26 1016 57 2000 1 70 10:56 17.12.2020
4783 Haze 26 1016 57 2000 1 70 10:29 17.12.2020
4784 Haze 26 1017 57 1800 2.1 30 09:31 17.12.2020
4785 Haze 25 1019 61 1800 1.5 10 08:20 17.12.2020
4786 Mist 23 1020 69 1500 1 20 07:40 17.12.2020
4787 Mist 22 1020 68 1500 1.5 30 07:18 17.12.2020
4788 Mist 22 1021 68 1500 1.5 20 06:42 17.12.2020
4789 Fog 21 1021 73 1500 2.6 60 06:24 17.12.2020
4790 Fog 19 1017 82 1500 2.61 21 00:55 17.12.2020
4791 Fog 19 1017 82 1500 1.5 10 23:57 16.12.2020
4792 Fog 19 1017 88 1500 1 20 23:22 16.12.2020
4793 Fog 19 1017 88 1500 1 20 22:57 16.12.2020
4794 Fog 19 1017 88 1500 1 20 22:36 16.12.2020
4795 Fog 20 1017 82 1500 1 20 21:54 16.12.2020
4796 Fog 20 1017 82 1500 1 20 21:36 16.12.2020
4797 Clouds 19 1016 68 10000 3.47 22 20:56 16.12.2020
4798 Clouds 19 1016 68 10000 3.47 22 20:37 16.12.2020
4799 Clouds 20 1016 64 10000 3.54 28 20:18 16.12.2020
4800 Fog 22 1018 78 1500 2.1 20 19:20 16.12.2020
4801 Fog 22 1018 78 1500 2.1 20 18:56 16.12.2020
4802 Fog 22 1018 78 1500 1.5 20 18:29 16.12.2020
4803 Fog 22 1018 78 1500 2.57 11 17:51 16.12.2020
4804 Fog 22 1017 73 1500 1.85 353 17:29 16.12.2020
4805 Fog 22 1017 73 1500 1.85 353 16:40 16.12.2020
4806 Mist 21 1016 77 2500 0.7 151 16:22 16.12.2020
4807 Haze 22 1016 73 2500 0.7 151 15:51 16.12.2020
4808 Haze 23 1016 69 2500 1.63 130 15:28 16.12.2020
4809 Haze 23 1015 69 2500 1.63 130 14:48 16.12.2020
4810 Haze 23 1015 69 2500 1.57 102 14:28 16.12.2020
4811 Haze 26 1015 57 2500 1.57 102 13:50 16.12.2020
4812 Haze 26 1015 57 2500 1.24 76 13:31 16.12.2020
4813 Haze 28 1015 51 2500 1.24 76 12:56 16.12.2020
4814 Haze 28 1015 51 2500 1.18 66 12:36 16.12.2020
4815 Haze 29 1015 45 2500 1.15 33 11:41 16.12.2020
4816 Haze 29 1015 45 2500 1 180 11:22 16.12.2020
4817 Haze 28 1015 48 2500 1.5 240 10:49 16.12.2020
4818 Haze 29 1016 48 2500 2.1 260 10:26 16.12.2020
4819 Haze 29 1016 48 2000 2.1 280 09:48 16.12.2020
4820 Haze 28 1017 54 2000 0.75 141 08:45 16.12.2020
4821 Haze 27 1018 54 2000 1.5 180 07:59 16.12.2020
4822 Haze 26 1018 61 2000 1.89 147 07:39 16.12.2020
4823 Haze 24 1019 69 2000 1.5 90 06:57 16.12.2020
4824 Mist 19 1018 93 1500 1.5 80 03:28 16.12.2020
4825 Mist 20 1017 82 1500 1.62 68 01:27 16.12.2020
4826 Clouds 19 1015 64 10000 1.63 69 23:46 15.12.2020
4827 Haze 20 1016 82 1500 1.57 98 22:49 15.12.2020
4828 Haze 20 1016 82 1500 1.76 106 22:25 15.12.2020
4829 Haze 21 1017 77 1500 1.76 106 21:58 15.12.2020
4830 Haze 21 1017 77 1500 1.76 106 21:40 15.12.2020
4831 Haze 21 1017 77 1500 1.57 98 21:21 15.12.2020
4832 Haze 21 1017 77 1500 1.57 98 20:44 15.12.2020
4833 Haze 21 1017 77 1500 1.14 87 20:26 15.12.2020
4834 Haze 21 1017 77 1500 1.14 87 19:52 15.12.2020
4835 Haze 22 1017 73 2000 0.88 82 19:26 15.12.2020
4836 Haze 22 1017 73 2000 0.33 96 18:39 15.12.2020
4837 Haze 22 1018 73 2000 0.54 161 18:21 15.12.2020
4838 Haze 22 1017 73 2000 0.54 161 17:44 15.12.2020
4839 Haze 22 1017 73 2000 1 100 17:25 15.12.2020
4840 Haze 23 1017 69 2000 1 100 16:43 15.12.2020
4841 Haze 23 1016 69 2000 1 90 16:25 15.12.2020
4842 Haze 23 1016 73 2000 1.85 149 15:38 15.12.2020
4843 Haze 24 1016 69 2000 2 145 15:18 15.12.2020
4844 Haze 24 1015 64 2000 2 145 14:41 15.12.2020
4845 Haze 24 1015 64 2000 2 145 14:41 15.12.2020
4846 Haze 24 1015 64 2000 1.59 135 14:19 15.12.2020
4847 Haze 25 1015 61 2000 1.59 135 13:49 15.12.2020
4848 Haze 26 1015 47 2000 1.57 128 13:24 15.12.2020
4849 Haze 27 1015 44 2000 1 180 12:46 15.12.2020
4850 Haze 27 1015 44 2000 1 190 12:19 15.12.2020
4851 Haze 28 1015 45 2000 3.1 190 11:52 15.12.2020
4852 Haze 28 1015 45 2000 1.5 170 11:23 15.12.2020
4853 Haze 29 1015 45 2000 1.5 140 10:48 15.12.2020
4854 Haze 28 1015 51 2000 1 70 10:20 15.12.2020
4855 Haze 27 1015 54 2000 1 10 09:43 15.12.2020
4856 Haze 27 1016 54 2000 2.1 120 09:25 15.12.2020
4857 Haze 26 1016 57 2000 2.1 100 08:41 15.12.2020
4858 Haze 27 1017 54 2500 2.1 80 08:21 15.12.2020
4859 Haze 26 1017 57 2500 1 130 07:44 15.12.2020
4860 Haze 26 1018 57 2500 1 100 06:59 15.12.2020
4861 Haze 23 1018 69 1500 2.1 110 05:37 15.12.2020
4862 Clouds 19 1014 88 2500 1.5 30 00:39 15.12.2020
4863 Clouds 20 1014 88 2500 1.5 30 23:51 14.12.2020
4864 Clouds 21 1015 83 2500 1.5 70 23:19 14.12.2020
4865 Clouds 21 1015 83 2500 1.5 70 22:44 14.12.2020
4866 Mist 21 1015 77 2500 1 20 22:22 14.12.2020
4867 Mist 21 1015 77 2500 1 20 21:41 14.12.2020
4868 Haze 22 1015 73 2500 2.02 77 21:18 14.12.2020
4869 Haze 22 1015 73 2500 2.02 77 20:48 14.12.2020
4870 Haze 22 1015 73 2500 1.78 83 20:27 14.12.2020
4871 Haze 22 1015 73 2500 1.78 83 19:44 14.12.2020
4872 Haze 22 1015 73 2500 2.44 95 19:25 14.12.2020
4873 Haze 22 1015 73 2500 1.47 85 18:44 14.12.2020
4874 Haze 22 1016 73 2500 0.98 103 18:24 14.12.2020
4875 Haze 22 1016 73 2500 0.98 103 17:45 14.12.2020
4876 Haze 21 1016 77 2500 0.92 125 17:21 14.12.2020
4877 Haze 21 1016 77 2500 0.92 125 16:42 14.12.2020
4878 Haze 22 1015 73 2500 1 90 16:23 14.12.2020
4879 Haze 22 1015 73 2500 1 100 15:33 14.12.2020
4880 Haze 23 1014 69 2500 1 110 14:51 14.12.2020
4881 Haze 23 1014 69 2500 1 110 14:32 14.12.2020
4882 Haze 23 1014 64 2500 1 110 13:57 14.12.2020
4883 Haze 25 1014 57 2500 1.04 360 13:35 14.12.2020
4884 Haze 25 1014 57 2500 1.89 358 12:56 14.12.2020
4885 Haze 25 1014 57 2500 1.89 358 12:34 14.12.2020
4886 Haze 25 1014 57 2500 1 90 11:58 14.12.2020
4887 Haze 25 1014 53 3000 1.38 20 11:25 14.12.2020
4888 Haze 26 1014 50 3000 2.1 150 10:28 14.12.2020
4889 Haze 25 1014 53 3000 2.1 120 09:53 14.12.2020
4890 Haze 25 1014 61 3000 1.5 150 09:25 14.12.2020
4891 Haze 24 1015 60 2500 1.5 90 08:44 14.12.2020
4892 Haze 23 1016 69 2500 1 90 08:23 14.12.2020
4893 Haze 22 1017 73 2500 3.04 108 07:22 14.12.2020
4894 Clouds 22 1017 68 2500 3.04 108 06:43 14.12.2020
4895 Haze 21 1015 73 2500 1.5 80 03:58 14.12.2020
4896 Haze 20 1013 77 2500 2.07 51 02:25 14.12.2020
4897 Haze 20 1013 77 2500 1 30 00:51 14.12.2020
4898 Haze 20 1013 77 2500 1 30 00:29 14.12.2020
4899 Clouds 21 1013 73 3000 1.59 73 23:44 13.12.2020
4900 Haze 21 1013 73 3000 1.5 360 23:18 13.12.2020
4901 Haze 21 1013 73 3000 1.5 360 22:43 13.12.2020
4902 Haze 21 1013 73 3000 1 30 22:18 13.12.2020
4903 Haze 21 1013 73 3000 1 30 21:42 13.12.2020
4904 Haze 21 1013 73 3000 1.5 30 20:57 13.12.2020
4905 Haze 21 1013 73 3000 1.5 30 20:32 13.12.2020
4906 Haze 22 1014 73 3000 2.6 360 19:49 13.12.2020
4907 Haze 22 1014 64 3000 1.5 20 19:25 13.12.2020
4908 Haze 22 1014 64 3000 1.5 20 18:57 13.12.2020
4909 Haze 22 1014 64 3000 1.5 20 18:38 13.12.2020
4910 Haze 22 1014 64 3000 1.5 10 18:18 13.12.2020
4911 Haze 22 1014 64 3000 2.6 50 17:45 13.12.2020
4912 Clouds 22 1014 68 3000 2.1 30 17:18 13.12.2020
4913 Clouds 22 1014 64 3000 2.1 30 16:50 13.12.2020
4914 Clouds 22 1014 64 3000 2.1 30 16:31 13.12.2020
4915 Rain 22 1014 64 3000 1 50 15:48 13.12.2020
4916 Clouds 23 1013 60 3000 1.5 50 15:27 13.12.2020
4917 Rain 23 1013 60 3000 1.5 50 14:48 13.12.2020
4918 Haze 23 1013 60 3000 1.5 50 14:29 13.12.2020
4919 Haze 23 1013 64 3000 2.6 30 13:56 13.12.2020
4920 Haze 23 1013 64 3000 1.5 50 13:35 13.12.2020
4921 Haze 24 1013 60 3000 1.5 30 12:59 13.12.2020
4922 Haze 24 1013 60 3000 2.1 60 12:25 13.12.2020
4923 Haze 25 1012 57 3500 2.6 60 11:59 13.12.2020
4924 Haze 26 1013 54 3500 2.6 70 11:33 13.12.2020
4925 Haze 26 1013 50 3500 1 40 10:45 13.12.2020
4926 Haze 26 1013 50 3500 2.1 20 10:21 13.12.2020
4927 Haze 26 1014 50 3500 1.5 10 09:47 13.12.2020
4928 Haze 26 1016 54 3500 2.1 40 08:52 13.12.2020
4929 Haze 26 1016 54 3500 2.1 40 08:52 13.12.2020
4930 Haze 26 1016 54 3500 2.1 40 08:30 13.12.2020
4931 Haze 25 1016 53 3000 3.1 40 07:25 13.12.2020
4932 Mist 19 1015 82 2000 1 310 03:24 13.12.2020
4933 Mist 20 1014 72 2000 1.93 50 02:32 13.12.2020
4934 Haze 20 1014 72 2500 1.5 10 01:36 13.12.2020
4935 Haze 20 1014 72 2500 1.5 10 00:44 13.12.2020
4936 Haze 20 1014 72 2500 2 19 23:45 12.12.2020
4937 Haze 20 1014 72 2500 2.59 346 23:26 12.12.2020
4938 Haze 20 1014 72 2500 1 50 22:36 12.12.2020
4939 Clouds 20 1013 67 10000 1.81 353 21:47 12.12.2020
4940 Haze 21 1015 68 2500 2.1 10 21:20 12.12.2020
4941 Haze 21 1015 68 2500 2.1 10 20:46 12.12.2020
4942 Haze 22 1015 64 2500 1 30 20:21 12.12.2020
4943 Haze 22 1015 64 2500 1 30 19:53 12.12.2020
4944 Haze 22 1015 64 2500 1 30 19:33 12.12.2020
4945 Haze 22 1016 64 2500 1.5 20 18:56 12.12.2020
4946 Haze 22 1016 64 2500 1.5 20 18:38 12.12.2020
4947 Haze 22 1016 64 2500 1.5 20 18:20 12.12.2020
4948 Haze 22 1016 64 2500 1.5 20 17:41 12.12.2020
4949 Haze 23 1015 56 2500 1 30 16:44 12.12.2020
4950 Haze 23 1015 60 2500 2.1 30 15:58 12.12.2020
4951 Haze 23 1015 60 2500 2.1 30 15:58 12.12.2020
4952 Haze 23 1015 49 2500 2.1 30 15:39 12.12.2020
4953 Haze 24 1014 60 2500 3.1 30 14:54 12.12.2020
4954 Haze 25 1014 53 2500 3.1 20 14:22 12.12.2020
4955 Haze 25 1013 53 2500 1 90 13:44 12.12.2020
4956 Haze 25 1013 53 2500 1 90 13:25 12.12.2020
4957 Haze 28 1012 45 2500 1 90 12:37 12.12.2020
4958 Haze 29 1013 48 2500 1 50 11:28 12.12.2020
4959 Haze 28 1013 51 3000 2.1 20 10:46 12.12.2020
4960 Haze 27 1015 39 3000 1.5 40 09:24 12.12.2020
4961 Haze 25 1016 44 3000 2.6 340 08:25 12.12.2020
4962 Haze 18 1015 63 2500 2.2 102 01:56 12.12.2020
4963 Haze 19 1015 59 2500 2.6 20 23:31 11.12.2020
4964 Haze 19 1015 63 3000 2.82 28 20:58 11.12.2020
4965 Haze 19 1016 63 3000 3.01 28 19:44 11.12.2020
4966 Haze 19 1016 59 3000 1 140 16:59 11.12.2020
4967 Haze 23 1014 43 4000 1.06 126 14:37 11.12.2020
4968 Haze 23 1014 43 4000 1.06 126 14:37 11.12.2020
4969 Haze 24 1014 38 4000 1.01 108 13:45 11.12.2020
4970 Haze 27 1013 32 5000 0.94 108 12:28 11.12.2020
4971 Haze 27 1013 32 5000 1 360 11:55 11.12.2020
4972 Haze 27 1013 34 5000 1 70 11:36 11.12.2020
4973 Haze 27 1014 30 5000 1.49 115 10:40 11.12.2020
4974 Haze 25 1017 41 4000 2.81 126 07:42 11.12.2020
4975 Haze 21 1018 56 3500 2.41 106 05:36 11.12.2020
4976 Haze 20 1018 60 3000 2.49 99 04:47 11.12.2020
4977 Haze 14 1015 76 3000 1.59 59 00:48 11.12.2020
4978 Haze 15 1015 72 3000 1.45 50 23:27 10.12.2020
4979 Haze 15 1016 72 3000 1.18 32 21:37 10.12.2020
4980 Haze 16 1016 67 3000 1.28 30 20:51 10.12.2020
4981 Haze 16 1016 67 3000 1.16 41 20:26 10.12.2020
4982 Haze 17 1016 59 3000 0.61 72 19:29 10.12.2020
4983 Haze 16 1017 63 3000 1.5 200 18:47 10.12.2020
4984 Haze 18 1016 52 3000 1 90 17:29 10.12.2020
4985 Haze 20 1016 49 3000 1 100 15:58 10.12.2020
4986 Haze 22 1015 46 3000 1 100 15:21 10.12.2020
4987 Haze 22 1015 46 3000 1 110 14:43 10.12.2020
4988 Haze 24 1014 41 5000 1 120 13:42 10.12.2020
4989 Haze 28 1014 32 5000 1 90 12:21 10.12.2020
4990 Haze 28 1014 26 5000 1 90 10:54 10.12.2020
4991 Haze 27 1017 32 5000 1.5 130 08:21 10.12.2020
4992 Haze 26 1017 34 4000 2.27 89 07:26 10.12.2020
4993 Haze 23 1018 46 3000 1 70 05:34 10.12.2020
4994 Haze 15 1016 72 2500 1 20 02:40 10.12.2020
4995 Haze 15 1015 72 2500 1.21 51 01:32 10.12.2020
4996 Haze 16 1014 67 2500 1.28 19 23:42 09.12.2020
4997 Haze 16 1015 67 3000 1 340 20:39 09.12.2020
4998 Haze 15 1016 72 3000 1.71 4 19:46 09.12.2020
4999 Haze 17 1016 63 3000 1.12 6 18:36 09.12.2020
5000 Haze 19 1016 55 3000 1.33 189 17:19 09.12.2020
5001 Haze 19 1015 52 3000 1.54 172 16:26 09.12.2020
5002 Haze 20 1015 49 3000 1 150 15:44 09.12.2020
5003 Haze 20 1015 49 3000 1 150 15:44 09.12.2020
5004 Haze 21 1014 43 4000 1.8 156 14:50 09.12.2020
5005 Haze 23 1014 40 4000 1.63 146 14:26 09.12.2020
5006 Haze 27 1014 30 4000 1.36 126 13:19 09.12.2020
5007 Haze 27 1014 30 4000 1.38 123 12:58 09.12.2020
5008 Haze 28 1014 26 4000 1.25 104 12:23 09.12.2020
5009 Haze 28 1014 28 4000 1.25 104 11:33 09.12.2020
5010 Haze 28 1015 32 4000 1 40 09:51 09.12.2020
5011 Haze 30 1015 35 4000 1.4 80 08:35 09.12.2020
5012 Haze 26 1018 44 3500 1 40 06:38 09.12.2020
5013 Haze 22 1019 60 3000 1 70 05:27 09.12.2020
5014 Mist 14 1017 87 2500 1.09 45 02:31 09.12.2020
5015 Mist 17 1016 72 2500 1.7 2 00:24 09.12.2020
5016 Mist 17 1016 72 2500 1.86 356 23:28 08.12.2020
5017 Mist 19 1017 63 2500 1.5 10 21:54 08.12.2020
5018 Haze 17 1017 72 2500 1.59 337 20:23 08.12.2020
5019 Haze 19 1018 63 3000 1.37 329 19:29 08.12.2020
5020 Haze 19 1018 63 3000 1.69 325 18:34 08.12.2020
5021 Haze 20 1017 60 3000 1.39 200 16:28 08.12.2020
5022 Haze 23 1016 49 4000 1 130 14:46 08.12.2020
5023 Haze 26 1016 41 4000 1 120 13:44 08.12.2020
5024 Haze 29 1015 37 4000 1 100 12:37 08.12.2020
5025 Haze 30 1015 30 4000 1 90 11:52 08.12.2020
5026 Haze 30 1015 28 4000 1 60 10:54 08.12.2020
5027 Haze 30 1015 28 4000 1 60 10:34 08.12.2020
5028 Haze 30 1016 30 4000 2.6 60 09:35 08.12.2020
5029 Haze 28 1019 39 4000 1 140 07:35 08.12.2020
5030 Haze 21 1020 64 3000 1 30 04:42 08.12.2020
5031 Haze 16 1018 82 3000 1.85 39 01:48 08.12.2020
5032 Haze 14 1017 87 3000 1.75 46 00:44 08.12.2020
5033 Haze 16 1017 77 3000 1.74 15 22:56 07.12.2020
5034 Haze 16 1018 72 3000 1.62 7 22:20 07.12.2020
5035 Haze 17 1018 72 3000 1.76 16 20:57 07.12.2020
5036 Haze 19 1019 63 3000 2.05 35 18:58 07.12.2020
5037 Haze 19 1019 63 3000 1.31 10 17:38 07.12.2020
5038 Haze 20 1018 56 3000 0.62 8 17:18 07.12.2020
5039 Haze 20 1018 56 3000 0.8 127 16:23 07.12.2020
5040 Haze 21 1017 52 3000 1.47 142 15:24 07.12.2020
5041 Haze 21 1017 49 3000 1.6 143 14:28 07.12.2020
5042 Haze 26 1016 34 3000 1.12 123 13:35 07.12.2020
5043 Haze 30 1016 25 4000 1 60 11:58 07.12.2020
5044 Haze 30 1016 25 4000 1 60 11:58 07.12.2020
5045 Haze 30 1016 25 4000 1 70 11:38 07.12.2020
5046 Haze 30 1016 25 4000 1.5 40 10:23 07.12.2020
5047 Haze 29 1018 30 4000 2.1 80 08:37 07.12.2020
5048 Haze 27 1019 36 4000 1 100 07:23 07.12.2020
5049 Haze 23 1020 53 3000 1.5 50 05:26 07.12.2020
5050 Mist 15 1019 77 2500 1.65 41 03:43 07.12.2020
5051 Mist 14 1016 82 2500 1.49 24 00:33 07.12.2020
5052 Mist 16 1016 72 2500 1.54 30 22:46 06.12.2020
5053 Mist 15 1016 77 2500 1.59 17 21:44 06.12.2020
5054 Mist 15 1017 77 2500 1.56 12 20:35 06.12.2020
5055 Haze 17 1017 67 3000 1.43 20 19:57 06.12.2020
5056 Haze 18 1017 63 3000 1.62 25 18:53 06.12.2020
5057 Haze 19 1017 59 3000 1.59 61 17:28 06.12.2020
5058 Haze 19 1017 59 3000 1.59 61 16:33 06.12.2020
5059 Haze 23 1016 43 3000 0.57 55 14:46 06.12.2020
5060 Haze 28 1015 30 3000 1.46 103 12:53 06.12.2020
5061 Haze 29 1014 30 4000 1 60 12:27 06.12.2020
5062 Haze 29 1014 28 4000 1.84 96 11:40 06.12.2020
5063 Haze 30 1014 27 4000 1.5 70 11:21 06.12.2020
5064 Haze 30 1015 27 4000 1.5 60 10:31 06.12.2020
5065 Haze 28 1017 32 4000 1.5 90 08:50 06.12.2020
5066 Haze 26 1019 36 4000 2.49 82 06:53 06.12.2020
5067 Haze 12 1016 81 2500 1.78 23 02:40 06.12.2020
5068 Haze 15 1015 72 2500 1.5 360 00:42 06.12.2020
5069 Haze 15 1015 72 2500 1.5 360 00:24 06.12.2020
5070 Haze 14 1015 76 2500 1 10 22:52 05.12.2020
5071 Haze 15 1015 77 2500 1.91 16 22:21 05.12.2020
5072 Haze 15 1015 77 2500 1.91 16 21:51 05.12.2020
5073 Haze 15 1015 77 2500 2.22 8 21:26 05.12.2020
5074 Haze 17 1016 63 3000 1.91 13 19:49 05.12.2020
5075 Haze 16 1016 67 4000 1.45 44 18:45 05.12.2020
5076 Haze 17 1016 67 4000 1.65 74 17:35 05.12.2020
5077 Haze 19 1015 59 4000 1.31 79 16:43 05.12.2020
5078 Haze 21 1015 49 4000 0.84 80 16:20 05.12.2020
5079 Haze 21 1014 46 4000 0.65 74 14:30 05.12.2020
5080 Haze 30 1013 23 5000 1.04 53 12:32 05.12.2020
5081 Haze 30 1013 20 5000 1.44 62 11:48 05.12.2020
5082 Haze 30 1013 22 5000 1.75 78 10:32 05.12.2020
5083 Haze 27 1016 34 5000 1 50 07:49 05.12.2020
5084 Haze 27 1016 34 5000 1 50 07:25 05.12.2020
5085 Haze 19 1016 55 4000 2.1 20 04:44 05.12.2020
5086 Haze 14 1013 76 3000 1.66 21 23:56 04.12.2020
5087 Haze 15 1014 77 3000 1.75 9 22:39 04.12.2020
5088 Haze 16 1014 67 3000 1.44 4 20:29 04.12.2020
5089 Haze 18 1015 59 3000 1.25 345 18:53 04.12.2020
5090 Haze 18 1015 59 3000 1.24 331 18:20 04.12.2020
5091 Haze 18 1014 55 3000 1.24 331 17:40 04.12.2020
5092 Haze 22 1014 40 3000 2.1 120 15:50 04.12.2020
5093 Haze 22 1012 35 4000 1.28 148 13:57 04.12.2020
5094 Haze 25 1012 29 4000 0.94 115 13:29 04.12.2020
5095 Haze 28 1012 26 5000 0.94 115 12:54 04.12.2020
5096 Haze 30 1012 22 5000 1 80 10:42 04.12.2020
5097 Haze 30 1012 22 5000 1 80 10:23 04.12.2020
5098 Haze 27 1015 30 5000 1.54 87 07:29 04.12.2020
5099 Haze 25 1016 36 5000 1.93 83 06:39 04.12.2020
5100 Haze 13 1014 71 3000 1.65 30 02:25 04.12.2020
5101 Haze 15 1013 67 3000 1.8 17 23:21 03.12.2020
5102 Haze 15 1013 67 3000 1.8 17 22:45 03.12.2020
5103 Clouds 17 1013 47 10000 1.99 24 20:49 03.12.2020
5104 Haze 17 1015 67 3000 1.95 15 19:37 03.12.2020
5105 Haze 17 1015 63 3000 1.84 14 19:18 03.12.2020
5106 Haze 18 1016 59 3000 1.45 14 18:18 03.12.2020
5107 Haze 19 1015 55 3000 0.92 66 17:19 03.12.2020
5108 Haze 19 1015 55 4000 1.13 113 15:56 03.12.2020
5109 Haze 20 1015 49 4000 1.13 113 15:31 03.12.2020
5110 Haze 21 1014 46 4000 0.78 101 14:48 03.12.2020
5111 Haze 25 1014 33 5000 0.51 92 13:44 03.12.2020
5112 Haze 30 1013 23 5000 0.66 109 12:32 03.12.2020
5113 Haze 30 1013 20 5000 0.87 61 11:38 03.12.2020
5114 Haze 30 1014 23 5000 1.72 34 10:25 03.12.2020
5115 Haze 27 1017 30 5000 2.1 80 07:47 03.12.2020
5116 Haze 12 1016 76 3000 1.89 27 03:22 03.12.2020
5117 Haze 16 1014 63 3000 1.5 10 01:19 03.12.2020
5118 Haze 14 1014 76 3000 1.89 9 22:48 02.12.2020
5119 Haze 14 1014 76 3000 1.93 4 22:26 02.12.2020
5120 Haze 13 1014 87 3000 1.94 5 21:25 02.12.2020
5121 Haze 14 1014 76 3000 1.94 5 20:46 02.12.2020
5122 Haze 14 1014 76 3000 1.77 15 20:28 02.12.2020
5123 Haze 18 1015 63 3000 2.2 4 18:39 02.12.2020
5124 Haze 18 1015 63 3000 1 10 17:47 02.12.2020
5125 Haze 19 1015 55 3000 2.53 14 17:28 02.12.2020
5126 Haze 20 1014 52 3000 1.3 114 15:23 02.12.2020
5127 Haze 29 1013 26 4000 1.84 137 12:45 02.12.2020
5128 Haze 29 1014 26 5000 1.5 30 10:29 02.12.2020
5129 Haze 29 1014 26 5000 1.5 30 09:27 02.12.2020
5130 Haze 24 1018 38 5000 1 60 05:53 02.12.2020
5131 Haze 14 1016 87 3000 2.02 20 22:21 01.12.2020
5132 Haze 14 1016 87 3000 2.02 20 21:53 01.12.2020
5133 Haze 19 1017 63 3000 2.1 28 19:36 01.12.2020
5134 Haze 19 1017 68 3000 1.88 30 18:18 01.12.2020
5135 Haze 20 1017 64 3000 1.51 44 16:37 01.12.2020
5136 Haze 26 1015 41 3000 1 50 13:39 01.12.2020
5137 Haze 28 1015 34 3000 1 40 12:26 01.12.2020
5138 Haze 29 1015 37 4000 1 10 11:27 01.12.2020
5139 Haze 29 1015 32 5000 1 90 10:39 01.12.2020
5140 Haze 29 1016 35 5000 2.33 91 09:26 01.12.2020
5141 Haze 26 1019 44 4000 1.5 70 07:19 01.12.2020
5142 Haze 16 1016 82 3000 2.45 25 01:56 01.12.2020
5143 Haze 17 1016 82 3000 2.57 16 00:57 01.12.2020
5144 Haze 17 1016 82 3000 1.93 18 23:22 30.11.2020
5145 Haze 17 1016 82 3000 1.93 18 22:45 30.11.2020
5146 Haze 17 1016 82 3000 1.66 29 22:26 30.11.2020
5147 Haze 19 1016 72 3000 1.66 29 21:55 30.11.2020
5148 Haze 21 1017 64 3000 1.65 60 19:45 30.11.2020
5149 Haze 21 1018 64 3000 2.15 55 18:40 30.11.2020
5150 Haze 23 1017 53 3000 2.19 56 18:20 30.11.2020
5151 Haze 22 1017 60 3000 1.31 70 17:24 30.11.2020
5152 Haze 23 1017 56 3000 1.31 70 16:43 30.11.2020
5153 Haze 23 1015 53 3000 1.88 115 14:47 30.11.2020
5154 Haze 27 1015 39 4000 2.51 127 13:54 30.11.2020
5155 Haze 29 1015 35 4000 1 10 12:34 30.11.2020
5156 Haze 30 1014 35 4000 2.1 20 11:58 30.11.2020
5157 Haze 30 1015 35 5000 1.25 58 10:30 30.11.2020
5158 Haze 30 1016 35 5000 1.5 160 09:51 30.11.2020
5159 Haze 28 1018 42 5000 1 80 07:26 30.11.2020
5160 Haze 17 1016 77 3000 2.08 44 00:54 30.11.2020
5161 Haze 19 1016 68 3000 2.72 13 22:19 29.11.2020
5162 Haze 19 1016 68 3000 2.72 13 21:42 29.11.2020
5163 Haze 19 1016 68 3000 2.9 14 21:24 29.11.2020
5164 Haze 23 1018 56 3000 2.42 66 17:48 29.11.2020
5165 Haze 23 1017 56 3000 1.31 88 16:57 29.11.2020
5166 Haze 26 1015 44 4000 1 70 13:24 29.11.2020
5167 Haze 27 1015 42 4000 0.5 80 12:27 29.11.2020
5168 Haze 30 1015 30 5000 1 60 10:54 29.11.2020
5169 Haze 28 1018 39 4000 1.5 80 08:39 29.11.2020
5170 Haze 25 1020 47 4000 1.5 70 06:33 29.11.2020
5171 Haze 17 1017 77 2500 2.29 35 01:42 29.11.2020
5172 Haze 19 1017 68 2500 2.55 38 22:57 28.11.2020
5173 Haze 20 1018 68 3000 2.5 33 20:56 28.11.2020
5174 Haze 21 1018 64 3000 2.53 32 19:51 28.11.2020
5175 Haze 21 1018 64 3000 2.59 36 19:24 28.11.2020
5176 Haze 21 1018 64 3000 2.59 36 18:52 28.11.2020
5177 Haze 21 1018 64 3000 2.81 35 17:48 28.11.2020
5178 Haze 23 1018 56 3000 1 50 16:45 28.11.2020
5179 Haze 24 1017 53 3000 1.5 60 14:57 28.11.2020
5180 Haze 26 1016 44 4000 2.1 60 13:27 28.11.2020
5181 Haze 28 1015 39 5000 2.6 60 11:23 28.11.2020
5182 Haze 27 1019 42 5000 1.5 50 07:55 28.11.2020
5183 Haze 19 1020 72 2000 2.1 10 03:33 28.11.2020
5184 Haze 18 1018 77 2500 1 40 01:51 28.11.2020
5185 Haze 19 1018 77 2500 2.1 10 23:19 27.11.2020
5186 Haze 19 1018 77 2500 2.1 10 21:51 27.11.2020
5187 Haze 19 1018 77 2500 1 20 20:37 27.11.2020
5188 Haze 20 1019 72 3000 1.5 30 19:30 27.11.2020
5189 Haze 21 1019 73 3000 1.5 30 18:51 27.11.2020
5190 Haze 22 1018 60 3000 2.6 60 15:21 27.11.2020
5191 Haze 22 1018 60 4000 2.6 70 13:57 27.11.2020
5192 Haze 23 1017 60 4000 2.6 90 12:48 27.11.2020
5193 Haze 23 1017 60 4000 2.6 60 11:55 27.11.2020
5194 Haze 24 1017 57 4000 4.1 60 10:51 27.11.2020
5195 Haze 24 1017 57 4000 4.1 60 10:24 27.11.2020
5196 Clouds 24 1016 57 10000 5.09 82 07:30 27.11.2020
5197 Clouds 17 1015 80 10000 2.35 50 22:43 26.11.2020
5198 Clouds 17 1015 80 10000 2.48 41 22:22 26.11.2020
5199 Haze 20 1016 72 2500 3.1 40 21:39 26.11.2020
5200 Haze 20 1017 77 2500 2.6 60 19:41 26.11.2020
5201 Haze 20 1017 82 2500 2.6 50 18:31 26.11.2020
5202 Haze 22 1016 68 2500 3.6 80 16:32 26.11.2020
5203 Haze 24 1014 57 2500 1 120 13:43 26.11.2020
5204 Haze 25 1014 47 2500 1.5 90 12:45 26.11.2020
5205 Haze 26 1013 44 2500 2.1 90 12:23 26.11.2020
5206 Haze 27 1013 39 4000 1.5 90 10:38 26.11.2020
5207 Haze 28 1014 34 4000 2.1 100 09:49 26.11.2020
5208 Haze 28 1014 34 4000 2.1 100 09:31 26.11.2020
5209 Haze 28 1015 28 4000 2.6 60 08:40 26.11.2020
5210 Haze 26 1016 36 3000 3.1 80 06:56 26.11.2020
5211 Haze 17 1014 72 2500 2.73 33 00:46 26.11.2020
5212 Haze 17 1015 72 2500 2.65 37 21:29 25.11.2020
5213 Haze 18 1016 63 2500 2.57 44 19:58 25.11.2020
5214 Haze 18 1016 63 2500 2.2 67 18:50 25.11.2020
5215 Haze 21 1015 49 2500 2.79 36 17:24 25.11.2020
5216 Haze 22 1015 46 2500 1 50 15:42 25.11.2020
5217 Haze 23 1014 43 2500 2.38 54 14:19 25.11.2020
5218 Haze 24 1014 38 2500 2.38 54 13:43 25.11.2020
5219 Haze 27 1013 32 3000 1.5 70 12:26 25.11.2020
5220 Haze 28 1013 28 3000 2.6 90 11:20 25.11.2020
5221 Haze 27 1015 34 3000 3.1 70 09:19 25.11.2020
5222 Haze 27 1016 36 3000 2.6 80 08:47 25.11.2020
5223 Haze 22 1018 53 2500 3.1 60 05:18 25.11.2020
5224 Mist 15 1017 82 2000 2.26 44 03:31 25.11.2020
5225 Haze 15 1014 77 2500 1 20 00:48 25.11.2020
5226 Haze 14 1014 87 2500 2.38 36 23:55 24.11.2020
5227 Haze 14 1014 87 2500 2.38 36 23:34 24.11.2020
5228 Haze 15 1015 82 2500 2.66 25 22:18 24.11.2020
5229 Haze 15 1015 82 2500 2.66 25 21:31 24.11.2020
5230 Haze 16 1016 72 2500 2.78 23 20:45 24.11.2020
5231 Haze 17 1016 72 3000 1.96 60 19:21 24.11.2020
5232 Haze 18 1016 68 3000 2.27 69 17:31 24.11.2020
5233 Haze 18 1016 63 3000 1.9 63 16:56 24.11.2020
5234 Haze 18 1016 68 3000 1.9 63 16:36 24.11.2020
5235 Haze 19 1015 63 3000 1.63 65 15:55 24.11.2020
5236 Haze 20 1014 52 3000 1.52 71 15:19 24.11.2020
5237 Haze 22 1014 49 3000 1.52 71 14:43 24.11.2020
5238 Haze 26 1014 39 3000 1.38 53 12:55 24.11.2020
5239 Haze 28 1013 34 3000 2.1 50 12:31 24.11.2020
5240 Haze 28 1013 34 4000 1 60 11:58 24.11.2020
5241 Haze 28 1014 32 4000 1 130 10:49 24.11.2020
5242 Haze 28 1014 34 4000 2.47 43 10:25 24.11.2020
5243 Haze 27 1014 36 5000 1 120 09:36 24.11.2020
5244 Haze 26 1016 41 5000 2.47 88 08:27 24.11.2020
5245 Haze 19 1018 68 3000 2.95 80 04:49 24.11.2020
5246 Haze 17 1015 72 2500 1.5 10 23:32 23.11.2020
5247 Haze 17 1015 77 2500 1 20 21:46 23.11.2020
5248 Haze 16 1016 77 2500 1.96 31 20:58 23.11.2020
5249 Haze 16 1016 77 2500 2 39 20:28 23.11.2020
5250 Haze 17 1016 77 3000 2 39 19:36 23.11.2020
5251 Haze 19 1016 63 4000 1.78 33 17:28 23.11.2020
5252 Haze 19 1016 59 4000 1.78 33 16:54 23.11.2020
5253 Haze 22 1014 49 4000 1.5 100 14:49 23.11.2020
5254 Haze 23 1014 43 4000 1.92 105 13:54 23.11.2020
5255 Haze 27 1014 36 5000 1 40 12:39 23.11.2020
5256 Haze 28 1014 32 5000 1 40 11:56 23.11.2020
5257 Haze 28 1014 32 5000 1.5 20 11:37 23.11.2020
5258 Haze 28 1015 32 5000 1 30 09:47 23.11.2020
5259 Haze 27 1016 36 5000 1.5 60 08:51 23.11.2020
5260 Haze 25 1018 44 5000 2.1 80 07:40 23.11.2020
5261 Mist 13 1017 82 2500 2.5 44 02:39 23.11.2020
5262 Haze 14 1016 82 2500 2.4 39 23:48 22.11.2020
5263 Haze 16 1016 72 2500 2.67 35 22:22 22.11.2020
5264 Haze 16 1016 72 2500 2.61 27 21:24 22.11.2020
5265 Haze 17 1018 72 2500 2.38 29 20:19 22.11.2020
5266 Haze 17 1018 72 2500 2.48 31 18:59 22.11.2020
5267 Haze 18 1018 68 2500 2.62 30 18:19 22.11.2020
5268 Haze 20 1017 56 2500 2.83 45 16:25 22.11.2020
5269 Haze 21 1016 56 2500 2.86 68 14:58 22.11.2020
5270 Haze 24 1015 44 3000 1.9 75 13:23 22.11.2020
5271 Haze 26 1015 39 3000 1.5 10 12:42 22.11.2020
5272 Haze 28 1014 32 4000 1.52 15 11:39 22.11.2020
5273 Haze 27 1014 34 4000 1.86 346 10:47 22.11.2020
5274 Haze 27 1014 34 4000 1.6 350 10:29 22.11.2020
5275 Haze 16 1017 67 2500 1 20 02:47 22.11.2020
5276 Haze 17 1015 59 2500 1.5 10 23:56 21.11.2020
5277 Haze 17 1015 59 2500 1.5 50 22:41 21.11.2020
5278 Haze 18 1016 55 2500 1.5 30 21:30 21.11.2020
5279 Haze 19 1016 52 2500 1.5 60 20:49 21.11.2020
5280 Haze 20 1016 45 2500 1.5 60 20:18 21.11.2020
5281 Haze 20 1016 45 2500 1.5 60 19:39 21.11.2020
5282 Haze 21 1016 52 2500 1.5 60 18:50 21.11.2020
5283 Haze 22 1016 53 2500 1.5 60 17:30 21.11.2020
5284 Haze 22 1016 60 2500 1.5 60 16:44 21.11.2020
5285 Haze 23 1015 60 2500 1 60 15:40 21.11.2020
5286 Haze 23 1015 64 2500 2.99 39 15:19 21.11.2020
5287 Haze 23 1014 64 2500 2.99 39 14:39 21.11.2020
5288 Haze 27 1013 51 2500 2.12 37 12:43 21.11.2020
5289 Haze 27 1013 51 2500 1 40 12:20 21.11.2020
5290 Haze 27 1013 47 2500 1.5 50 11:23 21.11.2020
5291 Haze 27 1014 51 2500 1.5 60 10:27 21.11.2020
5292 Haze 27 1015 44 2500 3.1 30 08:52 21.11.2020
5293 Haze 26 1016 47 2500 2.1 50 07:52 21.11.2020
5294 Haze 23 1018 53 2500 1.5 40 05:40 21.11.2020
5295 Haze 21 1015 68 2000 2.1 30 01:56 21.11.2020
5296 Clouds 19 1013 73 10000 2.41 23 23:59 20.11.2020
5297 Mist 22 1014 78 2000 1 50 22:31 20.11.2020
5298 Mist 22 1014 83 2000 2.1 30 21:44 20.11.2020
5299 Mist 23 1014 83 2000 1 30 21:21 20.11.2020
5300 Mist 23 1014 83 2000 1 30 21:21 20.11.2020
5301 Mist 23 1015 88 2000 1 40 19:52 20.11.2020
5302 Mist 23 1015 88 2500 2.1 40 18:53 20.11.2020
5303 Haze 24 1015 83 3000 1 50 17:53 20.11.2020
5304 Haze 24 1015 83 3000 1 50 17:28 20.11.2020
5305 Haze 25 1014 78 3000 1.5 50 16:40 20.11.2020
5306 Haze 25 1014 78 3000 1.5 60 15:59 20.11.2020
5307 Haze 25 1013 83 3000 2.1 60 15:34 20.11.2020
5308 Haze 27 1012 74 3000 2.1 350 13:48 20.11.2020
5309 Haze 27 1012 74 2500 1.5 320 13:19 20.11.2020
5310 Haze 28 1011 69 2500 3.16 203 12:36 20.11.2020
5311 Haze 28 1011 74 2500 3.42 217 11:46 20.11.2020
5312 Haze 27 1012 78 3000 4.05 221 11:20 20.11.2020
5313 Clouds 27 1013 74 2000 4.1 260 09:31 20.11.2020
5314 Haze 29 1014 62 5000 4.1 240 08:26 20.11.2020
5315 Haze 28 1015 61 5000 2.6 240 07:34 20.11.2020
5316 Mist 23 1014 88 2000 1 150 03:44 20.11.2020
5317 Clouds 23 1013 94 1500 0.95 176 22:47 19.11.2020
5318 Clouds 23 1013 94 1500 1.39 192 22:26 19.11.2020
5319 Clouds 22 1013 94 1500 0.5 160 21:46 19.11.2020
5320 Clouds 22 1013 94 1500 3.1 160 20:33 19.11.2020
5321 Clouds 23 1014 88 1200 2.1 200 19:53 19.11.2020
5322 Clouds 23 1014 88 1200 2.1 200 19:24 19.11.2020
5323 Rain 25 1013 69 3000 0.5 140 17:40 19.11.2020
5324 Rain 26 1013 65 3000 1.5 140 16:54 19.11.2020
5325 Haze 26 1012 65 3000 1.5 150 15:40 19.11.2020
5326 Haze 26 1011 65 3000 1.5 150 15:18 19.11.2020
5327 Haze 28 1011 61 4000 1 150 13:46 19.11.2020
5328 Haze 28 1011 61 4000 1 150 13:46 19.11.2020
5329 Haze 31 1011 48 4000 0.61 225 13:19 19.11.2020
5330 Haze 31 1011 45 5000 0.46 232 12:35 19.11.2020
5331 Haze 32 1011 43 5000 1.5 230 11:50 19.11.2020
5332 Haze 32 1011 43 5000 1.5 230 11:32 19.11.2020
5333 Haze 31 1011 48 5000 3.1 210 10:53 19.11.2020
5334 Haze 32 1011 46 5000 1.5 220 10:18 19.11.2020
5335 Haze 32 1012 43 5000 3.1 250 09:38 19.11.2020
5336 Haze 31 1012 48 5000 2.6 250 09:18 19.11.2020
5337 Haze 30 1014 51 5000 4.1 190 08:19 19.11.2020
5338 Haze 19 1013 82 3000 1.26 127 02:44 19.11.2020
5339 Haze 20 1013 82 3000 0.92 87 01:30 19.11.2020
5340 Haze 21 1012 73 3000 0.46 18 23:47 18.11.2020
5341 Haze 21 1012 73 3000 0.69 275 23:24 18.11.2020
5342 Haze 21 1012 73 3000 1 300 22:30 18.11.2020
5343 Haze 21 1012 73 3000 1.2 248 21:47 18.11.2020
5344 Haze 21 1012 73 3000 2.19 205 21:27 18.11.2020
5345 Haze 21 1013 77 3000 2.19 205 20:41 18.11.2020
5346 Haze 21 1014 77 3000 2.81 182 19:46 18.11.2020
5347 Haze 21 1014 77 3000 3.17 179 19:25 18.11.2020
5348 Haze 22 1014 68 3000 2.58 186 18:49 18.11.2020
5349 Haze 23 1014 64 3000 2.69 173 17:55 18.11.2020
5350 Haze 24 1014 57 3000 1 180 16:58 18.11.2020
5351 Haze 25 1013 57 3000 1 170 16:21 18.11.2020
5352 Haze 26 1013 50 3000 1 180 14:49 18.11.2020
5353 Haze 26 1013 50 3000 1 180 14:29 18.11.2020
5354 Haze 28 1012 48 4000 1 180 13:37 18.11.2020
5355 Haze 31 1012 38 5000 2.1 180 12:45 18.11.2020
5356 Haze 32 1012 33 5000 2.6 180 12:18 18.11.2020
5357 Haze 32 1012 33 5000 2.1 160 11:25 18.11.2020
5358 Haze 33 1012 33 5000 2.6 180 10:31 18.11.2020
5359 Haze 31 1013 40 5000 2.1 250 08:52 18.11.2020
5360 Haze 30 1015 48 5000 2.1 210 07:36 18.11.2020
5361 Haze 29 1016 51 5000 1 120 06:29 18.11.2020
5362 Haze 20 1012 82 3000 1.33 66 00:22 18.11.2020
5363 Haze 20 1012 82 3000 1.33 66 23:31 17.11.2020
5364 Haze 21 1012 83 3000 1.27 67 22:46 17.11.2020
5365 Haze 21 1012 83 3000 0.8 53 22:27 17.11.2020
5366 Haze 22 1012 78 3000 0.8 53 21:49 17.11.2020
5367 Haze 22 1012 78 3000 0.34 344 21:29 17.11.2020
5368 Haze 22 1013 78 3000 0.34 344 20:44 17.11.2020
5369 Haze 22 1013 78 3000 0.59 298 20:24 17.11.2020
5370 Haze 23 1013 73 3000 0.59 298 19:50 17.11.2020
5371 Haze 24 1013 69 3000 1.14 280 18:24 17.11.2020
5372 Haze 24 1013 69 3000 1.14 280 17:33 17.11.2020
5373 Haze 24 1013 69 3000 1.5 160 16:37 17.11.2020
5374 Haze 25 1012 65 3000 2.1 150 16:18 17.11.2020
5375 Haze 26 1012 57 4000 2.5 184 15:38 17.11.2020
5376 Haze 25 1012 61 4000 2.06 167 15:20 17.11.2020
5377 Haze 27 1012 51 4000 1.27 130 14:30 17.11.2020
5378 Haze 28 1011 51 5000 1.27 130 13:45 17.11.2020
5379 Haze 28 1011 51 5000 1.03 97 13:22 17.11.2020
5380 Haze 32 1011 35 5000 1.03 97 12:42 17.11.2020
5381 Haze 32 1011 35 5000 0.39 104 11:45 17.11.2020
5382 Haze 32 1011 33 5000 0.22 40 11:21 17.11.2020
5383 Haze 32 1011 35 5000 1 130 10:39 17.11.2020
5384 Haze 33 1012 36 5000 0.42 84 09:53 17.11.2020
5385 Haze 31 1012 43 5000 0.42 84 09:34 17.11.2020
5386 Haze 31 1014 45 5000 1.65 94 08:26 17.11.2020
5387 Haze 31 1014 48 5000 1.65 94 07:57 17.11.2020
5388 Haze 31 1015 48 5000 2.21 88 07:28 17.11.2020
5389 Haze 26 1016 57 3000 2.11 58 04:29 17.11.2020
5390 Mist 20 1015 82 2500 1 300 03:22 17.11.2020
5391 Mist 19 1015 88 2500 1 250 02:28 17.11.2020
5392 Haze 21 1014 77 3000 1.83 30 00:56 17.11.2020
5393 Clouds 21 1012 62 10000 1.82 26 23:52 16.11.2020
5394 Haze 22 1014 73 3000 1.5 350 23:29 16.11.2020
5395 Haze 22 1014 73 3000 1.5 350 22:48 16.11.2020
5396 Haze 21 1014 77 3000 1.75 2 22:21 16.11.2020
5397 Haze 21 1014 77 3000 1.75 2 21:49 16.11.2020
5398 Haze 21 1014 77 3000 2.06 4 21:25 16.11.2020
5399 Haze 22 1015 73 3000 1 350 20:58 16.11.2020
5400 Haze 22 1015 73 3000 1 350 20:25 16.11.2020
5401 Haze 22 1015 78 3000 1.52 16 19:42 16.11.2020
5402 Haze 22 1015 78 3000 0.38 58 19:24 16.11.2020
5403 Haze 23 1015 69 3000 0.38 58 18:42 16.11.2020
5404 Haze 22 1015 73 3000 2.1 170 17:53 16.11.2020
5405 Haze 24 1015 69 3000 0.97 194 17:25 16.11.2020
5406 Haze 24 1015 69 3000 0.97 194 16:56 16.11.2020
5407 Haze 24 1015 64 3000 0.97 194 16:36 16.11.2020
5408 Haze 25 1014 61 3000 0.86 165 16:18 16.11.2020
5409 Haze 26 1014 57 3000 0.86 165 15:41 16.11.2020
5410 Haze 27 1014 57 3000 0.97 119 15:21 16.11.2020
5411 Haze 26 1014 57 3000 0.97 119 14:39 16.11.2020
5412 Haze 29 1013 51 3000 1 230 13:34 16.11.2020
5413 Haze 33 1012 36 4000 1.5 200 12:34 16.11.2020
5414 Haze 33 1012 36 5000 1.36 82 11:54 16.11.2020
5415 Haze 33 1012 33 5000 1.36 82 11:36 16.11.2020
5416 Haze 33 1013 36 5000 1 150 11:18 16.11.2020
5417 Haze 33 1013 33 5000 1.69 75 10:39 16.11.2020
5418 Haze 32 1013 31 5000 1 110 10:20 16.11.2020
5419 Haze 31 1014 43 5000 1 150 09:41 16.11.2020
5420 Haze 32 1014 40 5000 2.05 72 08:53 16.11.2020
5421 Haze 31 1015 43 5000 2.05 72 08:34 16.11.2020
5422 Haze 30 1016 45 5000 2.35 85 07:43 16.11.2020
5423 Haze 30 1016 45 5000 2.35 85 07:43 16.11.2020
5424 Haze 28 1017 51 5000 2.55 90 06:47 16.11.2020
5425 Haze 28 1017 51 5000 1 90 05:53 16.11.2020
5426 Haze 25 1017 61 4000 2.83 74 04:36 16.11.2020
5427 Haze 19 1014 77 2500 1.98 36 01:47 16.11.2020
5428 Haze 19 1014 77 2500 2.13 16 01:21 16.11.2020
5429 Haze 19 1014 77 2500 1.91 24 23:48 15.11.2020
5430 Haze 19 1014 77 2500 1.57 44 23:21 15.11.2020
5431 Haze 19 1014 77 2500 1.57 44 22:39 15.11.2020
5432 Haze 19 1014 77 2500 1.53 38 22:18 15.11.2020
5433 Haze 19 1014 77 2500 1.53 38 21:41 15.11.2020
5434 Haze 21 1015 73 3000 1.33 38 21:20 15.11.2020
5435 Haze 21 1015 73 3000 1.33 38 20:41 15.11.2020
5436 Haze 20 1015 72 3000 1.29 46 20:18 15.11.2020
5437 Haze 20 1015 72 3000 1.29 46 19:43 15.11.2020
5438 Haze 20 1015 72 3000 1.01 51 19:22 15.11.2020
5439 Haze 22 1015 64 3000 0.96 39 18:55 15.11.2020
5440 Haze 22 1015 64 3000 0.96 39 18:37 15.11.2020
5441 Haze 22 1015 64 3000 0.77 34 18:18 15.11.2020
5442 Haze 21 1015 68 3000 0.77 34 17:42 15.11.2020
5443 Haze 21 1015 68 3000 0.94 67 17:22 15.11.2020
5444 Haze 23 1014 56 3000 0.94 67 16:44 15.11.2020
5445 Haze 23 1014 56 3000 1.23 94 16:20 15.11.2020
5446 Haze 23 1014 56 3000 1.23 94 15:49 15.11.2020
5447 Haze 23 1014 56 3000 1.29 116 15:26 15.11.2020
5448 Haze 24 1014 53 3000 1.29 116 14:54 15.11.2020
5449 Haze 25 1014 50 3000 1 110 14:28 15.11.2020
5450 Haze 26 1013 47 4000 1.89 130 13:53 15.11.2020
5451 Haze 27 1013 44 5000 1.5 90 13:34 15.11.2020
5452 Haze 30 1013 37 5000 1.5 90 12:50 15.11.2020
5453 Haze 31 1013 33 5000 2.8 115 12:20 15.11.2020
5454 Haze 31 1013 33 5000 2.8 115 11:45 15.11.2020
5455 Haze 31 1013 33 5000 3.65 108 11:19 15.11.2020
5456 Haze 31 1013 33 5000 3.65 108 10:53 15.11.2020
5457 Haze 31 1013 33 5000 3.65 108 10:31 15.11.2020
5458 Haze 31 1013 33 5000 2.6 110 09:56 15.11.2020
5459 Haze 31 1014 33 5000 2.1 90 09:33 15.11.2020
5460 Haze 30 1014 35 5000 2.6 120 08:59 15.11.2020
5461 Haze 30 1015 37 5000 1 120 08:41 15.11.2020
5462 Haze 29 1016 45 5000 2.6 110 07:46 15.11.2020
5463 Haze 28 1017 48 5000 1 130 06:42 15.11.2020
5464 Haze 25 1017 61 4000 1.5 70 04:54 15.11.2020
5465 Haze 18 1014 88 2500 1 20 02:21 15.11.2020
5466 Haze 19 1014 82 2500 2.23 30 00:31 15.11.2020
5467 Clouds 20 1012 74 10000 2.09 39 23:54 14.11.2020
5468 Smoke 20 1014 77 2000 1.84 44 22:59 14.11.2020
5469 Smoke 20 1014 77 2000 1.84 44 22:41 14.11.2020
5470 Smoke 20 1014 77 1500 1.79 52 22:19 14.11.2020
5471 Smoke 20 1014 77 1500 1.79 52 21:39 14.11.2020
5472 Smoke 21 1014 73 1000 1.83 45 21:20 14.11.2020
5473 Smoke 21 1014 73 1000 1.83 45 20:47 14.11.2020
5474 Smoke 21 1014 73 1000 1.94 58 20:24 14.11.2020
5475 Smoke 21 1015 73 1000 1.94 58 19:36 14.11.2020
5476 Smoke 21 1015 73 1000 1.88 66 18:59 14.11.2020
5477 Smoke 21 1015 73 1000 2.01 63 18:39 14.11.2020
5478 Smoke 22 1015 64 1000 1.72 78 18:21 14.11.2020
5479 Smoke 23 1014 60 1500 1.72 78 17:44 14.11.2020
5480 Smoke 23 1014 60 1500 1.69 91 17:26 14.11.2020
5481 Haze 23 1014 60 3000 1.69 91 16:52 14.11.2020
5482 Haze 23 1014 60 3000 1.69 91 16:31 14.11.2020
5483 Haze 23 1014 56 3000 1.77 82 15:54 14.11.2020
5484 Haze 23 1013 60 4000 1.77 82 15:31 14.11.2020
5485 Haze 24 1013 57 4000 1 90 14:56 14.11.2020
5486 Haze 25 1013 61 4000 1 110 14:30 14.11.2020
5487 Haze 27 1012 42 4000 1 100 13:52 14.11.2020
5488 Haze 28 1012 42 4000 1 100 13:30 14.11.2020
5489 Haze 29 1012 39 5000 1 110 12:52 14.11.2020
5490 Haze 31 1012 38 5000 1.5 100 12:33 14.11.2020
5491 Haze 31 1012 38 5000 1.5 120 11:56 14.11.2020
5492 Haze 32 1012 35 5000 2.1 110 11:37 14.11.2020
5493 Haze 32 1012 29 5000 1 140 10:59 14.11.2020
5494 Haze 31 1012 33 5000 2.1 120 10:38 14.11.2020
5495 Haze 31 1013 35 5000 3.1 110 10:20 14.11.2020
5496 Haze 31 1013 38 5000 3.1 110 09:43 14.11.2020
5497 Haze 31 1013 38 5000 3.1 110 09:23 14.11.2020
5498 Haze 30 1014 42 5000 3.21 98 08:40 14.11.2020
5499 Haze 29 1016 45 5000 3.44 102 08:20 14.11.2020
5500 Haze 29 1016 45 5000 3.44 102 07:41 14.11.2020
5501 Haze 29 1017 45 5000 3.7 96 06:43 14.11.2020
5502 Haze 27 1017 54 5000 3.37 88 06:20 14.11.2020
5503 Haze 25 1017 61 3500 3.05 81 04:45 14.11.2020
5504 Haze 21 1014 83 3000 1.85 50 01:48 14.11.2020
5505 Haze 20 1014 88 3000 2.03 34 00:25 14.11.2020
5506 Haze 20 1014 88 3000 2.03 34 23:33 13.11.2020
5507 Haze 20 1014 82 3000 2.31 31 22:58 13.11.2020
5508 Haze 20 1014 82 3000 2.31 31 22:39 13.11.2020
5509 Haze 21 1015 77 3000 2.23 30 22:20 13.11.2020
5510 Haze 21 1015 77 3000 2.23 30 21:44 13.11.2020
5511 Haze 21 1015 77 3000 2.16 31 21:23 13.11.2020
5512 Haze 21 1015 77 3000 2.16 31 20:51 13.11.2020
5513 Haze 21 1015 77 3000 2.16 31 20:32 13.11.2020
5514 Haze 21 1015 77 3000 2.17 33 19:54 13.11.2020
5515 Haze 21 1015 77 3000 2.17 33 19:36 13.11.2020
5516 Haze 21 1015 77 3000 2.17 33 19:36 13.11.2020
5517 Haze 23 1016 73 3000 1.88 49 19:18 13.11.2020
5518 Haze 23 1016 73 3000 1.78 54 18:32 13.11.2020
5519 Haze 23 1016 73 3000 1.78 54 18:32 13.11.2020
5520 Haze 23 1016 69 3000 1.84 75 17:44 13.11.2020
5521 Haze 23 1016 69 3000 1.8 73 17:21 13.11.2020
5522 Haze 25 1015 61 3000 1.8 73 16:51 13.11.2020
5523 Haze 25 1015 61 3000 1.52 61 16:25 13.11.2020
5524 Haze 25 1015 61 3000 1.52 61 16:25 13.11.2020
5525 Haze 25 1015 61 3000 1.52 61 16:25 13.11.2020
5526 Haze 25 1015 61 3000 1.52 61 15:59 13.11.2020
5527 Haze 26 1015 57 3000 1.5 60 15:39 13.11.2020
5528 Haze 26 1015 54 3000 1.39 57 15:20 13.11.2020
5529 Haze 26 1014 54 3000 1.39 57 14:37 13.11.2020
5530 Haze 27 1014 51 4000 1.45 56 14:18 13.11.2020
5531 Haze 28 1014 51 4000 1.45 56 13:31 13.11.2020
5532 Haze 31 1013 43 5000 1.55 59 12:55 13.11.2020
5533 Haze 31 1013 43 5000 1.55 59 12:37 13.11.2020
5534 Haze 31 1013 43 5000 1.83 71 12:18 13.11.2020
5535 Haze 31 1013 43 5000 1 90 11:45 13.11.2020
5536 Haze 31 1014 45 5000 2.1 70 11:20 13.11.2020
5537 Haze 31 1014 45 5000 2.1 70 10:41 13.11.2020
5538 Haze 31 1014 45 5000 2.1 70 10:23 13.11.2020
5539 Haze 31 1015 45 5000 1 80 09:47 13.11.2020
5540 Haze 31 1015 45 5000 1 80 09:25 13.11.2020
5541 Haze 31 1015 43 5000 2.73 93 08:53 13.11.2020
5542 Haze 30 1016 51 5000 0.5 30 08:23 13.11.2020
5543 Haze 29 1017 51 5000 1.5 150 07:49 13.11.2020
5544 Haze 29 1017 51 5000 1.5 150 07:27 13.11.2020
5545 Haze 29 1018 54 5000 3.42 99 06:55 13.11.2020
5546 Haze 28 1018 58 5000 1.5 120 06:34 13.11.2020
5547 Haze 28 1018 58 5000 1.5 120 06:34 13.11.2020
5548 Haze 26 1019 65 4000 1 90 05:40 13.11.2020
5549 Mist 22 1017 83 2500 1 60 02:57 13.11.2020
5550 Mist 21 1015 83 2500 2.21 46 01:39 13.11.2020
5551 Haze 22 1015 83 3000 2.14 38 00:35 13.11.2020
5552 Clouds 20 1014 81 10000 2.24 38 23:47 12.11.2020
5553 Haze 23 1015 78 3000 2.26 38 23:20 12.11.2020
5554 Haze 23 1015 78 3000 2.26 38 22:54 12.11.2020
5555 Haze 23 1015 78 3000 2.26 38 22:36 12.11.2020
5556 Haze 23 1016 78 3000 1 40 21:57 12.11.2020
5557 Haze 23 1016 78 3000 1 40 21:38 12.11.2020
5558 Haze 24 1016 73 3000 2.06 53 21:18 12.11.2020
5559 Haze 24 1016 73 3000 2.06 53 20:40 12.11.2020
5560 Haze 24 1016 73 3000 2.1 74 20:22 12.11.2020
5561 Haze 24 1016 73 3000 2.1 74 19:52 12.11.2020
5562 Haze 24 1016 73 3000 2.1 74 19:33 12.11.2020
5563 Haze 25 1017 69 3000 1.5 60 18:56 12.11.2020
5564 Haze 25 1017 69 3000 1.5 60 18:56 12.11.2020
5565 Haze 25 1017 69 3000 1.5 60 18:37 12.11.2020
5566 Haze 25 1017 69 3000 2.33 60 18:18 12.11.2020
5567 Haze 25 1017 69 3000 1 50 17:39 12.11.2020
5568 Haze 25 1017 69 3000 1.5 50 17:20 12.11.2020
5569 Haze 25 1016 69 3000 2.28 60 16:44 12.11.2020
5570 Haze 26 1016 65 3000 1.93 47 16:23 12.11.2020
5571 Haze 26 1016 65 3000 1.93 47 15:46 12.11.2020
5572 Haze 26 1016 65 3000 1.58 32 15:26 12.11.2020
5573 Haze 26 1015 65 3000 1.58 32 14:47 12.11.2020
5574 Haze 26 1015 65 3000 1.58 32 14:47 12.11.2020
5575 Haze 27 1015 61 3000 1.17 41 14:27 12.11.2020
5576 Haze 27 1015 61 3000 1.17 41 14:27 12.11.2020
5577 Haze 27 1015 61 3000 1.17 41 13:57 12.11.2020
5578 Haze 27 1014 61 3000 1.17 41 13:37 12.11.2020
5579 Haze 28 1014 58 3000 0.5 70 13:18 12.11.2020
5580 Haze 29 1014 54 3000 1.5 70 12:44 12.11.2020
5581 Haze 30 1014 51 3000 1.94 88 12:23 12.11.2020
5582 Haze 30 1014 51 3000 1.94 88 11:52 12.11.2020
5583 Haze 30 1014 48 3000 1 100 11:30 12.11.2020
5584 Haze 30 1014 51 4000 1.5 60 10:45 12.11.2020
5585 Haze 30 1014 51 4000 1.5 60 10:27 12.11.2020
5586 Haze 30 1015 51 5000 1 50 09:49 12.11.2020
5587 Haze 30 1015 51 5000 1 50 09:24 12.11.2020
5588 Haze 30 1016 51 5000 1 50 08:57 12.11.2020
5589 Haze 30 1016 55 5000 1 340 08:39 12.11.2020
5590 Haze 29 1018 58 5000 1 60 08:20 12.11.2020
5591 Haze 29 1018 58 5000 1 60 08:20 12.11.2020
5592 Haze 29 1018 58 5000 1 60 07:52 12.11.2020
5593 Haze 29 1018 58 5000 1 60 07:25 12.11.2020
5594 Haze 29 1018 58 5000 1 70 06:51 12.11.2020
5595 Haze 25 1019 65 3000 2.1 60 05:38 12.11.2020
5596 Mist 20 1018 72 2500 3.19 44 03:43 12.11.2020
5597 Mist 18 1018 77 2500 2.56 26 03:18 12.11.2020
5598 Haze 17 1016 77 3000 1 30 00:23 12.11.2020
5599 Haze 19 1015 68 3000 1 30 23:26 11.11.2020
5600 Haze 19 1015 68 3000 1 30 23:26 11.11.2020
5601 Haze 19 1016 63 3000 2.1 20 22:59 11.11.2020
5602 Haze 19 1016 63 3000 2.1 20 22:41 11.11.2020
5603 Haze 20 1016 56 3000 1 20 22:21 11.11.2020
5604 Haze 20 1016 56 3000 1 20 21:56 11.11.2020
5605 Haze 20 1016 56 3000 1 20 21:36 11.11.2020
5606 Haze 20 1016 56 3000 1 360 21:18 11.11.2020
5607 Haze 20 1016 56 3000 1 360 20:41 11.11.2020
5608 Haze 20 1016 56 3000 1 340 20:21 11.11.2020
5609 Haze 20 1016 56 3000 1 340 19:50 11.11.2020
5610 Haze 20 1016 56 3000 1 340 19:32 11.11.2020
5611 Haze 21 1016 52 3000 1.5 340 18:55 11.11.2020
5612 Haze 21 1016 52 3000 1.5 340 18:36 11.11.2020
5613 Haze 22 1016 49 3000 2.1 360 17:45 11.11.2020
5614 Haze 22 1016 49 3000 1.5 360 17:24 11.11.2020
5615 Haze 22 1016 49 3000 1.5 360 16:57 11.11.2020
5616 Haze 23 1016 49 3000 1 360 16:35 11.11.2020
5617 Haze 23 1016 46 3000 2.1 360 15:56 11.11.2020
5618 Haze 23 1016 49 3000 2.1 360 15:37 11.11.2020
5619 Haze 23 1015 49 3000 1.5 350 15:18 11.11.2020
5620 Haze 23 1015 49 3000 1.69 353 14:43 11.11.2020
5621 Haze 23 1015 49 3000 1.53 358 14:23 11.11.2020
5622 Haze 27 1014 34 4000 1 50 13:43 11.11.2020
5623 Haze 28 1014 32 5000 1.42 15 12:55 11.11.2020
5624 Haze 29 1013 30 5000 1.47 34 12:21 11.11.2020
5625 Haze 29 1013 30 5000 1.47 34 11:51 11.11.2020
5626 Haze 29 1013 28 5000 1.47 34 11:33 11.11.2020
5627 Haze 29 1014 28 5000 1 10 10:45 11.11.2020
5628 Haze 29 1014 28 5000 1 10 10:27 11.11.2020
5629 Haze 29 1014 28 5000 1 70 09:55 11.11.2020
5630 Haze 28 1014 30 4000 2.6 100 09:37 11.11.2020
5631 Haze 28 1015 30 4000 1 70 09:19 11.11.2020
5632 Haze 28 1016 32 4000 1 20 08:41 11.11.2020
5633 Haze 28 1016 30 4000 2.6 80 08:22 11.11.2020
5634 Haze 27 1017 34 3000 2.6 60 07:41 11.11.2020
5635 Haze 25 1018 41 3000 2.1 60 06:30 11.11.2020
5636 Haze 20 1018 56 2500 2.71 48 04:49 11.11.2020
5637 Mist 13 1015 76 2500 2.18 21 01:37 11.11.2020
5638 Mist 13 1015 76 2500 2.18 21 01:36 11.11.2020
5639 Haze 14 1014 67 2500 1.96 14 00:56 11.11.2020
5640 Haze 14 1014 71 2500 1.95 13 00:22 11.11.2020
5641 Haze 14 1014 71 2500 1.95 13 23:36 10.11.2020
5642 Haze 15 1014 67 2500 2.24 7 23:18 10.11.2020
5643 Haze 15 1014 67 2500 2.24 7 22:43 10.11.2020
5644 Haze 15 1015 67 2500 1.5 10 22:20 10.11.2020
5645 Haze 15 1015 67 2500 1.5 10 21:40 10.11.2020
5646 Haze 15 1015 67 2500 2.86 355 21:22 10.11.2020
5647 Haze 15 1015 67 2500 2.86 355 20:44 10.11.2020
5648 Haze 15 1015 67 2500 2.88 357 20:24 10.11.2020
5649 Haze 16 1016 63 2500 2.88 357 19:58 10.11.2020
5650 Haze 16 1016 63 2500 2.88 357 19:39 10.11.2020
5651 Haze 17 1016 63 2500 1 330 19:21 10.11.2020
5652 Haze 17 1016 63 2500 1 330 18:42 10.11.2020
5653 Haze 17 1016 63 2500 2.12 28 18:21 10.11.2020
5654 Haze 17 1016 63 2500 2.12 28 17:47 10.11.2020
5655 Haze 17 1016 63 2500 1.82 51 17:28 10.11.2020
5656 Haze 17 1016 63 2500 1.82 51 16:58 10.11.2020
5657 Haze 18 1015 55 2500 1.82 51 16:40 10.11.2020
5658 Haze 19 1015 42 2500 1.3 59 16:22 10.11.2020
5659 Haze 20 1015 40 2500 1.3 59 15:48 10.11.2020
5660 Haze 20 1015 40 2500 1.28 62 15:27 10.11.2020
5661 Haze 21 1014 32 2500 1 60 14:47 10.11.2020
5662 Haze 23 1014 27 2500 1 60 14:24 10.11.2020
5663 Haze 23 1014 27 2500 1 60 14:00 10.11.2020
5664 Haze 24 1013 27 2500 1 60 13:38 10.11.2020
5665 Haze 26 1013 24 2500 1 50 13:19 10.11.2020
5666 Haze 27 1013 26 3000 1 40 12:45 10.11.2020
5667 Haze 27 1013 26 3000 1 40 12:24 10.11.2020
5668 Haze 27 1013 26 3000 1 40 12:24 10.11.2020
5669 Haze 28 1013 23 3000 2.6 20 11:43 10.11.2020
5670 Haze 28 1013 24 3000 2.1 60 11:21 10.11.2020
5671 Haze 28 1013 24 3000 2.1 60 10:57 10.11.2020
5672 Haze 28 1013 20 3000 1.5 50 10:37 10.11.2020
5673 Haze 28 1013 20 3000 2.6 50 10:19 10.11.2020
5674 Haze 28 1014 23 3000 1 40 09:43 10.11.2020
5675 Haze 28 1014 23 3000 1 40 09:24 10.11.2020
5676 Haze 28 1014 23 3000 1 40 09:24 10.11.2020
5677 Haze 28 1014 23 2500 1.5 70 08:52 10.11.2020
5678 Haze 27 1015 28 2500 1 50 08:26 10.11.2020
5679 Haze 26 1016 31 2500 3.1 90 07:44 10.11.2020
5680 Haze 26 1016 31 2500 3.1 90 07:44 10.11.2020
5681 Haze 26 1016 31 2500 3.1 90 07:22 10.11.2020
5682 Haze 24 1017 38 2500 2.1 60 06:40 10.11.2020
5683 Haze 22 1017 43 2500 1 70 05:42 10.11.2020
5684 Haze 21 1017 46 2000 1 10 04:54 10.11.2020
5685 Haze 12 1016 81 2000 1 10 02:29 10.11.2020
5686 Haze 11 1015 87 2000 1.93 33 01:30 10.11.2020
5687 Clear 14 1014 42 10000 2.1 15 23:54 09.11.2020
5688 Haze 16 1014 63 2000 2.1 15 23:33 09.11.2020
5689 Haze 16 1014 63 2000 2.25 12 22:47 09.11.2020
5690 Haze 16 1014 63 2000 2.18 9 22:24 09.11.2020
5691 Haze 14 1015 76 2000 2.18 9 21:54 09.11.2020
5692 Haze 14 1015 76 2000 2.18 9 21:36 09.11.2020
5693 Haze 14 1016 76 2000 1.84 6 21:18 09.11.2020
5694 Haze 14 1016 76 2000 1.84 6 20:37 09.11.2020
5695 Haze 15 1016 72 2000 1.35 17 20:18 09.11.2020
5696 Haze 15 1016 72 2000 1.35 17 19:41 09.11.2020
5697 Haze 15 1016 72 2000 1.62 360 19:21 09.11.2020
5698 Haze 17 1017 63 2000 1.62 360 18:41 09.11.2020
5699 Haze 17 1017 63 2000 2.09 347 18:20 09.11.2020
5700 Haze 18 1017 63 2000 2.09 347 17:52 09.11.2020
5701 Haze 18 1017 63 2000 2.09 347 17:31 09.11.2020
5702 Haze 18 1017 55 2000 2.4 360 16:46 09.11.2020
5703 Haze 18 1017 55 2000 1.67 22 16:28 09.11.2020
5704 Haze 20 1016 49 2000 1.67 22 15:51 09.11.2020
5705 Haze 20 1016 49 2000 1.67 22 15:31 09.11.2020
5706 Haze 20 1016 45 2000 1.11 83 14:59 09.11.2020
5707 Haze 21 1015 30 2000 1.11 83 14:40 09.11.2020
5708 Haze 23 1015 23 2000 1.77 99 14:22 09.11.2020
5709 Haze 23 1015 31 2000 1.77 99 13:43 09.11.2020
5710 Haze 26 1014 31 2000 1.82 84 13:19 09.11.2020
5711 Haze 28 1014 21 2000 1.82 84 12:47 09.11.2020
5712 Haze 28 1014 21 2000 1 50 12:21 09.11.2020
5713 Haze 28 1014 20 2000 1.48 78 11:43 09.11.2020
5714 Haze 28 1014 20 2000 1.72 64 11:25 09.11.2020
5715 Haze 29 1015 20 2000 1 90 10:59 09.11.2020
5716 Haze 29 1015 20 2000 1 90 10:41 09.11.2020
5717 Haze 29 1015 20 2000 1 20 10:22 09.11.2020
5718 Haze 29 1016 20 2000 1.5 70 09:40 09.11.2020
5719 Haze 28 1017 21 2000 1 70 09:22 09.11.2020
5720 Haze 28 1017 24 2000 1.5 80 08:37 09.11.2020
5721 Haze 27 1018 28 2000 1.5 80 08:18 09.11.2020
5722 Haze 26 1018 29 2000 2.6 60 07:38 09.11.2020
5723 Haze 25 1019 33 2000 1 60 07:18 09.11.2020
5724 Haze 23 1020 40 3000 1 10 05:54 09.11.2020
5725 Haze 15 1018 67 2500 1 340 02:58 09.11.2020
5726 Haze 15 1017 67 3000 2.08 18 01:42 09.11.2020
5727 Haze 16 1017 63 3000 2.07 14 00:57 09.11.2020
5728 Clear 15 1016 47 10000 2.1 17 23:50 08.11.2020
5729 Haze 15 1017 72 3000 2.19 19 23:28 08.11.2020
5730 Haze 15 1017 72 3000 2.19 19 22:45 08.11.2020
5731 Haze 17 1017 63 3000 1 340 22:22 08.11.2020
5732 Haze 17 1017 63 3000 1 340 21:52 08.11.2020
5733 Haze 17 1017 63 3000 1 340 21:24 08.11.2020
5734 Haze 17 1018 63 3000 1 350 20:59 08.11.2020
5735 Haze 17 1018 63 3000 1 350 20:39 08.11.2020
5736 Haze 17 1018 63 3000 1 340 20:20 08.11.2020
5737 Haze 17 1018 63 3000 1 340 19:46 08.11.2020
5738 Haze 17 1018 63 3000 1 340 19:24 08.11.2020
5739 Haze 17 1019 59 3000 2.55 355 18:59 08.11.2020
5740 Haze 17 1019 59 3000 2.45 356 18:41 08.11.2020
5741 Haze 18 1019 59 3000 2.58 3 18:21 08.11.2020
5742 Haze 18 1019 59 3000 2.58 3 17:56 08.11.2020
5743 Haze 19 1019 55 3000 2.58 3 17:36 08.11.2020
5744 Haze 17 1019 67 3000 1.86 5 17:18 08.11.2020
5745 Haze 17 1018 67 3000 1.86 5 16:38 08.11.2020
5746 Haze 19 1018 59 3000 1.27 8 16:20 08.11.2020
5747 Haze 20 1018 49 3000 1.27 8 15:46 08.11.2020
5748 Haze 20 1018 49 3000 1.17 18 15:28 08.11.2020
5749 Haze 21 1017 46 3000 1.17 18 14:44 08.11.2020
5750 Haze 21 1017 46 3000 0.95 61 14:24 08.11.2020
5751 Haze 24 1017 36 3000 0.95 61 13:57 08.11.2020
5752 Haze 26 1017 31 3000 0.95 61 13:38 08.11.2020
5753 Haze 27 1017 24 3000 1.6 97 13:18 08.11.2020
5754 Haze 28 1017 21 3000 1 60 12:40 08.11.2020
5755 Haze 28 1016 21 3000 2.6 50 12:22 08.11.2020
5756 Haze 28 1016 21 3000 2.6 50 11:56 08.11.2020
5757 Haze 29 1016 20 3000 2.6 50 11:37 08.11.2020
5758 Haze 29 1016 20 3000 2.1 60 11:19 08.11.2020
5759 Haze 29 1017 20 3000 2.1 50 10:42 08.11.2020
5760 Haze 29 1017 23 3000 2.1 60 10:18 08.11.2020
5761 Haze 29 1018 23 4000 2.6 60 09:42 08.11.2020
5762 Haze 29 1018 20 4000 2.6 60 09:22 08.11.2020
5763 Haze 28 1019 21 4000 3.6 50 08:47 08.11.2020
5764 Haze 28 1019 26 4000 1 40 08:23 08.11.2020
5765 Haze 28 1019 26 4000 1 40 07:53 08.11.2020
5766 Haze 27 1020 30 4000 1 50 07:31 08.11.2020
5767 Haze 26 1021 36 4000 1.5 60 06:45 08.11.2020
5768 Haze 23 1021 40 4000 2.99 69 05:54 08.11.2020
5769 Haze 20 1021 52 3000 3.03 59 04:51 08.11.2020
5770 Mist 17 1020 63 2500 2.21 32 03:25 08.11.2020
5771 Haze 15 1017 72 3000 1.5 10 01:19 08.11.2020
5772 Haze 15 1017 72 3000 1.5 10 01:19 08.11.2020
5773 Haze 15 1017 72 3000 1.5 10 01:19 08.11.2020
5774 Haze 15 1017 72 3000 1.5 10 00:31 08.11.2020
5775 Haze 16 1016 72 3000 1 350 23:56 07.11.2020
5776 Haze 16 1016 72 3000 1 350 23:37 07.11.2020
5777 Haze 17 1017 63 3000 1.5 10 23:18 07.11.2020
5778 Haze 17 1017 63 3000 1.5 10 22:39 07.11.2020
5779 Haze 16 1018 72 3000 1.5 360 22:20 07.11.2020
5780 Haze 16 1018 72 3000 1.5 360 21:40 07.11.2020
5781 Haze 16 1018 72 3000 2.09 10 21:19 07.11.2020
5782 Haze 16 1018 72 3000 2.09 10 20:47 07.11.2020
5783 Haze 16 1018 72 3000 2.18 8 20:29 07.11.2020
5784 Haze 17 1018 63 3000 2.18 8 19:49 07.11.2020
5785 Haze 17 1018 63 3000 2.31 12 19:28 07.11.2020
5786 Haze 17 1019 63 3000 1.5 330 18:45 07.11.2020
5787 Haze 17 1019 63 3000 1.5 330 18:27 07.11.2020
5788 Haze 18 1019 63 3000 2.14 17 17:59 07.11.2020
5789 Haze 18 1019 63 3000 2.14 17 17:37 07.11.2020
5790 Haze 18 1019 59 3000 1.69 9 16:57 07.11.2020
5791 Haze 18 1019 59 3000 1.69 9 16:39 07.11.2020
5792 Haze 18 1018 59 3000 1.84 14 16:20 07.11.2020
5793 Haze 19 1018 52 3000 1.84 14 15:42 07.11.2020
5794 Haze 20 1018 52 3000 1.67 21 15:22 07.11.2020
5795 Haze 22 1017 37 3000 1.67 21 14:48 07.11.2020
5796 Haze 22 1017 37 3000 1.27 64 14:29 07.11.2020
5797 Clear 21 1016 39 10000 1.27 64 13:56 07.11.2020
5798 Haze 28 1017 21 4000 1.5 40 13:31 07.11.2020
5799 Haze 28 1017 21 4000 1.5 40 12:52 07.11.2020
5800 Haze 28 1016 24 4000 2.6 70 12:26 07.11.2020
5801 Haze 29 1017 23 4000 2.6 10 11:45 07.11.2020
5802 Haze 29 1017 23 4000 1.5 40 11:23 07.11.2020
5803 Haze 29 1017 23 4000 2.6 80 10:46 07.11.2020
5804 Haze 29 1017 23 4000 2.6 80 10:27 07.11.2020
5805 Haze 29 1017 25 4000 2.6 60 09:54 07.11.2020
5806 Haze 29 1018 23 4000 3.6 50 09:36 07.11.2020
5807 Haze 29 1018 23 4000 2.1 80 08:55 07.11.2020
5808 Haze 29 1019 25 4000 1 60 08:36 07.11.2020
5809 Haze 29 1019 25 4000 1 60 08:36 07.11.2020
5810 Haze 28 1019 28 4000 2.1 60 07:55 07.11.2020
5811 Haze 28 1020 32 4000 1 50 07:31 07.11.2020
5812 Haze 26 1021 34 4000 2.6 80 06:47 07.11.2020
5813 Haze 24 1021 41 3000 1.5 50 05:34 07.11.2020
5814 Haze 17 1019 67 3000 1 10 03:24 07.11.2020
5815 Haze 14 1018 76 3000 2.25 22 01:29 07.11.2020
5816 Haze 14 1017 82 3000 2.2 26 00:59 07.11.2020
5817 Haze 15 1017 77 3000 2.36 16 23:56 06.11.2020
5818 Haze 12 1017 93 3000 2.79 4 23:22 06.11.2020
5819 Haze 12 1017 93 3000 2.79 4 22:42 06.11.2020
5820 Haze 16 1017 72 3000 2.82 354 22:19 06.11.2020
5821 Haze 16 1017 72 3000 2.82 354 21:46 06.11.2020
5822 Clear 17 1017 44 10000 2.6 351 21:22 06.11.2020
5823 Clear 17 1017 44 10000 2.6 351 20:56 06.11.2020
5824 Haze 17 1018 72 3000 2.6 351 20:38 06.11.2020
5825 Haze 17 1018 72 3000 2.4 3 20:18 06.11.2020
5826 Haze 17 1018 72 3000 2.4 3 19:44 06.11.2020
5827 Haze 17 1018 72 3000 2.02 9 19:26 06.11.2020
5828 Haze 17 1019 72 3000 2.18 12 18:45 06.11.2020
5829 Haze 17 1018 72 3000 1.72 28 18:23 06.11.2020
5830 Haze 17 1018 72 3000 1.72 28 17:51 06.11.2020
5831 Haze 17 1018 72 3000 1.92 33 17:27 06.11.2020
5832 Haze 17 1018 72 3000 1.92 33 17:27 06.11.2020
5833 Haze 19 1018 63 3000 1.92 33 16:50 06.11.2020
5834 Haze 19 1018 63 3000 1.92 33 16:31 06.11.2020
5835 Haze 20 1017 49 3000 1.96 29 15:53 06.11.2020
5836 Haze 20 1017 49 3000 1.96 29 15:33 06.11.2020
5837 Haze 20 1017 49 3000 1.74 28 14:54 06.11.2020
5838 Haze 22 1017 40 3000 1.68 37 14:27 06.11.2020
5839 Haze 27 1016 28 4000 1 40 13:47 06.11.2020
5840 Haze 27 1016 28 4000 1 40 13:25 06.11.2020
5841 Haze 29 1016 21 5000 2.1 50 12:47 06.11.2020
5842 Haze 29 1016 21 5000 2.1 50 12:25 06.11.2020
5843 Haze 30 1016 22 5000 2.1 50 11:58 06.11.2020
5844 Haze 30 1016 23 5000 2.1 20 11:36 06.11.2020
5845 Haze 30 1016 23 5000 1.5 60 10:47 06.11.2020
5846 Haze 30 1016 23 5000 1.5 60 10:27 06.11.2020
5847 Haze 30 1017 23 4000 1.5 50 09:50 06.11.2020
5848 Haze 30 1017 25 4000 1.5 70 09:22 06.11.2020
5849 Haze 30 1017 25 4000 1.5 70 08:51 06.11.2020
5850 Haze 29 1018 28 4000 1.5 90 08:29 06.11.2020
5851 Haze 29 1018 28 4000 1.5 80 07:54 06.11.2020
5852 Haze 28 1019 32 4000 3.1 90 07:34 06.11.2020
5853 Haze 27 1019 34 4000 2.1 80 06:59 06.11.2020
5854 Haze 26 1019 34 4000 3.02 65 06:24 06.11.2020
5855 Haze 25 1020 41 4000 3.02 65 05:36 06.11.2020
5856 Haze 15 1016 77 3000 2.13 14 01:23 06.11.2020
5857 Haze 16 1016 72 3000 2.31 6 00:23 06.11.2020
5858 Haze 16 1016 72 3000 2.31 6 23:35 05.11.2020
5859 Haze 16 1016 72 3000 2.45 4 22:58 05.11.2020
5860 Haze 16 1016 72 3000 2.45 4 22:40 05.11.2020
5861 Haze 16 1016 72 3000 2.46 6 22:21 05.11.2020
5862 Haze 16 1016 72 3000 2.46 6 21:43 05.11.2020
5863 Haze 17 1017 72 3000 2.1 8 21:22 05.11.2020
5864 Haze 17 1017 72 3000 2.1 8 20:57 05.11.2020
5865 Haze 17 1017 72 3000 2.1 8 20:39 05.11.2020
5866 Haze 17 1017 67 3000 1.85 17 20:21 05.11.2020
5867 Haze 17 1017 67 3000 1.85 17 19:42 05.11.2020
5868 Haze 19 1017 63 3000 1.97 15 19:23 05.11.2020
5869 Haze 19 1017 63 3000 1.97 15 18:46 05.11.2020
5870 Haze 19 1017 63 3000 1.9 2 18:26 05.11.2020
5871 Haze 18 1017 68 3000 1.9 2 17:52 05.11.2020
5872 Haze 18 1017 68 3000 1.9 2 17:31 05.11.2020
5873 Haze 18 1016 68 3000 1.43 1 16:59 05.11.2020
5874 Haze 19 1016 63 3000 1.43 1 16:41 05.11.2020
5875 Haze 20 1016 60 3000 0.93 60 16:20 05.11.2020
5876 Haze 20 1016 60 3000 0.93 60 15:46 05.11.2020
5877 Haze 22 1015 53 3000 1.12 91 15:22 05.11.2020
5878 Haze 22 1015 53 3000 1.12 91 14:46 05.11.2020
5879 Haze 22 1015 53 3000 0.65 72 14:27 05.11.2020
5880 Haze 28 1014 28 4000 1 30 13:45 05.11.2020
5881 Haze 28 1014 28 4000 1 30 13:26 05.11.2020
5882 Haze 28 1014 24 4000 1 30 12:53 05.11.2020
5883 Haze 29 1014 26 5000 1 20 12:27 05.11.2020
5884 Haze 30 1014 23 5000 0.76 3 11:55 05.11.2020
5885 Haze 31 1014 19 5000 0.76 3 11:30 05.11.2020
5886 Haze 31 1014 18 5000 1.24 15 10:58 05.11.2020
5887 Haze 30 1014 20 5000 1.5 100 10:39 05.11.2020
5888 Haze 31 1014 16 5000 1 170 10:21 05.11.2020
5889 Haze 30 1015 20 5000 1.5 170 09:44 05.11.2020
5890 Haze 30 1015 19 5000 1 130 09:21 05.11.2020
5891 Haze 30 1015 19 5000 1 130 09:21 05.11.2020
5892 Haze 30 1016 20 5000 1.35 39 08:44 05.11.2020
5893 Haze 30 1016 20 5000 1.28 43 08:25 05.11.2020
5894 Haze 29 1017 23 5000 1.28 43 07:30 05.11.2020
5895 Haze 27 1017 30 5000 1.82 48 06:52 05.11.2020
5896 Haze 27 1017 30 5000 1 80 06:34 05.11.2020
5897 Haze 27 1017 30 5000 1 80 06:34 05.11.2020
5898 Haze 22 1018 46 5000 1.93 40 05:22 05.11.2020
5899 Haze 14 1014 76 3000 1.41 28 01:23 05.11.2020
5900 Haze 15 1014 72 3000 1.6 19 00:30 05.11.2020
5901 Haze 15 1014 77 3000 1.36 18 23:44 04.11.2020
5902 Haze 15 1014 77 3000 1.52 10 23:25 04.11.2020
5903 Haze 15 1014 82 3000 1.52 10 22:48 04.11.2020
5904 Haze 15 1014 82 3000 1.65 11 22:24 04.11.2020
5905 Haze 15 1014 82 3000 1.65 11 22:24 04.11.2020
5906 Haze 15 1014 82 3000 1.65 11 21:56 04.11.2020
5907 Haze 15 1014 82 3000 1.65 11 21:36 04.11.2020
5908 Haze 17 1014 77 3000 1.36 22 21:18 04.11.2020
5909 Haze 17 1014 77 3000 1.36 22 20:41 04.11.2020
5910 Haze 17 1014 77 3000 1.51 24 20:23 04.11.2020
5911 Haze 19 1015 63 3000 1.51 24 19:44 04.11.2020
5912 Haze 19 1015 63 3000 1.51 24 19:44 04.11.2020
5913 Haze 19 1015 63 3000 1.88 10 19:26 04.11.2020
5914 Haze 18 1015 72 3000 1.88 10 18:44 04.11.2020
5915 Haze 18 1015 72 3000 2.18 8 18:25 04.11.2020
5916 Haze 18 1015 72 3000 2.18 8 18:25 04.11.2020
5917 Haze 19 1015 68 3000 2.18 8 17:57 04.11.2020
5918 Haze 19 1015 68 3000 2.18 8 17:38 04.11.2020
5919 Haze 19 1014 63 3000 1 60 17:19 04.11.2020
5920 Haze 19 1014 68 3000 1.5 50 16:38 04.11.2020
5921 Haze 20 1014 60 3000 1.65 12 16:20 04.11.2020
5922 Haze 21 1014 56 3000 1.65 12 15:46 04.11.2020
5923 Haze 21 1014 56 3000 1.42 19 15:24 04.11.2020
5924 Haze 22 1013 46 3000 1.42 19 14:48 04.11.2020
5925 Haze 22 1013 46 3000 0.71 1 14:27 04.11.2020
5926 Haze 23 1013 38 3000 0.71 1 13:57 04.11.2020
5927 Haze 25 1012 44 3000 0.71 1 13:39 04.11.2020
5928 Haze 29 1012 42 4000 0.61 355 13:19 04.11.2020
5929 Haze 30 1012 17 4000 0.61 355 12:48 04.11.2020
5930 Haze 31 1012 18 4000 1 310 12:24 04.11.2020
5931 Haze 31 1012 18 4000 1 310 11:55 04.11.2020
5932 Haze 31 1013 18 5000 3.1 340 11:31 04.11.2020
5933 Haze 31 1013 18 5000 3.1 340 10:58 04.11.2020
5934 Haze 31 1013 18 5000 2.6 360 10:39 04.11.2020
5935 Haze 31 1013 18 5000 3.1 350 10:21 04.11.2020
5936 Haze 30 1014 17 5000 2.6 10 09:44 04.11.2020
5937 Haze 30 1014 19 5000 1 310 09:20 04.11.2020
5938 Haze 30 1015 19 5000 2.45 350 08:43 04.11.2020
5939 Haze 30 1015 22 5000 2.26 9 08:18 04.11.2020
5940 Haze 29 1016 23 5000 2.26 9 07:44 04.11.2020
5941 Haze 29 1016 23 5000 2.1 34 07:25 04.11.2020
5942 Haze 27 1017 28 5000 2.36 35 06:41 04.11.2020
5943 Haze 25 1017 33 5000 2.36 33 05:54 04.11.2020
5944 Haze 12 1016 81 2500 2.2 349 02:31 04.11.2020
5945 Haze 14 1015 62 2500 1 10 01:40 04.11.2020
5946 Haze 16 1014 59 2500 1 340 00:40 04.11.2020
5947 Haze 18 1014 48 2500 1 360 23:34 03.11.2020
5948 Haze 18 1015 48 2500 2.6 340 22:59 03.11.2020
5949 Haze 18 1015 48 2500 2.6 340 22:40 03.11.2020
5950 Haze 18 1015 55 2500 2.03 357 22:20 03.11.2020
5951 Haze 18 1015 55 2500 2.03 357 21:55 03.11.2020
5952 Haze 18 1015 55 2500 2.03 357 21:36 03.11.2020
5953 Haze 18 1015 63 2500 1.5 360 21:18 03.11.2020
5954 Haze 18 1015 63 2500 1.5 360 20:41 03.11.2020
5955 Haze 20 1015 52 2500 1 10 20:19 03.11.2020
5956 Haze 20 1015 52 2500 1 10 19:42 03.11.2020
5957 Haze 19 1016 59 2500 1 350 19:19 03.11.2020
5958 Haze 19 1016 59 2500 1 350 18:41 03.11.2020
5959 Haze 19 1016 59 2500 1 350 18:41 03.11.2020
5960 Haze 20 1016 60 2500 1.5 260 18:20 03.11.2020
5961 Haze 20 1016 60 2500 1.5 260 17:54 03.11.2020
5962 Haze 22 1016 46 2500 1.5 20 17:36 03.11.2020
5963 Haze 21 1015 56 2500 2.49 337 16:54 03.11.2020
5964 Haze 22 1015 56 2500 2.49 337 16:31 03.11.2020
5965 Haze 21 1015 60 2500 1 20 15:59 03.11.2020
5966 Haze 22 1015 53 2500 2.11 347 15:41 03.11.2020
5967 Haze 23 1014 49 2500 1.57 354 15:21 03.11.2020
5968 Haze 23 1014 43 2500 1.57 354 14:46 03.11.2020
5969 Haze 23 1014 43 2500 1.22 19 14:27 03.11.2020
5970 Haze 23 1014 43 2500 1.22 19 14:27 03.11.2020
5971 Haze 27 1014 34 4000 1 80 13:43 03.11.2020
5972 Haze 27 1014 34 4000 1 80 13:23 03.11.2020
5973 Haze 30 1013 22 4000 2.1 10 12:48 03.11.2020
5974 Haze 30 1013 22 4000 2.1 10 12:27 03.11.2020
5975 Haze 30 1013 22 4000 3.1 30 11:57 03.11.2020
5976 Haze 31 1013 19 4000 1 20 11:39 03.11.2020
5977 Haze 31 1013 20 4000 2.1 330 11:18 03.11.2020
5978 Haze 30 1014 23 4000 3.1 10 10:39 03.11.2020
5979 Haze 30 1014 23 4000 2.6 40 10:19 03.11.2020
5980 Haze 30 1014 27 4000 2.1 20 09:48 03.11.2020
5981 Haze 30 1014 27 4000 2.1 20 09:27 03.11.2020
5982 Haze 30 1015 20 4000 3.6 180 08:52 03.11.2020
5983 Haze 30 1016 22 3000 4.6 20 08:34 03.11.2020
5984 Haze 29 1017 26 3000 1.5 20 07:49 03.11.2020
5985 Haze 28 1017 32 3000 1.5 40 07:22 03.11.2020
5986 Haze 27 1017 34 3000 1 10 06:43 03.11.2020
5987 Haze 22 1017 53 2500 1 350 04:40 03.11.2020
5988 Haze 17 1015 67 2500 1 10 00:46 03.11.2020
5989 Haze 17 1015 67 2500 1 10 00:25 03.11.2020
5990 Haze 19 1015 59 2500 1 340 23:47 02.11.2020
5991 Haze 19 1015 59 2500 1 340 23:28 02.11.2020
5992 Haze 20 1015 56 2500 2.1 20 22:45 02.11.2020
5993 Haze 20 1015 56 2500 2.1 20 22:27 02.11.2020
5994 Haze 19 1015 63 2500 2.59 357 21:58 02.11.2020
5995 Haze 19 1015 63 2500 2.59 357 21:36 02.11.2020
5996 Haze 19 1016 72 2500 2.55 358 21:18 02.11.2020
5997 Haze 19 1016 72 2500 2.55 358 20:38 02.11.2020
5998 Haze 21 1016 68 2500 2.38 4 20:19 02.11.2020
5999 Haze 21 1016 68 2500 2.38 4 19:44 02.11.2020
6000 Haze 21 1016 68 2500 2.32 11 19:26 02.11.2020
6001 Haze 21 1016 68 2500 2.32 11 19:26 02.11.2020
6002 Haze 22 1017 64 2500 2.32 11 18:43 02.11.2020
6003 Haze 22 1017 64 2500 2.49 15 18:43 02.11.2020
6004 Rain 22 1017 64 2500 2.71 17 18:22 02.11.2020
6005 Haze 22 1017 64 2500 2.71 17 17:59 02.11.2020
6006 Haze 21 1017 68 2500 2.71 17 17:40 02.11.2020
6007 Haze 22 1016 64 2500 3.01 16 17:20 02.11.2020
6008 Haze 23 1016 60 2500 3.01 16 16:48 02.11.2020
6009 Haze 22 1016 64 2500 3.24 19 16:24 02.11.2020
6010 Haze 22 1015 56 2500 3.24 19 15:46 02.11.2020
6011 Haze 22 1015 56 2500 3.23 22 15:24 02.11.2020
6012 Haze 23 1015 53 2500 1 30 14:58 02.11.2020
6013 Haze 24 1014 47 2500 1 70 14:37 02.11.2020
6014 Haze 25 1014 44 2000 1.5 60 14:18 02.11.2020
6015 Haze 26 1014 44 2000 1.5 90 13:42 02.11.2020
6016 Haze 29 1013 35 2500 1.5 40 13:21 02.11.2020
6017 Haze 30 1013 30 2500 1.5 20 12:40 02.11.2020
6018 Haze 30 1013 30 2500 2.1 20 12:20 02.11.2020
6019 Haze 30 1013 28 3000 2.1 10 11:45 02.11.2020
6020 Haze 31 1013 25 4000 3.1 10 11:19 02.11.2020
6021 Haze 31 1014 22 4000 2.1 20 10:44 02.11.2020
6022 Haze 31 1014 22 4000 2.1 20 10:22 02.11.2020
6023 Haze 31 1014 27 4000 2.6 10 09:55 02.11.2020
6024 Haze 31 1015 23 3000 2.6 30 09:25 02.11.2020
6025 Haze 30 1016 27 3000 1.5 10 08:46 02.11.2020
6026 Haze 30 1016 27 3000 1.5 10 08:28 02.11.2020
6027 Haze 29 1016 32 3000 2.1 30 07:54 02.11.2020
6028 Haze 29 1017 32 3000 3.1 40 07:30 02.11.2020
6029 Haze 27 1017 36 3000 2.1 50 06:37 02.11.2020
6030 Haze 24 1018 41 3000 2.1 10 04:55 02.11.2020
6031 Haze 20 1014 56 3000 1 340 01:26 02.11.2020
6032 Haze 19 1014 63 3000 2.71 358 00:36 02.11.2020
6033 Haze 20 1014 56 3000 2.63 2 23:55 01.11.2020
6034 Haze 20 1014 56 3000 2.63 2 23:36 01.11.2020
6035 Haze 20 1014 60 3000 1.5 350 23:18 01.11.2020
6036 Haze 20 1014 60 3000 1.5 350 22:38 01.11.2020
6037 Haze 20 1014 64 3000 2.68 356 22:18 01.11.2020
6038 Haze 20 1014 64 3000 2.68 356 21:41 01.11.2020
6039 Haze 20 1014 64 3000 2.47 359 21:23 01.11.2020
6040 Haze 19 1014 72 3000 2.47 359 20:45 01.11.2020
6041 Haze 19 1014 72 3000 2.45 3 20:25 01.11.2020
6042 Haze 21 1015 68 3000 2.45 3 19:46 01.11.2020
6043 Haze 21 1015 68 3000 2.64 5 19:28 01.11.2020
6044 Haze 21 1015 73 3000 2.64 5 18:57 01.11.2020
6045 Haze 22 1015 64 3000 1 10 18:37 01.11.2020
6046 Haze 22 1015 64 3000 1 360 18:19 01.11.2020
6047 Haze 23 1015 60 3000 1 10 17:43 01.11.2020
6048 Haze 23 1015 60 3000 1 10 17:25 01.11.2020
6049 Haze 23 1014 64 3000 3.07 6 16:44 01.11.2020
6050 Haze 23 1014 64 3000 3.22 11 16:25 01.11.2020
6051 Haze 23 1014 60 3000 3.22 11 15:55 01.11.2020
6052 Haze 23 1014 60 3000 3.22 11 15:37 01.11.2020
6053 Haze 23 1013 53 3000 3.15 22 15:18 01.11.2020
6054 Haze 24 1013 50 3000 3.15 22 14:45 01.11.2020
6055 Haze 25 1013 47 2500 3.2 34 14:22 01.11.2020
6056 Haze 25 1013 47 2500 3.2 34 13:50 01.11.2020
6057 Haze 26 1012 41 2500 3.2 34 13:32 01.11.2020
6058 Haze 28 1012 39 3000 3.18 38 12:58 01.11.2020
6059 Haze 30 1012 33 3000 2.97 37 12:38 01.11.2020
6060 Haze 30 1012 30 3000 2.1 10 12:18 01.11.2020
6061 Haze 31 1012 27 4000 3.1 360 11:46 01.11.2020
6062 Haze 31 1012 27 4000 1 10 11:18 01.11.2020
6063 Haze 31 1013 27 4000 2.6 20 10:42 01.11.2020
6064 Haze 31 1013 27 4000 2.6 20 10:23 01.11.2020
6065 Haze 31 1013 25 4000 2.1 30 09:48 01.11.2020
6066 Haze 30 1014 28 4000 2.1 20 08:55 01.11.2020
6067 Haze 29 1015 32 4000 1.5 40 08:36 01.11.2020
6068 Haze 29 1015 32 4000 1.5 40 07:50 01.11.2020
6069 Haze 27 1016 39 4000 1 40 06:23 01.11.2020
6070 Haze 19 1015 68 2500 1 350 02:22 01.11.2020
6071 Haze 20 1014 68 2500 1.5 340 01:23 01.11.2020
6072 Clear 19 1012 53 10000 2.04 352 23:42 31.10.2020
6073 Haze 19 1013 72 3000 2.23 349 23:23 31.10.2020
6074 Haze 19 1013 72 3000 2.23 349 22:44 31.10.2020
6075 Haze 19 1013 72 3000 2.55 343 22:23 31.10.2020
6076 Clear 20 1012 54 10000 2.55 343 21:46 31.10.2020
6077 Haze 21 1014 64 3000 2.48 343 21:21 31.10.2020
6078 Haze 21 1014 64 3000 2.48 343 20:41 31.10.2020
6079 Haze 21 1014 64 3000 2.2 349 20:20 31.10.2020
6080 Haze 21 1014 64 3000 2.2 349 19:44 31.10.2020
6081 Haze 21 1014 64 3000 2.28 353 19:24 31.10.2020
6082 Haze 21 1014 68 3000 2.28 353 18:59 31.10.2020
6083 Haze 21 1014 68 3000 2.37 357 18:40 31.10.2020
6084 Haze 21 1014 64 3000 2.63 356 17:47 31.10.2020
6085 Haze 21 1014 64 3000 2.69 7 17:26 31.10.2020
6086 Haze 21 1014 64 3000 2.69 7 16:56 31.10.2020
6087 Haze 22 1014 60 3000 2.69 7 16:34 31.10.2020
6088 Haze 23 1014 56 3000 2.76 22 15:55 31.10.2020
6089 Haze 24 1013 47 2500 2.56 34 15:26 31.10.2020
6090 Haze 24 1013 47 2500 2.56 34 14:55 31.10.2020
6091 Haze 24 1013 47 2500 2.56 34 14:32 31.10.2020
6092 Haze 25 1012 44 2500 2.49 43 13:57 31.10.2020
6093 Haze 26 1012 44 2500 2.49 43 13:39 31.10.2020
6094 Haze 29 1012 32 2500 1 50 13:19 31.10.2020
6095 Haze 29 1012 35 2500 1.5 40 12:27 31.10.2020
6096 Haze 31 1011 27 3000 2.1 20 11:42 31.10.2020
6097 Haze 31 1011 27 3000 2.1 20 11:24 31.10.2020
6098 Haze 31 1012 27 3000 2.1 20 10:54 31.10.2020
6099 Haze 30 1012 28 4000 1.5 50 10:32 31.10.2020
6100 Haze 30 1013 27 5000 2.6 50 09:41 31.10.2020
6101 Haze 30 1013 28 5000 3.1 60 09:20 31.10.2020
6102 Haze 30 1014 27 5000 1.5 70 08:28 31.10.2020
6103 Haze 29 1015 32 5000 3.1 50 07:47 31.10.2020
6104 Haze 29 1015 32 5000 3.1 50 07:26 31.10.2020
6105 Haze 28 1016 39 5000 2.1 60 06:37 31.10.2020
6106 Mist 22 1015 64 3000 2.68 14 03:50 31.10.2020
6107 Mist 19 1014 82 2500 1 10 02:51 31.10.2020
6108 Haze 21 1013 77 3000 1.5 10 00:57 31.10.2020
6109 Haze 20 1013 82 3000 1 10 00:21 31.10.2020
6110 Haze 20 1013 82 3000 1 10 23:46 30.10.2020
6111 Haze 21 1013 73 3000 1 10 23:23 30.10.2020
6112 Haze 21 1013 73 3000 1 10 22:43 30.10.2020
6113 Haze 21 1013 73 3000 1 10 22:22 30.10.2020
6114 Haze 21 1013 77 3000 1.61 27 21:50 30.10.2020
6115 Haze 21 1013 77 3000 1.74 21 21:29 30.10.2020
6116 Haze 21 1013 77 3000 1.74 21 20:58 30.10.2020
6117 Haze 21 1013 77 3000 1.74 21 20:37 30.10.2020
6118 Haze 21 1014 77 3000 2.18 15 20:18 30.10.2020
6119 Haze 21 1014 77 3000 2.18 15 20:18 30.10.2020
6120 Haze 21 1014 77 3000 2.18 15 19:41 30.10.2020
6121 Haze 22 1014 73 3000 2.6 18 19:18 30.10.2020
6122 Haze 22 1014 73 3000 2.6 18 18:44 30.10.2020
6123 Haze 22 1014 73 3000 2.75 12 18:24 30.10.2020
6124 Haze 22 1014 73 3000 2.75 12 17:47 30.10.2020
6125 Haze 23 1014 69 3000 2.76 18 17:22 30.10.2020
6126 Rain 23 1014 69 3000 2.76 18 16:55 30.10.2020
6127 Rain 23 1013 69 3000 2.12 35 16:26 30.10.2020
6128 Rain 24 1013 57 3000 2.12 35 15:58 30.10.2020
6129 Rain 23 1013 52 10000 2.12 35 15:40 30.10.2020
6130 Rain 24 1012 54 10000 2.14 61 15:18 30.10.2020
6131 Clear 24 1012 54 10000 2.14 61 14:44 30.10.2020
6132 Clear 24 1011 56 10000 2.59 75 14:25 30.10.2020
6133 Clear 24 1011 56 10000 2.59 75 13:44 30.10.2020
6134 Clouds 25 1010 57 10000 2.68 78 13:21 30.10.2020
6135 Clouds 25 1010 57 10000 2.68 78 12:49 30.10.2020
6136 Clear 29 1010 49 10000 2.73 56 12:22 30.10.2020
6137 Clear 29 1010 49 10000 2.73 56 11:56 30.10.2020
6138 Clouds 30 1010 40 10000 2.95 47 11:22 30.10.2020
6139 Clouds 30 1010 40 10000 2.95 47 10:50 30.10.2020
6140 Clouds 31 1010 37 10000 2.78 43 10:26 30.10.2020
6141 Clouds 31 1010 37 10000 2.78 43 09:56 30.10.2020
6142 Haze 30 1013 42 5000 1 40 09:38 30.10.2020
6143 Haze 30 1013 42 5000 1 40 09:19 30.10.2020
6144 Haze 30 1013 42 5000 1 40 08:32 30.10.2020
6145 Haze 29 1014 48 5000 1 30 07:54 30.10.2020
6146 Haze 29 1015 48 5000 1.5 60 07:36 30.10.2020
6147 Haze 28 1015 51 5000 1 20 07:18 30.10.2020
6148 Haze 27 1016 54 4000 1 20 05:59 30.10.2020
6149 Mist 21 1015 77 2500 1 30 03:47 30.10.2020
6150 Haze 20 1013 77 3000 1 10 01:24 30.10.2020
6151 Haze 20 1013 77 3000 2.01 8 23:59 29.10.2020
6152 Haze 20 1013 77 3000 2.01 8 23:41 29.10.2020
6153 Haze 19 1013 82 3000 1.83 5 23:23 29.10.2020
6154 Haze 19 1013 82 3000 1.83 5 22:44 29.10.2020
6155 Haze 19 1013 82 3000 1.56 8 22:25 29.10.2020
6156 Haze 20 1013 77 3000 1.56 8 21:44 29.10.2020
6157 Haze 20 1013 77 3000 1.13 6 21:24 29.10.2020
6158 Haze 21 1013 73 3000 1.13 6 20:43 29.10.2020
6159 Haze 21 1013 73 3000 0.81 338 20:24 29.10.2020
6160 Clear 22 1013 58 10000 0.81 338 19:56 29.10.2020
6161 Clear 22 1013 58 10000 0.81 338 19:38 29.10.2020
6162 Clouds 22 1013 57 10000 1.22 306 19:18 29.10.2020
6163 Clear 22 1013 58 10000 0.87 317 18:45 29.10.2020
6164 Clear 23 1013 56 10000 1.23 303 18:25 29.10.2020
6165 Clear 23 1013 56 10000 1.23 303 17:42 29.10.2020
6166 Clear 23 1013 53 10000 0.48 269 17:22 29.10.2020
6167 Clear 23 1013 53 10000 0.48 269 17:22 29.10.2020
6168 Clear 23 1013 53 10000 0.48 269 16:52 29.10.2020
6169 Clouds 24 1013 52 10000 1.02 137 16:23 29.10.2020
6170 Clouds 24 1013 52 10000 1.02 137 15:58 29.10.2020
6171 Clouds 24 1013 52 10000 1.02 137 15:40 29.10.2020
6172 Clouds 24 1013 50 10000 1.48 117 15:21 29.10.2020
6173 Clouds 24 1013 50 10000 1.48 117 14:46 29.10.2020
6174 Clouds 25 1012 49 10000 0.97 110 14:24 29.10.2020
6175 Clouds 25 1012 49 10000 0.97 110 13:59 29.10.2020
6176 Clouds 25 1012 49 10000 0.97 110 13:39 29.10.2020
6177 Clear 26 1011 51 10000 0.65 101 13:21 29.10.2020
6178 Clear 26 1011 52 10000 0.65 93 12:40 29.10.2020
6179 Clear 29 1010 47 10000 0.78 37 12:19 29.10.2020
6180 Haze 32 1012 31 5000 2.6 20 11:45 29.10.2020
6181 Haze 32 1012 31 5000 2.6 20 11:24 29.10.2020
6182 Haze 32 1012 31 5000 2.1 40 10:37 29.10.2020
6183 Haze 32 1012 25 5000 1.71 36 10:19 29.10.2020
6184 Haze 32 1012 25 5000 1.71 36 09:53 29.10.2020
6185 Haze 32 1012 25 5000 1.85 46 09:28 29.10.2020
6186 Haze 31 1013 43 5000 1.85 46 08:55 29.10.2020
6187 Haze 31 1013 43 5000 1.85 46 08:33 29.10.2020
6188 Haze 30 1014 45 5000 1.74 55 07:54 29.10.2020
6189 Haze 30 1014 45 5000 1.74 55 07:35 29.10.2020
6190 Clouds 29 1013 46 10000 1.24 43 06:56 29.10.2020
6191 Haze 24 1016 64 4000 1 50 04:52 29.10.2020
6192 Haze 19 1015 82 3000 1 10 02:59 29.10.2020
6193 Clear 20 1012 59 10000 1.43 2 00:57 29.10.2020
6194 Clouds 20 1012 59 10000 1.43 4 00:31 29.10.2020
6195 Clear 20 1012 58 10000 1.58 344 23:45 28.10.2020
6196 Clear 21 1011 57 10000 1.55 337 23:21 28.10.2020
6197 Clear 21 1011 57 10000 1.55 337 22:44 28.10.2020
6198 Haze 20 1013 77 3000 1.66 336 22:26 28.10.2020
6199 Haze 20 1013 77 3000 1.66 336 22:26 28.10.2020
6200 Haze 20 1013 77 3000 1.66 336 21:58 28.10.2020
6201 Haze 20 1013 77 3000 1.66 336 21:39 28.10.2020
6202 Haze 20 1013 77 3000 1.93 334 21:18 28.10.2020
6203 Haze 20 1013 77 3000 1.93 334 20:41 28.10.2020
6204 Haze 22 1014 73 3000 1.99 333 20:20 28.10.2020
6205 Haze 22 1014 73 3000 1.99 333 19:49 28.10.2020
6206 Haze 22 1014 73 3000 1.39 326 19:28 28.10.2020
6207 Clear 22 1013 53 10000 1.25 325 18:47 28.10.2020
6208 Clear 23 1013 52 10000 0.58 279 18:21 28.10.2020
6209 Clear 23 1013 52 10000 0.58 279 17:44 28.10.2020
6210 Clear 23 1013 51 10000 0.81 225 17:25 28.10.2020
6211 Clear 23 1013 51 10000 0.81 225 16:56 28.10.2020
6212 Clear 23 1013 51 10000 0.81 225 16:38 28.10.2020
6213 Clear 24 1013 50 10000 0.63 229 16:19 28.10.2020
6214 Haze 24 1012 60 4000 0.63 229 15:37 28.10.2020
6215 Clear 24 1013 49 10000 0.45 233 15:18 28.10.2020
6216 Haze 25 1012 57 4000 0.45 233 14:42 28.10.2020
6217 Clouds 25 1012 47 10000 0.39 224 14:22 28.10.2020
6218 Clouds 26 1010 50 10000 0.01 4 12:41 28.10.2020
6219 Clouds 29 1010 46 10000 0.22 340 12:22 28.10.2020
6220 Clouds 29 1010 46 10000 0.22 340 11:55 28.10.2020
6221 Clouds 29 1010 46 10000 0.22 340 11:36 28.10.2020
6222 Clear 30 1010 37 10000 0.26 341 11:18 28.10.2020
6223 Haze 33 1012 26 5000 0.26 341 10:42 28.10.2020
6224 Clear 31 1010 35 10000 0.05 53 10:24 28.10.2020
6225 Haze 32 1013 31 5000 0.05 53 09:42 28.10.2020
6226 Haze 32 1013 31 5000 0.57 160 09:22 28.10.2020
6227 Haze 32 1013 33 5000 1 250 08:49 28.10.2020
6228 Haze 32 1013 33 5000 1 250 08:27 28.10.2020
6229 Haze 30 1015 40 5000 1.5 270 07:49 28.10.2020
6230 Haze 30 1015 40 5000 1.5 270 07:30 28.10.2020
6231 Haze 30 1015 40 5000 1.5 270 07:30 28.10.2020
6232 Haze 29 1015 48 4000 0.81 105 06:42 28.10.2020
6233 Clear 28 1014 48 10000 1.13 97 05:53 28.10.2020
6234 Clear 26 1015 52 10000 1.3 97 05:21 28.10.2020
6235 Clear 24 1015 56 10000 1.18 93 04:26 28.10.2020
6236 Mist 18 1013 82 2000 0.93 31 02:26 28.10.2020
6237 Haze 18 1012 88 2500 0.93 31 01:51 28.10.2020
6238 Clear 21 1011 61 10000 1.55 9 00:22 28.10.2020
6239 Clear 21 1011 61 10000 1.55 9 23:43 27.10.2020
6240 Haze 20 1013 82 3000 1.69 5 23:20 27.10.2020
6241 Haze 20 1013 82 3000 1.69 5 22:44 27.10.2020
6242 Haze 20 1013 82 3000 1.44 353 22:19 27.10.2020
6243 Haze 20 1013 82 3000 1.44 353 22:19 27.10.2020
6244 Haze 20 1013 82 3000 1.44 353 21:56 27.10.2020
6245 Haze 20 1013 82 3000 1.44 353 21:37 27.10.2020
6246 Haze 20 1013 82 3000 1.44 353 21:37 27.10.2020
6247 Haze 20 1013 82 3000 1.44 353 21:37 27.10.2020
6248 Clear 22 1012 56 10000 1.08 328 21:19 27.10.2020
6249 Clear 22 1012 56 10000 1.08 328 20:45 27.10.2020
6250 Clear 22 1012 56 10000 0.71 318 20:23 27.10.2020
6251 Clear 22 1012 56 10000 0.71 318 19:40 27.10.2020
6252 Clear 23 1012 55 10000 0.36 337 19:21 27.10.2020
6253 Haze 22 1013 78 3000 0.36 337 18:59 27.10.2020
6254 Haze 22 1013 78 3000 0.36 337 18:40 27.10.2020
6255 Haze 22 1013 78 3000 0.75 332 18:21 27.10.2020
6256 Haze 22 1013 78 3000 0.75 332 17:44 27.10.2020
6257 Haze 23 1013 69 3000 0.62 311 17:22 27.10.2020
6258 Haze 23 1013 69 3000 0.62 311 16:57 27.10.2020
6259 Haze 23 1013 69 3000 0.62 311 16:39 27.10.2020
6260 Haze 23 1013 69 3000 0.75 299 16:21 27.10.2020
6261 Haze 24 1013 64 3000 0.75 299 15:41 27.10.2020
6262 Haze 24 1012 64 3000 0.82 301 15:23 27.10.2020
6263 Haze 25 1012 57 3000 0.82 301 14:48 27.10.2020
6264 Haze 25 1012 57 3000 0.67 325 14:29 27.10.2020
6265 Haze 26 1012 57 4000 0.67 325 13:56 27.10.2020
6266 Haze 26 1012 57 4000 0.67 325 13:56 27.10.2020
6267 Haze 29 1011 54 4000 0.59 357 13:25 27.10.2020
6268 Haze 32 1011 43 5000 0.65 277 12:43 27.10.2020
6269 Haze 33 1010 38 5000 1 190 12:24 27.10.2020
6270 Haze 35 1010 30 5000 1 170 11:44 27.10.2020
6271 Haze 35 1010 30 5000 1 170 11:26 27.10.2020
6272 Haze 34 1010 32 5000 1.5 180 10:54 27.10.2020
6273 Haze 34 1010 32 5000 1 200 10:36 27.10.2020
6274 Haze 33 1010 49 5000 1 280 10:18 27.10.2020
6275 Haze 32 1011 49 5000 1 190 09:28 27.10.2020
6276 Haze 32 1012 49 5000 0.58 349 08:56 27.10.2020
6277 Haze 32 1012 46 5000 0.51 313 08:27 27.10.2020
6278 Haze 31 1013 48 5000 1 160 07:52 27.10.2020
6279 Haze 32 1013 49 5000 1 90 07:33 27.10.2020
6280 Haze 31 1014 52 5000 0.59 292 06:49 27.10.2020
6281 Haze 26 1014 69 5000 1 20 06:19 27.10.2020
6282 Haze 26 1014 69 4000 1.16 19 05:44 27.10.2020
6283 Mist 26 1014 69 3000 1.55 20 04:57 27.10.2020
6284 Mist 21 1012 88 2000 1.5 348 02:40 27.10.2020
6285 Haze 22 1011 83 3000 1.61 337 00:59 27.10.2020
6286 Haze 22 1011 83 3000 1 340 23:57 26.10.2020
6287 Haze 22 1011 83 3000 1 340 23:36 26.10.2020
6288 Haze 22 1011 83 3000 1 340 23:36 26.10.2020
6289 Haze 22 1012 83 3000 1.5 310 22:55 26.10.2020
6290 Haze 22 1012 83 3000 1.5 310 22:29 26.10.2020
6291 Haze 22 1012 83 3000 1 320 21:53 26.10.2020
6292 Haze 22 1013 83 3000 2.23 294 21:21 26.10.2020
6293 Haze 22 1013 83 3000 2.23 294 20:59 26.10.2020
6294 Haze 22 1013 83 3000 2.23 294 20:41 26.10.2020
6295 Haze 22 1013 83 3000 2.31 287 20:22 26.10.2020
6296 Haze 22 1013 83 3000 2.31 287 19:48 26.10.2020
6297 Haze 22 1013 83 3000 2.19 289 19:28 26.10.2020
6298 Haze 23 1014 78 3000 1 240 18:55 26.10.2020
6299 Haze 23 1014 78 3000 1 240 18:36 26.10.2020
6300 Haze 23 1014 78 3000 1.91 307 18:18 26.10.2020
6301 Haze 23 1014 83 3000 1.91 307 17:40 26.10.2020
6302 Haze 23 1014 83 3000 1.91 307 17:40 26.10.2020
6303 Haze 23 1014 83 3000 1 230 17:22 26.10.2020
6304 Haze 23 1014 78 3000 1.5 210 16:43 26.10.2020
6305 Haze 23 1013 83 3000 1.5 210 16:22 26.10.2020
6306 Haze 24 1013 78 3000 1.02 192 15:44 26.10.2020
6307 Haze 24 1013 78 3000 0.53 163 15:25 26.10.2020
6308 Haze 24 1013 78 3000 1.5 210 14:54 26.10.2020
6309 Haze 25 1012 73 3000 2.6 190 14:35 26.10.2020
6310 Haze 28 1011 65 3000 0.3 33 13:46 26.10.2020
6311 Haze 28 1011 65 3000 0.84 24 13:28 26.10.2020
6312 Haze 29 1011 62 3000 1.88 355 12:58 26.10.2020
6313 Haze 29 1011 58 3000 1.88 355 12:36 26.10.2020
6314 Haze 29 1011 32 3000 2.1 250 12:18 26.10.2020
6315 Haze 30 1011 55 3000 5.1 270 11:45 26.10.2020
6316 Haze 32 1011 49 3000 1.38 63 11:23 26.10.2020
6317 Haze 32 1011 49 3000 1.38 63 10:57 26.10.2020
6318 Haze 32 1011 46 3000 1.38 63 10:38 26.10.2020
6319 Haze 33 1012 41 4000 1.14 58 10:18 26.10.2020
6320 Haze 32 1012 46 4000 1.14 58 09:31 26.10.2020
6321 Haze 32 1013 46 5000 1 30 08:55 26.10.2020
6322 Haze 31 1014 52 5000 1 30 08:25 26.10.2020
6323 Haze 31 1014 52 3500 1 30 07:48 26.10.2020
6324 Haze 31 1014 52 3500 1 30 07:28 26.10.2020
6325 Haze 27 1016 69 3000 1 20 05:46 26.10.2020
6326 Mist 24 1015 78 2500 1 20 04:19 26.10.2020
6327 Mist 23 1014 78 2000 1 20 03:21 26.10.2020
6328 Mist 23 1014 78 2000 1 20 03:21 26.10.2020
6329 Haze 22 1013 83 2500 1.38 1 01:34 26.10.2020
6330 Haze 23 1012 83 2500 1.49 349 00:36 26.10.2020
6331 Haze 23 1012 83 2500 1.15 4 23:51 25.10.2020
6332 Haze 23 1012 83 2500 1.15 4 23:30 25.10.2020
6333 Haze 23 1013 83 2500 0.99 22 22:48 25.10.2020
6334 Haze 23 1013 83 2500 0.99 22 22:30 25.10.2020
6335 Haze 24 1013 78 2500 0.74 44 21:55 25.10.2020
6336 Haze 24 1013 78 2500 0.74 44 21:36 25.10.2020
6337 Haze 24 1013 78 2500 0.65 81 21:18 25.10.2020
6338 Haze 24 1013 78 2500 0.65 81 20:43 25.10.2020
6339 Haze 24 1013 78 2500 0.81 62 20:23 25.10.2020
6340 Haze 23 1013 78 2500 0.81 62 19:55 25.10.2020
6341 Haze 23 1013 78 2500 0.81 62 19:37 25.10.2020
6342 Haze 23 1013 78 2500 0.86 22 19:19 25.10.2020
6343 Haze 23 1013 78 2500 0.86 22 18:41 25.10.2020
6344 Haze 24 1013 78 2500 1.21 328 18:22 25.10.2020
6345 Haze 24 1013 78 2500 1.21 328 18:22 25.10.2020
6346 Haze 24 1013 78 2500 1.21 328 17:56 25.10.2020
6347 Haze 24 1013 78 2500 1.21 328 17:38 25.10.2020
6348 Haze 25 1012 69 2500 1.52 308 17:19 25.10.2020
6349 Haze 25 1012 69 2500 1.52 308 16:44 25.10.2020
6350 Haze 25 1012 69 2500 0.98 321 16:25 25.10.2020
6351 Haze 25 1012 65 2500 1 110 15:47 25.10.2020
6352 Haze 25 1012 65 2500 1 110 15:27 25.10.2020
6353 Haze 25 1012 69 2500 0.54 15 14:54 25.10.2020
6354 Haze 25 1011 69 2500 0.54 15 14:30 25.10.2020
6355 Haze 31 1010 55 3000 0.16 332 13:45 25.10.2020
6356 Haze 31 1010 55 3000 0.7 283 13:25 25.10.2020
6357 Haze 31 1010 55 3000 0.16 13 12:56 25.10.2020
6358 Haze 31 1010 55 3000 0.16 13 12:38 25.10.2020
6359 Haze 31 1010 55 3000 1.25 58 12:18 25.10.2020
6360 Haze 32 1010 49 3500 1.25 58 11:42 25.10.2020
6361 Haze 33 1010 41 3500 1.85 51 11:19 25.10.2020
6362 Haze 33 1010 41 3500 1.85 51 10:46 25.10.2020
6363 Haze 33 1010 41 3500 1.9 43 10:26 25.10.2020
6364 Haze 33 1011 43 3500 1.5 90 09:52 25.10.2020
6365 Haze 33 1012 46 4000 1.5 280 09:22 25.10.2020
6366 Haze 33 1012 46 4000 1.5 280 08:59 25.10.2020
6367 Haze 32 1012 49 4000 1 170 08:40 25.10.2020
6368 Haze 31 1013 55 4000 1.43 109 08:22 25.10.2020
6369 Haze 31 1013 55 4000 1.43 109 07:43 25.10.2020
6370 Haze 30 1014 58 4000 1.18 112 06:53 25.10.2020
6371 Haze 30 1014 58 3000 1.27 120 06:27 25.10.2020
6372 Haze 27 1014 65 3000 1.04 97 05:19 25.10.2020
6373 Haze 27 1014 69 3000 1 80 04:48 25.10.2020
6374 Haze 22 1012 83 3000 1.45 48 02:30 25.10.2020
6375 Haze 22 1011 83 3000 0.95 340 00:53 25.10.2020
6376 Haze 22 1011 83 3000 1.1 304 00:28 25.10.2020
6377 Haze 22 1011 83 3000 1.1 304 23:54 24.10.2020
6378 Haze 22 1011 83 3000 1.1 304 23:31 24.10.2020
6379 Haze 23 1011 78 3000 0.95 282 22:58 24.10.2020
6380 Haze 23 1011 78 3000 0.95 282 22:40 24.10.2020
6381 Haze 23 1011 78 3000 0.8 255 22:21 24.10.2020
6382 Haze 23 1012 83 3000 0.8 255 21:44 24.10.2020
6383 Haze 23 1012 83 3000 0.8 255 21:44 24.10.2020
6384 Haze 23 1012 83 3000 0.8 255 21:44 24.10.2020
6385 Haze 23 1012 83 3000 0.93 254 21:22 24.10.2020
6386 Rain 24 1012 78 3000 0.93 254 20:58 24.10.2020
6387 Rain 24 1012 78 3000 0.93 254 20:39 24.10.2020
6388 Haze 23 1012 83 3000 1 50 20:20 24.10.2020
6389 Haze 23 1012 83 3000 1 50 19:40 24.10.2020
6390 Rain 24 1012 78 3000 0.07 281 19:22 24.10.2020
6391 Haze 25 1012 69 3000 2.1 230 18:49 24.10.2020
6392 Rain 25 1012 69 3000 2.1 230 18:28 24.10.2020
6393 Haze 26 1011 65 3000 0.41 117 17:43 24.10.2020
6394 Haze 26 1011 65 3000 1.04 107 17:25 24.10.2020
6395 Haze 25 1010 65 3000 1.04 107 16:48 24.10.2020
6396 Haze 25 1010 65 3000 1.04 107 16:30 24.10.2020
6397 Haze 26 1009 65 3000 1 150 15:42 24.10.2020
6398 Haze 26 1009 65 3000 1 150 15:20 24.10.2020
6399 Haze 27 1009 57 3000 1.3 80 14:57 24.10.2020
6400 Haze 28 1009 65 4000 1.13 57 14:29 24.10.2020
6401 Haze 31 1008 43 4000 0.3 58 13:50 24.10.2020
6402 Haze 31 1008 43 4000 0.79 25 13:31 24.10.2020
6403 Haze 32 1008 38 4000 0.79 25 12:59 24.10.2020
6404 Haze 32 1008 38 4000 0.79 25 12:37 24.10.2020
6405 Haze 32 1008 38 4000 1.29 31 12:19 24.10.2020
6406 Haze 32 1008 38 4000 1.5 20 11:43 24.10.2020
6407 Haze 33 1008 36 4000 1.5 310 11:18 24.10.2020
6408 Haze 33 1009 41 5000 1.52 48 10:39 24.10.2020
6409 Haze 33 1009 43 5000 1.58 60 10:18 24.10.2020
6410 Haze 32 1010 46 4000 1.58 60 09:42 24.10.2020
6411 Haze 32 1010 46 4000 1.36 63 09:22 24.10.2020
6412 Haze 31 1010 48 4000 1.36 63 08:51 24.10.2020
6413 Haze 30 1011 51 4000 1.6 73 08:18 24.10.2020
6414 Haze 30 1011 48 4000 1 330 07:48 24.10.2020
6415 Haze 29 1011 54 4000 1.5 340 07:19 24.10.2020
6416 Haze 28 1012 58 3000 1.93 76 06:44 24.10.2020
6417 Mist 23 1010 83 2500 2.07 54 04:59 24.10.2020
6418 Haze 22 1008 83 2500 1.06 3 02:20 24.10.2020
6419 Clear 22 1008 71 10000 0.94 28 00:44 24.10.2020
6420 Haze 22 1008 83 2500 0.93 17 00:23 24.10.2020
6421 Haze 22 1008 83 2500 0.93 17 23:59 23.10.2020
6422 Haze 22 1008 83 2500 0.93 17 23:37 23.10.2020
6423 Haze 22 1009 83 2500 0.92 18 23:18 23.10.2020
6424 Clear 22 1008 72 10000 0.92 18 22:42 23.10.2020
6425 Clear 22 1008 72 10000 1.24 29 22:21 23.10.2020
6426 Clear 22 1008 72 10000 1.24 29 21:52 23.10.2020
6427 Haze 23 1009 78 2500 1.21 31 21:28 23.10.2020
6428 Haze 23 1009 78 2500 1.21 31 20:43 23.10.2020
6429 Haze 23 1009 78 2500 0.82 17 20:25 23.10.2020
6430 Haze 23 1009 78 2500 1.07 317 19:59 23.10.2020
6431 Haze 23 1009 78 2500 1.07 317 19:34 23.10.2020
6432 Haze 23 1009 78 2500 1 276 18:58 23.10.2020
6433 Clouds 24 1009 62 10000 1 276 18:39 23.10.2020
6434 Haze 24 1009 73 2500 0.64 266 18:19 23.10.2020
6435 Haze 24 1009 73 2500 0.64 266 17:43 23.10.2020
6436 Haze 24 1009 73 2500 0.23 291 17:21 23.10.2020
6437 Haze 25 1008 65 2500 0.23 291 16:46 23.10.2020
6438 Haze 25 1008 65 2500 0.26 305 16:26 23.10.2020
6439 Haze 26 1007 65 2500 0.26 305 15:47 23.10.2020
6440 Haze 27 1007 61 2500 0.44 112 15:25 23.10.2020
6441 Haze 27 1007 61 2500 0.44 112 14:57 23.10.2020
6442 Haze 28 1007 58 2500 0.44 112 14:39 23.10.2020
6443 Haze 29 1007 54 3000 1 120 14:20 23.10.2020
6444 Haze 33 1006 49 3000 1.69 103 13:38 23.10.2020
6445 Haze 33 1006 49 3000 1.35 62 13:20 23.10.2020
6446 Haze 34 1006 28 3000 1 160 12:47 23.10.2020
6447 Haze 34 1006 28 3000 1 160 12:27 23.10.2020
6448 Haze 33 1007 33 4000 1 130 11:47 23.10.2020
6449 Haze 33 1007 33 4000 1 130 11:22 23.10.2020
6450 Haze 33 1007 29 4000 1.71 12 10:46 23.10.2020
6451 Haze 33 1007 29 4000 1.84 17 10:25 23.10.2020
6452 Haze 32 1008 35 5000 1 130 09:46 23.10.2020
6453 Haze 32 1008 35 5000 1 130 09:27 23.10.2020
6454 Haze 32 1008 35 5000 1.5 120 08:53 23.10.2020
6455 Haze 31 1009 40 5000 1.5 30 08:33 23.10.2020
6456 Haze 30 1010 48 4000 1.5 40 07:46 23.10.2020
6457 Haze 29 1010 48 4000 2.15 32 07:22 23.10.2020
6458 Haze 27 1010 57 4000 2.36 16 06:20 23.10.2020
6459 Haze 25 1010 65 4000 2.36 16 05:35 23.10.2020
6460 Haze 21 1007 77 3000 2.6 340 02:32 23.10.2020
6461 Haze 22 1007 73 3000 2.41 341 01:30 23.10.2020
6462 Haze 22 1007 68 3000 1.5 330 00:47 23.10.2020
6463 Haze 23 1007 69 3000 2.07 356 23:48 22.10.2020
6464 Haze 23 1007 69 3000 2.14 355 23:26 22.10.2020
6465 Haze 22 1007 73 3000 2.14 355 22:49 22.10.2020
6466 Haze 22 1007 73 3000 2.09 346 22:27 22.10.2020
6467 Haze 23 1008 78 3000 2.09 346 21:59 22.10.2020
6468 Haze 23 1008 78 3000 2.09 346 21:41 22.10.2020
6469 Haze 23 1008 73 3000 1 300 21:21 22.10.2020
6470 Clear 21 1008 59 10000 1.97 341 20:45 22.10.2020
6471 Haze 24 1009 69 3000 2.06 344 20:26 22.10.2020
6472 Haze 24 1009 69 3000 2.06 344 19:58 22.10.2020
6473 Haze 24 1009 69 3000 2.06 344 19:39 22.10.2020
6474 Haze 24 1009 69 3000 2.32 349 19:18 22.10.2020
6475 Haze 23 1009 69 3000 2.32 349 18:42 22.10.2020
6476 Haze 24 1008 69 3000 2.26 358 18:19 22.10.2020
6477 Haze 24 1008 69 3000 2.26 358 17:45 22.10.2020
6478 Rain 24 1008 64 3000 1.88 1 17:22 22.10.2020
6479 Haze 25 1008 57 3000 1.88 1 16:46 22.10.2020
6480 Haze 25 1008 57 3000 1.22 22 16:25 22.10.2020
6481 Haze 26 1007 50 3000 1.22 22 15:56 22.10.2020
6482 Haze 26 1007 47 4000 1.22 22 15:38 22.10.2020
6483 Haze 27 1007 44 4000 1.33 59 15:19 22.10.2020
6484 Haze 28 1007 51 4000 1.33 59 14:42 22.10.2020
6485 Haze 28 1007 51 4000 1.93 72 14:23 22.10.2020
6486 Clouds 26 1006 58 10000 1.93 72 13:45 22.10.2020
6487 Haze 31 1006 38 5000 1 80 13:23 22.10.2020
6488 Haze 32 1006 35 5000 1.5 90 12:44 22.10.2020
6489 Haze 32 1006 31 5000 2.87 62 12:22 22.10.2020
6490 Haze 33 1006 26 5000 2.1 60 11:47 22.10.2020
6491 Haze 33 1007 26 5000 1.5 20 11:19 22.10.2020
6492 Haze 33 1007 24 5000 1.5 30 10:49 22.10.2020
6493 Haze 33 1007 24 5000 1.5 30 10:26 22.10.2020
6494 Haze 33 1008 29 5000 1.5 50 09:46 22.10.2020
6495 Haze 32 1008 33 5000 1.5 30 09:25 22.10.2020
6496 Haze 31 1009 33 4000 1.5 30 08:47 22.10.2020
6497 Haze 31 1009 33 4000 1.5 30 08:27 22.10.2020
6498 Haze 30 1009 40 4000 1 50 07:48 22.10.2020
6499 Haze 30 1009 40 4000 1 50 07:29 22.10.2020
6500 Haze 26 1009 69 3000 1.5 330 06:46 22.10.2020
6501 Haze 26 1009 69 3000 1.5 330 06:24 22.10.2020
6502 Haze 22 1009 83 3000 1.5 330 05:39 22.10.2020
6503 Mist 21 1008 83 2500 2.1 330 03:26 22.10.2020
6504 Haze 21 1007 77 2500 1 310 01:34 22.10.2020
6505 Haze 21 1007 77 2500 1 310 01:34 22.10.2020
6506 Haze 21 1007 77 2500 1 310 01:34 22.10.2020
6507 Haze 22 1007 78 2500 1 10 00:24 22.10.2020
6508 Haze 23 1007 88 2500 1.5 10 23:44 21.10.2020
6509 Haze 24 1008 88 2500 1.5 360 23:22 21.10.2020
6510 Haze 24 1008 88 2500 1.5 360 22:39 21.10.2020
6511 Haze 24 1009 88 2500 1 350 22:19 21.10.2020
6512 Haze 24 1009 88 2500 1 350 21:46 21.10.2020
6513 Haze 25 1009 83 2500 2.27 357 21:20 21.10.2020
6514 Haze 25 1009 83 2500 2.27 357 20:59 21.10.2020
6515 Haze 25 1009 83 2500 2.27 357 20:40 21.10.2020
6516 Haze 25 1009 83 2500 2.16 1 20:18 21.10.2020
6517 Haze 25 1009 83 2500 2.08 3 19:41 21.10.2020
6518 Haze 25 1009 83 2500 2.29 3 19:22 21.10.2020
6519 Haze 25 1009 83 2500 2.29 3 18:53 21.10.2020
6520 Haze 25 1009 78 2500 2.29 3 18:30 21.10.2020
6521 Haze 26 1009 74 2500 3.04 358 17:51 21.10.2020
6522 Haze 26 1008 74 2500 2.43 8 17:22 21.10.2020
6523 Haze 26 1008 74 2500 2.43 8 16:59 21.10.2020
6524 Haze 26 1008 74 2500 2.43 8 16:59 21.10.2020
6525 Haze 26 1008 74 2500 2.43 8 16:39 21.10.2020
6526 Haze 28 1008 65 2500 1.67 25 16:20 21.10.2020
6527 Haze 28 1007 65 2500 1 20 15:45 21.10.2020
6528 Haze 28 1007 65 2500 1 20 15:22 21.10.2020
6529 Haze 29 1007 58 2500 1 50 14:49 21.10.2020
6530 Haze 30 1006 58 3000 1 60 14:29 21.10.2020
6531 Haze 31 1006 55 3000 1.5 70 13:57 21.10.2020
6532 Haze 32 1007 55 3000 1 50 13:39 21.10.2020
6533 Haze 32 1007 55 3000 1 50 13:20 21.10.2020
6534 Haze 32 1007 52 3000 2.1 60 12:38 21.10.2020
6535 Haze 32 1007 55 3000 1 60 12:19 21.10.2020
6536 Haze 32 1008 49 3000 1.5 330 11:41 21.10.2020
6537 Haze 32 1008 49 3000 1.5 330 11:20 21.10.2020
6538 Haze 32 1008 49 3000 1.5 330 11:20 21.10.2020
6539 Haze 32 1008 52 4000 1.5 40 10:47 21.10.2020
6540 Haze 32 1008 52 4000 1.5 40 10:26 21.10.2020
6541 Haze 32 1009 52 4000 2.1 60 09:57 21.10.2020
6542 Haze 32 1009 52 4000 2.1 360 09:34 21.10.2020
6543 Haze 32 1010 52 4000 1.5 20 08:57 21.10.2020
6544 Haze 31 1010 55 4000 1.5 60 08:38 21.10.2020
6545 Haze 31 1011 55 4000 2.1 360 08:19 21.10.2020
6546 Haze 31 1011 58 4000 1.5 10 07:37 21.10.2020
6547 Haze 30 1011 62 4000 1 10 06:55 21.10.2020
6548 Haze 29 1011 62 3000 1 40 06:30 21.10.2020
6549 Mist 25 1010 83 2000 2.26 31 04:47 21.10.2020
6550 Haze 24 1009 83 3000 1.5 10 02:26 21.10.2020
6551 Haze 25 1009 83 3000 2.12 13 23:51 20.10.2020
6552 Haze 24 1009 88 3000 2.13 20 23:20 20.10.2020
6553 Haze 24 1009 88 3000 2.13 20 22:30 20.10.2020
6554 Haze 25 1010 83 3000 1.77 24 21:51 20.10.2020
6555 Rain 25 1010 78 3000 1.09 24 21:21 20.10.2020
6556 Rain 25 1010 78 3000 1.09 24 20:59 20.10.2020
6557 Haze 25 1010 78 3000 1.09 24 20:41 20.10.2020
6558 Haze 25 1010 78 3000 1.09 24 20:41 20.10.2020
6559 Haze 25 1010 78 3000 0.78 25 20:22 20.10.2020
6560 Haze 26 1010 78 3000 0.5 65 19:44 20.10.2020
6561 Haze 26 1010 78 3000 0.73 49 19:22 20.10.2020
6562 Haze 26 1010 78 3000 0.73 49 18:55 20.10.2020
6563 Haze 26 1010 74 3000 0.73 49 18:37 20.10.2020
6564 Haze 26 1010 74 3000 0.73 49 18:36 20.10.2020
6565 Haze 27 1010 69 3000 1.08 43 17:50 20.10.2020
6566 Haze 27 1010 69 3000 1.08 43 17:32 20.10.2020
6567 Haze 27 1008 61 3000 1.1 54 16:49 20.10.2020
6568 Haze 27 1008 61 3000 1.1 54 16:31 20.10.2020
6569 Haze 28 1008 61 3000 1.02 71 15:59 20.10.2020
6570 Haze 28 1008 61 3000 1.02 71 15:59 20.10.2020
6571 Haze 28 1007 61 3000 1.02 71 15:41 20.10.2020
6572 Haze 28 1007 61 3000 1.29 84 15:22 20.10.2020
6573 Haze 29 1007 54 3000 1.29 84 14:44 20.10.2020
6574 Haze 29 1007 54 3000 1.73 90 14:24 20.10.2020
6575 Haze 30 1006 51 3000 1.84 79 13:56 20.10.2020
6576 Haze 32 1006 49 3000 1 70 13:37 20.10.2020
6577 Haze 32 1006 49 3000 1 70 13:19 20.10.2020
6578 Haze 32 1006 49 3000 2.1 50 12:40 20.10.2020
6579 Haze 33 1006 46 3000 1.5 60 12:22 20.10.2020
6580 Haze 33 1007 46 4000 2.6 50 11:45 20.10.2020
6581 Haze 33 1007 46 4000 2.6 50 11:27 20.10.2020
6582 Haze 33 1008 43 4000 2.5 65 10:40 20.10.2020
6583 Haze 33 1008 43 4000 2.31 59 10:21 20.10.2020
6584 Haze 32 1009 46 4000 1 100 09:43 20.10.2020
6585 Haze 32 1009 46 4000 1 100 09:19 20.10.2020
6586 Haze 32 1009 43 4000 1 120 08:39 20.10.2020
6587 Haze 31 1010 58 3000 1 80 07:54 20.10.2020
6588 Haze 31 1010 58 3000 1.63 63 07:26 20.10.2020
6589 Haze 30 1010 66 3000 1.63 63 06:34 20.10.2020
6590 Mist 29 1010 70 2500 1.67 58 05:53 20.10.2020
6591 Mist 24 1009 88 2000 1 10 03:58 20.10.2020
6592 Mist 24 1008 83 2500 1.68 30 02:30 20.10.2020
6593 Haze 24 1008 88 3000 1.91 14 01:20 20.10.2020
6594 Clouds 22 1006 74 10000 1.91 14 00:49 20.10.2020
6595 Haze 24 1008 88 3000 1 30 00:22 20.10.2020
6596 Haze 24 1008 88 3000 1 30 23:47 19.10.2020
6597 Haze 24 1008 88 3000 1 30 23:24 19.10.2020
6598 Haze 24 1008 88 3000 1 60 22:44 19.10.2020
6599 Haze 24 1008 88 3000 1 60 22:24 19.10.2020
6600 Haze 24 1008 88 3000 1 60 22:24 19.10.2020
6601 Haze 25 1008 83 3000 1 270 21:48 19.10.2020
6602 Haze 25 1008 83 3000 1 270 21:22 19.10.2020
6603 Haze 25 1009 83 3000 1 270 20:52 19.10.2020
6604 Haze 25 1009 83 3000 1 270 20:33 19.10.2020
6605 Haze 26 1009 78 3000 1 40 19:54 19.10.2020
6606 Haze 26 1008 78 3000 1 40 19:36 19.10.2020
6607 Haze 26 1009 78 3000 1 250 19:18 19.10.2020
6608 Rain 26 1009 78 3000 1 250 18:42 19.10.2020
6609 Rain 26 1009 78 3000 1 170 18:18 19.10.2020
6610 Rain 26 1009 78 3000 1 170 18:18 19.10.2020
6611 Rain 26 1008 78 3000 1 40 17:44 19.10.2020
6612 Haze 26 1008 78 3000 1 40 17:24 19.10.2020
6613 Haze 27 1007 69 3000 1 30 16:46 19.10.2020
6614 Haze 27 1007 69 3000 1 30 16:28 19.10.2020
6615 Clear 26 1007 74 10000 1.35 77 15:44 19.10.2020
6616 Clear 27 1006 72 10000 1.65 84 15:25 19.10.2020
6617 Clear 27 1006 72 10000 1.65 84 14:52 19.10.2020
6618 Clouds 28 1006 70 10000 1.62 86 14:27 19.10.2020
6619 Clouds 28 1005 73 10000 0.9 110 13:54 19.10.2020
6620 Clouds 28 1005 73 10000 0.9 110 13:34 19.10.2020
6621 Clouds 30 1005 66 10000 0.98 67 12:59 19.10.2020
6622 Clouds 30 1005 66 10000 0.98 67 12:40 19.10.2020
6623 Rain 31 1005 60 10000 1.64 48 12:22 19.10.2020
6624 Clear 31 1005 60 10000 1.64 48 11:40 19.10.2020
6625 Haze 33 1007 55 5000 1.5 90 11:19 19.10.2020
6626 Haze 33 1007 55 5000 1.5 90 10:43 19.10.2020
6627 Haze 32 1008 59 5000 1.5 70 10:21 19.10.2020
6628 Haze 32 1009 59 5000 1 80 09:50 19.10.2020
6629 Haze 32 1009 59 5000 2.1 110 09:22 19.10.2020
6630 Haze 32 1010 59 5000 1 120 08:49 19.10.2020
6631 Haze 31 1010 62 5000 2.42 79 08:23 19.10.2020
6632 Haze 31 1010 62 5000 2.6 70 07:44 19.10.2020
6633 Haze 30 1011 66 5000 1.5 50 07:19 19.10.2020
6634 Haze 29 1011 74 3000 1 10 06:19 19.10.2020
6635 Mist 25 1009 88 2000 1.76 47 03:50 19.10.2020
6636 Mist 25 1009 88 2000 1.76 47 03:32 19.10.2020
6637 Haze 25 1008 88 3000 1.73 33 00:57 19.10.2020
6638 Haze 25 1008 88 3000 1.92 32 00:24 19.10.2020
6639 Haze 26 1008 83 3000 1 350 23:47 18.10.2020
6640 Haze 26 1008 83 3000 1 350 23:25 18.10.2020
6641 Haze 25 1008 88 3000 1.92 29 22:52 18.10.2020
6642 Haze 25 1009 88 3000 1.87 23 22:22 18.10.2020
6643 Haze 25 1009 88 3000 1.87 23 21:55 18.10.2020
6644 Haze 25 1009 88 3000 1.87 23 21:36 18.10.2020
6645 Haze 26 1009 83 3000 1.91 18 21:18 18.10.2020
6646 Haze 26 1009 83 3000 1.91 18 20:40 18.10.2020
6647 Haze 26 1009 83 3000 1.74 32 20:19 18.10.2020
6648 Haze 26 1009 83 3000 1.77 15 19:43 18.10.2020
6649 Haze 26 1009 83 3000 1.77 12 19:25 18.10.2020
6650 Haze 27 1009 78 3000 1.77 12 18:48 18.10.2020
6651 Haze 27 1009 78 3000 1.53 18 18:26 18.10.2020
6652 Haze 27 1009 78 3000 1.53 18 17:43 18.10.2020
6653 Haze 27 1009 78 3000 1.52 35 17:25 18.10.2020
6654 Haze 28 1008 69 3000 1.52 35 16:45 18.10.2020
6655 Haze 28 1008 69 3000 1.27 40 16:26 18.10.2020
6656 Haze 28 1007 69 3000 1.27 40 15:57 18.10.2020
6657 Haze 28 1007 69 4000 1.27 40 15:39 18.10.2020
6658 Haze 29 1007 70 4000 1.13 54 15:19 18.10.2020
6659 Haze 29 1007 70 4000 1.13 54 14:52 18.10.2020
6660 Rain 28 1006 76 10000 1.75 67 14:28 18.10.2020
6661 Clouds 28 1006 76 10000 1.43 61 13:56 18.10.2020
6662 Clouds 28 1006 76 10000 1.43 61 13:37 18.10.2020
6663 Clouds 30 1005 68 10000 1.63 58 13:18 18.10.2020
6664 Haze 33 1007 52 4000 1.5 40 12:41 18.10.2020
6665 Haze 33 1007 52 4000 1.5 40 12:21 18.10.2020
6666 Haze 33 1007 52 4000 1.5 40 11:41 18.10.2020
6667 Haze 33 1007 52 4000 1.5 40 11:22 18.10.2020
6668 Haze 31 1008 62 5000 1.5 100 10:41 18.10.2020
6669 Haze 32 1008 59 5000 1 90 10:21 18.10.2020
6670 Haze 32 1008 59 5000 1 90 09:51 18.10.2020
6671 Haze 32 1009 59 5000 1 90 09:23 18.10.2020
6672 Haze 32 1009 59 5000 1 90 09:23 18.10.2020
6673 Haze 31 1009 62 5000 1 90 08:58 18.10.2020
6674 Haze 31 1009 62 5000 1 90 08:38 18.10.2020
6675 Haze 30 1011 74 5000 1 90 08:19 18.10.2020
6676 Haze 30 1011 74 5000 1 90 07:29 18.10.2020
6677 Haze 29 1011 70 4000 1 90 05:33 18.10.2020
6678 Mist 25 1009 88 2500 2.08 43 02:56 18.10.2020
6679 Haze 25 1008 88 3000 2.06 50 01:40 18.10.2020
6680 Haze 25 1008 88 3000 2.06 48 00:50 18.10.2020
6681 Haze 25 1008 88 3000 2.06 48 00:32 18.10.2020
6682 Haze 25 1008 94 3000 1.99 53 23:56 17.10.2020
6683 Haze 25 1008 94 3000 1.99 53 23:36 17.10.2020
6684 Haze 25 1008 94 3000 1.57 74 23:18 17.10.2020
6685 Haze 25 1008 94 3000 1.57 74 22:41 17.10.2020
6686 Haze 26 1009 88 3000 1.58 89 22:20 17.10.2020
6687 Haze 26 1009 88 3000 1.58 89 21:47 17.10.2020
6688 Haze 26 1009 88 3000 1.95 81 21:28 17.10.2020
6689 Haze 26 1008 88 3000 1.95 81 20:55 17.10.2020
6690 Haze 26 1008 88 3000 1.95 81 20:36 17.10.2020
6691 Haze 26 1009 88 3000 2.31 63 20:18 17.10.2020
6692 Haze 27 1009 83 3000 2.31 63 19:41 17.10.2020
6693 Haze 27 1009 83 3000 2.3 55 19:18 17.10.2020
6694 Haze 27 1009 83 3000 2.3 55 18:42 17.10.2020
6695 Haze 26 1008 88 3000 2.26 52 18:23 17.10.2020
6696 Haze 27 1008 83 3000 2.26 52 17:43 17.10.2020
6697 Haze 27 1008 83 3000 1 50 17:22 17.10.2020
6698 Haze 27 1008 83 3000 1 60 16:49 17.10.2020
6699 Haze 28 1007 78 3000 1 60 16:23 17.10.2020
6700 Haze 28 1007 78 3000 1 60 15:56 17.10.2020
6701 Haze 28 1007 74 4000 1 70 15:37 17.10.2020
6702 Haze 29 1007 70 4000 1 90 15:19 17.10.2020
6703 Haze 30 1006 66 5000 1 90 14:40 17.10.2020
6704 Haze 31 1006 62 5000 1 90 14:21 17.10.2020
6705 Haze 31 1006 62 5000 1 100 13:48 17.10.2020
6706 Rain 31 1006 62 5000 1 100 13:30 17.10.2020
6707 Rain 31 1006 66 5000 1 60 13:00 17.10.2020
6708 Haze 32 1006 62 5000 1 90 12:39 17.10.2020
6709 Rain 32 1006 62 5000 1 90 12:19 17.10.2020
6710 Haze 31 1006 62 5000 1 100 11:51 17.10.2020
6711 Haze 31 1006 62 5000 1 100 11:28 17.10.2020
6712 Haze 31 1007 62 5000 1 110 10:33 17.10.2020
6713 Haze 31 1008 66 5000 2.1 100 09:53 17.10.2020
6714 Haze 31 1008 66 5000 2.6 80 09:34 17.10.2020
6715 Clouds 30 1007 73 10000 2.83 93 08:59 17.10.2020
6716 Haze 30 1009 74 4000 1.5 90 08:28 17.10.2020
6717 Haze 29 1010 79 3000 2.1 130 07:47 17.10.2020
6718 Haze 29 1010 79 3000 2.1 130 07:27 17.10.2020
6719 Mist 27 1010 83 3000 1.5 100 06:21 17.10.2020
6720 Mist 25 1008 94 1500 1 70 03:47 17.10.2020
6721 Mist 25 1007 94 2000 1.92 54 02:28 17.10.2020
6722 Rain 25 1007 94 2000 2.01 44 00:53 17.10.2020
6723 Mist 25 1007 94 1500 1.86 44 00:18 17.10.2020
6724 Mist 25 1007 94 1500 1.8 58 23:24 16.10.2020
6725 Mist 25 1007 94 1000 1.8 58 22:47 16.10.2020
6726 Mist 25 1007 94 1000 1.74 67 22:25 16.10.2020
6727 Mist 24 1008 94 500 1 170 21:57 16.10.2020
6728 Mist 24 1008 94 500 1 170 21:38 16.10.2020
6729 Mist 25 1008 94 2500 1.91 73 21:20 16.10.2020
6730 Mist 25 1008 94 2500 1.91 73 20:43 16.10.2020
6731 Mist 25 1008 94 2500 2.01 64 20:24 16.10.2020
6732 Mist 25 1008 94 2500 2.1 55 19:45 16.10.2020
6733 Mist 25 1008 94 2500 1.85 63 19:26 16.10.2020
6734 Mist 25 1008 94 2500 1.85 63 18:54 16.10.2020
6735 Mist 25 1008 94 2500 1.85 63 18:33 16.10.2020
6736 Mist 25 1008 94 2500 1.96 71 17:48 16.10.2020
6737 Mist 25 1008 94 2500 2.13 75 17:29 16.10.2020
6738 Mist 25 1007 100 2500 2.13 75 16:54 16.10.2020
6739 Mist 25 1007 94 2500 2.13 75 16:36 16.10.2020
6740 Mist 25 1006 94 3000 2.37 75 16:18 16.10.2020
6741 Mist 26 1005 94 3000 2.53 67 15:24 16.10.2020
6742 Mist 26 1005 94 3000 2.53 67 14:44 16.10.2020
6743 Mist 26 1005 94 3000 2.14 45 14:20 16.10.2020
6744 Mist 26 1005 94 3000 2.32 61 13:58 16.10.2020
6745 Clouds 26 1005 94 3000 2.14 45 13:39 16.10.2020
6746 Clouds 26 1004 94 3000 2.18 50 13:21 16.10.2020
6747 Clouds 25 1005 94 2000 2.18 50 12:50 16.10.2020
6748 Clouds 25 1005 94 1000 1.5 70 12:23 16.10.2020
6749 Clouds 25 1005 100 800 4.1 180 11:49 16.10.2020
6750 Clouds 25 1005 100 800 4.1 180 11:29 16.10.2020
6751 Clouds 27 1006 88 2500 1.5 270 10:59 16.10.2020
6752 Rain 27 1006 88 2500 1.5 270 10:38 16.10.2020
6753 Clouds 27 1007 88 1500 1.5 220 10:20 16.10.2020
6754 Rain 28 1007 83 2500 1.5 190 09:38 16.10.2020
6755 Haze 28 1008 78 2000 1.5 130 09:20 16.10.2020
6756 Haze 29 1008 74 3000 1.5 150